<?xml version="1.0" encoding="UTF-8"?><gpx creator="Wikiloc - https://www.wikiloc.com" version="1.1" xmlns="http://www.topografix.com/GPX/1/1" xmlns:xsi="http://www.w3.org/2001/XMLSchema-instance" xsi:schemaLocation="http://www.topografix.com/GPX/1/1 http://www.topografix.com/GPX/1/1/gpx.xsd"><metadata><name>Wikiloc - Likya Yolu (Doğu Likya Sahil Rotası) / Çıralı - Maden Koyu - Tekirova</name><author><name>Cengiz İspir</name><link href="https://www.wikiloc.com/wikiloc/user.do?id=5004726"><text>Cengiz İspir on Wikiloc</text></link></author><link href="https://www.wikiloc.com/hiking-trails/likya-yolu-dogu-likya-sahil-rotasi-cirali-maden-koyu-tekirova-116351378"><text>Likya Yolu (Doğu Likya Sahil Rotası) / Çıralı - Maden Koyu - Tekirova on Wikiloc</text></link><time>2022-10-15T14:56:29Z</time></metadata><wpt lat="36.435190" lon="30.480184"><ele>83.6</ele><time>2022-10-15T10:41:24Z</time><name>Boncuk Koyu Seyir Noktası</name><cmt></cmt><desc></desc></wpt><wpt lat="36.437269" lon="30.482917"><ele>10.9</ele><time>2022-10-15T10:53:59Z</time><name>Boncuk Koyu</name><cmt></cmt><desc></desc></wpt><wpt lat="36.438757" lon="30.487166"><ele>12.8</ele><time>2022-10-15T11:09:16Z</time><name>Maden Koyu</name><cmt></cmt><desc></desc></wpt><wpt lat="36.439044" lon="30.491891"><ele>3.0</ele><time>2022-10-15T11:20:03Z</time><name>Çeşme</name><cmt></cmt><desc></desc></wpt><wpt lat="36.438706" lon="30.494760"><ele>89.1</ele><time>2022-10-15T11:34:35Z</time><name>Maden Koyu Seyir Noktası</name><cmt></cmt><desc></desc></wpt><wpt lat="36.460284" lon="30.505225"><ele>10.4</ele><time>2022-10-15T12:33:08Z</time><name>Bilgi Panosu / Kavşak</name><cmt></cmt><desc></desc></wpt><wpt lat="36.461444" lon="30.504900"><ele>17.9</ele><time>2022-10-15T12:35:51Z</time><name>Çeşme</name><cmt></cmt><desc></desc></wpt><wpt lat="36.461139" lon="30.509668"><ele>54.3</ele><time>2022-10-15T12:59:02Z</time><name>Beycik Bükü Seyir Noktası</name><cmt></cmt><desc></desc></wpt><wpt lat="36.463616" lon="30.507454"><ele>68.5</ele><time>2022-10-15T13:03:45Z</time><name>Teke Koyu Seyir Noktası</name><cmt></cmt><desc></desc></wpt><wpt lat="36.468775" lon="30.502983"><ele>10.6</ele><time>2022-10-15T13:10:38Z</time><name>Su ve Bilgilendirme Tabelası</name><cmt></cmt><desc></desc></wpt><wpt lat="36.469819" lon="30.502525"><ele>14.2</ele><time>2022-10-15T13:15:52Z</time><name>Bilgilendirme Panosu</name><cmt></cmt><desc></desc></wpt><wpt lat="36.479381" lon="30.515251"><ele>12.0</ele><time>2022-10-15T13:48:55Z</time><name>Su ve bilgilendirme Panosu</name><cmt></cmt><desc></desc></wpt><wpt lat="36.490455" lon="30.521547"><ele>33.3</ele><time>2022-10-15T14:20:29Z</time><name>LY Tabelası</name><cmt></cmt><desc></desc></wpt><wpt lat="36.505744" lon="30.522532"><ele>33.3</ele><time>2022-10-15T14:56:05Z</time><name>LY Tabelası</name><cmt></cmt><desc></desc></wpt><trk><name>Likya Yolu (Doğu Likya Sahil Rotası) / Çıralı - Maden Koyu -...</name><cmt></cmt><desc></desc><trkseg><trkpt lat="36.411474" lon="30.480109"><ele>9.021</ele><time>2022-10-15T09:24:54Z</time></trkpt><trkpt lat="36.411534" lon="30.480126"><ele>9.541</ele><time>2022-10-15T09:24:56Z</time></trkpt><trkpt lat="36.411582" lon="30.480163"><ele>9.505</ele><time>2022-10-15T09:25:00Z</time></trkpt><trkpt lat="36.411629" lon="30.480165"><ele>10.009</ele><time>2022-10-15T09:25:02Z</time></trkpt><trkpt lat="36.411675" lon="30.480156"><ele>9.463</ele><time>2022-10-15T09:25:05Z</time></trkpt><trkpt lat="36.411721" lon="30.480158"><ele>10.073</ele><time>2022-10-15T09:25:08Z</time></trkpt><trkpt lat="36.411772" lon="30.480181"><ele>9.348</ele><time>2022-10-15T09:25:12Z</time></trkpt><trkpt lat="36.411817" lon="30.480198"><ele>9.455</ele><time>2022-10-15T09:25:17Z</time></trkpt><trkpt lat="36.411864" lon="30.480226"><ele>9.837</ele><time>2022-10-15T09:25:21Z</time></trkpt><trkpt lat="36.411913" lon="30.480253"><ele>9.623</ele><time>2022-10-15T09:25:26Z</time></trkpt><trkpt lat="36.411959" lon="30.480268"><ele>9.645</ele><time>2022-10-15T09:25:30Z</time></trkpt><trkpt lat="36.412004" lon="30.480276"><ele>9.639</ele><time>2022-10-15T09:25:34Z</time></trkpt><trkpt lat="36.412047" lon="30.480292"><ele>9.620</ele><time>2022-10-15T09:25:38Z</time></trkpt><trkpt lat="36.412105" lon="30.480302"><ele>9.446</ele><time>2022-10-15T09:25:42Z</time></trkpt><trkpt lat="36.412156" lon="30.480311"><ele>9.288</ele><time>2022-10-15T09:25:46Z</time></trkpt><trkpt lat="36.412201" lon="30.480322"><ele>8.116</ele><time>2022-10-15T09:25:49Z</time></trkpt><trkpt lat="36.412254" lon="30.480322"><ele>6.909</ele><time>2022-10-15T09:25:53Z</time></trkpt><trkpt lat="36.412301" lon="30.480317"><ele>6.555</ele><time>2022-10-15T09:25:57Z</time></trkpt><trkpt lat="36.412353" lon="30.480303"><ele>6.535</ele><time>2022-10-15T09:26:01Z</time></trkpt><trkpt lat="36.412402" lon="30.480295"><ele>6.960</ele><time>2022-10-15T09:26:05Z</time></trkpt><trkpt lat="36.412456" lon="30.480290"><ele>7.117</ele><time>2022-10-15T09:26:09Z</time></trkpt><trkpt lat="36.412503" lon="30.480309"><ele>7.129</ele><time>2022-10-15T09:26:13Z</time></trkpt><trkpt lat="36.412550" lon="30.480330"><ele>6.875</ele><time>2022-10-15T09:26:17Z</time></trkpt><trkpt lat="36.412598" lon="30.480352"><ele>6.817</ele><time>2022-10-15T09:26:21Z</time></trkpt><trkpt lat="36.412653" lon="30.480360"><ele>5.731</ele><time>2022-10-15T09:26:25Z</time></trkpt><trkpt lat="36.412698" lon="30.480381"><ele>5.682</ele><time>2022-10-15T09:26:29Z</time></trkpt><trkpt lat="36.412747" lon="30.480398"><ele>5.483</ele><time>2022-10-15T09:26:33Z</time></trkpt><trkpt lat="36.412804" lon="30.480418"><ele>5.325</ele><time>2022-10-15T09:26:37Z</time></trkpt><trkpt lat="36.412861" lon="30.480436"><ele>5.417</ele><time>2022-10-15T09:26:41Z</time></trkpt><trkpt lat="36.412912" lon="30.480455"><ele>5.509</ele><time>2022-10-15T09:26:45Z</time></trkpt><trkpt lat="36.412960" lon="30.480470"><ele>5.949</ele><time>2022-10-15T09:26:49Z</time></trkpt><trkpt lat="36.413006" lon="30.480473"><ele>6.459</ele><time>2022-10-15T09:26:53Z</time></trkpt><trkpt lat="36.413053" lon="30.480490"><ele>6.544</ele><time>2022-10-15T09:26:57Z</time></trkpt><trkpt lat="36.413108" lon="30.480490"><ele>8.141</ele><time>2022-10-15T09:27:01Z</time></trkpt><trkpt lat="36.413158" lon="30.480505"><ele>8.653</ele><time>2022-10-15T09:27:06Z</time></trkpt><trkpt lat="36.413210" lon="30.480522"><ele>8.629</ele><time>2022-10-15T09:27:11Z</time></trkpt><trkpt lat="36.413265" lon="30.480523"><ele>8.671</ele><time>2022-10-15T09:27:15Z</time></trkpt><trkpt lat="36.413310" lon="30.480522"><ele>8.625</ele><time>2022-10-15T09:27:19Z</time></trkpt><trkpt lat="36.413358" lon="30.480531"><ele>8.766</ele><time>2022-10-15T09:27:22Z</time></trkpt><trkpt lat="36.413410" lon="30.480536"><ele>10.011</ele><time>2022-10-15T09:27:26Z</time></trkpt><trkpt lat="36.413465" lon="30.480534"><ele>11.221</ele><time>2022-10-15T09:27:30Z</time></trkpt><trkpt lat="36.413516" lon="30.480536"><ele>11.503</ele><time>2022-10-15T09:27:34Z</time></trkpt><trkpt lat="36.413568" lon="30.480535"><ele>11.709</ele><time>2022-10-15T09:27:38Z</time></trkpt><trkpt lat="36.413620" lon="30.480535"><ele>11.612</ele><time>2022-10-15T09:27:42Z</time></trkpt><trkpt lat="36.413669" lon="30.480536"><ele>11.582</ele><time>2022-10-15T09:27:46Z</time></trkpt><trkpt lat="36.413718" lon="30.480531"><ele>11.317</ele><time>2022-10-15T09:27:50Z</time></trkpt><trkpt lat="36.413778" lon="30.480527"><ele>11.224</ele><time>2022-10-15T09:27:54Z</time></trkpt><trkpt lat="36.413833" lon="30.480525"><ele>10.986</ele><time>2022-10-15T09:27:58Z</time></trkpt><trkpt lat="36.413887" lon="30.480530"><ele>10.392</ele><time>2022-10-15T09:28:02Z</time></trkpt><trkpt lat="36.413937" lon="30.480532"><ele>9.614</ele><time>2022-10-15T09:28:06Z</time></trkpt><trkpt lat="36.413983" lon="30.480533"><ele>9.578</ele><time>2022-10-15T09:28:09Z</time></trkpt><trkpt lat="36.414029" lon="30.480517"><ele>9.519</ele><time>2022-10-15T09:28:13Z</time></trkpt><trkpt lat="36.414078" lon="30.480515"><ele>9.651</ele><time>2022-10-15T09:28:17Z</time></trkpt><trkpt lat="36.414124" lon="30.480510"><ele>9.601</ele><time>2022-10-15T09:28:21Z</time></trkpt><trkpt lat="36.414177" lon="30.480509"><ele>9.411</ele><time>2022-10-15T09:28:25Z</time></trkpt><trkpt lat="36.414234" lon="30.480496"><ele>9.709</ele><time>2022-10-15T09:28:29Z</time></trkpt><trkpt lat="36.414285" lon="30.480496"><ele>9.436</ele><time>2022-10-15T09:28:33Z</time></trkpt><trkpt lat="36.414330" lon="30.480486"><ele>9.136</ele><time>2022-10-15T09:28:37Z</time></trkpt><trkpt lat="36.414381" lon="30.480474"><ele>9.331</ele><time>2022-10-15T09:28:41Z</time></trkpt><trkpt lat="36.414430" lon="30.480471"><ele>9.468</ele><time>2022-10-15T09:28:45Z</time></trkpt><trkpt lat="36.414483" lon="30.480471"><ele>9.350</ele><time>2022-10-15T09:28:49Z</time></trkpt><trkpt lat="36.414535" lon="30.480472"><ele>9.096</ele><time>2022-10-15T09:28:53Z</time></trkpt><trkpt lat="36.414583" lon="30.480471"><ele>9.038</ele><time>2022-10-15T09:28:57Z</time></trkpt><trkpt lat="36.414630" lon="30.480488"><ele>9.162</ele><time>2022-10-15T09:29:01Z</time></trkpt><trkpt lat="36.414678" lon="30.480504"><ele>9.033</ele><time>2022-10-15T09:29:05Z</time></trkpt><trkpt lat="36.414725" lon="30.480515"><ele>9.092</ele><time>2022-10-15T09:29:09Z</time></trkpt><trkpt lat="36.414768" lon="30.480534"><ele>9.473</ele><time>2022-10-15T09:29:13Z</time></trkpt><trkpt lat="36.414817" lon="30.480557"><ele>12.020</ele><time>2022-10-15T09:29:17Z</time></trkpt><trkpt lat="36.414868" lon="30.480568"><ele>12.809</ele><time>2022-10-15T09:29:21Z</time></trkpt><trkpt lat="36.414916" lon="30.480584"><ele>12.980</ele><time>2022-10-15T09:29:25Z</time></trkpt><trkpt lat="36.414963" lon="30.480599"><ele>12.970</ele><time>2022-10-15T09:29:29Z</time></trkpt><trkpt lat="36.415011" lon="30.480613"><ele>12.545</ele><time>2022-10-15T09:29:33Z</time></trkpt><trkpt lat="36.415059" lon="30.480633"><ele>11.452</ele><time>2022-10-15T09:29:37Z</time></trkpt><trkpt lat="36.415103" lon="30.480664"><ele>10.714</ele><time>2022-10-15T09:29:41Z</time></trkpt><trkpt lat="36.415150" lon="30.480671"><ele>9.420</ele><time>2022-10-15T09:29:45Z</time></trkpt><trkpt lat="36.415200" lon="30.480676"><ele>9.382</ele><time>2022-10-15T09:29:49Z</time></trkpt><trkpt lat="36.415243" lon="30.480693"><ele>9.556</ele><time>2022-10-15T09:29:53Z</time></trkpt><trkpt lat="36.415295" lon="30.480707"><ele>9.327</ele><time>2022-10-15T09:29:57Z</time></trkpt><trkpt lat="36.415343" lon="30.480732"><ele>9.495</ele><time>2022-10-15T09:30:01Z</time></trkpt><trkpt lat="36.415387" lon="30.480753"><ele>9.449</ele><time>2022-10-15T09:30:05Z</time></trkpt><trkpt lat="36.415436" lon="30.480766"><ele>9.123</ele><time>2022-10-15T09:30:09Z</time></trkpt><trkpt lat="36.415478" lon="30.480795"><ele>8.909</ele><time>2022-10-15T09:30:13Z</time></trkpt><trkpt lat="36.415531" lon="30.480822"><ele>9.040</ele><time>2022-10-15T09:30:17Z</time></trkpt><trkpt lat="36.415576" lon="30.480860"><ele>8.970</ele><time>2022-10-15T09:30:21Z</time></trkpt><trkpt lat="36.415615" lon="30.480901"><ele>9.625</ele><time>2022-10-15T09:30:25Z</time></trkpt><trkpt lat="36.415659" lon="30.480922"><ele>9.612</ele><time>2022-10-15T09:30:29Z</time></trkpt><trkpt lat="36.415708" lon="30.480939"><ele>9.614</ele><time>2022-10-15T09:30:33Z</time></trkpt><trkpt lat="36.415757" lon="30.480958"><ele>9.820</ele><time>2022-10-15T09:30:37Z</time></trkpt><trkpt lat="36.415804" lon="30.480981"><ele>9.852</ele><time>2022-10-15T09:30:41Z</time></trkpt><trkpt lat="36.415835" lon="30.481025"><ele>10.076</ele><time>2022-10-15T09:30:45Z</time></trkpt><trkpt lat="36.415883" lon="30.481046"><ele>10.917</ele><time>2022-10-15T09:30:49Z</time></trkpt><trkpt lat="36.415929" lon="30.481060"><ele>12.197</ele><time>2022-10-15T09:30:53Z</time></trkpt><trkpt lat="36.415971" lon="30.481080"><ele>12.623</ele><time>2022-10-15T09:30:57Z</time></trkpt><trkpt lat="36.416024" lon="30.481104"><ele>12.625</ele><time>2022-10-15T09:31:01Z</time></trkpt><trkpt lat="36.416076" lon="30.481127"><ele>12.609</ele><time>2022-10-15T09:31:05Z</time></trkpt><trkpt lat="36.416123" lon="30.481155"><ele>11.210</ele><time>2022-10-15T09:31:10Z</time></trkpt><trkpt lat="36.416166" lon="30.481184"><ele>10.030</ele><time>2022-10-15T09:31:14Z</time></trkpt><trkpt lat="36.416208" lon="30.481215"><ele>9.165</ele><time>2022-10-15T09:31:18Z</time></trkpt><trkpt lat="36.416251" lon="30.481249"><ele>9.112</ele><time>2022-10-15T09:31:22Z</time></trkpt><trkpt lat="36.416297" lon="30.481267"><ele>9.154</ele><time>2022-10-15T09:31:26Z</time></trkpt><trkpt lat="36.416338" lon="30.481303"><ele>9.130</ele><time>2022-10-15T09:31:30Z</time></trkpt><trkpt lat="36.416377" lon="30.481343"><ele>8.812</ele><time>2022-10-15T09:31:34Z</time></trkpt><trkpt lat="36.416420" lon="30.481374"><ele>8.836</ele><time>2022-10-15T09:31:38Z</time></trkpt><trkpt lat="36.416465" lon="30.481404"><ele>8.717</ele><time>2022-10-15T09:31:42Z</time></trkpt><trkpt lat="36.416517" lon="30.481425"><ele>8.317</ele><time>2022-10-15T09:31:46Z</time></trkpt><trkpt lat="36.416567" lon="30.481446"><ele>8.087</ele><time>2022-10-15T09:31:50Z</time></trkpt><trkpt lat="36.416612" lon="30.481472"><ele>7.615</ele><time>2022-10-15T09:31:54Z</time></trkpt><trkpt lat="36.416661" lon="30.481483"><ele>7.409</ele><time>2022-10-15T09:31:58Z</time></trkpt><trkpt lat="36.416703" lon="30.481515"><ele>7.342</ele><time>2022-10-15T09:32:02Z</time></trkpt><trkpt lat="36.416746" lon="30.481543"><ele>7.232</ele><time>2022-10-15T09:32:06Z</time></trkpt><trkpt lat="36.416796" lon="30.481570"><ele>6.617</ele><time>2022-10-15T09:32:10Z</time></trkpt><trkpt lat="36.416844" lon="30.481595"><ele>6.584</ele><time>2022-10-15T09:32:14Z</time></trkpt><trkpt lat="36.416901" lon="30.481608"><ele>6.526</ele><time>2022-10-15T09:32:18Z</time></trkpt><trkpt lat="36.416946" lon="30.481629"><ele>6.692</ele><time>2022-10-15T09:32:21Z</time></trkpt><trkpt lat="36.416998" lon="30.481650"><ele>7.014</ele><time>2022-10-15T09:32:25Z</time></trkpt><trkpt lat="36.417045" lon="30.481667"><ele>7.258</ele><time>2022-10-15T09:32:29Z</time></trkpt><trkpt lat="36.417090" lon="30.481690"><ele>7.499</ele><time>2022-10-15T09:32:33Z</time></trkpt><trkpt lat="36.417136" lon="30.481703"><ele>8.558</ele><time>2022-10-15T09:32:37Z</time></trkpt><trkpt lat="36.417180" lon="30.481731"><ele>9.252</ele><time>2022-10-15T09:32:41Z</time></trkpt><trkpt lat="36.417229" lon="30.481752"><ele>9.217</ele><time>2022-10-15T09:32:45Z</time></trkpt><trkpt lat="36.417276" lon="30.481765"><ele>9.309</ele><time>2022-10-15T09:32:49Z</time></trkpt><trkpt lat="36.417324" lon="30.481781"><ele>9.416</ele><time>2022-10-15T09:32:53Z</time></trkpt><trkpt lat="36.417379" lon="30.481786"><ele>9.186</ele><time>2022-10-15T09:32:58Z</time></trkpt><trkpt lat="36.417427" lon="30.481785"><ele>8.931</ele><time>2022-10-15T09:33:02Z</time></trkpt><trkpt lat="36.417474" lon="30.481802"><ele>8.878</ele><time>2022-10-15T09:33:06Z</time></trkpt><trkpt lat="36.417523" lon="30.481812"><ele>8.640</ele><time>2022-10-15T09:33:10Z</time></trkpt><trkpt lat="36.417578" lon="30.481833"><ele>6.686</ele><time>2022-10-15T09:33:15Z</time></trkpt><trkpt lat="36.417629" lon="30.481842"><ele>5.628</ele><time>2022-10-15T09:33:19Z</time></trkpt><trkpt lat="36.417672" lon="30.481866"><ele>5.532</ele><time>2022-10-15T09:33:24Z</time></trkpt><trkpt lat="36.417720" lon="30.481887"><ele>5.583</ele><time>2022-10-15T09:33:28Z</time></trkpt><trkpt lat="36.417780" lon="30.481899"><ele>5.632</ele><time>2022-10-15T09:33:31Z</time></trkpt><trkpt lat="36.417830" lon="30.481921"><ele>7.092</ele><time>2022-10-15T09:33:34Z</time></trkpt><trkpt lat="36.417873" lon="30.481949"><ele>7.711</ele><time>2022-10-15T09:33:38Z</time></trkpt><trkpt lat="36.417926" lon="30.481965"><ele>7.709</ele><time>2022-10-15T09:33:44Z</time></trkpt><trkpt lat="36.417968" lon="30.482002"><ele>6.334</ele><time>2022-10-15T09:33:49Z</time></trkpt><trkpt lat="36.418020" lon="30.482016"><ele>5.894</ele><time>2022-10-15T09:33:54Z</time></trkpt><trkpt lat="36.418072" lon="30.482022"><ele>4.119</ele><time>2022-10-15T09:33:58Z</time></trkpt><trkpt lat="36.418122" lon="30.482018"><ele>3.716</ele><time>2022-10-15T09:34:00Z</time></trkpt><trkpt lat="36.418175" lon="30.482022"><ele>3.628</ele><time>2022-10-15T09:34:03Z</time></trkpt><trkpt lat="36.418222" lon="30.482032"><ele>3.664</ele><time>2022-10-15T09:34:06Z</time></trkpt><trkpt lat="36.418274" lon="30.482041"><ele>3.636</ele><time>2022-10-15T09:34:10Z</time></trkpt><trkpt lat="36.418330" lon="30.482039"><ele>4.560</ele><time>2022-10-15T09:34:14Z</time></trkpt><trkpt lat="36.418385" lon="30.482036"><ele>4.821</ele><time>2022-10-15T09:34:18Z</time></trkpt><trkpt lat="36.418439" lon="30.482036"><ele>5.799</ele><time>2022-10-15T09:34:22Z</time></trkpt><trkpt lat="36.418484" lon="30.482050"><ele>8.207</ele><time>2022-10-15T09:34:26Z</time></trkpt><trkpt lat="36.418539" lon="30.482071"><ele>9.927</ele><time>2022-10-15T09:34:30Z</time></trkpt><trkpt lat="36.418592" lon="30.482079"><ele>10.109</ele><time>2022-10-15T09:34:34Z</time></trkpt><trkpt lat="36.418646" lon="30.482093"><ele>10.130</ele><time>2022-10-15T09:34:38Z</time></trkpt><trkpt lat="36.418690" lon="30.482106"><ele>10.040</ele><time>2022-10-15T09:34:41Z</time></trkpt><trkpt lat="36.418739" lon="30.482116"><ele>9.995</ele><time>2022-10-15T09:34:44Z</time></trkpt><trkpt lat="36.418789" lon="30.482125"><ele>9.462</ele><time>2022-10-15T09:34:48Z</time></trkpt><trkpt lat="36.418836" lon="30.482149"><ele>9.424</ele><time>2022-10-15T09:34:52Z</time></trkpt><trkpt lat="36.418890" lon="30.482167"><ele>9.380</ele><time>2022-10-15T09:34:57Z</time></trkpt><trkpt lat="36.418941" lon="30.482186"><ele>9.462</ele><time>2022-10-15T09:35:01Z</time></trkpt><trkpt lat="36.418989" lon="30.482203"><ele>9.476</ele><time>2022-10-15T09:35:05Z</time></trkpt><trkpt lat="36.419031" lon="30.482227"><ele>9.287</ele><time>2022-10-15T09:35:09Z</time></trkpt><trkpt lat="36.419080" lon="30.482242"><ele>8.895</ele><time>2022-10-15T09:35:13Z</time></trkpt><trkpt lat="36.419130" lon="30.482262"><ele>8.749</ele><time>2022-10-15T09:35:17Z</time></trkpt><trkpt lat="36.419180" lon="30.482278"><ele>8.323</ele><time>2022-10-15T09:35:21Z</time></trkpt><trkpt lat="36.419228" lon="30.482304"><ele>7.809</ele><time>2022-10-15T09:35:25Z</time></trkpt><trkpt lat="36.419270" lon="30.482329"><ele>7.710</ele><time>2022-10-15T09:35:29Z</time></trkpt><trkpt lat="36.419324" lon="30.482340"><ele>7.460</ele><time>2022-10-15T09:35:33Z</time></trkpt><trkpt lat="36.419378" lon="30.482350"><ele>6.915</ele><time>2022-10-15T09:35:37Z</time></trkpt><trkpt lat="36.419431" lon="30.482366"><ele>6.962</ele><time>2022-10-15T09:35:41Z</time></trkpt><trkpt lat="36.419481" lon="30.482381"><ele>7.194</ele><time>2022-10-15T09:35:45Z</time></trkpt><trkpt lat="36.419526" lon="30.482402"><ele>7.160</ele><time>2022-10-15T09:35:49Z</time></trkpt><trkpt lat="36.419569" lon="30.482423"><ele>7.342</ele><time>2022-10-15T09:35:53Z</time></trkpt><trkpt lat="36.419622" lon="30.482446"><ele>7.466</ele><time>2022-10-15T09:35:57Z</time></trkpt><trkpt lat="36.419668" lon="30.482460"><ele>7.457</ele><time>2022-10-15T09:36:00Z</time></trkpt><trkpt lat="36.419718" lon="30.482479"><ele>7.545</ele><time>2022-10-15T09:36:04Z</time></trkpt><trkpt lat="36.419765" lon="30.482494"><ele>7.747</ele><time>2022-10-15T09:36:08Z</time></trkpt><trkpt lat="36.419810" lon="30.482523"><ele>7.511</ele><time>2022-10-15T09:36:12Z</time></trkpt><trkpt lat="36.419854" lon="30.482545"><ele>7.209</ele><time>2022-10-15T09:36:16Z</time></trkpt><trkpt lat="36.419898" lon="30.482572"><ele>7.145</ele><time>2022-10-15T09:36:20Z</time></trkpt><trkpt lat="36.419946" lon="30.482580"><ele>7.225</ele><time>2022-10-15T09:36:24Z</time></trkpt><trkpt lat="36.419989" lon="30.482604"><ele>7.320</ele><time>2022-10-15T09:36:28Z</time></trkpt><trkpt lat="36.420033" lon="30.482624"><ele>7.337</ele><time>2022-10-15T09:36:32Z</time></trkpt><trkpt lat="36.420085" lon="30.482646"><ele>7.339</ele><time>2022-10-15T09:36:36Z</time></trkpt><trkpt lat="36.420130" lon="30.482667"><ele>7.555</ele><time>2022-10-15T09:36:39Z</time></trkpt><trkpt lat="36.420173" lon="30.482690"><ele>7.627</ele><time>2022-10-15T09:36:43Z</time></trkpt><trkpt lat="36.420219" lon="30.482717"><ele>7.881</ele><time>2022-10-15T09:36:47Z</time></trkpt><trkpt lat="36.420271" lon="30.482745"><ele>7.972</ele><time>2022-10-15T09:36:51Z</time></trkpt><trkpt lat="36.420315" lon="30.482775"><ele>7.913</ele><time>2022-10-15T09:36:55Z</time></trkpt><trkpt lat="36.420365" lon="30.482801"><ele>7.443</ele><time>2022-10-15T09:36:59Z</time></trkpt><trkpt lat="36.420418" lon="30.482825"><ele>6.907</ele><time>2022-10-15T09:37:03Z</time></trkpt><trkpt lat="36.420462" lon="30.482847"><ele>6.409</ele><time>2022-10-15T09:37:07Z</time></trkpt><trkpt lat="36.420507" lon="30.482863"><ele>6.252</ele><time>2022-10-15T09:37:11Z</time></trkpt><trkpt lat="36.420558" lon="30.482881"><ele>6.232</ele><time>2022-10-15T09:37:15Z</time></trkpt><trkpt lat="36.420605" lon="30.482899"><ele>6.547</ele><time>2022-10-15T09:37:19Z</time></trkpt><trkpt lat="36.420652" lon="30.482926"><ele>6.694</ele><time>2022-10-15T09:37:23Z</time></trkpt><trkpt lat="36.420699" lon="30.482944"><ele>6.876</ele><time>2022-10-15T09:37:27Z</time></trkpt><trkpt lat="36.420743" lon="30.482961"><ele>6.982</ele><time>2022-10-15T09:37:31Z</time></trkpt><trkpt lat="36.420798" lon="30.482951"><ele>7.424</ele><time>2022-10-15T09:37:36Z</time></trkpt><trkpt lat="36.420843" lon="30.482974"><ele>7.978</ele><time>2022-10-15T09:37:40Z</time></trkpt><trkpt lat="36.420892" lon="30.482984"><ele>7.969</ele><time>2022-10-15T09:37:44Z</time></trkpt><trkpt lat="36.420938" lon="30.482995"><ele>8.089</ele><time>2022-10-15T09:37:48Z</time></trkpt><trkpt lat="36.420991" lon="30.482997"><ele>8.206</ele><time>2022-10-15T09:37:52Z</time></trkpt><trkpt lat="36.421042" lon="30.483009"><ele>8.326</ele><time>2022-10-15T09:37:56Z</time></trkpt><trkpt lat="36.421089" lon="30.483017"><ele>8.709</ele><time>2022-10-15T09:38:00Z</time></trkpt><trkpt lat="36.421142" lon="30.483007"><ele>9.239</ele><time>2022-10-15T09:38:04Z</time></trkpt><trkpt lat="36.421196" lon="30.483006"><ele>9.289</ele><time>2022-10-15T09:38:08Z</time></trkpt><trkpt lat="36.421248" lon="30.482991"><ele>9.214</ele><time>2022-10-15T09:38:12Z</time></trkpt><trkpt lat="36.421297" lon="30.482984"><ele>9.271</ele><time>2022-10-15T09:38:16Z</time></trkpt><trkpt lat="36.421346" lon="30.482968"><ele>9.223</ele><time>2022-10-15T09:38:22Z</time></trkpt><trkpt lat="36.421396" lon="30.482947"><ele>9.189</ele><time>2022-10-15T09:38:26Z</time></trkpt><trkpt lat="36.421449" lon="30.482941"><ele>9.081</ele><time>2022-10-15T09:38:31Z</time></trkpt><trkpt lat="36.421496" lon="30.482946"><ele>8.425</ele><time>2022-10-15T09:38:35Z</time></trkpt><trkpt lat="36.421545" lon="30.482952"><ele>7.576</ele><time>2022-10-15T09:38:39Z</time></trkpt><trkpt lat="36.421602" lon="30.482948"><ele>5.645</ele><time>2022-10-15T09:38:43Z</time></trkpt><trkpt lat="36.421651" lon="30.482942"><ele>4.647</ele><time>2022-10-15T09:38:47Z</time></trkpt><trkpt lat="36.421697" lon="30.482944"><ele>4.311</ele><time>2022-10-15T09:38:51Z</time></trkpt><trkpt lat="36.421743" lon="30.482936"><ele>4.309</ele><time>2022-10-15T09:38:55Z</time></trkpt><trkpt lat="36.421799" lon="30.482935"><ele>4.495</ele><time>2022-10-15T09:38:59Z</time></trkpt><trkpt lat="36.421853" lon="30.482920"><ele>4.725</ele><time>2022-10-15T09:39:03Z</time></trkpt><trkpt lat="36.421898" lon="30.482906"><ele>4.980</ele><time>2022-10-15T09:39:07Z</time></trkpt><trkpt lat="36.421946" lon="30.482886"><ele>5.347</ele><time>2022-10-15T09:39:11Z</time></trkpt><trkpt lat="36.421995" lon="30.482880"><ele>5.639</ele><time>2022-10-15T09:39:15Z</time></trkpt><trkpt lat="36.422047" lon="30.482867"><ele>5.745</ele><time>2022-10-15T09:39:19Z</time></trkpt><trkpt lat="36.422098" lon="30.482860"><ele>6.357</ele><time>2022-10-15T09:39:23Z</time></trkpt><trkpt lat="36.422149" lon="30.482856"><ele>6.861</ele><time>2022-10-15T09:39:27Z</time></trkpt><trkpt lat="36.422200" lon="30.482849"><ele>7.612</ele><time>2022-10-15T09:39:31Z</time></trkpt><trkpt lat="36.422248" lon="30.482840"><ele>7.959</ele><time>2022-10-15T09:39:35Z</time></trkpt><trkpt lat="36.422298" lon="30.482830"><ele>8.303</ele><time>2022-10-15T09:39:39Z</time></trkpt><trkpt lat="36.422347" lon="30.482839"><ele>8.423</ele><time>2022-10-15T09:39:43Z</time></trkpt><trkpt lat="36.422399" lon="30.482846"><ele>8.309</ele><time>2022-10-15T09:39:47Z</time></trkpt><trkpt lat="36.422450" lon="30.482828"><ele>8.546</ele><time>2022-10-15T09:39:51Z</time></trkpt><trkpt lat="36.422500" lon="30.482820"><ele>8.366</ele><time>2022-10-15T09:39:55Z</time></trkpt><trkpt lat="36.422549" lon="30.482807"><ele>7.971</ele><time>2022-10-15T09:39:59Z</time></trkpt><trkpt lat="36.422595" lon="30.482772"><ele>7.978</ele><time>2022-10-15T09:40:04Z</time></trkpt><trkpt lat="36.422635" lon="30.482739"><ele>7.950</ele><time>2022-10-15T09:40:08Z</time></trkpt><trkpt lat="36.422672" lon="30.482702"><ele>7.836</ele><time>2022-10-15T09:40:12Z</time></trkpt><trkpt lat="36.422718" lon="30.482670"><ele>7.718</ele><time>2022-10-15T09:40:16Z</time></trkpt><trkpt lat="36.422756" lon="30.482635"><ele>6.652</ele><time>2022-10-15T09:40:20Z</time></trkpt><trkpt lat="36.422785" lon="30.482592"><ele>5.863</ele><time>2022-10-15T09:40:24Z</time></trkpt><trkpt lat="36.422828" lon="30.482555"><ele>5.518</ele><time>2022-10-15T09:40:28Z</time></trkpt><trkpt lat="36.422860" lon="30.482514"><ele>4.998</ele><time>2022-10-15T09:40:32Z</time></trkpt><trkpt lat="36.422899" lon="30.482455"><ele>4.217</ele><time>2022-10-15T09:40:36Z</time></trkpt><trkpt lat="36.422943" lon="30.482425"><ele>3.609</ele><time>2022-10-15T09:40:40Z</time></trkpt><trkpt lat="36.422988" lon="30.482395"><ele>3.332</ele><time>2022-10-15T09:40:44Z</time></trkpt><trkpt lat="36.423008" lon="30.482344"><ele>3.492</ele><time>2022-10-15T09:40:47Z</time></trkpt><trkpt lat="36.423043" lon="30.482289"><ele>4.017</ele><time>2022-10-15T09:40:51Z</time></trkpt><trkpt lat="36.423080" lon="30.482249"><ele>4.324</ele><time>2022-10-15T09:40:55Z</time></trkpt><trkpt lat="36.423114" lon="30.482200"><ele>4.496</ele><time>2022-10-15T09:40:59Z</time></trkpt><trkpt lat="36.423147" lon="30.482155"><ele>4.752</ele><time>2022-10-15T09:41:03Z</time></trkpt><trkpt lat="36.423194" lon="30.482114"><ele>6.244</ele><time>2022-10-15T09:41:08Z</time></trkpt><trkpt lat="36.423230" lon="30.482075"><ele>6.288</ele><time>2022-10-15T09:41:12Z</time></trkpt><trkpt lat="36.423264" lon="30.482031"><ele>6.289</ele><time>2022-10-15T09:41:16Z</time></trkpt><trkpt lat="36.423304" lon="30.481987"><ele>6.088</ele><time>2022-10-15T09:41:20Z</time></trkpt><trkpt lat="36.423338" lon="30.481943"><ele>6.024</ele><time>2022-10-15T09:41:24Z</time></trkpt><trkpt lat="36.423370" lon="30.481900"><ele>6.026</ele><time>2022-10-15T09:41:28Z</time></trkpt><trkpt lat="36.423402" lon="30.481855"><ele>5.909</ele><time>2022-10-15T09:41:32Z</time></trkpt><trkpt lat="36.423430" lon="30.481810"><ele>6.039</ele><time>2022-10-15T09:41:36Z</time></trkpt><trkpt lat="36.423468" lon="30.481781"><ele>6.299</ele><time>2022-10-15T09:41:40Z</time></trkpt><trkpt lat="36.423495" lon="30.481727"><ele>6.464</ele><time>2022-10-15T09:41:43Z</time></trkpt><trkpt lat="36.423519" lon="30.481670"><ele>6.571</ele><time>2022-10-15T09:41:46Z</time></trkpt><trkpt lat="36.423562" lon="30.481646"><ele>6.863</ele><time>2022-10-15T09:41:50Z</time></trkpt><trkpt lat="36.423604" lon="30.481611"><ele>8.099</ele><time>2022-10-15T09:41:54Z</time></trkpt><trkpt lat="36.423628" lon="30.481558"><ele>9.761</ele><time>2022-10-15T09:41:58Z</time></trkpt><trkpt lat="36.423656" lon="30.481507"><ele>10.035</ele><time>2022-10-15T09:42:02Z</time></trkpt><trkpt lat="36.423695" lon="30.481458"><ele>10.326</ele><time>2022-10-15T09:42:06Z</time></trkpt><trkpt lat="36.423732" lon="30.481412"><ele>10.866</ele><time>2022-10-15T09:42:10Z</time></trkpt><trkpt lat="36.423757" lon="30.481357"><ele>10.829</ele><time>2022-10-15T09:42:14Z</time></trkpt><trkpt lat="36.423778" lon="30.481297"><ele>10.821</ele><time>2022-10-15T09:42:18Z</time></trkpt><trkpt lat="36.423803" lon="30.481246"><ele>10.609</ele><time>2022-10-15T09:42:22Z</time></trkpt><trkpt lat="36.423827" lon="30.481182"><ele>10.037</ele><time>2022-10-15T09:42:27Z</time></trkpt><trkpt lat="36.423852" lon="30.481130"><ele>9.567</ele><time>2022-10-15T09:42:31Z</time></trkpt><trkpt lat="36.423881" lon="30.481071"><ele>9.172</ele><time>2022-10-15T09:42:36Z</time></trkpt><trkpt lat="36.423901" lon="30.481014"><ele>8.659</ele><time>2022-10-15T09:42:40Z</time></trkpt><trkpt lat="36.423928" lon="30.480962"><ele>7.461</ele><time>2022-10-15T09:42:44Z</time></trkpt><trkpt lat="36.423948" lon="30.480902"><ele>7.267</ele><time>2022-10-15T09:42:48Z</time></trkpt><trkpt lat="36.423970" lon="30.480847"><ele>7.279</ele><time>2022-10-15T09:42:52Z</time></trkpt><trkpt lat="36.423994" lon="30.480797"><ele>7.893</ele><time>2022-10-15T09:42:56Z</time></trkpt><trkpt lat="36.424016" lon="30.480742"><ele>9.434</ele><time>2022-10-15T09:43:00Z</time></trkpt><trkpt lat="36.424043" lon="30.480687"><ele>10.194</ele><time>2022-10-15T09:43:04Z</time></trkpt><trkpt lat="36.424063" lon="30.480630"><ele>10.757</ele><time>2022-10-15T09:43:08Z</time></trkpt><trkpt lat="36.424090" lon="30.480572"><ele>11.322</ele><time>2022-10-15T09:43:12Z</time></trkpt><trkpt lat="36.424117" lon="30.480517"><ele>11.309</ele><time>2022-10-15T09:43:16Z</time></trkpt><trkpt lat="36.424145" lon="30.480470"><ele>11.390</ele><time>2022-10-15T09:43:20Z</time></trkpt><trkpt lat="36.424175" lon="30.480420"><ele>10.580</ele><time>2022-10-15T09:43:24Z</time></trkpt><trkpt lat="36.424220" lon="30.480378"><ele>10.225</ele><time>2022-10-15T09:43:28Z</time></trkpt><trkpt lat="36.424272" lon="30.480354"><ele>9.982</ele><time>2022-10-15T09:43:32Z</time></trkpt><trkpt lat="36.424324" lon="30.480359"><ele>9.724</ele><time>2022-10-15T09:43:36Z</time></trkpt><trkpt lat="36.424367" lon="30.480387"><ele>9.420</ele><time>2022-10-15T09:43:40Z</time></trkpt><trkpt lat="36.424415" lon="30.480407"><ele>9.052</ele><time>2022-10-15T09:43:44Z</time></trkpt><trkpt lat="36.424465" lon="30.480410"><ele>7.516</ele><time>2022-10-15T09:44:10Z</time></trkpt><trkpt lat="36.424375" lon="30.480437"><ele>6.257</ele><time>2022-10-15T09:45:48Z</time></trkpt><trkpt lat="36.424423" lon="30.480477"><ele>4.699</ele><time>2022-10-15T09:47:56Z</time></trkpt><trkpt lat="36.424480" lon="30.480501"><ele>4.207</ele><time>2022-10-15T09:48:01Z</time></trkpt><trkpt lat="36.424532" lon="30.480521"><ele>3.927</ele><time>2022-10-15T09:48:05Z</time></trkpt><trkpt lat="36.424577" lon="30.480534"><ele>3.909</ele><time>2022-10-15T09:48:10Z</time></trkpt><trkpt lat="36.424620" lon="30.480563"><ele>0.940</ele><time>2022-10-15T09:48:15Z</time></trkpt><trkpt lat="36.424663" lon="30.480586"><ele>8.380</ele><time>2022-10-15T09:48:19Z</time></trkpt><trkpt lat="36.424715" lon="30.480607"><ele>10.475</ele><time>2022-10-15T09:48:23Z</time></trkpt><trkpt lat="36.424689" lon="30.480663"><ele>10.792</ele><time>2022-10-15T09:48:27Z</time></trkpt><trkpt lat="36.424683" lon="30.480726"><ele>13.364</ele><time>2022-10-15T09:48:33Z</time></trkpt><trkpt lat="36.424643" lon="30.480760"><ele>14.760</ele><time>2022-10-15T09:48:39Z</time></trkpt><trkpt lat="36.424604" lon="30.480790"><ele>16.332</ele><time>2022-10-15T09:48:46Z</time></trkpt><trkpt lat="36.424653" lon="30.480800"><ele>16.156</ele><time>2022-10-15T09:48:58Z</time></trkpt><trkpt lat="36.424678" lon="30.480850"><ele>16.047</ele><time>2022-10-15T09:49:08Z</time></trkpt><trkpt lat="36.424645" lon="30.480893"><ele>16.024</ele><time>2022-10-15T09:49:17Z</time></trkpt><trkpt lat="36.424658" lon="30.480951"><ele>16.004</ele><time>2022-10-15T09:49:27Z</time></trkpt><trkpt lat="36.424704" lon="30.480970"><ele>17.514</ele><time>2022-10-15T09:49:36Z</time></trkpt><trkpt lat="36.424741" lon="30.481003"><ele>18.909</ele><time>2022-10-15T09:49:46Z</time></trkpt><trkpt lat="36.424716" lon="30.481057"><ele>19.823</ele><time>2022-10-15T09:49:56Z</time></trkpt><trkpt lat="36.424676" lon="30.481094"><ele>21.893</ele><time>2022-10-15T09:50:06Z</time></trkpt><trkpt lat="36.424655" lon="30.481144"><ele>23.938</ele><time>2022-10-15T09:50:12Z</time></trkpt><trkpt lat="36.424637" lon="30.481202"><ele>25.695</ele><time>2022-10-15T09:50:18Z</time></trkpt><trkpt lat="36.424620" lon="30.481261"><ele>28.467</ele><time>2022-10-15T09:50:24Z</time></trkpt><trkpt lat="36.424592" lon="30.481306"><ele>28.943</ele><time>2022-10-15T09:50:30Z</time></trkpt><trkpt lat="36.424572" lon="30.481359"><ele>32.095</ele><time>2022-10-15T09:50:53Z</time></trkpt><trkpt lat="36.424599" lon="30.481416"><ele>34.139</ele><time>2022-10-15T09:51:01Z</time></trkpt><trkpt lat="36.424615" lon="30.481472"><ele>34.290</ele><time>2022-10-15T09:51:07Z</time></trkpt><trkpt lat="36.424620" lon="30.481530"><ele>34.424</ele><time>2022-10-15T09:51:13Z</time></trkpt><trkpt lat="36.424659" lon="30.481566"><ele>34.404</ele><time>2022-10-15T09:51:17Z</time></trkpt><trkpt lat="36.424680" lon="30.481618"><ele>35.314</ele><time>2022-10-15T09:51:26Z</time></trkpt><trkpt lat="36.424690" lon="30.481678"><ele>35.809</ele><time>2022-10-15T09:51:34Z</time></trkpt><trkpt lat="36.424691" lon="30.481738"><ele>37.073</ele><time>2022-10-15T09:51:41Z</time></trkpt><trkpt lat="36.424707" lon="30.481795"><ele>38.563</ele><time>2022-10-15T09:51:49Z</time></trkpt><trkpt lat="36.424724" lon="30.481847"><ele>39.348</ele><time>2022-10-15T09:51:55Z</time></trkpt><trkpt lat="36.424766" lon="30.481874"><ele>43.275</ele><time>2022-10-15T09:52:03Z</time></trkpt><trkpt lat="36.424803" lon="30.481914"><ele>44.767</ele><time>2022-10-15T09:52:11Z</time></trkpt><trkpt lat="36.424811" lon="30.481974"><ele>48.133</ele><time>2022-10-15T09:52:20Z</time></trkpt><trkpt lat="36.424856" lon="30.482006"><ele>48.835</ele><time>2022-10-15T09:52:26Z</time></trkpt><trkpt lat="36.424884" lon="30.482056"><ele>49.899</ele><time>2022-10-15T09:52:32Z</time></trkpt><trkpt lat="36.424904" lon="30.482107"><ele>52.110</ele><time>2022-10-15T09:52:40Z</time></trkpt><trkpt lat="36.424910" lon="30.482171"><ele>53.811</ele><time>2022-10-15T09:52:48Z</time></trkpt><trkpt lat="36.424902" lon="30.482237"><ele>54.221</ele><time>2022-10-15T09:52:56Z</time></trkpt><trkpt lat="36.424876" lon="30.482294"><ele>55.103</ele><time>2022-10-15T09:53:02Z</time></trkpt><trkpt lat="36.424858" lon="30.482355"><ele>55.909</ele><time>2022-10-15T09:53:08Z</time></trkpt><trkpt lat="36.424874" lon="30.482413"><ele>56.052</ele><time>2022-10-15T09:53:16Z</time></trkpt><trkpt lat="36.424882" lon="30.482473"><ele>57.282</ele><time>2022-10-15T09:53:25Z</time></trkpt><trkpt lat="36.424879" lon="30.482530"><ele>57.537</ele><time>2022-10-15T09:53:34Z</time></trkpt><trkpt lat="36.424895" lon="30.482591"><ele>58.284</ele><time>2022-10-15T09:53:42Z</time></trkpt><trkpt lat="36.424920" lon="30.482645"><ele>59.096</ele><time>2022-10-15T09:53:49Z</time></trkpt><trkpt lat="36.424927" lon="30.482705"><ele>59.442</ele><time>2022-10-15T09:53:57Z</time></trkpt><trkpt lat="36.424916" lon="30.482765"><ele>62.194</ele><time>2022-10-15T09:54:04Z</time></trkpt><trkpt lat="36.424914" lon="30.482823"><ele>62.728</ele><time>2022-10-15T09:54:10Z</time></trkpt><trkpt lat="36.424938" lon="30.482876"><ele>63.479</ele><time>2022-10-15T09:54:15Z</time></trkpt><trkpt lat="36.424960" lon="30.482926"><ele>64.034</ele><time>2022-10-15T09:54:22Z</time></trkpt><trkpt lat="36.424983" lon="30.482975"><ele>66.455</ele><time>2022-10-15T09:54:29Z</time></trkpt><trkpt lat="36.424987" lon="30.483031"><ele>69.310</ele><time>2022-10-15T09:54:37Z</time></trkpt><trkpt lat="36.424986" lon="30.483088"><ele>70.309</ele><time>2022-10-15T09:54:45Z</time></trkpt><trkpt lat="36.424978" lon="30.483152"><ele>70.994</ele><time>2022-10-15T09:54:52Z</time></trkpt><trkpt lat="36.424987" lon="30.483213"><ele>71.094</ele><time>2022-10-15T09:55:00Z</time></trkpt><trkpt lat="36.424996" lon="30.483270"><ele>71.289</ele><time>2022-10-15T09:55:08Z</time></trkpt><trkpt lat="36.425035" lon="30.483238"><ele>71.616</ele><time>2022-10-15T09:55:16Z</time></trkpt><trkpt lat="36.425078" lon="30.483216"><ele>72.028</ele><time>2022-10-15T09:55:26Z</time></trkpt><trkpt lat="36.425106" lon="30.483264"><ele>73.744</ele><time>2022-10-15T09:55:33Z</time></trkpt><trkpt lat="36.425156" lon="30.483291"><ele>76.766</ele><time>2022-10-15T09:55:40Z</time></trkpt><trkpt lat="36.425195" lon="30.483331"><ele>77.050</ele><time>2022-10-15T09:55:46Z</time></trkpt><trkpt lat="36.425220" lon="30.483383"><ele>77.411</ele><time>2022-10-15T09:55:53Z</time></trkpt><trkpt lat="36.425226" lon="30.483442"><ele>77.753</ele><time>2022-10-15T09:56:00Z</time></trkpt><trkpt lat="36.425222" lon="30.483500"><ele>79.104</ele><time>2022-10-15T09:56:08Z</time></trkpt><trkpt lat="36.425248" lon="30.483547"><ele>81.814</ele><time>2022-10-15T09:56:15Z</time></trkpt><trkpt lat="36.425237" lon="30.483605"><ele>82.409</ele><time>2022-10-15T09:56:23Z</time></trkpt><trkpt lat="36.425238" lon="30.483665"><ele>83.636</ele><time>2022-10-15T09:56:29Z</time></trkpt><trkpt lat="36.425226" lon="30.483727"><ele>85.056</ele><time>2022-10-15T09:56:38Z</time></trkpt><trkpt lat="36.425179" lon="30.483705"><ele>86.151</ele><time>2022-10-15T09:56:44Z</time></trkpt><trkpt lat="36.425219" lon="30.483735"><ele>90.028</ele><time>2022-10-15T09:56:58Z</time></trkpt><trkpt lat="36.425243" lon="30.483783"><ele>91.380</ele><time>2022-10-15T09:57:02Z</time></trkpt><trkpt lat="36.425247" lon="30.483842"><ele>91.626</ele><time>2022-10-15T09:57:08Z</time></trkpt><trkpt lat="36.425266" lon="30.483898"><ele>92.658</ele><time>2022-10-15T09:57:15Z</time></trkpt><trkpt lat="36.425271" lon="30.483957"><ele>92.882</ele><time>2022-10-15T09:57:25Z</time></trkpt><trkpt lat="36.425271" lon="30.484015"><ele>93.473</ele><time>2022-10-15T09:57:37Z</time></trkpt><trkpt lat="36.425302" lon="30.484059"><ele>94.038</ele><time>2022-10-15T09:57:47Z</time></trkpt><trkpt lat="36.425322" lon="30.484114"><ele>94.970</ele><time>2022-10-15T09:57:57Z</time></trkpt><trkpt lat="36.425335" lon="30.484178"><ele>98.617</ele><time>2022-10-15T09:58:04Z</time></trkpt><trkpt lat="36.425361" lon="30.484227"><ele>99.609</ele><time>2022-10-15T09:58:09Z</time></trkpt><trkpt lat="36.425395" lon="30.484266"><ele>100.884</ele><time>2022-10-15T09:58:14Z</time></trkpt><trkpt lat="36.425438" lon="30.484281"><ele>101.014</ele><time>2022-10-15T09:58:19Z</time></trkpt><trkpt lat="36.425489" lon="30.484268"><ele>101.059</ele><time>2022-10-15T09:58:25Z</time></trkpt><trkpt lat="36.425530" lon="30.484236"><ele>100.446</ele><time>2022-10-15T09:58:31Z</time></trkpt><trkpt lat="36.425576" lon="30.484231"><ele>99.768</ele><time>2022-10-15T09:58:39Z</time></trkpt><trkpt lat="36.425624" lon="30.484251"><ele>98.684</ele><time>2022-10-15T09:58:47Z</time></trkpt><trkpt lat="36.425672" lon="30.484247"><ele>97.576</ele><time>2022-10-15T09:59:00Z</time></trkpt><trkpt lat="36.425722" lon="30.484238"><ele>97.020</ele><time>2022-10-15T09:59:06Z</time></trkpt><trkpt lat="36.425770" lon="30.484208"><ele>96.571</ele><time>2022-10-15T09:59:11Z</time></trkpt><trkpt lat="36.425800" lon="30.484152"><ele>95.581</ele><time>2022-10-15T09:59:17Z</time></trkpt><trkpt lat="36.425836" lon="30.484108"><ele>94.161</ele><time>2022-10-15T09:59:23Z</time></trkpt><trkpt lat="36.425870" lon="30.484070"><ele>92.417</ele><time>2022-10-15T09:59:36Z</time></trkpt><trkpt lat="36.425922" lon="30.484085"><ele>91.909</ele><time>2022-10-15T09:59:44Z</time></trkpt><trkpt lat="36.425965" lon="30.484103"><ele>91.799</ele><time>2022-10-15T09:59:52Z</time></trkpt><trkpt lat="36.426011" lon="30.484067"><ele>85.249</ele><time>2022-10-15T10:00:33Z</time></trkpt><trkpt lat="36.426056" lon="30.484038"><ele>84.624</ele><time>2022-10-15T10:00:38Z</time></trkpt><trkpt lat="36.426067" lon="30.483983"><ele>84.691</ele><time>2022-10-15T10:00:51Z</time></trkpt><trkpt lat="36.426114" lon="30.483983"><ele>84.543</ele><time>2022-10-15T10:00:56Z</time></trkpt><trkpt lat="36.426161" lon="30.484001"><ele>84.539</ele><time>2022-10-15T10:01:01Z</time></trkpt><trkpt lat="36.426200" lon="30.484031"><ele>85.171</ele><time>2022-10-15T10:01:07Z</time></trkpt><trkpt lat="36.426237" lon="30.484081"><ele>85.395</ele><time>2022-10-15T10:01:13Z</time></trkpt><trkpt lat="36.426272" lon="30.484117"><ele>84.776</ele><time>2022-10-15T10:01:19Z</time></trkpt><trkpt lat="36.426317" lon="30.484131"><ele>83.945</ele><time>2022-10-15T10:01:28Z</time></trkpt><trkpt lat="36.426365" lon="30.484133"><ele>83.147</ele><time>2022-10-15T10:01:34Z</time></trkpt><trkpt lat="36.426418" lon="30.484120"><ele>80.411</ele><time>2022-10-15T10:01:48Z</time></trkpt><trkpt lat="36.426460" lon="30.484086"><ele>77.209</ele><time>2022-10-15T10:01:54Z</time></trkpt><trkpt lat="36.426505" lon="30.484060"><ele>76.245</ele><time>2022-10-15T10:02:00Z</time></trkpt><trkpt lat="36.426552" lon="30.484044"><ele>75.475</ele><time>2022-10-15T10:02:05Z</time></trkpt><trkpt lat="36.426587" lon="30.484006"><ele>73.910</ele><time>2022-10-15T10:02:10Z</time></trkpt><trkpt lat="36.426622" lon="30.483966"><ele>73.067</ele><time>2022-10-15T10:02:15Z</time></trkpt><trkpt lat="36.426653" lon="30.483911"><ele>71.919</ele><time>2022-10-15T10:02:20Z</time></trkpt><trkpt lat="36.426699" lon="30.483873"><ele>70.145</ele><time>2022-10-15T10:02:26Z</time></trkpt><trkpt lat="36.426742" lon="30.483830"><ele>69.947</ele><time>2022-10-15T10:02:31Z</time></trkpt><trkpt lat="36.426791" lon="30.483801"><ele>69.951</ele><time>2022-10-15T10:02:35Z</time></trkpt><trkpt lat="36.426834" lon="30.483821"><ele>70.312</ele><time>2022-10-15T10:02:41Z</time></trkpt><trkpt lat="36.426879" lon="30.483854"><ele>72.167</ele><time>2022-10-15T10:02:47Z</time></trkpt><trkpt lat="36.426925" lon="30.483882"><ele>74.481</ele><time>2022-10-15T10:02:53Z</time></trkpt><trkpt lat="36.426963" lon="30.483927"><ele>77.519</ele><time>2022-10-15T10:02:59Z</time></trkpt><trkpt lat="36.427003" lon="30.483963"><ele>79.909</ele><time>2022-10-15T10:03:05Z</time></trkpt><trkpt lat="36.427025" lon="30.484021"><ele>85.137</ele><time>2022-10-15T10:03:11Z</time></trkpt><trkpt lat="36.427062" lon="30.484062"><ele>87.047</ele><time>2022-10-15T10:03:17Z</time></trkpt><trkpt lat="36.427108" lon="30.484101"><ele>87.382</ele><time>2022-10-15T10:03:22Z</time></trkpt><trkpt lat="36.427145" lon="30.484134"><ele>87.569</ele><time>2022-10-15T10:03:27Z</time></trkpt><trkpt lat="36.427171" lon="30.484182"><ele>89.041</ele><time>2022-10-15T10:03:31Z</time></trkpt><trkpt lat="36.427156" lon="30.484239"><ele>92.927</ele><time>2022-10-15T10:03:45Z</time></trkpt><trkpt lat="36.427195" lon="30.484282"><ele>92.479</ele><time>2022-10-15T10:04:13Z</time></trkpt><trkpt lat="36.427209" lon="30.484220"><ele>92.443</ele><time>2022-10-15T10:04:22Z</time></trkpt><trkpt lat="36.427247" lon="30.484251"><ele>92.674</ele><time>2022-10-15T10:04:37Z</time></trkpt><trkpt lat="36.427271" lon="30.484308"><ele>93.458</ele><time>2022-10-15T10:04:45Z</time></trkpt><trkpt lat="36.427277" lon="30.484367"><ele>93.652</ele><time>2022-10-15T10:04:51Z</time></trkpt><trkpt lat="36.427295" lon="30.484422"><ele>94.517</ele><time>2022-10-15T10:04:59Z</time></trkpt><trkpt lat="36.427335" lon="30.484454"><ele>94.809</ele><time>2022-10-15T10:05:06Z</time></trkpt><trkpt lat="36.427320" lon="30.484511"><ele>94.946</ele><time>2022-10-15T10:05:14Z</time></trkpt><trkpt lat="36.427349" lon="30.484562"><ele>97.746</ele><time>2022-10-15T10:05:21Z</time></trkpt><trkpt lat="36.427386" lon="30.484605"><ele>98.191</ele><time>2022-10-15T10:05:26Z</time></trkpt><trkpt lat="36.427428" lon="30.484637"><ele>99.128</ele><time>2022-10-15T10:05:31Z</time></trkpt><trkpt lat="36.427462" lon="30.484687"><ele>99.790</ele><time>2022-10-15T10:05:36Z</time></trkpt><trkpt lat="36.427493" lon="30.484750"><ele>99.696</ele><time>2022-10-15T10:05:40Z</time></trkpt><trkpt lat="36.427526" lon="30.484790"><ele>101.158</ele><time>2022-10-15T10:05:44Z</time></trkpt><trkpt lat="36.427575" lon="30.484775"><ele>101.262</ele><time>2022-10-15T10:05:49Z</time></trkpt><trkpt lat="36.427621" lon="30.484799"><ele>101.583</ele><time>2022-10-15T10:05:55Z</time></trkpt><trkpt lat="36.427621" lon="30.484855"><ele>102.645</ele><time>2022-10-15T10:06:01Z</time></trkpt><trkpt lat="36.427661" lon="30.484889"><ele>102.747</ele><time>2022-10-15T10:06:09Z</time></trkpt><trkpt lat="36.427677" lon="30.484947"><ele>103.511</ele><time>2022-10-15T10:06:35Z</time></trkpt><trkpt lat="36.427724" lon="30.484965"><ele>102.209</ele><time>2022-10-15T10:07:00Z</time></trkpt><trkpt lat="36.427764" lon="30.484996"><ele>101.695</ele><time>2022-10-15T10:07:04Z</time></trkpt><trkpt lat="36.427811" lon="30.485011"><ele>101.695</ele><time>2022-10-15T10:07:10Z</time></trkpt><trkpt lat="36.427858" lon="30.485022"><ele>101.680</ele><time>2022-10-15T10:07:15Z</time></trkpt><trkpt lat="36.427913" lon="30.485026"><ele>99.827</ele><time>2022-10-15T10:07:20Z</time></trkpt><trkpt lat="36.427964" lon="30.484995"><ele>101.749</ele><time>2022-10-15T10:07:25Z</time></trkpt><trkpt lat="36.428012" lon="30.484967"><ele>102.045</ele><time>2022-10-15T10:07:30Z</time></trkpt><trkpt lat="36.428056" lon="30.484949"><ele>102.247</ele><time>2022-10-15T10:07:36Z</time></trkpt><trkpt lat="36.428091" lon="30.484910"><ele>102.281</ele><time>2022-10-15T10:07:40Z</time></trkpt><trkpt lat="36.428122" lon="30.484862"><ele>102.122</ele><time>2022-10-15T10:07:45Z</time></trkpt><trkpt lat="36.428158" lon="30.484822"><ele>101.639</ele><time>2022-10-15T10:07:52Z</time></trkpt><trkpt lat="36.428209" lon="30.484787"><ele>101.101</ele><time>2022-10-15T10:07:57Z</time></trkpt><trkpt lat="36.428256" lon="30.484798"><ele>100.621</ele><time>2022-10-15T10:08:02Z</time></trkpt><trkpt lat="36.428287" lon="30.484839"><ele>100.609</ele><time>2022-10-15T10:08:07Z</time></trkpt><trkpt lat="36.428308" lon="30.484890"><ele>101.154</ele><time>2022-10-15T10:08:13Z</time></trkpt><trkpt lat="36.428347" lon="30.484927"><ele>102.314</ele><time>2022-10-15T10:08:19Z</time></trkpt><trkpt lat="36.428357" lon="30.484983"><ele>102.559</ele><time>2022-10-15T10:08:23Z</time></trkpt><trkpt lat="36.428381" lon="30.485038"><ele>102.556</ele><time>2022-10-15T10:08:27Z</time></trkpt><trkpt lat="36.428418" lon="30.485080"><ele>102.318</ele><time>2022-10-15T10:08:33Z</time></trkpt><trkpt lat="36.428447" lon="30.485127"><ele>102.334</ele><time>2022-10-15T10:08:38Z</time></trkpt><trkpt lat="36.428459" lon="30.485182"><ele>104.296</ele><time>2022-10-15T10:09:06Z</time></trkpt><trkpt lat="36.428500" lon="30.485230"><ele>104.950</ele><time>2022-10-15T10:09:10Z</time></trkpt><trkpt lat="36.428525" lon="30.485280"><ele>105.311</ele><time>2022-10-15T10:09:13Z</time></trkpt><trkpt lat="36.428570" lon="30.485324"><ele>105.439</ele><time>2022-10-15T10:09:18Z</time></trkpt><trkpt lat="36.428610" lon="30.485355"><ele>105.401</ele><time>2022-10-15T10:09:23Z</time></trkpt><trkpt lat="36.428651" lon="30.485389"><ele>103.121</ele><time>2022-10-15T10:09:28Z</time></trkpt><trkpt lat="36.428701" lon="30.485416"><ele>103.509</ele><time>2022-10-15T10:09:32Z</time></trkpt><trkpt lat="36.428747" lon="30.485444"><ele>103.554</ele><time>2022-10-15T10:09:36Z</time></trkpt><trkpt lat="36.428772" lon="30.485491"><ele>106.854</ele><time>2022-10-15T10:09:40Z</time></trkpt><trkpt lat="36.428815" lon="30.485528"><ele>109.229</ele><time>2022-10-15T10:09:45Z</time></trkpt><trkpt lat="36.428864" lon="30.485547"><ele>110.476</ele><time>2022-10-15T10:09:51Z</time></trkpt><trkpt lat="36.428906" lon="30.485519"><ele>110.888</ele><time>2022-10-15T10:09:56Z</time></trkpt><trkpt lat="36.428952" lon="30.485493"><ele>110.844</ele><time>2022-10-15T10:10:01Z</time></trkpt><trkpt lat="36.428989" lon="30.485444"><ele>110.596</ele><time>2022-10-15T10:10:06Z</time></trkpt><trkpt lat="36.429031" lon="30.485403"><ele>110.550</ele><time>2022-10-15T10:10:11Z</time></trkpt><trkpt lat="36.429059" lon="30.485355"><ele>110.551</ele><time>2022-10-15T10:10:16Z</time></trkpt><trkpt lat="36.429107" lon="30.485334"><ele>110.814</ele><time>2022-10-15T10:10:21Z</time></trkpt><trkpt lat="36.429150" lon="30.485293"><ele>110.354</ele><time>2022-10-15T10:10:39Z</time></trkpt><trkpt lat="36.429191" lon="30.485247"><ele>108.709</ele><time>2022-10-15T10:10:44Z</time></trkpt><trkpt lat="36.429228" lon="30.485186"><ele>107.909</ele><time>2022-10-15T10:10:47Z</time></trkpt><trkpt lat="36.429242" lon="30.485119"><ele>107.472</ele><time>2022-10-15T10:10:52Z</time></trkpt><trkpt lat="36.429292" lon="30.485088"><ele>107.222</ele><time>2022-10-15T10:11:00Z</time></trkpt><trkpt lat="36.429334" lon="30.485067"><ele>106.977</ele><time>2022-10-15T10:11:04Z</time></trkpt><trkpt lat="36.429379" lon="30.485053"><ele>106.154</ele><time>2022-10-15T10:11:07Z</time></trkpt><trkpt lat="36.429428" lon="30.485028"><ele>104.426</ele><time>2022-10-15T10:11:13Z</time></trkpt><trkpt lat="36.429472" lon="30.485005"><ele>101.942</ele><time>2022-10-15T10:11:18Z</time></trkpt><trkpt lat="36.429497" lon="30.484954"><ele>101.644</ele><time>2022-10-15T10:11:23Z</time></trkpt><trkpt lat="36.429516" lon="30.484901"><ele>101.138</ele><time>2022-10-15T10:11:30Z</time></trkpt><trkpt lat="36.429552" lon="30.484858"><ele>100.939</ele><time>2022-10-15T10:11:36Z</time></trkpt><trkpt lat="36.429582" lon="30.484802"><ele>100.861</ele><time>2022-10-15T10:11:41Z</time></trkpt><trkpt lat="36.429569" lon="30.484741"><ele>100.821</ele><time>2022-10-15T10:11:46Z</time></trkpt><trkpt lat="36.429570" lon="30.484682"><ele>100.413</ele><time>2022-10-15T10:11:51Z</time></trkpt><trkpt lat="36.429562" lon="30.484613"><ele>99.109</ele><time>2022-10-15T10:11:57Z</time></trkpt><trkpt lat="36.429560" lon="30.484547"><ele>98.687</ele><time>2022-10-15T10:12:02Z</time></trkpt><trkpt lat="36.429581" lon="30.484485"><ele>98.197</ele><time>2022-10-15T10:12:07Z</time></trkpt><trkpt lat="36.429591" lon="30.484420"><ele>97.472</ele><time>2022-10-15T10:12:12Z</time></trkpt><trkpt lat="36.429598" lon="30.484364"><ele>96.729</ele><time>2022-10-15T10:12:17Z</time></trkpt><trkpt lat="36.429617" lon="30.484313"><ele>90.811</ele><time>2022-10-15T10:13:06Z</time></trkpt><trkpt lat="36.429617" lon="30.484250"><ele>89.987</ele><time>2022-10-15T10:13:17Z</time></trkpt><trkpt lat="36.429586" lon="30.484198"><ele>89.789</ele><time>2022-10-15T10:13:21Z</time></trkpt><trkpt lat="36.429608" lon="30.484128"><ele>82.113</ele><time>2022-10-15T10:13:56Z</time></trkpt><trkpt lat="36.429630" lon="30.484071"><ele>82.144</ele><time>2022-10-15T10:14:00Z</time></trkpt><trkpt lat="36.429676" lon="30.484058"><ele>82.176</ele><time>2022-10-15T10:14:03Z</time></trkpt><trkpt lat="36.429727" lon="30.484051"><ele>82.190</ele><time>2022-10-15T10:14:07Z</time></trkpt><trkpt lat="36.429775" lon="30.484029"><ele>82.119</ele><time>2022-10-15T10:14:12Z</time></trkpt><trkpt lat="36.429812" lon="30.483996"><ele>82.309</ele><time>2022-10-15T10:14:16Z</time></trkpt><trkpt lat="36.429831" lon="30.483940"><ele>82.028</ele><time>2022-10-15T10:14:20Z</time></trkpt><trkpt lat="36.429874" lon="30.483911"><ele>82.118</ele><time>2022-10-15T10:14:25Z</time></trkpt><trkpt lat="36.429922" lon="30.483900"><ele>81.953</ele><time>2022-10-15T10:14:30Z</time></trkpt><trkpt lat="36.429978" lon="30.483897"><ele>81.560</ele><time>2022-10-15T10:14:35Z</time></trkpt><trkpt lat="36.430031" lon="30.483891"><ele>81.142</ele><time>2022-10-15T10:14:40Z</time></trkpt><trkpt lat="36.430074" lon="30.483859"><ele>81.168</ele><time>2022-10-15T10:14:44Z</time></trkpt><trkpt lat="36.430119" lon="30.483852"><ele>81.110</ele><time>2022-10-15T10:14:49Z</time></trkpt><trkpt lat="36.430160" lon="30.483815"><ele>81.274</ele><time>2022-10-15T10:14:53Z</time></trkpt><trkpt lat="36.430197" lon="30.483779"><ele>81.335</ele><time>2022-10-15T10:14:58Z</time></trkpt><trkpt lat="36.430237" lon="30.483747"><ele>81.068</ele><time>2022-10-15T10:15:03Z</time></trkpt><trkpt lat="36.430282" lon="30.483710"><ele>80.242</ele><time>2022-10-15T10:15:08Z</time></trkpt><trkpt lat="36.430325" lon="30.483678"><ele>80.326</ele><time>2022-10-15T10:15:13Z</time></trkpt><trkpt lat="36.430372" lon="30.483657"><ele>80.209</ele><time>2022-10-15T10:15:18Z</time></trkpt><trkpt lat="36.430414" lon="30.483622"><ele>80.247</ele><time>2022-10-15T10:15:23Z</time></trkpt><trkpt lat="36.430429" lon="30.483561"><ele>80.387</ele><time>2022-10-15T10:15:28Z</time></trkpt><trkpt lat="36.430463" lon="30.483521"><ele>80.262</ele><time>2022-10-15T10:15:34Z</time></trkpt><trkpt lat="36.430508" lon="30.483524"><ele>79.649</ele><time>2022-10-15T10:15:38Z</time></trkpt><trkpt lat="36.430498" lon="30.483465"><ele>77.451</ele><time>2022-10-15T10:16:14Z</time></trkpt><trkpt lat="36.430494" lon="30.483399"><ele>77.777</ele><time>2022-10-15T10:16:39Z</time></trkpt><trkpt lat="36.430515" lon="30.483336"><ele>77.799</ele><time>2022-10-15T10:16:45Z</time></trkpt><trkpt lat="36.430523" lon="30.483279"><ele>77.843</ele><time>2022-10-15T10:16:50Z</time></trkpt><trkpt lat="36.430548" lon="30.483330"><ele>77.854</ele><time>2022-10-15T10:16:55Z</time></trkpt><trkpt lat="36.430556" lon="30.483269"><ele>77.856</ele><time>2022-10-15T10:17:05Z</time></trkpt><trkpt lat="36.430578" lon="30.483218"><ele>75.059</ele><time>2022-10-15T10:17:10Z</time></trkpt><trkpt lat="36.430583" lon="30.483150"><ele>74.514</ele><time>2022-10-15T10:17:17Z</time></trkpt><trkpt lat="36.430607" lon="30.483099"><ele>74.209</ele><time>2022-10-15T10:17:22Z</time></trkpt><trkpt lat="36.430633" lon="30.483042"><ele>74.116</ele><time>2022-10-15T10:17:27Z</time></trkpt><trkpt lat="36.430644" lon="30.482987"><ele>73.856</ele><time>2022-10-15T10:17:31Z</time></trkpt><trkpt lat="36.430678" lon="30.482945"><ele>73.631</ele><time>2022-10-15T10:17:35Z</time></trkpt><trkpt lat="36.430694" lon="30.482881"><ele>72.698</ele><time>2022-10-15T10:17:41Z</time></trkpt><trkpt lat="36.430701" lon="30.482818"><ele>72.070</ele><time>2022-10-15T10:17:46Z</time></trkpt><trkpt lat="36.430719" lon="30.482763"><ele>71.256</ele><time>2022-10-15T10:17:50Z</time></trkpt><trkpt lat="36.430727" lon="30.482704"><ele>69.638</ele><time>2022-10-15T10:17:55Z</time></trkpt><trkpt lat="36.430735" lon="30.482639"><ele>67.542</ele><time>2022-10-15T10:18:01Z</time></trkpt><trkpt lat="36.430706" lon="30.482595"><ele>67.233</ele><time>2022-10-15T10:18:06Z</time></trkpt><trkpt lat="36.430666" lon="30.482560"><ele>66.922</ele><time>2022-10-15T10:18:11Z</time></trkpt><trkpt lat="36.430646" lon="30.482504"><ele>66.162</ele><time>2022-10-15T10:18:17Z</time></trkpt><trkpt lat="36.430644" lon="30.482443"><ele>65.708</ele><time>2022-10-15T10:18:22Z</time></trkpt><trkpt lat="36.430635" lon="30.482382"><ele>65.309</ele><time>2022-10-15T10:18:29Z</time></trkpt><trkpt lat="36.430607" lon="30.482329"><ele>64.893</ele><time>2022-10-15T10:18:35Z</time></trkpt><trkpt lat="36.430621" lon="30.482268"><ele>64.453</ele><time>2022-10-15T10:18:42Z</time></trkpt><trkpt lat="36.430643" lon="30.482217"><ele>63.598</ele><time>2022-10-15T10:18:48Z</time></trkpt><trkpt lat="36.430687" lon="30.482250"><ele>62.585</ele><time>2022-10-15T10:18:54Z</time></trkpt><trkpt lat="36.430718" lon="30.482302"><ele>61.957</ele><time>2022-10-15T10:19:00Z</time></trkpt><trkpt lat="36.430744" lon="30.482350"><ele>60.553</ele><time>2022-10-15T10:19:07Z</time></trkpt><trkpt lat="36.430793" lon="30.482374"><ele>57.715</ele><time>2022-10-15T10:19:15Z</time></trkpt><trkpt lat="36.430809" lon="30.482312"><ele>55.779</ele><time>2022-10-15T10:19:24Z</time></trkpt><trkpt lat="36.430824" lon="30.482370"><ele>55.230</ele><time>2022-10-15T10:19:27Z</time></trkpt><trkpt lat="36.430857" lon="30.482410"><ele>54.675</ele><time>2022-10-15T10:19:31Z</time></trkpt><trkpt lat="36.430889" lon="30.482450"><ele>52.928</ele><time>2022-10-15T10:19:36Z</time></trkpt><trkpt lat="36.430923" lon="30.482494"><ele>47.620</ele><time>2022-10-15T10:19:41Z</time></trkpt><trkpt lat="36.430940" lon="30.482550"><ele>46.209</ele><time>2022-10-15T10:19:46Z</time></trkpt><trkpt lat="36.430966" lon="30.482600"><ele>45.688</ele><time>2022-10-15T10:19:52Z</time></trkpt><trkpt lat="36.430999" lon="30.482558"><ele>44.958</ele><time>2022-10-15T10:20:01Z</time></trkpt><trkpt lat="36.431008" lon="30.482501"><ele>44.313</ele><time>2022-10-15T10:20:06Z</time></trkpt><trkpt lat="36.431015" lon="30.482433"><ele>43.790</ele><time>2022-10-15T10:20:12Z</time></trkpt><trkpt lat="36.431009" lon="30.482377"><ele>43.012</ele><time>2022-10-15T10:20:16Z</time></trkpt><trkpt lat="36.431048" lon="30.482405"><ele>42.598</ele><time>2022-10-15T10:20:24Z</time></trkpt><trkpt lat="36.431083" lon="30.482445"><ele>40.810</ele><time>2022-10-15T10:20:30Z</time></trkpt><trkpt lat="36.431113" lon="30.482392"><ele>39.394</ele><time>2022-10-15T10:20:36Z</time></trkpt><trkpt lat="36.431114" lon="30.482334"><ele>38.435</ele><time>2022-10-15T10:20:42Z</time></trkpt><trkpt lat="36.431102" lon="30.482274"><ele>36.288</ele><time>2022-10-15T10:20:47Z</time></trkpt><trkpt lat="36.431094" lon="30.482204"><ele>35.324</ele><time>2022-10-15T10:20:52Z</time></trkpt><trkpt lat="36.431115" lon="30.482144"><ele>34.226</ele><time>2022-10-15T10:20:58Z</time></trkpt><trkpt lat="36.431163" lon="30.482112"><ele>33.509</ele><time>2022-10-15T10:21:04Z</time></trkpt><trkpt lat="36.431198" lon="30.482070"><ele>31.459</ele><time>2022-10-15T10:21:09Z</time></trkpt><trkpt lat="36.431242" lon="30.482043"><ele>28.929</ele><time>2022-10-15T10:21:15Z</time></trkpt><trkpt lat="36.431250" lon="30.481985"><ele>28.144</ele><time>2022-10-15T10:21:21Z</time></trkpt><trkpt lat="36.431275" lon="30.481936"><ele>27.791</ele><time>2022-10-15T10:21:26Z</time></trkpt><trkpt lat="36.431290" lon="30.481876"><ele>25.883</ele><time>2022-10-15T10:21:31Z</time></trkpt><trkpt lat="36.431302" lon="30.481812"><ele>25.689</ele><time>2022-10-15T10:21:36Z</time></trkpt><trkpt lat="36.431347" lon="30.481806"><ele>25.361</ele><time>2022-10-15T10:21:42Z</time></trkpt><trkpt lat="36.431355" lon="30.481747"><ele>24.925</ele><time>2022-10-15T10:21:48Z</time></trkpt><trkpt lat="36.431358" lon="30.481684"><ele>24.526</ele><time>2022-10-15T10:21:54Z</time></trkpt><trkpt lat="36.431355" lon="30.481625"><ele>24.127</ele><time>2022-10-15T10:22:00Z</time></trkpt><trkpt lat="36.431385" lon="30.481578"><ele>21.868</ele><time>2022-10-15T10:22:06Z</time></trkpt><trkpt lat="36.431425" lon="30.481619"><ele>20.314</ele><time>2022-10-15T10:22:14Z</time></trkpt><trkpt lat="36.431475" lon="30.481620"><ele>19.109</ele><time>2022-10-15T10:22:21Z</time></trkpt><trkpt lat="36.431518" lon="30.481587"><ele>18.653</ele><time>2022-10-15T10:22:26Z</time></trkpt><trkpt lat="36.431558" lon="30.481560"><ele>16.413</ele><time>2022-10-15T10:22:45Z</time></trkpt><trkpt lat="36.431601" lon="30.481511"><ele>15.658</ele><time>2022-10-15T10:22:48Z</time></trkpt><trkpt lat="36.431653" lon="30.481491"><ele>14.835</ele><time>2022-10-15T10:22:54Z</time></trkpt><trkpt lat="36.431702" lon="30.481510"><ele>13.887</ele><time>2022-10-15T10:22:59Z</time></trkpt><trkpt lat="36.431745" lon="30.481552"><ele>13.443</ele><time>2022-10-15T10:23:04Z</time></trkpt><trkpt lat="36.431767" lon="30.481605"><ele>13.645</ele><time>2022-10-15T10:23:09Z</time></trkpt><trkpt lat="36.431799" lon="30.481649"><ele>13.949</ele><time>2022-10-15T10:23:15Z</time></trkpt><trkpt lat="36.431843" lon="30.481680"><ele>14.830</ele><time>2022-10-15T10:23:27Z</time></trkpt><trkpt lat="36.431895" lon="30.481677"><ele>15.456</ele><time>2022-10-15T10:23:32Z</time></trkpt><trkpt lat="36.431940" lon="30.481703"><ele>15.559</ele><time>2022-10-15T10:23:36Z</time></trkpt><trkpt lat="36.431972" lon="30.481744"><ele>15.714</ele><time>2022-10-15T10:23:41Z</time></trkpt><trkpt lat="36.432018" lon="30.481720"><ele>16.009</ele><time>2022-10-15T10:23:48Z</time></trkpt><trkpt lat="36.432047" lon="30.481768"><ele>16.086</ele><time>2022-10-15T10:23:56Z</time></trkpt><trkpt lat="36.432076" lon="30.481821"><ele>16.576</ele><time>2022-10-15T10:24:04Z</time></trkpt><trkpt lat="36.432111" lon="30.481862"><ele>16.821</ele><time>2022-10-15T10:24:10Z</time></trkpt><trkpt lat="36.432175" lon="30.481871"><ele>17.568</ele><time>2022-10-15T10:24:17Z</time></trkpt><trkpt lat="36.432207" lon="30.481829"><ele>18.230</ele><time>2022-10-15T10:24:21Z</time></trkpt><trkpt lat="36.432249" lon="30.481790"><ele>18.326</ele><time>2022-10-15T10:24:25Z</time></trkpt><trkpt lat="36.432298" lon="30.481806"><ele>18.178</ele><time>2022-10-15T10:24:32Z</time></trkpt><trkpt lat="36.432337" lon="30.481838"><ele>18.352</ele><time>2022-10-15T10:24:39Z</time></trkpt><trkpt lat="36.432377" lon="30.481879"><ele>18.333</ele><time>2022-10-15T10:24:45Z</time></trkpt><trkpt lat="36.432412" lon="30.481923"><ele>18.766</ele><time>2022-10-15T10:24:53Z</time></trkpt><trkpt lat="36.432439" lon="30.481975"><ele>20.229</ele><time>2022-10-15T10:24:59Z</time></trkpt><trkpt lat="36.432464" lon="30.482022"><ele>20.521</ele><time>2022-10-15T10:25:03Z</time></trkpt><trkpt lat="36.432484" lon="30.481956"><ele>20.509</ele><time>2022-10-15T10:25:13Z</time></trkpt><trkpt lat="36.432516" lon="30.481911"><ele>19.517</ele><time>2022-10-15T10:25:19Z</time></trkpt><trkpt lat="36.432542" lon="30.481865"><ele>18.467</ele><time>2022-10-15T10:25:24Z</time></trkpt><trkpt lat="36.432549" lon="30.481803"><ele>16.642</ele><time>2022-10-15T10:25:30Z</time></trkpt><trkpt lat="36.432568" lon="30.481743"><ele>16.179</ele><time>2022-10-15T10:25:37Z</time></trkpt><trkpt lat="36.432595" lon="30.481688"><ele>15.791</ele><time>2022-10-15T10:25:43Z</time></trkpt><trkpt lat="36.432613" lon="30.481630"><ele>15.357</ele><time>2022-10-15T10:25:49Z</time></trkpt><trkpt lat="36.432638" lon="30.481579"><ele>15.099</ele><time>2022-10-15T10:25:55Z</time></trkpt><trkpt lat="36.432664" lon="30.481526"><ele>14.643</ele><time>2022-10-15T10:25:59Z</time></trkpt><trkpt lat="36.432680" lon="30.481455"><ele>12.324</ele><time>2022-10-15T10:26:03Z</time></trkpt><trkpt lat="36.432692" lon="30.481389"><ele>11.915</ele><time>2022-10-15T10:26:07Z</time></trkpt><trkpt lat="36.432714" lon="30.481329"><ele>11.365</ele><time>2022-10-15T10:26:11Z</time></trkpt><trkpt lat="36.432766" lon="30.481312"><ele>14.211</ele><time>2022-10-15T10:26:15Z</time></trkpt><trkpt lat="36.432806" lon="30.481285"><ele>14.609</ele><time>2022-10-15T10:26:20Z</time></trkpt><trkpt lat="36.432851" lon="30.481264"><ele>14.762</ele><time>2022-10-15T10:26:24Z</time></trkpt><trkpt lat="36.432900" lon="30.481253"><ele>15.252</ele><time>2022-10-15T10:26:29Z</time></trkpt><trkpt lat="36.432949" lon="30.481234"><ele>15.947</ele><time>2022-10-15T10:26:35Z</time></trkpt><trkpt lat="36.432978" lon="30.481186"><ele>16.944</ele><time>2022-10-15T10:26:42Z</time></trkpt><trkpt lat="36.433014" lon="30.481143"><ele>17.456</ele><time>2022-10-15T10:26:50Z</time></trkpt><trkpt lat="36.433038" lon="30.481087"><ele>18.992</ele><time>2022-10-15T10:26:57Z</time></trkpt><trkpt lat="36.433017" lon="30.481029"><ele>23.474</ele><time>2022-10-15T10:27:13Z</time></trkpt><trkpt lat="36.433016" lon="30.480971"><ele>27.088</ele><time>2022-10-15T10:27:33Z</time></trkpt><trkpt lat="36.433038" lon="30.480920"><ele>27.059</ele><time>2022-10-15T10:27:39Z</time></trkpt><trkpt lat="36.433057" lon="30.480866"><ele>23.537</ele><time>2022-10-15T10:27:45Z</time></trkpt><trkpt lat="36.433067" lon="30.480812"><ele>21.749</ele><time>2022-10-15T10:27:51Z</time></trkpt><trkpt lat="36.433082" lon="30.480750"><ele>21.713</ele><time>2022-10-15T10:28:00Z</time></trkpt><trkpt lat="36.433122" lon="30.480787"><ele>21.409</ele><time>2022-10-15T10:28:09Z</time></trkpt><trkpt lat="36.433146" lon="30.480731"><ele>19.094</ele><time>2022-10-15T10:28:21Z</time></trkpt><trkpt lat="36.433159" lon="30.480670"><ele>18.054</ele><time>2022-10-15T10:28:31Z</time></trkpt><trkpt lat="36.433136" lon="30.480620"><ele>17.379</ele><time>2022-10-15T10:30:01Z</time></trkpt><trkpt lat="36.433105" lon="30.480563"><ele>17.386</ele><time>2022-10-15T10:30:08Z</time></trkpt><trkpt lat="36.433067" lon="30.480532"><ele>17.348</ele><time>2022-10-15T10:30:12Z</time></trkpt><trkpt lat="36.433098" lon="30.480490"><ele>19.884</ele><time>2022-10-15T10:30:22Z</time></trkpt><trkpt lat="36.433138" lon="30.480527"><ele>10.886</ele><time>2022-10-15T10:30:31Z</time></trkpt><trkpt lat="36.433185" lon="30.480526"><ele>9.060</ele><time>2022-10-15T10:30:37Z</time></trkpt><trkpt lat="36.433230" lon="30.480494"><ele>8.391</ele><time>2022-10-15T10:30:44Z</time></trkpt><trkpt lat="36.433259" lon="30.480451"><ele>7.592</ele><time>2022-10-15T10:30:48Z</time></trkpt><trkpt lat="36.433294" lon="30.480405"><ele>7.073</ele><time>2022-10-15T10:30:53Z</time></trkpt><trkpt lat="36.433340" lon="30.480377"><ele>5.620</ele><time>2022-10-15T10:31:51Z</time></trkpt><trkpt lat="36.433372" lon="30.480326"><ele>5.509</ele><time>2022-10-15T10:31:56Z</time></trkpt><trkpt lat="36.433387" lon="30.480267"><ele>5.340</ele><time>2022-10-15T10:32:03Z</time></trkpt><trkpt lat="36.433376" lon="30.480209"><ele>5.650</ele><time>2022-10-15T10:32:08Z</time></trkpt><trkpt lat="36.433371" lon="30.480148"><ele>4.795</ele><time>2022-10-15T10:32:14Z</time></trkpt><trkpt lat="36.433350" lon="30.480097"><ele>1.142</ele><time>2022-10-15T10:32:19Z</time></trkpt><trkpt lat="36.433328" lon="30.480039"><ele>0.914</ele><time>2022-10-15T10:32:24Z</time></trkpt><trkpt lat="36.433348" lon="30.479983"><ele>0.590</ele><time>2022-10-15T10:32:30Z</time></trkpt><trkpt lat="36.433357" lon="30.479916"><ele>0.442</ele><time>2022-10-15T10:32:36Z</time></trkpt><trkpt lat="36.433356" lon="30.479849"><ele>0.496</ele><time>2022-10-15T10:32:47Z</time></trkpt><trkpt lat="36.433398" lon="30.479805"><ele>0.747</ele><time>2022-10-15T10:32:58Z</time></trkpt><trkpt lat="36.433443" lon="30.479789"><ele>2.971</ele><time>2022-10-15T10:33:04Z</time></trkpt><trkpt lat="36.433473" lon="30.479744"><ele>4.541</ele><time>2022-10-15T10:33:09Z</time></trkpt><trkpt lat="36.433512" lon="30.479707"><ele>4.915</ele><time>2022-10-15T10:33:15Z</time></trkpt><trkpt lat="36.433549" lon="30.479665"><ele>5.509</ele><time>2022-10-15T10:33:20Z</time></trkpt><trkpt lat="36.433575" lon="30.479616"><ele>5.798</ele><time>2022-10-15T10:33:25Z</time></trkpt><trkpt lat="36.433619" lon="30.479585"><ele>7.088</ele><time>2022-10-15T10:33:29Z</time></trkpt><trkpt lat="36.433650" lon="30.479544"><ele>10.413</ele><time>2022-10-15T10:33:34Z</time></trkpt><trkpt lat="36.433675" lon="30.479491"><ele>15.660</ele><time>2022-10-15T10:33:40Z</time></trkpt><trkpt lat="36.433721" lon="30.479509"><ele>17.662</ele><time>2022-10-15T10:33:50Z</time></trkpt><trkpt lat="36.433763" lon="30.479482"><ele>20.338</ele><time>2022-10-15T10:33:59Z</time></trkpt><trkpt lat="36.433758" lon="30.479424"><ele>21.730</ele><time>2022-10-15T10:34:07Z</time></trkpt><trkpt lat="36.433805" lon="30.479420"><ele>22.534</ele><time>2022-10-15T10:34:20Z</time></trkpt><trkpt lat="36.433818" lon="30.479476"><ele>22.645</ele><time>2022-10-15T10:34:27Z</time></trkpt><trkpt lat="36.433844" lon="30.479528"><ele>22.924</ele><time>2022-10-15T10:34:34Z</time></trkpt><trkpt lat="36.433889" lon="30.479514"><ele>23.404</ele><time>2022-10-15T10:34:41Z</time></trkpt><trkpt lat="36.433925" lon="30.479478"><ele>23.814</ele><time>2022-10-15T10:34:48Z</time></trkpt><trkpt lat="36.433971" lon="30.479469"><ele>26.509</ele><time>2022-10-15T10:34:58Z</time></trkpt><trkpt lat="36.434019" lon="30.479485"><ele>29.163</ele><time>2022-10-15T10:35:08Z</time></trkpt><trkpt lat="36.434009" lon="30.479544"><ele>31.113</ele><time>2022-10-15T10:35:20Z</time></trkpt><trkpt lat="36.434040" lon="30.479586"><ele>32.958</ele><time>2022-10-15T10:35:31Z</time></trkpt><trkpt lat="36.434059" lon="30.479640"><ele>33.575</ele><time>2022-10-15T10:35:42Z</time></trkpt><trkpt lat="36.434063" lon="30.479701"><ele>34.457</ele><time>2022-10-15T10:35:51Z</time></trkpt><trkpt lat="36.434078" lon="30.479764"><ele>35.953</ele><time>2022-10-15T10:35:56Z</time></trkpt><trkpt lat="36.434118" lon="30.479793"><ele>37.585</ele><time>2022-10-15T10:36:00Z</time></trkpt><trkpt lat="36.434150" lon="30.479842"><ele>40.739</ele><time>2022-10-15T10:36:12Z</time></trkpt><trkpt lat="36.434157" lon="30.479901"><ele>43.190</ele><time>2022-10-15T10:36:21Z</time></trkpt><trkpt lat="36.434202" lon="30.479912"><ele>43.783</ele><time>2022-10-15T10:36:37Z</time></trkpt><trkpt lat="36.434237" lon="30.479876"><ele>44.125</ele><time>2022-10-15T10:36:49Z</time></trkpt><trkpt lat="36.434278" lon="30.479850"><ele>44.517</ele><time>2022-10-15T10:36:59Z</time></trkpt><trkpt lat="36.434327" lon="30.479870"><ele>44.809</ele><time>2022-10-15T10:37:06Z</time></trkpt><trkpt lat="36.434370" lon="30.479844"><ele>50.199</ele><time>2022-10-15T10:37:17Z</time></trkpt><trkpt lat="36.434400" lon="30.479802"><ele>51.859</ele><time>2022-10-15T10:37:25Z</time></trkpt><trkpt lat="36.434441" lon="30.479762"><ele>53.734</ele><time>2022-10-15T10:37:33Z</time></trkpt><trkpt lat="36.434488" lon="30.479788"><ele>54.881</ele><time>2022-10-15T10:37:41Z</time></trkpt><trkpt lat="36.434519" lon="30.479736"><ele>55.693</ele><time>2022-10-15T10:37:45Z</time></trkpt><trkpt lat="36.434568" lon="30.479723"><ele>56.479</ele><time>2022-10-15T10:37:52Z</time></trkpt><trkpt lat="36.434612" lon="30.479737"><ele>57.781</ele><time>2022-10-15T10:38:00Z</time></trkpt><trkpt lat="36.434646" lon="30.479694"><ele>61.045</ele><time>2022-10-15T10:38:08Z</time></trkpt><trkpt lat="36.434686" lon="30.479667"><ele>61.776</ele><time>2022-10-15T10:38:16Z</time></trkpt><trkpt lat="36.434734" lon="30.479686"><ele>64.644</ele><time>2022-10-15T10:38:25Z</time></trkpt><trkpt lat="36.434751" lon="30.479739"><ele>67.605</ele><time>2022-10-15T10:38:32Z</time></trkpt><trkpt lat="36.434781" lon="30.479785"><ele>68.815</ele><time>2022-10-15T10:38:40Z</time></trkpt><trkpt lat="36.434813" lon="30.479834"><ele>69.109</ele><time>2022-10-15T10:38:51Z</time></trkpt><trkpt lat="36.434835" lon="30.479883"><ele>69.375</ele><time>2022-10-15T10:39:03Z</time></trkpt><trkpt lat="36.434882" lon="30.479876"><ele>69.595</ele><time>2022-10-15T10:39:14Z</time></trkpt><trkpt lat="36.434905" lon="30.479826"><ele>69.750</ele><time>2022-10-15T10:39:23Z</time></trkpt><trkpt lat="36.434940" lon="30.479862"><ele>70.297</ele><time>2022-10-15T10:39:31Z</time></trkpt><trkpt lat="36.434944" lon="30.479918"><ele>70.749</ele><time>2022-10-15T10:39:38Z</time></trkpt><trkpt lat="36.434977" lon="30.479965"><ele>72.025</ele><time>2022-10-15T10:39:51Z</time></trkpt><trkpt lat="36.434999" lon="30.480016"><ele>73.347</ele><time>2022-10-15T10:40:02Z</time></trkpt><trkpt lat="36.435038" lon="30.480053"><ele>75.221</ele><time>2022-10-15T10:40:11Z</time></trkpt><trkpt lat="36.435064" lon="30.480107"><ele>76.232</ele><time>2022-10-15T10:40:19Z</time></trkpt><trkpt lat="36.435110" lon="30.480124"><ele>78.552</ele><time>2022-10-15T10:40:28Z</time></trkpt><trkpt lat="36.435157" lon="30.480147"><ele>81.553</ele><time>2022-10-15T10:40:36Z</time></trkpt><trkpt lat="36.435190" lon="30.480186"><ele>82.508</ele><time>2022-10-15T10:40:47Z</time></trkpt><trkpt lat="36.435233" lon="30.480157"><ele>85.709</ele><time>2022-10-15T10:41:58Z</time></trkpt><trkpt lat="36.435282" lon="30.480172"><ele>86.126</ele><time>2022-10-15T10:42:05Z</time></trkpt><trkpt lat="36.435305" lon="30.480228"><ele>86.216</ele><time>2022-10-15T10:42:11Z</time></trkpt><trkpt lat="36.435335" lon="30.480280"><ele>86.541</ele><time>2022-10-15T10:42:36Z</time></trkpt><trkpt lat="36.435381" lon="30.480298"><ele>86.578</ele><time>2022-10-15T10:42:42Z</time></trkpt><trkpt lat="36.435423" lon="30.480338"><ele>86.690</ele><time>2022-10-15T10:42:47Z</time></trkpt><trkpt lat="36.435464" lon="30.480375"><ele>86.636</ele><time>2022-10-15T10:42:53Z</time></trkpt><trkpt lat="36.435505" lon="30.480422"><ele>86.688</ele><time>2022-10-15T10:42:59Z</time></trkpt><trkpt lat="36.435552" lon="30.480427"><ele>86.792</ele><time>2022-10-15T10:43:04Z</time></trkpt><trkpt lat="36.435598" lon="30.480442"><ele>86.743</ele><time>2022-10-15T10:43:09Z</time></trkpt><trkpt lat="36.435646" lon="30.480452"><ele>86.793</ele><time>2022-10-15T10:43:14Z</time></trkpt><trkpt lat="36.435688" lon="30.480478"><ele>86.065</ele><time>2022-10-15T10:43:19Z</time></trkpt><trkpt lat="36.435731" lon="30.480501"><ele>86.021</ele><time>2022-10-15T10:43:24Z</time></trkpt><trkpt lat="36.435786" lon="30.480508"><ele>86.109</ele><time>2022-10-15T10:43:29Z</time></trkpt><trkpt lat="36.435832" lon="30.480501"><ele>85.230</ele><time>2022-10-15T10:43:34Z</time></trkpt><trkpt lat="36.435882" lon="30.480501"><ele>83.510</ele><time>2022-10-15T10:43:39Z</time></trkpt><trkpt lat="36.435930" lon="30.480521"><ele>83.045</ele><time>2022-10-15T10:43:44Z</time></trkpt><trkpt lat="36.435976" lon="30.480517"><ele>80.582</ele><time>2022-10-15T10:43:49Z</time></trkpt><trkpt lat="36.436021" lon="30.480506"><ele>79.534</ele><time>2022-10-15T10:43:54Z</time></trkpt><trkpt lat="36.436070" lon="30.480508"><ele>79.090</ele><time>2022-10-15T10:43:59Z</time></trkpt><trkpt lat="36.436115" lon="30.480513"><ele>77.372</ele><time>2022-10-15T10:44:03Z</time></trkpt><trkpt lat="36.436168" lon="30.480530"><ele>77.396</ele><time>2022-10-15T10:44:08Z</time></trkpt><trkpt lat="36.436215" lon="30.480552"><ele>77.117</ele><time>2022-10-15T10:44:15Z</time></trkpt><trkpt lat="36.436252" lon="30.480596"><ele>78.243</ele><time>2022-10-15T10:44:21Z</time></trkpt><trkpt lat="36.436262" lon="30.480652"><ele>78.664</ele><time>2022-10-15T10:44:26Z</time></trkpt><trkpt lat="36.436272" lon="30.480711"><ele>79.110</ele><time>2022-10-15T10:44:31Z</time></trkpt><trkpt lat="36.436263" lon="30.480768"><ele>79.209</ele><time>2022-10-15T10:44:36Z</time></trkpt><trkpt lat="36.436248" lon="30.480832"><ele>79.235</ele><time>2022-10-15T10:44:42Z</time></trkpt><trkpt lat="36.436246" lon="30.480895"><ele>79.175</ele><time>2022-10-15T10:44:48Z</time></trkpt><trkpt lat="36.436243" lon="30.480952"><ele>79.160</ele><time>2022-10-15T10:44:53Z</time></trkpt><trkpt lat="36.436228" lon="30.481014"><ele>77.967</ele><time>2022-10-15T10:45:01Z</time></trkpt><trkpt lat="36.436214" lon="30.481072"><ele>76.489</ele><time>2022-10-15T10:45:07Z</time></trkpt><trkpt lat="36.436225" lon="30.481131"><ele>74.835</ele><time>2022-10-15T10:45:12Z</time></trkpt><trkpt lat="36.436221" lon="30.481187"><ele>73.137</ele><time>2022-10-15T10:45:17Z</time></trkpt><trkpt lat="36.436205" lon="30.481243"><ele>70.011</ele><time>2022-10-15T10:45:23Z</time></trkpt><trkpt lat="36.436218" lon="30.481309"><ele>68.032</ele><time>2022-10-15T10:45:30Z</time></trkpt><trkpt lat="36.436215" lon="30.481367"><ele>66.895</ele><time>2022-10-15T10:45:37Z</time></trkpt><trkpt lat="36.436205" lon="30.481425"><ele>66.049</ele><time>2022-10-15T10:45:45Z</time></trkpt><trkpt lat="36.436217" lon="30.481485"><ele>64.123</ele><time>2022-10-15T10:45:57Z</time></trkpt><trkpt lat="36.436227" lon="30.481543"><ele>61.609</ele><time>2022-10-15T10:46:05Z</time></trkpt><trkpt lat="36.436212" lon="30.481603"><ele>60.850</ele><time>2022-10-15T10:46:14Z</time></trkpt><trkpt lat="36.436258" lon="30.481629"><ele>59.660</ele><time>2022-10-15T10:46:21Z</time></trkpt><trkpt lat="36.436305" lon="30.481638"><ele>56.355</ele><time>2022-10-15T10:46:32Z</time></trkpt><trkpt lat="36.436348" lon="30.481653"><ele>55.632</ele><time>2022-10-15T10:46:38Z</time></trkpt><trkpt lat="36.436391" lon="30.481679"><ele>54.834</ele><time>2022-10-15T10:46:44Z</time></trkpt><trkpt lat="36.436414" lon="30.481737"><ele>51.450</ele><time>2022-10-15T10:46:51Z</time></trkpt><trkpt lat="36.436446" lon="30.481777"><ele>49.192</ele><time>2022-10-15T10:46:59Z</time></trkpt><trkpt lat="36.436416" lon="30.481824"><ele>48.516</ele><time>2022-10-15T10:47:09Z</time></trkpt><trkpt lat="36.436373" lon="30.481839"><ele>48.477</ele><time>2022-10-15T10:47:15Z</time></trkpt><trkpt lat="36.436385" lon="30.481894"><ele>44.321</ele><time>2022-10-15T10:47:50Z</time></trkpt><trkpt lat="36.436373" lon="30.481948"><ele>43.841</ele><time>2022-10-15T10:48:18Z</time></trkpt><trkpt lat="36.436324" lon="30.481932"><ele>43.705</ele><time>2022-10-15T10:48:24Z</time></trkpt><trkpt lat="36.436276" lon="30.481963"><ele>43.709</ele><time>2022-10-15T10:48:31Z</time></trkpt><trkpt lat="36.436273" lon="30.482029"><ele>44.163</ele><time>2022-10-15T10:48:36Z</time></trkpt><trkpt lat="36.436244" lon="30.482087"><ele>44.393</ele><time>2022-10-15T10:50:32Z</time></trkpt><trkpt lat="36.436292" lon="30.482108"><ele>44.248</ele><time>2022-10-15T10:50:40Z</time></trkpt><trkpt lat="36.436343" lon="30.482118"><ele>44.285</ele><time>2022-10-15T10:50:47Z</time></trkpt><trkpt lat="36.436375" lon="30.482164"><ele>42.337</ele><time>2022-10-15T10:50:55Z</time></trkpt><trkpt lat="36.436422" lon="30.482191"><ele>38.623</ele><time>2022-10-15T10:51:02Z</time></trkpt><trkpt lat="36.436468" lon="30.482185"><ele>38.755</ele><time>2022-10-15T10:51:07Z</time></trkpt><trkpt lat="36.436517" lon="30.482177"><ele>38.469</ele><time>2022-10-15T10:51:12Z</time></trkpt><trkpt lat="36.436564" lon="30.482199"><ele>38.420</ele><time>2022-10-15T10:51:18Z</time></trkpt><trkpt lat="36.436613" lon="30.482188"><ele>38.787</ele><time>2022-10-15T10:51:24Z</time></trkpt><trkpt lat="36.436670" lon="30.482184"><ele>39.942</ele><time>2022-10-15T10:51:30Z</time></trkpt><trkpt lat="36.436712" lon="30.482213"><ele>38.826</ele><time>2022-10-15T10:51:37Z</time></trkpt><trkpt lat="36.436757" lon="30.482217"><ele>38.309</ele><time>2022-10-15T10:51:43Z</time></trkpt><trkpt lat="36.436807" lon="30.482252"><ele>37.839</ele><time>2022-10-15T10:51:48Z</time></trkpt><trkpt lat="36.436856" lon="30.482291"><ele>35.029</ele><time>2022-10-15T10:51:55Z</time></trkpt><trkpt lat="36.436901" lon="30.482307"><ele>34.414</ele><time>2022-10-15T10:52:02Z</time></trkpt><trkpt lat="36.436945" lon="30.482327"><ele>33.641</ele><time>2022-10-15T10:52:08Z</time></trkpt><trkpt lat="36.436981" lon="30.482367"><ele>31.053</ele><time>2022-10-15T10:52:17Z</time></trkpt><trkpt lat="36.437001" lon="30.482418"><ele>30.289</ele><time>2022-10-15T10:52:26Z</time></trkpt><trkpt lat="36.437026" lon="30.482470"><ele>25.281</ele><time>2022-10-15T10:52:35Z</time></trkpt><trkpt lat="36.437043" lon="30.482530"><ele>22.915</ele><time>2022-10-15T10:52:40Z</time></trkpt><trkpt lat="36.437094" lon="30.482538"><ele>18.846</ele><time>2022-10-15T10:52:49Z</time></trkpt><trkpt lat="36.437140" lon="30.482531"><ele>18.274</ele><time>2022-10-15T10:52:54Z</time></trkpt><trkpt lat="36.437153" lon="30.482586"><ele>16.456</ele><time>2022-10-15T10:53:03Z</time></trkpt><trkpt lat="36.437161" lon="30.482648"><ele>15.121</ele><time>2022-10-15T10:53:09Z</time></trkpt><trkpt lat="36.437169" lon="30.482711"><ele>14.709</ele><time>2022-10-15T10:53:16Z</time></trkpt><trkpt lat="36.437162" lon="30.482772"><ele>13.718</ele><time>2022-10-15T10:53:23Z</time></trkpt><trkpt lat="36.437166" lon="30.482831"><ele>13.368</ele><time>2022-10-15T10:53:29Z</time></trkpt><trkpt lat="36.437165" lon="30.482889"><ele>10.293</ele><time>2022-10-15T10:53:36Z</time></trkpt><trkpt lat="36.437195" lon="30.482932"><ele>9.940</ele><time>2022-10-15T10:53:40Z</time></trkpt><trkpt lat="36.437273" lon="30.482915"><ele>9.962</ele><time>2022-10-15T10:53:44Z</time></trkpt><trkpt lat="36.437246" lon="30.482962"><ele>12.968</ele><time>2022-10-15T10:54:29Z</time></trkpt><trkpt lat="36.437278" lon="30.483015"><ele>13.260</ele><time>2022-10-15T10:54:35Z</time></trkpt><trkpt lat="36.437281" lon="30.483071"><ele>13.314</ele><time>2022-10-15T10:54:39Z</time></trkpt><trkpt lat="36.437322" lon="30.483102"><ele>13.065</ele><time>2022-10-15T10:54:45Z</time></trkpt><trkpt lat="36.437358" lon="30.483147"><ele>12.541</ele><time>2022-10-15T10:54:53Z</time></trkpt><trkpt lat="36.437400" lon="30.483172"><ele>11.381</ele><time>2022-10-15T10:54:59Z</time></trkpt><trkpt lat="36.437421" lon="30.483229"><ele>11.609</ele><time>2022-10-15T10:55:05Z</time></trkpt><trkpt lat="36.437467" lon="30.483260"><ele>11.309</ele><time>2022-10-15T10:55:11Z</time></trkpt><trkpt lat="36.437512" lon="30.483271"><ele>10.335</ele><time>2022-10-15T10:55:15Z</time></trkpt><trkpt lat="36.437557" lon="30.483270"><ele>10.285</ele><time>2022-10-15T10:55:19Z</time></trkpt><trkpt lat="36.437600" lon="30.483291"><ele>10.160</ele><time>2022-10-15T10:55:24Z</time></trkpt><trkpt lat="36.437633" lon="30.483331"><ele>7.037</ele><time>2022-10-15T10:55:42Z</time></trkpt><trkpt lat="36.437677" lon="30.483361"><ele>6.579</ele><time>2022-10-15T10:55:49Z</time></trkpt><trkpt lat="36.437722" lon="30.483363"><ele>6.485</ele><time>2022-10-15T10:55:54Z</time></trkpt><trkpt lat="36.437765" lon="30.483345"><ele>6.477</ele><time>2022-10-15T10:55:59Z</time></trkpt><trkpt lat="36.437810" lon="30.483344"><ele>5.851</ele><time>2022-10-15T10:56:04Z</time></trkpt><trkpt lat="36.437865" lon="30.483342"><ele>5.022</ele><time>2022-10-15T10:56:09Z</time></trkpt><trkpt lat="36.437912" lon="30.483367"><ele>4.363</ele><time>2022-10-15T10:56:14Z</time></trkpt><trkpt lat="36.437958" lon="30.483369"><ele>4.544</ele><time>2022-10-15T10:56:19Z</time></trkpt><trkpt lat="36.438011" lon="30.483371"><ele>4.618</ele><time>2022-10-15T10:56:25Z</time></trkpt><trkpt lat="36.438059" lon="30.483394"><ele>4.809</ele><time>2022-10-15T10:56:30Z</time></trkpt><trkpt lat="36.438108" lon="30.483410"><ele>5.047</ele><time>2022-10-15T10:56:35Z</time></trkpt><trkpt lat="36.438159" lon="30.483425"><ele>5.137</ele><time>2022-10-15T10:56:39Z</time></trkpt><trkpt lat="36.438212" lon="30.483428"><ele>5.662</ele><time>2022-10-15T10:56:43Z</time></trkpt><trkpt lat="36.438264" lon="30.483412"><ele>6.179</ele><time>2022-10-15T10:56:48Z</time></trkpt><trkpt lat="36.438312" lon="30.483413"><ele>6.181</ele><time>2022-10-15T10:56:53Z</time></trkpt><trkpt lat="36.438328" lon="30.483478"><ele>6.067</ele><time>2022-10-15T10:56:58Z</time></trkpt><trkpt lat="36.438342" lon="30.483538"><ele>5.839</ele><time>2022-10-15T10:57:02Z</time></trkpt><trkpt lat="36.438386" lon="30.483527"><ele>6.463</ele><time>2022-10-15T10:58:05Z</time></trkpt><trkpt lat="36.438340" lon="30.483670"><ele>6.434</ele><time>2022-10-15T10:58:49Z</time></trkpt><trkpt lat="36.438326" lon="30.483723"><ele>7.729</ele><time>2022-10-15T10:59:08Z</time></trkpt><trkpt lat="36.438352" lon="30.483771"><ele>12.000</ele><time>2022-10-15T10:59:12Z</time></trkpt><trkpt lat="36.438368" lon="30.483826"><ele>12.220</ele><time>2022-10-15T10:59:17Z</time></trkpt><trkpt lat="36.438381" lon="30.483885"><ele>12.609</ele><time>2022-10-15T10:59:22Z</time></trkpt><trkpt lat="36.438403" lon="30.483939"><ele>13.643</ele><time>2022-10-15T10:59:30Z</time></trkpt><trkpt lat="36.438431" lon="30.483987"><ele>15.843</ele><time>2022-10-15T10:59:36Z</time></trkpt><trkpt lat="36.438449" lon="30.484054"><ele>16.548</ele><time>2022-10-15T10:59:42Z</time></trkpt><trkpt lat="36.438463" lon="30.484108"><ele>17.395</ele><time>2022-10-15T10:59:47Z</time></trkpt><trkpt lat="36.438499" lon="30.484145"><ele>17.917</ele><time>2022-10-15T10:59:54Z</time></trkpt><trkpt lat="36.438544" lon="30.484152"><ele>17.963</ele><time>2022-10-15T11:00:00Z</time></trkpt><trkpt lat="36.438574" lon="30.484196"><ele>17.995</ele><time>2022-10-15T11:00:05Z</time></trkpt><trkpt lat="36.438614" lon="30.484233"><ele>16.699</ele><time>2022-10-15T11:00:14Z</time></trkpt><trkpt lat="36.438633" lon="30.484284"><ele>16.630</ele><time>2022-10-15T11:00:21Z</time></trkpt><trkpt lat="36.438661" lon="30.484330"><ele>16.636</ele><time>2022-10-15T11:00:30Z</time></trkpt><trkpt lat="36.438707" lon="30.484338"><ele>17.117</ele><time>2022-10-15T11:00:39Z</time></trkpt><trkpt lat="36.438751" lon="30.484350"><ele>19.118</ele><time>2022-10-15T11:00:48Z</time></trkpt><trkpt lat="36.438803" lon="30.484347"><ele>20.109</ele><time>2022-10-15T11:00:56Z</time></trkpt><trkpt lat="36.438845" lon="30.484319"><ele>21.674</ele><time>2022-10-15T11:01:03Z</time></trkpt><trkpt lat="36.438869" lon="30.484256"><ele>22.354</ele><time>2022-10-15T11:01:08Z</time></trkpt><trkpt lat="36.438895" lon="30.484208"><ele>24.519</ele><time>2022-10-15T11:01:11Z</time></trkpt><trkpt lat="36.438939" lon="30.484190"><ele>25.936</ele><time>2022-10-15T11:01:15Z</time></trkpt><trkpt lat="36.438983" lon="30.484217"><ele>27.548</ele><time>2022-10-15T11:01:22Z</time></trkpt><trkpt lat="36.439006" lon="30.484273"><ele>33.514</ele><time>2022-10-15T11:01:30Z</time></trkpt><trkpt lat="36.439017" lon="30.484331"><ele>34.656</ele><time>2022-10-15T11:01:39Z</time></trkpt><trkpt lat="36.439010" lon="30.484391"><ele>35.320</ele><time>2022-10-15T11:01:48Z</time></trkpt><trkpt lat="36.439014" lon="30.484448"><ele>36.331</ele><time>2022-10-15T11:01:59Z</time></trkpt><trkpt lat="36.439063" lon="30.484457"><ele>37.748</ele><time>2022-10-15T11:02:16Z</time></trkpt><trkpt lat="36.439107" lon="30.484439"><ele>38.561</ele><time>2022-10-15T11:02:28Z</time></trkpt><trkpt lat="36.439149" lon="30.484415"><ele>39.817</ele><time>2022-10-15T11:02:38Z</time></trkpt><trkpt lat="36.439170" lon="30.484471"><ele>41.309</ele><time>2022-10-15T11:02:48Z</time></trkpt><trkpt lat="36.439177" lon="30.484530"><ele>42.535</ele><time>2022-10-15T11:02:56Z</time></trkpt><trkpt lat="36.439187" lon="30.484588"><ele>42.915</ele><time>2022-10-15T11:03:05Z</time></trkpt><trkpt lat="36.439194" lon="30.484645"><ele>43.260</ele><time>2022-10-15T11:03:11Z</time></trkpt><trkpt lat="36.439192" lon="30.484703"><ele>43.277</ele><time>2022-10-15T11:03:17Z</time></trkpt><trkpt lat="36.439233" lon="30.484729"><ele>43.529</ele><time>2022-10-15T11:03:24Z</time></trkpt><trkpt lat="36.439280" lon="30.484738"><ele>43.275</ele><time>2022-10-15T11:03:31Z</time></trkpt><trkpt lat="36.439330" lon="30.484734"><ele>43.767</ele><time>2022-10-15T11:03:38Z</time></trkpt><trkpt lat="36.439375" lon="30.484709"><ele>43.951</ele><time>2022-10-15T11:03:44Z</time></trkpt><trkpt lat="36.439370" lon="30.484767"><ele>43.972</ele><time>2022-10-15T11:03:56Z</time></trkpt><trkpt lat="36.439352" lon="30.484821"><ele>43.786</ele><time>2022-10-15T11:04:03Z</time></trkpt><trkpt lat="36.439331" lon="30.484874"><ele>41.860</ele><time>2022-10-15T11:04:10Z</time></trkpt><trkpt lat="36.439310" lon="30.484925"><ele>39.126</ele><time>2022-10-15T11:04:33Z</time></trkpt><trkpt lat="36.439280" lon="30.484977"><ele>39.109</ele><time>2022-10-15T11:04:37Z</time></trkpt><trkpt lat="36.439248" lon="30.485028"><ele>39.079</ele><time>2022-10-15T11:04:41Z</time></trkpt><trkpt lat="36.439247" lon="30.485087"><ele>39.069</ele><time>2022-10-15T11:04:46Z</time></trkpt><trkpt lat="36.439246" lon="30.485151"><ele>39.184</ele><time>2022-10-15T11:04:52Z</time></trkpt><trkpt lat="36.439225" lon="30.485212"><ele>40.551</ele><time>2022-10-15T11:04:57Z</time></trkpt><trkpt lat="36.439208" lon="30.485274"><ele>41.063</ele><time>2022-10-15T11:05:03Z</time></trkpt><trkpt lat="36.439180" lon="30.485323"><ele>41.259</ele><time>2022-10-15T11:05:10Z</time></trkpt><trkpt lat="36.439169" lon="30.485385"><ele>41.071</ele><time>2022-10-15T11:05:16Z</time></trkpt><trkpt lat="36.439129" lon="30.485434"><ele>40.655</ele><time>2022-10-15T11:05:23Z</time></trkpt><trkpt lat="36.439139" lon="30.485493"><ele>38.846</ele><time>2022-10-15T11:05:28Z</time></trkpt><trkpt lat="36.439187" lon="30.485474"><ele>38.222</ele><time>2022-10-15T11:05:33Z</time></trkpt><trkpt lat="36.439218" lon="30.485430"><ele>36.862</ele><time>2022-10-15T11:05:37Z</time></trkpt><trkpt lat="36.439232" lon="30.485375"><ele>35.708</ele><time>2022-10-15T11:05:41Z</time></trkpt><trkpt lat="36.439282" lon="30.485373"><ele>29.509</ele><time>2022-10-15T11:05:47Z</time></trkpt><trkpt lat="36.439331" lon="30.485350"><ele>26.853</ele><time>2022-10-15T11:05:55Z</time></trkpt><trkpt lat="36.439379" lon="30.485328"><ele>25.763</ele><time>2022-10-15T11:06:02Z</time></trkpt><trkpt lat="36.439371" lon="30.485385"><ele>24.628</ele><time>2022-10-15T11:06:08Z</time></trkpt><trkpt lat="36.439347" lon="30.485435"><ele>24.035</ele><time>2022-10-15T11:06:14Z</time></trkpt><trkpt lat="36.439332" lon="30.485491"><ele>23.187</ele><time>2022-10-15T11:06:20Z</time></trkpt><trkpt lat="36.439322" lon="30.485554"><ele>19.843</ele><time>2022-10-15T11:06:26Z</time></trkpt><trkpt lat="36.439308" lon="30.485613"><ele>18.845</ele><time>2022-10-15T11:06:33Z</time></trkpt><trkpt lat="36.439269" lon="30.485656"><ele>17.799</ele><time>2022-10-15T11:06:39Z</time></trkpt><trkpt lat="36.439247" lon="30.485713"><ele>16.010</ele><time>2022-10-15T11:06:43Z</time></trkpt><trkpt lat="36.439230" lon="30.485767"><ele>15.493</ele><time>2022-10-15T11:06:47Z</time></trkpt><trkpt lat="36.439194" lon="30.485808"><ele>15.265</ele><time>2022-10-15T11:06:52Z</time></trkpt><trkpt lat="36.439147" lon="30.485840"><ele>15.321</ele><time>2022-10-15T11:06:57Z</time></trkpt><trkpt lat="36.439102" lon="30.485868"><ele>15.809</ele><time>2022-10-15T11:07:01Z</time></trkpt><trkpt lat="36.439077" lon="30.485920"><ele>16.090</ele><time>2022-10-15T11:07:06Z</time></trkpt><trkpt lat="36.439054" lon="30.485975"><ele>16.370</ele><time>2022-10-15T11:07:11Z</time></trkpt><trkpt lat="36.439018" lon="30.486018"><ele>16.275</ele><time>2022-10-15T11:07:17Z</time></trkpt><trkpt lat="36.438990" lon="30.486063"><ele>16.062</ele><time>2022-10-15T11:07:22Z</time></trkpt><trkpt lat="36.438967" lon="30.486126"><ele>13.864</ele><time>2022-10-15T11:07:27Z</time></trkpt><trkpt lat="36.438969" lon="30.486189"><ele>11.260</ele><time>2022-10-15T11:07:31Z</time></trkpt><trkpt lat="36.438976" lon="30.486245"><ele>10.352</ele><time>2022-10-15T11:07:34Z</time></trkpt><trkpt lat="36.438978" lon="30.486301"><ele>10.086</ele><time>2022-10-15T11:07:37Z</time></trkpt><trkpt lat="36.438980" lon="30.486374"><ele>9.727</ele><time>2022-10-15T11:07:41Z</time></trkpt><trkpt lat="36.438977" lon="30.486432"><ele>10.174</ele><time>2022-10-15T11:07:45Z</time></trkpt><trkpt lat="36.438991" lon="30.486486"><ele>11.156</ele><time>2022-10-15T11:07:50Z</time></trkpt><trkpt lat="36.439023" lon="30.486527"><ele>11.321</ele><time>2022-10-15T11:07:54Z</time></trkpt><trkpt lat="36.439053" lon="30.486573"><ele>11.309</ele><time>2022-10-15T11:07:58Z</time></trkpt><trkpt lat="36.439073" lon="30.486628"><ele>11.248</ele><time>2022-10-15T11:08:02Z</time></trkpt><trkpt lat="36.439057" lon="30.486687"><ele>10.728</ele><time>2022-10-15T11:08:06Z</time></trkpt><trkpt lat="36.439036" lon="30.486749"><ele>10.763</ele><time>2022-10-15T11:08:11Z</time></trkpt><trkpt lat="36.439033" lon="30.486808"><ele>10.770</ele><time>2022-10-15T11:08:15Z</time></trkpt><trkpt lat="36.439023" lon="30.486866"><ele>10.962</ele><time>2022-10-15T11:08:19Z</time></trkpt><trkpt lat="36.438989" lon="30.486918"><ele>11.478</ele><time>2022-10-15T11:08:25Z</time></trkpt><trkpt lat="36.438954" lon="30.486956"><ele>12.170</ele><time>2022-10-15T11:08:28Z</time></trkpt><trkpt lat="36.438905" lon="30.486988"><ele>12.454</ele><time>2022-10-15T11:08:32Z</time></trkpt><trkpt lat="36.438859" lon="30.487034"><ele>12.495</ele><time>2022-10-15T11:08:37Z</time></trkpt><trkpt lat="36.438829" lon="30.487085"><ele>12.268</ele><time>2022-10-15T11:08:42Z</time></trkpt><trkpt lat="36.438791" lon="30.487116"><ele>12.042</ele><time>2022-10-15T11:08:47Z</time></trkpt><trkpt lat="36.438759" lon="30.487165"><ele>12.026</ele><time>2022-10-15T11:08:52Z</time></trkpt><trkpt lat="36.438798" lon="30.487208"><ele>13.009</ele><time>2022-10-15T11:10:21Z</time></trkpt><trkpt lat="36.438823" lon="30.487268"><ele>13.457</ele><time>2022-10-15T11:11:43Z</time></trkpt><trkpt lat="36.438848" lon="30.487330"><ele>13.737</ele><time>2022-10-15T11:11:48Z</time></trkpt><trkpt lat="36.438885" lon="30.487373"><ele>13.772</ele><time>2022-10-15T11:11:52Z</time></trkpt><trkpt lat="36.438924" lon="30.487411"><ele>15.529</ele><time>2022-10-15T11:11:56Z</time></trkpt><trkpt lat="36.438959" lon="30.487455"><ele>15.531</ele><time>2022-10-15T11:12:01Z</time></trkpt><trkpt lat="36.438986" lon="30.487510"><ele>15.427</ele><time>2022-10-15T11:12:06Z</time></trkpt><trkpt lat="36.439004" lon="30.487562"><ele>14.579</ele><time>2022-10-15T11:12:11Z</time></trkpt><trkpt lat="36.439018" lon="30.487628"><ele>12.713</ele><time>2022-10-15T11:12:16Z</time></trkpt><trkpt lat="36.439036" lon="30.487690"><ele>10.594</ele><time>2022-10-15T11:12:21Z</time></trkpt><trkpt lat="36.439058" lon="30.487748"><ele>9.653</ele><time>2022-10-15T11:12:25Z</time></trkpt><trkpt lat="36.439089" lon="30.487806"><ele>9.304</ele><time>2022-10-15T11:12:29Z</time></trkpt><trkpt lat="36.439109" lon="30.487867"><ele>9.114</ele><time>2022-10-15T11:12:34Z</time></trkpt><trkpt lat="36.439130" lon="30.487920"><ele>8.809</ele><time>2022-10-15T11:12:39Z</time></trkpt><trkpt lat="36.439141" lon="30.487988"><ele>8.326</ele><time>2022-10-15T11:12:44Z</time></trkpt><trkpt lat="36.439149" lon="30.488045"><ele>7.986</ele><time>2022-10-15T11:12:48Z</time></trkpt><trkpt lat="36.439164" lon="30.488108"><ele>7.321</ele><time>2022-10-15T11:12:53Z</time></trkpt><trkpt lat="36.439178" lon="30.488172"><ele>7.118</ele><time>2022-10-15T11:12:58Z</time></trkpt><trkpt lat="36.439209" lon="30.488229"><ele>7.060</ele><time>2022-10-15T11:13:02Z</time></trkpt><trkpt lat="36.439248" lon="30.488284"><ele>6.376</ele><time>2022-10-15T11:13:06Z</time></trkpt><trkpt lat="36.439271" lon="30.488339"><ele>6.428</ele><time>2022-10-15T11:13:11Z</time></trkpt><trkpt lat="36.439297" lon="30.488406"><ele>6.352</ele><time>2022-10-15T11:13:15Z</time></trkpt><trkpt lat="36.439335" lon="30.488452"><ele>7.053</ele><time>2022-10-15T11:13:20Z</time></trkpt><trkpt lat="36.439351" lon="30.488507"><ele>8.791</ele><time>2022-10-15T11:13:25Z</time></trkpt><trkpt lat="36.439365" lon="30.488563"><ele>8.581</ele><time>2022-10-15T11:13:29Z</time></trkpt><trkpt lat="36.439386" lon="30.488615"><ele>8.519</ele><time>2022-10-15T11:13:33Z</time></trkpt><trkpt lat="36.439414" lon="30.488664"><ele>8.209</ele><time>2022-10-15T11:13:37Z</time></trkpt><trkpt lat="36.439429" lon="30.488718"><ele>7.920</ele><time>2022-10-15T11:13:42Z</time></trkpt><trkpt lat="36.439449" lon="30.488780"><ele>7.540</ele><time>2022-10-15T11:13:47Z</time></trkpt><trkpt lat="36.439473" lon="30.488842"><ele>6.615</ele><time>2022-10-15T11:13:51Z</time></trkpt><trkpt lat="36.439480" lon="30.488909"><ele>6.442</ele><time>2022-10-15T11:13:56Z</time></trkpt><trkpt lat="36.439485" lon="30.488984"><ele>6.484</ele><time>2022-10-15T11:14:00Z</time></trkpt><trkpt lat="36.439485" lon="30.489052"><ele>6.830</ele><time>2022-10-15T11:14:06Z</time></trkpt><trkpt lat="36.439500" lon="30.489106"><ele>6.922</ele><time>2022-10-15T11:14:10Z</time></trkpt><trkpt lat="36.439508" lon="30.489171"><ele>6.916</ele><time>2022-10-15T11:14:15Z</time></trkpt><trkpt lat="36.439527" lon="30.489232"><ele>7.067</ele><time>2022-10-15T11:14:19Z</time></trkpt><trkpt lat="36.439541" lon="30.489297"><ele>6.887</ele><time>2022-10-15T11:14:24Z</time></trkpt><trkpt lat="36.439548" lon="30.489365"><ele>6.742</ele><time>2022-10-15T11:14:29Z</time></trkpt><trkpt lat="36.439567" lon="30.489428"><ele>6.726</ele><time>2022-10-15T11:14:33Z</time></trkpt><trkpt lat="36.439574" lon="30.489487"><ele>7.109</ele><time>2022-10-15T11:14:37Z</time></trkpt><trkpt lat="36.439585" lon="30.489549"><ele>8.699</ele><time>2022-10-15T11:14:41Z</time></trkpt><trkpt lat="36.439602" lon="30.489602"><ele>10.219</ele><time>2022-10-15T11:14:44Z</time></trkpt><trkpt lat="36.439620" lon="30.489659"><ele>10.914</ele><time>2022-10-15T11:14:48Z</time></trkpt><trkpt lat="36.439625" lon="30.489725"><ele>13.021</ele><time>2022-10-15T11:14:53Z</time></trkpt><trkpt lat="36.439622" lon="30.489784"><ele>13.943</ele><time>2022-10-15T11:14:57Z</time></trkpt><trkpt lat="36.439626" lon="30.489840"><ele>14.029</ele><time>2022-10-15T11:15:01Z</time></trkpt><trkpt lat="36.439625" lon="30.489904"><ele>14.231</ele><time>2022-10-15T11:15:05Z</time></trkpt><trkpt lat="36.439623" lon="30.489972"><ele>14.845</ele><time>2022-10-15T11:15:10Z</time></trkpt><trkpt lat="36.439588" lon="30.490014"><ele>14.926</ele><time>2022-10-15T11:15:14Z</time></trkpt><trkpt lat="36.439555" lon="30.490069"><ele>14.948</ele><time>2022-10-15T11:15:19Z</time></trkpt><trkpt lat="36.439564" lon="30.490131"><ele>14.861</ele><time>2022-10-15T11:15:24Z</time></trkpt><trkpt lat="36.439570" lon="30.490187"><ele>13.517</ele><time>2022-10-15T11:15:33Z</time></trkpt><trkpt lat="36.439579" lon="30.490246"><ele>13.309</ele><time>2022-10-15T11:15:39Z</time></trkpt><trkpt lat="36.439591" lon="30.490307"><ele>13.335</ele><time>2022-10-15T11:15:44Z</time></trkpt><trkpt lat="36.439600" lon="30.490371"><ele>13.465</ele><time>2022-10-15T11:15:49Z</time></trkpt><trkpt lat="36.439609" lon="30.490433"><ele>13.720</ele><time>2022-10-15T11:15:54Z</time></trkpt><trkpt lat="36.439579" lon="30.490490"><ele>13.457</ele><time>2022-10-15T11:16:00Z</time></trkpt><trkpt lat="36.439566" lon="30.490544"><ele>13.599</ele><time>2022-10-15T11:16:05Z</time></trkpt><trkpt lat="36.439556" lon="30.490604"><ele>11.885</ele><time>2022-10-15T11:16:10Z</time></trkpt><trkpt lat="36.439551" lon="30.490664"><ele>10.427</ele><time>2022-10-15T11:16:15Z</time></trkpt><trkpt lat="36.439534" lon="30.490722"><ele>10.191</ele><time>2022-10-15T11:16:20Z</time></trkpt><trkpt lat="36.439508" lon="30.490773"><ele>10.122</ele><time>2022-10-15T11:16:26Z</time></trkpt><trkpt lat="36.439517" lon="30.490843"><ele>10.467</ele><time>2022-10-15T11:16:32Z</time></trkpt><trkpt lat="36.439517" lon="30.490908"><ele>11.481</ele><time>2022-10-15T11:16:38Z</time></trkpt><trkpt lat="36.439505" lon="30.490971"><ele>11.419</ele><time>2022-10-15T11:16:43Z</time></trkpt><trkpt lat="36.439489" lon="30.491025"><ele>11.409</ele><time>2022-10-15T11:16:48Z</time></trkpt><trkpt lat="36.439468" lon="30.491076"><ele>10.327</ele><time>2022-10-15T11:16:55Z</time></trkpt><trkpt lat="36.439435" lon="30.491135"><ele>9.757</ele><time>2022-10-15T11:17:00Z</time></trkpt><trkpt lat="36.439404" lon="30.491179"><ele>8.652</ele><time>2022-10-15T11:17:05Z</time></trkpt><trkpt lat="36.439412" lon="30.491242"><ele>7.029</ele><time>2022-10-15T11:17:14Z</time></trkpt><trkpt lat="36.439426" lon="30.491296"><ele>5.961</ele><time>2022-10-15T11:17:19Z</time></trkpt><trkpt lat="36.439399" lon="30.491345"><ele>5.567</ele><time>2022-10-15T11:17:22Z</time></trkpt><trkpt lat="36.439363" lon="30.491385"><ele>5.159</ele><time>2022-10-15T11:17:26Z</time></trkpt><trkpt lat="36.439334" lon="30.491432"><ele>4.633</ele><time>2022-10-15T11:17:30Z</time></trkpt><trkpt lat="36.439289" lon="30.491444"><ele>4.184</ele><time>2022-10-15T11:17:34Z</time></trkpt><trkpt lat="36.439247" lon="30.491469"><ele>3.752</ele><time>2022-10-15T11:17:39Z</time></trkpt><trkpt lat="36.439223" lon="30.491521"><ele>3.753</ele><time>2022-10-15T11:17:43Z</time></trkpt><trkpt lat="36.439190" lon="30.491560"><ele>4.008</ele><time>2022-10-15T11:17:46Z</time></trkpt><trkpt lat="36.439144" lon="30.491585"><ele>4.309</ele><time>2022-10-15T11:17:50Z</time></trkpt><trkpt lat="36.439097" lon="30.491617"><ele>4.486</ele><time>2022-10-15T11:17:55Z</time></trkpt><trkpt lat="36.439090" lon="30.491682"><ele>4.416</ele><time>2022-10-15T11:18:00Z</time></trkpt><trkpt lat="36.439088" lon="30.491745"><ele>4.431</ele><time>2022-10-15T11:18:05Z</time></trkpt><trkpt lat="36.439119" lon="30.491793"><ele>4.528</ele><time>2022-10-15T11:18:46Z</time></trkpt><trkpt lat="36.439070" lon="30.491817"><ele>3.230</ele><time>2022-10-15T11:19:52Z</time></trkpt><trkpt lat="36.439046" lon="30.491886"><ele>2.226</ele><time>2022-10-15T11:20:01Z</time></trkpt><trkpt lat="36.439033" lon="30.491945"><ele>2.058</ele><time>2022-10-15T11:20:05Z</time></trkpt><trkpt lat="36.439010" lon="30.491998"><ele>2.332</ele><time>2022-10-15T11:20:10Z</time></trkpt><trkpt lat="36.439036" lon="30.492061"><ele>3.823</ele><time>2022-10-15T11:20:19Z</time></trkpt><trkpt lat="36.439019" lon="30.492141"><ele>4.864</ele><time>2022-10-15T11:20:36Z</time></trkpt><trkpt lat="36.439019" lon="30.492233"><ele>4.906</ele><time>2022-10-15T11:20:38Z</time></trkpt><trkpt lat="36.439017" lon="30.492313"><ele>4.616</ele><time>2022-10-15T11:20:42Z</time></trkpt><trkpt lat="36.439009" lon="30.492380"><ele>3.309</ele><time>2022-10-15T11:20:46Z</time></trkpt><trkpt lat="36.439002" lon="30.492440"><ele>2.317</ele><time>2022-10-15T11:20:50Z</time></trkpt><trkpt lat="36.439004" lon="30.492502"><ele>3.667</ele><time>2022-10-15T11:20:56Z</time></trkpt><trkpt lat="36.439017" lon="30.492560"><ele>5.282</ele><time>2022-10-15T11:21:01Z</time></trkpt><trkpt lat="36.439013" lon="30.492623"><ele>5.699</ele><time>2022-10-15T11:21:07Z</time></trkpt><trkpt lat="36.439013" lon="30.492679"><ele>8.011</ele><time>2022-10-15T11:21:13Z</time></trkpt><trkpt lat="36.439012" lon="30.492745"><ele>9.577</ele><time>2022-10-15T11:21:26Z</time></trkpt><trkpt lat="36.439054" lon="30.492777"><ele>9.879</ele><time>2022-10-15T11:21:39Z</time></trkpt><trkpt lat="36.439103" lon="30.492773"><ele>10.723</ele><time>2022-10-15T11:21:43Z</time></trkpt><trkpt lat="36.439148" lon="30.492762"><ele>12.054</ele><time>2022-10-15T11:21:47Z</time></trkpt><trkpt lat="36.439198" lon="30.492756"><ele>12.317</ele><time>2022-10-15T11:21:50Z</time></trkpt><trkpt lat="36.439239" lon="30.492729"><ele>14.087</ele><time>2022-10-15T11:21:56Z</time></trkpt><trkpt lat="36.439284" lon="30.492703"><ele>17.615</ele><time>2022-10-15T11:22:00Z</time></trkpt><trkpt lat="36.439333" lon="30.492681"><ele>19.909</ele><time>2022-10-15T11:22:05Z</time></trkpt><trkpt lat="36.439370" lon="30.492645"><ele>20.422</ele><time>2022-10-15T11:22:09Z</time></trkpt><trkpt lat="36.439411" lon="30.492606"><ele>21.232</ele><time>2022-10-15T11:22:13Z</time></trkpt><trkpt lat="36.439457" lon="30.492600"><ele>21.567</ele><time>2022-10-15T11:22:17Z</time></trkpt><trkpt lat="36.439501" lon="30.492585"><ele>23.974</ele><time>2022-10-15T11:22:21Z</time></trkpt><trkpt lat="36.439548" lon="30.492552"><ele>25.596</ele><time>2022-10-15T11:22:26Z</time></trkpt><trkpt lat="36.439594" lon="30.492518"><ele>25.982</ele><time>2022-10-15T11:22:30Z</time></trkpt><trkpt lat="36.439643" lon="30.492503"><ele>26.114</ele><time>2022-10-15T11:22:35Z</time></trkpt><trkpt lat="36.439677" lon="30.492552"><ele>26.848</ele><time>2022-10-15T11:22:39Z</time></trkpt><trkpt lat="36.439641" lon="30.492592"><ele>26.829</ele><time>2022-10-15T11:22:43Z</time></trkpt><trkpt lat="36.439605" lon="30.492634"><ele>26.892</ele><time>2022-10-15T11:22:48Z</time></trkpt><trkpt lat="36.439569" lon="30.492670"><ele>26.073</ele><time>2022-10-15T11:22:52Z</time></trkpt><trkpt lat="36.439537" lon="30.492721"><ele>25.220</ele><time>2022-10-15T11:22:56Z</time></trkpt><trkpt lat="36.439500" lon="30.492771"><ele>25.009</ele><time>2022-10-15T11:23:01Z</time></trkpt><trkpt lat="36.439459" lon="30.492817"><ele>25.050</ele><time>2022-10-15T11:23:06Z</time></trkpt><trkpt lat="36.439419" lon="30.492858"><ele>25.550</ele><time>2022-10-15T11:23:10Z</time></trkpt><trkpt lat="36.439384" lon="30.492898"><ele>29.055</ele><time>2022-10-15T11:23:14Z</time></trkpt><trkpt lat="36.439362" lon="30.492958"><ele>29.412</ele><time>2022-10-15T11:23:18Z</time></trkpt><trkpt lat="36.439330" lon="30.493007"><ele>30.044</ele><time>2022-10-15T11:23:22Z</time></trkpt><trkpt lat="36.439291" lon="30.493052"><ele>30.720</ele><time>2022-10-15T11:23:26Z</time></trkpt><trkpt lat="36.439259" lon="30.493100"><ele>30.852</ele><time>2022-10-15T11:23:30Z</time></trkpt><trkpt lat="36.439222" lon="30.493153"><ele>30.776</ele><time>2022-10-15T11:23:34Z</time></trkpt><trkpt lat="36.439199" lon="30.493203"><ele>29.527</ele><time>2022-10-15T11:23:37Z</time></trkpt><trkpt lat="36.439169" lon="30.493249"><ele>29.175</ele><time>2022-10-15T11:23:40Z</time></trkpt><trkpt lat="36.439132" lon="30.493293"><ele>29.128</ele><time>2022-10-15T11:23:44Z</time></trkpt><trkpt lat="36.439090" lon="30.493329"><ele>30.020</ele><time>2022-10-15T11:23:48Z</time></trkpt><trkpt lat="36.439042" lon="30.493363"><ele>31.209</ele><time>2022-10-15T11:23:52Z</time></trkpt><trkpt lat="36.439008" lon="30.493406"><ele>31.678</ele><time>2022-10-15T11:23:56Z</time></trkpt><trkpt lat="36.438966" lon="30.493453"><ele>31.848</ele><time>2022-10-15T11:24:00Z</time></trkpt><trkpt lat="36.438932" lon="30.493509"><ele>31.993</ele><time>2022-10-15T11:24:04Z</time></trkpt><trkpt lat="36.438914" lon="30.493567"><ele>31.450</ele><time>2022-10-15T11:24:08Z</time></trkpt><trkpt lat="36.438954" lon="30.493609"><ele>31.422</ele><time>2022-10-15T11:24:13Z</time></trkpt><trkpt lat="36.438999" lon="30.493600"><ele>31.478</ele><time>2022-10-15T11:24:18Z</time></trkpt><trkpt lat="36.439043" lon="30.493582"><ele>31.590</ele><time>2022-10-15T11:24:23Z</time></trkpt><trkpt lat="36.439093" lon="30.493557"><ele>31.674</ele><time>2022-10-15T11:24:28Z</time></trkpt><trkpt lat="36.439145" lon="30.493543"><ele>32.355</ele><time>2022-10-15T11:24:33Z</time></trkpt><trkpt lat="36.439201" lon="30.493524"><ele>33.425</ele><time>2022-10-15T11:24:37Z</time></trkpt><trkpt lat="36.439246" lon="30.493495"><ele>34.226</ele><time>2022-10-15T11:24:41Z</time></trkpt><trkpt lat="36.439291" lon="30.493466"><ele>36.108</ele><time>2022-10-15T11:24:45Z</time></trkpt><trkpt lat="36.439326" lon="30.493428"><ele>37.809</ele><time>2022-10-15T11:24:50Z</time></trkpt><trkpt lat="36.439360" lon="30.493388"><ele>39.213</ele><time>2022-10-15T11:24:54Z</time></trkpt><trkpt lat="36.439391" lon="30.493336"><ele>39.833</ele><time>2022-10-15T11:24:56Z</time></trkpt><trkpt lat="36.439424" lon="30.493288"><ele>41.168</ele><time>2022-10-15T11:24:59Z</time></trkpt><trkpt lat="36.439450" lon="30.493232"><ele>43.325</ele><time>2022-10-15T11:25:06Z</time></trkpt><trkpt lat="36.439483" lon="30.493193"><ele>44.787</ele><time>2022-10-15T11:25:10Z</time></trkpt><trkpt lat="36.439523" lon="30.493149"><ele>44.943</ele><time>2022-10-15T11:25:15Z</time></trkpt><trkpt lat="36.439560" lon="30.493110"><ele>44.925</ele><time>2022-10-15T11:25:19Z</time></trkpt><trkpt lat="36.439595" lon="30.493074"><ele>44.799</ele><time>2022-10-15T11:25:22Z</time></trkpt><trkpt lat="36.439634" lon="30.493035"><ele>44.640</ele><time>2022-10-15T11:25:26Z</time></trkpt><trkpt lat="36.439675" lon="30.492995"><ele>44.742</ele><time>2022-10-15T11:25:30Z</time></trkpt><trkpt lat="36.439722" lon="30.492970"><ele>45.022</ele><time>2022-10-15T11:25:34Z</time></trkpt><trkpt lat="36.439766" lon="30.492942"><ele>46.214</ele><time>2022-10-15T11:25:37Z</time></trkpt><trkpt lat="36.439816" lon="30.492966"><ele>46.209</ele><time>2022-10-15T11:25:40Z</time></trkpt><trkpt lat="36.439871" lon="30.492964"><ele>46.285</ele><time>2022-10-15T11:25:44Z</time></trkpt><trkpt lat="36.439926" lon="30.492952"><ele>46.285</ele><time>2022-10-15T11:25:48Z</time></trkpt><trkpt lat="36.439974" lon="30.492944"><ele>45.930</ele><time>2022-10-15T11:25:52Z</time></trkpt><trkpt lat="36.440019" lon="30.492930"><ele>46.027</ele><time>2022-10-15T11:25:56Z</time></trkpt><trkpt lat="36.440061" lon="30.492910"><ele>46.429</ele><time>2022-10-15T11:26:00Z</time></trkpt><trkpt lat="36.440109" lon="30.492908"><ele>46.815</ele><time>2022-10-15T11:26:04Z</time></trkpt><trkpt lat="36.440159" lon="30.492910"><ele>46.747</ele><time>2022-10-15T11:26:07Z</time></trkpt><trkpt lat="36.440202" lon="30.492885"><ele>46.771</ele><time>2022-10-15T11:26:10Z</time></trkpt><trkpt lat="36.440248" lon="30.492866"><ele>46.852</ele><time>2022-10-15T11:26:14Z</time></trkpt><trkpt lat="36.440290" lon="30.492840"><ele>46.825</ele><time>2022-10-15T11:26:17Z</time></trkpt><trkpt lat="36.440337" lon="30.492808"><ele>47.626</ele><time>2022-10-15T11:26:21Z</time></trkpt><trkpt lat="36.440376" lon="30.492775"><ele>48.308</ele><time>2022-10-15T11:26:25Z</time></trkpt><trkpt lat="36.440421" lon="30.492727"><ele>48.509</ele><time>2022-10-15T11:26:29Z</time></trkpt><trkpt lat="36.440468" lon="30.492689"><ele>49.553</ele><time>2022-10-15T11:26:33Z</time></trkpt><trkpt lat="36.440525" lon="30.492698"><ele>49.673</ele><time>2022-10-15T11:26:37Z</time></trkpt><trkpt lat="36.440567" lon="30.492728"><ele>49.018</ele><time>2022-10-15T11:26:40Z</time></trkpt><trkpt lat="36.440593" lon="30.492794"><ele>48.765</ele><time>2022-10-15T11:26:44Z</time></trkpt><trkpt lat="36.440605" lon="30.492852"><ele>48.537</ele><time>2022-10-15T11:26:47Z</time></trkpt><trkpt lat="36.440616" lon="30.492919"><ele>47.223</ele><time>2022-10-15T11:26:51Z</time></trkpt><trkpt lat="36.440628" lon="30.492977"><ele>46.085</ele><time>2022-10-15T11:26:55Z</time></trkpt><trkpt lat="36.440640" lon="30.493035"><ele>43.939</ele><time>2022-10-15T11:26:59Z</time></trkpt><trkpt lat="36.440648" lon="30.493095"><ele>42.180</ele><time>2022-10-15T11:27:03Z</time></trkpt><trkpt lat="36.440667" lon="30.493157"><ele>40.912</ele><time>2022-10-15T11:27:07Z</time></trkpt><trkpt lat="36.440675" lon="30.493213"><ele>39.432</ele><time>2022-10-15T11:27:10Z</time></trkpt><trkpt lat="36.440691" lon="30.493279"><ele>38.605</ele><time>2022-10-15T11:27:13Z</time></trkpt><trkpt lat="36.440703" lon="30.493335"><ele>38.609</ele><time>2022-10-15T11:27:17Z</time></trkpt><trkpt lat="36.440711" lon="30.493394"><ele>39.572</ele><time>2022-10-15T11:27:21Z</time></trkpt><trkpt lat="36.440718" lon="30.493451"><ele>40.332</ele><time>2022-10-15T11:27:24Z</time></trkpt><trkpt lat="36.440708" lon="30.493509"><ele>40.997</ele><time>2022-10-15T11:27:28Z</time></trkpt><trkpt lat="36.440715" lon="30.493566"><ele>42.664</ele><time>2022-10-15T11:27:32Z</time></trkpt><trkpt lat="36.440737" lon="30.493618"><ele>43.216</ele><time>2022-10-15T11:27:36Z</time></trkpt><trkpt lat="36.440785" lon="30.493634"><ele>43.832</ele><time>2022-10-15T11:27:40Z</time></trkpt><trkpt lat="36.440838" lon="30.493633"><ele>44.684</ele><time>2022-10-15T11:27:43Z</time></trkpt><trkpt lat="36.440891" lon="30.493643"><ele>45.078</ele><time>2022-10-15T11:27:47Z</time></trkpt><trkpt lat="36.440948" lon="30.493656"><ele>47.759</ele><time>2022-10-15T11:27:51Z</time></trkpt><trkpt lat="36.440985" lon="30.493713"><ele>49.717</ele><time>2022-10-15T11:27:55Z</time></trkpt><trkpt lat="36.441029" lon="30.493728"><ele>51.687</ele><time>2022-10-15T11:27:58Z</time></trkpt><trkpt lat="36.441075" lon="30.493749"><ele>53.415</ele><time>2022-10-15T11:28:02Z</time></trkpt><trkpt lat="36.441118" lon="30.493776"><ele>54.209</ele><time>2022-10-15T11:28:07Z</time></trkpt><trkpt lat="36.441167" lon="30.493791"><ele>54.692</ele><time>2022-10-15T11:28:12Z</time></trkpt><trkpt lat="36.441211" lon="30.493825"><ele>55.182</ele><time>2022-10-15T11:28:17Z</time></trkpt><trkpt lat="36.441225" lon="30.493884"><ele>57.017</ele><time>2022-10-15T11:28:22Z</time></trkpt><trkpt lat="36.441181" lon="30.493913"><ele>59.464</ele><time>2022-10-15T11:28:25Z</time></trkpt><trkpt lat="36.441138" lon="30.493883"><ele>59.846</ele><time>2022-10-15T11:28:53Z</time></trkpt><trkpt lat="36.441094" lon="30.493895"><ele>59.822</ele><time>2022-10-15T11:28:57Z</time></trkpt><trkpt lat="36.441042" lon="30.493888"><ele>59.814</ele><time>2022-10-15T11:29:02Z</time></trkpt><trkpt lat="36.440989" lon="30.493874"><ele>59.718</ele><time>2022-10-15T11:29:06Z</time></trkpt><trkpt lat="36.440938" lon="30.493862"><ele>59.549</ele><time>2022-10-15T11:29:10Z</time></trkpt><trkpt lat="36.440882" lon="30.493854"><ele>58.112</ele><time>2022-10-15T11:29:14Z</time></trkpt><trkpt lat="36.440837" lon="30.493844"><ele>58.132</ele><time>2022-10-15T11:29:17Z</time></trkpt><trkpt lat="36.440788" lon="30.493831"><ele>57.805</ele><time>2022-10-15T11:29:20Z</time></trkpt><trkpt lat="36.440739" lon="30.493796"><ele>57.609</ele><time>2022-10-15T11:29:24Z</time></trkpt><trkpt lat="36.440704" lon="30.493759"><ele>57.652</ele><time>2022-10-15T11:29:27Z</time></trkpt><trkpt lat="36.440676" lon="30.493705"><ele>57.682</ele><time>2022-10-15T11:29:31Z</time></trkpt><trkpt lat="36.440636" lon="30.493655"><ele>57.747</ele><time>2022-10-15T11:29:35Z</time></trkpt><trkpt lat="36.440600" lon="30.493606"><ele>57.724</ele><time>2022-10-15T11:29:39Z</time></trkpt><trkpt lat="36.440578" lon="30.493544"><ele>58.436</ele><time>2022-10-15T11:29:44Z</time></trkpt><trkpt lat="36.440562" lon="30.493483"><ele>58.942</ele><time>2022-10-15T11:29:48Z</time></trkpt><trkpt lat="36.440542" lon="30.493421"><ele>59.234</ele><time>2022-10-15T11:29:52Z</time></trkpt><trkpt lat="36.440512" lon="30.493369"><ele>60.578</ele><time>2022-10-15T11:29:56Z</time></trkpt><trkpt lat="36.440481" lon="30.493313"><ele>61.159</ele><time>2022-10-15T11:30:00Z</time></trkpt><trkpt lat="36.440436" lon="30.493284"><ele>61.443</ele><time>2022-10-15T11:30:05Z</time></trkpt><trkpt lat="36.440387" lon="30.493300"><ele>61.564</ele><time>2022-10-15T11:30:09Z</time></trkpt><trkpt lat="36.440347" lon="30.493337"><ele>61.510</ele><time>2022-10-15T11:30:13Z</time></trkpt><trkpt lat="36.440306" lon="30.493379"><ele>61.409</ele><time>2022-10-15T11:30:18Z</time></trkpt><trkpt lat="36.440256" lon="30.493412"><ele>61.275</ele><time>2022-10-15T11:30:23Z</time></trkpt><trkpt lat="36.440212" lon="30.493447"><ele>60.815</ele><time>2022-10-15T11:30:28Z</time></trkpt><trkpt lat="36.440168" lon="30.493467"><ele>60.080</ele><time>2022-10-15T11:30:32Z</time></trkpt><trkpt lat="36.440117" lon="30.493494"><ele>60.067</ele><time>2022-10-15T11:30:36Z</time></trkpt><trkpt lat="36.440069" lon="30.493499"><ele>60.059</ele><time>2022-10-15T11:30:41Z</time></trkpt><trkpt lat="36.440024" lon="30.493490"><ele>61.835</ele><time>2022-10-15T11:30:45Z</time></trkpt><trkpt lat="36.439975" lon="30.493477"><ele>62.587</ele><time>2022-10-15T11:30:50Z</time></trkpt><trkpt lat="36.439923" lon="30.493463"><ele>62.691</ele><time>2022-10-15T11:30:55Z</time></trkpt><trkpt lat="36.439879" lon="30.493474"><ele>62.712</ele><time>2022-10-15T11:30:59Z</time></trkpt><trkpt lat="36.439840" lon="30.493503"><ele>62.794</ele><time>2022-10-15T11:31:03Z</time></trkpt><trkpt lat="36.439795" lon="30.493533"><ele>62.557</ele><time>2022-10-15T11:31:08Z</time></trkpt><trkpt lat="36.439752" lon="30.493577"><ele>62.022</ele><time>2022-10-15T11:31:13Z</time></trkpt><trkpt lat="36.439724" lon="30.493634"><ele>61.409</ele><time>2022-10-15T11:31:17Z</time></trkpt><trkpt lat="36.439703" lon="30.493685"><ele>61.290</ele><time>2022-10-15T11:31:21Z</time></trkpt><trkpt lat="36.439681" lon="30.493742"><ele>61.210</ele><time>2022-10-15T11:31:24Z</time></trkpt><trkpt lat="36.439661" lon="30.493806"><ele>60.745</ele><time>2022-10-15T11:31:28Z</time></trkpt><trkpt lat="36.439654" lon="30.493868"><ele>60.752</ele><time>2022-10-15T11:31:33Z</time></trkpt><trkpt lat="36.439648" lon="30.493924"><ele>60.744</ele><time>2022-10-15T11:31:37Z</time></trkpt><trkpt lat="36.439639" lon="30.493980"><ele>60.530</ele><time>2022-10-15T11:31:41Z</time></trkpt><trkpt lat="36.439623" lon="30.494044"><ele>60.542</ele><time>2022-10-15T11:31:46Z</time></trkpt><trkpt lat="36.439607" lon="30.494110"><ele>60.786</ele><time>2022-10-15T11:31:51Z</time></trkpt><trkpt lat="36.439595" lon="30.494170"><ele>62.937</ele><time>2022-10-15T11:31:55Z</time></trkpt><trkpt lat="36.439581" lon="30.494231"><ele>63.915</ele><time>2022-10-15T11:31:59Z</time></trkpt><trkpt lat="36.439568" lon="30.494297"><ele>64.465</ele><time>2022-10-15T11:32:04Z</time></trkpt><trkpt lat="36.439557" lon="30.494361"><ele>65.811</ele><time>2022-10-15T11:32:09Z</time></trkpt><trkpt lat="36.439551" lon="30.494427"><ele>66.409</ele><time>2022-10-15T11:32:14Z</time></trkpt><trkpt lat="36.439552" lon="30.494489"><ele>69.042</ele><time>2022-10-15T11:32:19Z</time></trkpt><trkpt lat="36.439555" lon="30.494546"><ele>69.432</ele><time>2022-10-15T11:32:23Z</time></trkpt><trkpt lat="36.439553" lon="30.494602"><ele>69.847</ele><time>2022-10-15T11:32:27Z</time></trkpt><trkpt lat="36.439557" lon="30.494672"><ele>69.894</ele><time>2022-10-15T11:32:32Z</time></trkpt><trkpt lat="36.439550" lon="30.494733"><ele>69.646</ele><time>2022-10-15T11:32:37Z</time></trkpt><trkpt lat="36.439552" lon="30.494792"><ele>69.422</ele><time>2022-10-15T11:32:41Z</time></trkpt><trkpt lat="36.439545" lon="30.494848"><ele>69.524</ele><time>2022-10-15T11:32:45Z</time></trkpt><trkpt lat="36.439535" lon="30.494909"><ele>69.378</ele><time>2022-10-15T11:32:49Z</time></trkpt><trkpt lat="36.439544" lon="30.494974"><ele>69.599</ele><time>2022-10-15T11:32:54Z</time></trkpt><trkpt lat="36.439522" lon="30.495032"><ele>70.191</ele><time>2022-10-15T11:33:00Z</time></trkpt><trkpt lat="36.439474" lon="30.495050"><ele>70.681</ele><time>2022-10-15T11:33:05Z</time></trkpt><trkpt lat="36.439423" lon="30.495034"><ele>72.319</ele><time>2022-10-15T11:33:10Z</time></trkpt><trkpt lat="36.439374" lon="30.495010"><ele>75.809</ele><time>2022-10-15T11:33:15Z</time></trkpt><trkpt lat="36.439329" lon="30.494984"><ele>76.560</ele><time>2022-10-15T11:33:19Z</time></trkpt><trkpt lat="36.439291" lon="30.494951"><ele>77.650</ele><time>2022-10-15T11:33:23Z</time></trkpt><trkpt lat="36.439249" lon="30.494918"><ele>80.885</ele><time>2022-10-15T11:33:27Z</time></trkpt><trkpt lat="36.439201" lon="30.494889"><ele>81.532</ele><time>2022-10-15T11:33:32Z</time></trkpt><trkpt lat="36.439150" lon="30.494871"><ele>82.544</ele><time>2022-10-15T11:33:37Z</time></trkpt><trkpt lat="36.439089" lon="30.494861"><ele>83.650</ele><time>2022-10-15T11:33:42Z</time></trkpt><trkpt lat="36.439037" lon="30.494846"><ele>84.332</ele><time>2022-10-15T11:33:46Z</time></trkpt><trkpt lat="36.438978" lon="30.494809"><ele>84.726</ele><time>2022-10-15T11:33:50Z</time></trkpt><trkpt lat="36.438926" lon="30.494806"><ele>85.947</ele><time>2022-10-15T11:33:54Z</time></trkpt><trkpt lat="36.438874" lon="30.494815"><ele>87.993</ele><time>2022-10-15T11:33:58Z</time></trkpt><trkpt lat="36.438829" lon="30.494829"><ele>88.965</ele><time>2022-10-15T11:34:02Z</time></trkpt><trkpt lat="36.438777" lon="30.494811"><ele>89.121</ele><time>2022-10-15T11:34:06Z</time></trkpt><trkpt lat="36.438729" lon="30.494802"><ele>88.909</ele><time>2022-10-15T11:34:10Z</time></trkpt><trkpt lat="36.438710" lon="30.494749"><ele>88.880</ele><time>2022-10-15T11:34:16Z</time></trkpt><trkpt lat="36.438665" lon="30.494736"><ele>88.960</ele><time>2022-10-15T11:34:36Z</time></trkpt><trkpt lat="36.438617" lon="30.494731"><ele>89.015</ele><time>2022-10-15T11:34:40Z</time></trkpt><trkpt lat="36.438571" lon="30.494723"><ele>89.122</ele><time>2022-10-15T11:34:46Z</time></trkpt><trkpt lat="36.438520" lon="30.494723"><ele>89.394</ele><time>2022-10-15T11:34:52Z</time></trkpt><trkpt lat="36.438477" lon="30.494746"><ele>90.460</ele><time>2022-10-15T11:34:58Z</time></trkpt><trkpt lat="36.438426" lon="30.494764"><ele>91.522</ele><time>2022-10-15T11:35:03Z</time></trkpt><trkpt lat="36.438381" lon="30.494781"><ele>92.436</ele><time>2022-10-15T11:35:07Z</time></trkpt><trkpt lat="36.438337" lon="30.494805"><ele>92.767</ele><time>2022-10-15T11:35:11Z</time></trkpt><trkpt lat="36.438300" lon="30.494841"><ele>93.258</ele><time>2022-10-15T11:35:15Z</time></trkpt><trkpt lat="36.438250" lon="30.494873"><ele>93.752</ele><time>2022-10-15T11:35:20Z</time></trkpt><trkpt lat="36.438212" lon="30.494905"><ele>94.417</ele><time>2022-10-15T11:35:24Z</time></trkpt><trkpt lat="36.438162" lon="30.494925"><ele>94.709</ele><time>2022-10-15T11:35:29Z</time></trkpt><trkpt lat="36.438128" lon="30.494972"><ele>96.846</ele><time>2022-10-15T11:35:34Z</time></trkpt><trkpt lat="36.438108" lon="30.495023"><ele>97.236</ele><time>2022-10-15T11:35:38Z</time></trkpt><trkpt lat="36.438091" lon="30.495094"><ele>99.451</ele><time>2022-10-15T11:35:43Z</time></trkpt><trkpt lat="36.438082" lon="30.495155"><ele>99.948</ele><time>2022-10-15T11:35:48Z</time></trkpt><trkpt lat="36.438080" lon="30.495217"><ele>100.570</ele><time>2022-10-15T11:35:53Z</time></trkpt><trkpt lat="36.438084" lon="30.495284"><ele>102.096</ele><time>2022-10-15T11:35:58Z</time></trkpt><trkpt lat="36.438060" lon="30.495342"><ele>104.618</ele><time>2022-10-15T11:36:02Z</time></trkpt><trkpt lat="36.438047" lon="30.495396"><ele>104.992</ele><time>2022-10-15T11:36:06Z</time></trkpt><trkpt lat="36.438034" lon="30.495456"><ele>106.193</ele><time>2022-10-15T11:36:10Z</time></trkpt><trkpt lat="36.438040" lon="30.495518"><ele>106.511</ele><time>2022-10-15T11:36:14Z</time></trkpt><trkpt lat="36.438033" lon="30.495584"><ele>106.821</ele><time>2022-10-15T11:36:18Z</time></trkpt><trkpt lat="36.438035" lon="30.495642"><ele>106.403</ele><time>2022-10-15T11:36:23Z</time></trkpt><trkpt lat="36.438038" lon="30.495713"><ele>106.209</ele><time>2022-10-15T11:36:27Z</time></trkpt><trkpt lat="36.438024" lon="30.495776"><ele>106.252</ele><time>2022-10-15T11:36:30Z</time></trkpt><trkpt lat="36.438004" lon="30.495832"><ele>105.052</ele><time>2022-10-15T11:36:34Z</time></trkpt><trkpt lat="36.437978" lon="30.495880"><ele>104.477</ele><time>2022-10-15T11:36:38Z</time></trkpt><trkpt lat="36.437958" lon="30.495936"><ele>104.234</ele><time>2022-10-15T11:36:42Z</time></trkpt><trkpt lat="36.437953" lon="30.495994"><ele>104.096</ele><time>2022-10-15T11:36:46Z</time></trkpt><trkpt lat="36.437951" lon="30.496057"><ele>104.012</ele><time>2022-10-15T11:36:50Z</time></trkpt><trkpt lat="36.437949" lon="30.496120"><ele>104.014</ele><time>2022-10-15T11:36:54Z</time></trkpt><trkpt lat="36.437934" lon="30.496182"><ele>104.068</ele><time>2022-10-15T11:36:58Z</time></trkpt><trkpt lat="36.437925" lon="30.496247"><ele>104.169</ele><time>2022-10-15T11:37:03Z</time></trkpt><trkpt lat="36.437912" lon="30.496302"><ele>104.477</ele><time>2022-10-15T11:37:07Z</time></trkpt><trkpt lat="36.437899" lon="30.496369"><ele>104.861</ele><time>2022-10-15T11:37:12Z</time></trkpt><trkpt lat="36.437886" lon="30.496423"><ele>105.227</ele><time>2022-10-15T11:37:16Z</time></trkpt><trkpt lat="36.437863" lon="30.496481"><ele>105.109</ele><time>2022-10-15T11:37:21Z</time></trkpt><trkpt lat="36.437855" lon="30.496542"><ele>105.188</ele><time>2022-10-15T11:37:39Z</time></trkpt><trkpt lat="36.437840" lon="30.496595"><ele>105.048</ele><time>2022-10-15T11:37:43Z</time></trkpt><trkpt lat="36.437834" lon="30.496662"><ele>105.073</ele><time>2022-10-15T11:37:48Z</time></trkpt><trkpt lat="36.437847" lon="30.496727"><ele>105.120</ele><time>2022-10-15T11:37:53Z</time></trkpt><trkpt lat="36.437886" lon="30.496762"><ele>105.252</ele><time>2022-10-15T11:37:58Z</time></trkpt><trkpt lat="36.437943" lon="30.496762"><ele>105.428</ele><time>2022-10-15T11:38:02Z</time></trkpt><trkpt lat="36.437989" lon="30.496769"><ele>105.880</ele><time>2022-10-15T11:38:06Z</time></trkpt><trkpt lat="36.438041" lon="30.496753"><ele>106.454</ele><time>2022-10-15T11:38:11Z</time></trkpt><trkpt lat="36.438085" lon="30.496739"><ele>106.545</ele><time>2022-10-15T11:38:15Z</time></trkpt><trkpt lat="36.438130" lon="30.496732"><ele>107.281</ele><time>2022-10-15T11:38:19Z</time></trkpt><trkpt lat="36.438181" lon="30.496736"><ele>108.261</ele><time>2022-10-15T11:38:24Z</time></trkpt><trkpt lat="36.438226" lon="30.496737"><ele>108.317</ele><time>2022-10-15T11:38:28Z</time></trkpt><trkpt lat="36.438278" lon="30.496723"><ele>108.509</ele><time>2022-10-15T11:38:32Z</time></trkpt><trkpt lat="36.438323" lon="30.496702"><ele>108.939</ele><time>2022-10-15T11:38:36Z</time></trkpt><trkpt lat="36.438367" lon="30.496677"><ele>109.339</ele><time>2022-10-15T11:38:40Z</time></trkpt><trkpt lat="36.438409" lon="30.496647"><ele>110.334</ele><time>2022-10-15T11:38:44Z</time></trkpt><trkpt lat="36.438465" lon="30.496629"><ele>110.891</ele><time>2022-10-15T11:38:48Z</time></trkpt><trkpt lat="36.438516" lon="30.496621"><ele>112.973</ele><time>2022-10-15T11:38:52Z</time></trkpt><trkpt lat="36.438572" lon="30.496614"><ele>113.419</ele><time>2022-10-15T11:38:56Z</time></trkpt><trkpt lat="36.438626" lon="30.496617"><ele>113.541</ele><time>2022-10-15T11:39:01Z</time></trkpt><trkpt lat="36.438684" lon="30.496616"><ele>114.095</ele><time>2022-10-15T11:39:05Z</time></trkpt><trkpt lat="36.438735" lon="30.496633"><ele>114.316</ele><time>2022-10-15T11:39:09Z</time></trkpt><trkpt lat="36.438788" lon="30.496649"><ele>115.015</ele><time>2022-10-15T11:39:13Z</time></trkpt><trkpt lat="36.438839" lon="30.496662"><ele>115.165</ele><time>2022-10-15T11:39:17Z</time></trkpt><trkpt lat="36.438896" lon="30.496654"><ele>115.411</ele><time>2022-10-15T11:39:21Z</time></trkpt><trkpt lat="36.438952" lon="30.496643"><ele>115.509</ele><time>2022-10-15T11:39:26Z</time></trkpt><trkpt lat="36.438998" lon="30.496619"><ele>115.652</ele><time>2022-10-15T11:39:30Z</time></trkpt><trkpt lat="36.439043" lon="30.496587"><ele>115.662</ele><time>2022-10-15T11:39:34Z</time></trkpt><trkpt lat="36.439086" lon="30.496562"><ele>115.677</ele><time>2022-10-15T11:39:38Z</time></trkpt><trkpt lat="36.439135" lon="30.496531"><ele>115.944</ele><time>2022-10-15T11:39:43Z</time></trkpt><trkpt lat="36.439178" lon="30.496498"><ele>115.976</ele><time>2022-10-15T11:39:47Z</time></trkpt><trkpt lat="36.439218" lon="30.496467"><ele>116.012</ele><time>2022-10-15T11:39:51Z</time></trkpt><trkpt lat="36.439270" lon="30.496448"><ele>116.964</ele><time>2022-10-15T11:39:56Z</time></trkpt><trkpt lat="36.439319" lon="30.496443"><ele>119.018</ele><time>2022-10-15T11:40:01Z</time></trkpt><trkpt lat="36.439375" lon="30.496445"><ele>119.959</ele><time>2022-10-15T11:40:06Z</time></trkpt><trkpt lat="36.439423" lon="30.496462"><ele>121.158</ele><time>2022-10-15T11:40:11Z</time></trkpt><trkpt lat="36.439470" lon="30.496465"><ele>121.352</ele><time>2022-10-15T11:40:14Z</time></trkpt><trkpt lat="36.439528" lon="30.496470"><ele>122.217</ele><time>2022-10-15T11:40:18Z</time></trkpt><trkpt lat="36.439579" lon="30.496465"><ele>122.509</ele><time>2022-10-15T11:40:22Z</time></trkpt><trkpt lat="36.439626" lon="30.496430"><ele>122.356</ele><time>2022-10-15T11:40:27Z</time></trkpt><trkpt lat="36.439666" lon="30.496395"><ele>122.416</ele><time>2022-10-15T11:40:30Z</time></trkpt><trkpt lat="36.439713" lon="30.496359"><ele>121.631</ele><time>2022-10-15T11:40:35Z</time></trkpt><trkpt lat="36.439754" lon="30.496316"><ele>121.548</ele><time>2022-10-15T11:40:40Z</time></trkpt><trkpt lat="36.439797" lon="30.496277"><ele>121.660</ele><time>2022-10-15T11:40:45Z</time></trkpt><trkpt lat="36.439838" lon="30.496229"><ele>123.146</ele><time>2022-10-15T11:40:50Z</time></trkpt><trkpt lat="36.439873" lon="30.496190"><ele>123.498</ele><time>2022-10-15T11:40:53Z</time></trkpt><trkpt lat="36.439912" lon="30.496159"><ele>124.242</ele><time>2022-10-15T11:40:57Z</time></trkpt><trkpt lat="36.439951" lon="30.496128"><ele>124.893</ele><time>2022-10-15T11:41:01Z</time></trkpt><trkpt lat="36.439997" lon="30.496096"><ele>126.324</ele><time>2022-10-15T11:41:05Z</time></trkpt><trkpt lat="36.440049" lon="30.496058"><ele>126.704</ele><time>2022-10-15T11:41:09Z</time></trkpt><trkpt lat="36.440089" lon="30.496028"><ele>126.914</ele><time>2022-10-15T11:41:13Z</time></trkpt><trkpt lat="36.440137" lon="30.496001"><ele>127.109</ele><time>2022-10-15T11:41:18Z</time></trkpt><trkpt lat="36.440183" lon="30.495983"><ele>128.393</ele><time>2022-10-15T11:41:22Z</time></trkpt><trkpt lat="36.440225" lon="30.495948"><ele>128.833</ele><time>2022-10-15T11:41:26Z</time></trkpt><trkpt lat="36.440268" lon="30.495921"><ele>129.198</ele><time>2022-10-15T11:41:30Z</time></trkpt><trkpt lat="36.440312" lon="30.495888"><ele>129.215</ele><time>2022-10-15T11:41:34Z</time></trkpt><trkpt lat="36.440356" lon="30.495856"><ele>130.497</ele><time>2022-10-15T11:41:38Z</time></trkpt><trkpt lat="36.440403" lon="30.495823"><ele>131.153</ele><time>2022-10-15T11:41:42Z</time></trkpt><trkpt lat="36.440443" lon="30.495781"><ele>132.265</ele><time>2022-10-15T11:41:46Z</time></trkpt><trkpt lat="36.440484" lon="30.495750"><ele>132.469</ele><time>2022-10-15T11:41:50Z</time></trkpt><trkpt lat="36.440536" lon="30.495741"><ele>132.480</ele><time>2022-10-15T11:41:54Z</time></trkpt><trkpt lat="36.440585" lon="30.495736"><ele>132.457</ele><time>2022-10-15T11:41:58Z</time></trkpt><trkpt lat="36.440639" lon="30.495731"><ele>131.700</ele><time>2022-10-15T11:42:02Z</time></trkpt><trkpt lat="36.440690" lon="30.495737"><ele>129.720</ele><time>2022-10-15T11:42:06Z</time></trkpt><trkpt lat="36.440744" lon="30.495745"><ele>129.709</ele><time>2022-10-15T11:42:10Z</time></trkpt><trkpt lat="36.440793" lon="30.495775"><ele>129.736</ele><time>2022-10-15T11:42:14Z</time></trkpt><trkpt lat="36.440832" lon="30.495822"><ele>129.746</ele><time>2022-10-15T11:42:18Z</time></trkpt><trkpt lat="36.440866" lon="30.495880"><ele>130.071</ele><time>2022-10-15T11:42:22Z</time></trkpt><trkpt lat="36.440901" lon="30.495935"><ele>130.598</ele><time>2022-10-15T11:42:26Z</time></trkpt><trkpt lat="36.440911" lon="30.496005"><ele>130.560</ele><time>2022-10-15T11:42:30Z</time></trkpt><trkpt lat="36.440924" lon="30.496071"><ele>130.526</ele><time>2022-10-15T11:42:34Z</time></trkpt><trkpt lat="36.440954" lon="30.496129"><ele>130.438</ele><time>2022-10-15T11:42:38Z</time></trkpt><trkpt lat="36.440974" lon="30.496190"><ele>130.212</ele><time>2022-10-15T11:42:42Z</time></trkpt><trkpt lat="36.440982" lon="30.496259"><ele>129.563</ele><time>2022-10-15T11:42:47Z</time></trkpt><trkpt lat="36.440988" lon="30.496322"><ele>128.852</ele><time>2022-10-15T11:42:51Z</time></trkpt><trkpt lat="36.441005" lon="30.496382"><ele>128.653</ele><time>2022-10-15T11:42:55Z</time></trkpt><trkpt lat="36.441014" lon="30.496443"><ele>128.308</ele><time>2022-10-15T11:42:59Z</time></trkpt><trkpt lat="36.441030" lon="30.496507"><ele>128.309</ele><time>2022-10-15T11:43:03Z</time></trkpt><trkpt lat="36.441046" lon="30.496566"><ele>128.366</ele><time>2022-10-15T11:43:07Z</time></trkpt><trkpt lat="36.441063" lon="30.496624"><ele>128.826</ele><time>2022-10-15T11:43:11Z</time></trkpt><trkpt lat="36.441078" lon="30.496682"><ele>129.171</ele><time>2022-10-15T11:43:15Z</time></trkpt><trkpt lat="36.441098" lon="30.496749"><ele>130.138</ele><time>2022-10-15T11:43:19Z</time></trkpt><trkpt lat="36.441116" lon="30.496801"><ele>130.320</ele><time>2022-10-15T11:43:23Z</time></trkpt><trkpt lat="36.441129" lon="30.496863"><ele>130.746</ele><time>2022-10-15T11:43:27Z</time></trkpt><trkpt lat="36.441148" lon="30.496925"><ele>131.218</ele><time>2022-10-15T11:43:31Z</time></trkpt><trkpt lat="36.441185" lon="30.496967"><ele>132.132</ele><time>2022-10-15T11:43:36Z</time></trkpt><trkpt lat="36.441221" lon="30.497003"><ele>133.853</ele><time>2022-10-15T11:43:40Z</time></trkpt><trkpt lat="36.441261" lon="30.497052"><ele>134.042</ele><time>2022-10-15T11:43:45Z</time></trkpt><trkpt lat="36.441302" lon="30.497085"><ele>134.222</ele><time>2022-10-15T11:43:50Z</time></trkpt><trkpt lat="36.441347" lon="30.497119"><ele>134.314</ele><time>2022-10-15T11:43:55Z</time></trkpt><trkpt lat="36.441384" lon="30.497154"><ele>134.409</ele><time>2022-10-15T11:43:59Z</time></trkpt><trkpt lat="36.441413" lon="30.497212"><ele>134.135</ele><time>2022-10-15T11:44:03Z</time></trkpt><trkpt lat="36.441434" lon="30.497277"><ele>133.825</ele><time>2022-10-15T11:44:08Z</time></trkpt><trkpt lat="36.441440" lon="30.497335"><ele>133.120</ele><time>2022-10-15T11:44:12Z</time></trkpt><trkpt lat="36.441450" lon="30.497390"><ele>132.577</ele><time>2022-10-15T11:44:16Z</time></trkpt><trkpt lat="36.441478" lon="30.497446"><ele>132.529</ele><time>2022-10-15T11:44:20Z</time></trkpt><trkpt lat="36.441503" lon="30.497500"><ele>132.565</ele><time>2022-10-15T11:44:24Z</time></trkpt><trkpt lat="36.441536" lon="30.497547"><ele>133.027</ele><time>2022-10-15T11:44:28Z</time></trkpt><trkpt lat="36.441574" lon="30.497598"><ele>133.731</ele><time>2022-10-15T11:44:32Z</time></trkpt><trkpt lat="36.441602" lon="30.497647"><ele>133.822</ele><time>2022-10-15T11:44:36Z</time></trkpt><trkpt lat="36.441630" lon="30.497702"><ele>133.838</ele><time>2022-10-15T11:44:40Z</time></trkpt><trkpt lat="36.441659" lon="30.497745"><ele>133.970</ele><time>2022-10-15T11:44:44Z</time></trkpt><trkpt lat="36.441701" lon="30.497789"><ele>134.217</ele><time>2022-10-15T11:44:49Z</time></trkpt><trkpt lat="36.441751" lon="30.497814"><ele>134.509</ele><time>2022-10-15T11:44:54Z</time></trkpt><trkpt lat="36.441795" lon="30.497829"><ele>134.654</ele><time>2022-10-15T11:44:58Z</time></trkpt><trkpt lat="36.441845" lon="30.497838"><ele>134.854</ele><time>2022-10-15T11:45:02Z</time></trkpt><trkpt lat="36.441895" lon="30.497836"><ele>134.969</ele><time>2022-10-15T11:45:06Z</time></trkpt><trkpt lat="36.441947" lon="30.497818"><ele>135.436</ele><time>2022-10-15T11:45:11Z</time></trkpt><trkpt lat="36.441999" lon="30.497806"><ele>137.658</ele><time>2022-10-15T11:45:16Z</time></trkpt><trkpt lat="36.442049" lon="30.497789"><ele>138.074</ele><time>2022-10-15T11:45:20Z</time></trkpt><trkpt lat="36.442096" lon="30.497774"><ele>138.576</ele><time>2022-10-15T11:45:24Z</time></trkpt><trkpt lat="36.442143" lon="30.497742"><ele>139.690</ele><time>2022-10-15T11:45:27Z</time></trkpt><trkpt lat="36.442183" lon="30.497707"><ele>140.151</ele><time>2022-10-15T11:45:32Z</time></trkpt><trkpt lat="36.442231" lon="30.497720"><ele>140.117</ele><time>2022-10-15T11:45:36Z</time></trkpt><trkpt lat="36.442280" lon="30.497727"><ele>139.887</ele><time>2022-10-15T11:45:40Z</time></trkpt><trkpt lat="36.442329" lon="30.497732"><ele>139.615</ele><time>2022-10-15T11:45:44Z</time></trkpt><trkpt lat="36.442379" lon="30.497748"><ele>139.309</ele><time>2022-10-15T11:45:51Z</time></trkpt><trkpt lat="36.442429" lon="30.497755"><ele>138.142</ele><time>2022-10-15T11:45:55Z</time></trkpt><trkpt lat="36.442475" lon="30.497739"><ele>138.072</ele><time>2022-10-15T11:45:58Z</time></trkpt><trkpt lat="36.442519" lon="30.497721"><ele>138.067</ele><time>2022-10-15T11:46:02Z</time></trkpt><trkpt lat="36.442561" lon="30.497700"><ele>137.754</ele><time>2022-10-15T11:46:06Z</time></trkpt><trkpt lat="36.442611" lon="30.497679"><ele>137.296</ele><time>2022-10-15T11:46:11Z</time></trkpt><trkpt lat="36.442656" lon="30.497666"><ele>137.142</ele><time>2022-10-15T11:46:15Z</time></trkpt><trkpt lat="36.442708" lon="30.497658"><ele>136.584</ele><time>2022-10-15T11:46:19Z</time></trkpt><trkpt lat="36.442758" lon="30.497647"><ele>136.488</ele><time>2022-10-15T11:46:23Z</time></trkpt><trkpt lat="36.442806" lon="30.497645"><ele>136.119</ele><time>2022-10-15T11:46:27Z</time></trkpt><trkpt lat="36.442852" lon="30.497663"><ele>135.888</ele><time>2022-10-15T11:46:31Z</time></trkpt><trkpt lat="36.442881" lon="30.497710"><ele>135.424</ele><time>2022-10-15T11:46:35Z</time></trkpt><trkpt lat="36.442913" lon="30.497767"><ele>134.426</ele><time>2022-10-15T11:46:40Z</time></trkpt><trkpt lat="36.442936" lon="30.497837"><ele>133.009</ele><time>2022-10-15T11:46:45Z</time></trkpt><trkpt lat="36.442956" lon="30.497890"><ele>132.169</ele><time>2022-10-15T11:46:48Z</time></trkpt><trkpt lat="36.442985" lon="30.497942"><ele>131.889</ele><time>2022-10-15T11:46:51Z</time></trkpt><trkpt lat="36.442997" lon="30.498008"><ele>131.844</ele><time>2022-10-15T11:46:55Z</time></trkpt><trkpt lat="36.443015" lon="30.498062"><ele>131.611</ele><time>2022-10-15T11:46:58Z</time></trkpt><trkpt lat="36.443024" lon="30.498132"><ele>132.863</ele><time>2022-10-15T11:47:02Z</time></trkpt><trkpt lat="36.443030" lon="30.498195"><ele>134.229</ele><time>2022-10-15T11:47:06Z</time></trkpt><trkpt lat="36.443028" lon="30.498262"><ele>135.611</ele><time>2022-10-15T11:47:10Z</time></trkpt><trkpt lat="36.443033" lon="30.498328"><ele>136.075</ele><time>2022-10-15T11:47:14Z</time></trkpt><trkpt lat="36.443050" lon="30.498381"><ele>136.086</ele><time>2022-10-15T11:47:17Z</time></trkpt><trkpt lat="36.443079" lon="30.498430"><ele>136.021</ele><time>2022-10-15T11:47:20Z</time></trkpt><trkpt lat="36.443110" lon="30.498480"><ele>136.041</ele><time>2022-10-15T11:47:23Z</time></trkpt><trkpt lat="36.443132" lon="30.498530"><ele>135.905</ele><time>2022-10-15T11:47:26Z</time></trkpt><trkpt lat="36.443166" lon="30.498580"><ele>135.909</ele><time>2022-10-15T11:47:29Z</time></trkpt><trkpt lat="36.443193" lon="30.498646"><ele>135.763</ele><time>2022-10-15T11:47:33Z</time></trkpt><trkpt lat="36.443226" lon="30.498688"><ele>135.523</ele><time>2022-10-15T11:47:36Z</time></trkpt><trkpt lat="36.443254" lon="30.498748"><ele>134.578</ele><time>2022-10-15T11:47:40Z</time></trkpt><trkpt lat="36.443292" lon="30.498803"><ele>134.295</ele><time>2022-10-15T11:47:44Z</time></trkpt><trkpt lat="36.443324" lon="30.498848"><ele>134.177</ele><time>2022-10-15T11:47:47Z</time></trkpt><trkpt lat="36.443374" lon="30.498888"><ele>134.223</ele><time>2022-10-15T11:47:51Z</time></trkpt><trkpt lat="36.443417" lon="30.498907"><ele>134.395</ele><time>2022-10-15T11:47:54Z</time></trkpt><trkpt lat="36.443466" lon="30.498912"><ele>134.589</ele><time>2022-10-15T11:47:57Z</time></trkpt><trkpt lat="36.443524" lon="30.498888"><ele>134.830</ele><time>2022-10-15T11:48:01Z</time></trkpt><trkpt lat="36.443575" lon="30.498874"><ele>135.842</ele><time>2022-10-15T11:48:05Z</time></trkpt><trkpt lat="36.443619" lon="30.498835"><ele>136.922</ele><time>2022-10-15T11:48:09Z</time></trkpt><trkpt lat="36.443656" lon="30.498795"><ele>138.214</ele><time>2022-10-15T11:48:12Z</time></trkpt><trkpt lat="36.443698" lon="30.498774"><ele>139.309</ele><time>2022-10-15T11:48:15Z</time></trkpt><trkpt lat="36.443745" lon="30.498753"><ele>142.215</ele><time>2022-10-15T11:48:19Z</time></trkpt><trkpt lat="36.443785" lon="30.498720"><ele>143.295</ele><time>2022-10-15T11:48:23Z</time></trkpt><trkpt lat="36.443837" lon="30.498689"><ele>143.480</ele><time>2022-10-15T11:48:28Z</time></trkpt><trkpt lat="36.443885" lon="30.498663"><ele>143.877</ele><time>2022-10-15T11:48:32Z</time></trkpt><trkpt lat="36.443932" lon="30.498652"><ele>144.389</ele><time>2022-10-15T11:48:36Z</time></trkpt><trkpt lat="36.443980" lon="30.498630"><ele>145.345</ele><time>2022-10-15T11:48:40Z</time></trkpt><trkpt lat="36.444035" lon="30.498615"><ele>145.847</ele><time>2022-10-15T11:48:44Z</time></trkpt><trkpt lat="36.444085" lon="30.498611"><ele>145.951</ele><time>2022-10-15T11:48:48Z</time></trkpt><trkpt lat="36.444137" lon="30.498591"><ele>146.062</ele><time>2022-10-15T11:48:52Z</time></trkpt><trkpt lat="36.444182" lon="30.498571"><ele>146.178</ele><time>2022-10-15T11:48:55Z</time></trkpt><trkpt lat="36.444235" lon="30.498548"><ele>146.333</ele><time>2022-10-15T11:48:59Z</time></trkpt><trkpt lat="36.444276" lon="30.498525"><ele>146.426</ele><time>2022-10-15T11:49:02Z</time></trkpt><trkpt lat="36.444327" lon="30.498503"><ele>146.709</ele><time>2022-10-15T11:49:06Z</time></trkpt><trkpt lat="36.444370" lon="30.498480"><ele>146.938</ele><time>2022-10-15T11:49:10Z</time></trkpt><trkpt lat="36.444425" lon="30.498465"><ele>147.428</ele><time>2022-10-15T11:49:14Z</time></trkpt><trkpt lat="36.444478" lon="30.498443"><ele>147.563</ele><time>2022-10-15T11:49:18Z</time></trkpt><trkpt lat="36.444531" lon="30.498422"><ele>147.590</ele><time>2022-10-15T11:49:22Z</time></trkpt><trkpt lat="36.444584" lon="30.498404"><ele>147.322</ele><time>2022-10-15T11:49:26Z</time></trkpt><trkpt lat="36.444635" lon="30.498407"><ele>146.528</ele><time>2022-10-15T11:49:30Z</time></trkpt><trkpt lat="36.444681" lon="30.498430"><ele>146.230</ele><time>2022-10-15T11:49:34Z</time></trkpt><trkpt lat="36.444722" lon="30.498468"><ele>145.464</ele><time>2022-10-15T11:49:38Z</time></trkpt><trkpt lat="36.444743" lon="30.498518"><ele>145.145</ele><time>2022-10-15T11:49:41Z</time></trkpt><trkpt lat="36.444767" lon="30.498579"><ele>144.842</ele><time>2022-10-15T11:49:45Z</time></trkpt><trkpt lat="36.444797" lon="30.498636"><ele>144.522</ele><time>2022-10-15T11:49:49Z</time></trkpt><trkpt lat="36.444830" lon="30.498688"><ele>143.514</ele><time>2022-10-15T11:49:53Z</time></trkpt><trkpt lat="36.444862" lon="30.498737"><ele>143.209</ele><time>2022-10-15T11:49:57Z</time></trkpt><trkpt lat="36.444897" lon="30.498780"><ele>143.255</ele><time>2022-10-15T11:50:01Z</time></trkpt><trkpt lat="36.444941" lon="30.498818"><ele>143.295</ele><time>2022-10-15T11:50:05Z</time></trkpt><trkpt lat="36.444982" lon="30.498872"><ele>143.390</ele><time>2022-10-15T11:50:09Z</time></trkpt><trkpt lat="36.445027" lon="30.498908"><ele>143.267</ele><time>2022-10-15T11:50:13Z</time></trkpt><trkpt lat="36.445073" lon="30.498938"><ele>143.529</ele><time>2022-10-15T11:50:17Z</time></trkpt><trkpt lat="36.445114" lon="30.498972"><ele>143.735</ele><time>2022-10-15T11:50:21Z</time></trkpt><trkpt lat="36.445156" lon="30.498995"><ele>143.877</ele><time>2022-10-15T11:50:25Z</time></trkpt><trkpt lat="36.445198" lon="30.499019"><ele>143.931</ele><time>2022-10-15T11:50:29Z</time></trkpt><trkpt lat="36.445247" lon="30.499024"><ele>145.162</ele><time>2022-10-15T11:50:33Z</time></trkpt><trkpt lat="36.445293" lon="30.499032"><ele>145.512</ele><time>2022-10-15T11:50:37Z</time></trkpt><trkpt lat="36.445340" lon="30.499014"><ele>145.732</ele><time>2022-10-15T11:50:41Z</time></trkpt><trkpt lat="36.445381" lon="30.498983"><ele>145.805</ele><time>2022-10-15T11:50:45Z</time></trkpt><trkpt lat="36.445417" lon="30.498949"><ele>146.309</ele><time>2022-10-15T11:50:49Z</time></trkpt><trkpt lat="36.445444" lon="30.498897"><ele>146.552</ele><time>2022-10-15T11:50:53Z</time></trkpt><trkpt lat="36.445462" lon="30.498845"><ele>147.242</ele><time>2022-10-15T11:50:57Z</time></trkpt><trkpt lat="36.445498" lon="30.498796"><ele>148.577</ele><time>2022-10-15T11:51:02Z</time></trkpt><trkpt lat="36.445540" lon="30.498748"><ele>149.764</ele><time>2022-10-15T11:51:07Z</time></trkpt><trkpt lat="36.445570" lon="30.498694"><ele>151.316</ele><time>2022-10-15T11:51:12Z</time></trkpt><trkpt lat="36.445609" lon="30.498644"><ele>151.332</ele><time>2022-10-15T11:51:17Z</time></trkpt><trkpt lat="36.445633" lon="30.498595"><ele>151.344</ele><time>2022-10-15T11:51:21Z</time></trkpt><trkpt lat="36.445666" lon="30.498555"><ele>151.268</ele><time>2022-10-15T11:51:25Z</time></trkpt><trkpt lat="36.445687" lon="30.498500"><ele>150.869</ele><time>2022-10-15T11:51:29Z</time></trkpt><trkpt lat="36.445709" lon="30.498446"><ele>150.898</ele><time>2022-10-15T11:51:33Z</time></trkpt><trkpt lat="36.445738" lon="30.498389"><ele>150.815</ele><time>2022-10-15T11:51:38Z</time></trkpt><trkpt lat="36.445772" lon="30.498342"><ele>151.126</ele><time>2022-10-15T11:51:42Z</time></trkpt><trkpt lat="36.445810" lon="30.498291"><ele>151.309</ele><time>2022-10-15T11:51:46Z</time></trkpt><trkpt lat="36.445840" lon="30.498241"><ele>151.440</ele><time>2022-10-15T11:51:50Z</time></trkpt><trkpt lat="36.445873" lon="30.498188"><ele>151.590</ele><time>2022-10-15T11:51:54Z</time></trkpt><trkpt lat="36.445902" lon="30.498136"><ele>151.595</ele><time>2022-10-15T11:51:58Z</time></trkpt><trkpt lat="36.445929" lon="30.498071"><ele>151.742</ele><time>2022-10-15T11:52:02Z</time></trkpt><trkpt lat="36.445945" lon="30.498012"><ele>152.044</ele><time>2022-10-15T11:52:05Z</time></trkpt><trkpt lat="36.445951" lon="30.497954"><ele>152.260</ele><time>2022-10-15T11:52:08Z</time></trkpt><trkpt lat="36.445966" lon="30.497898"><ele>152.792</ele><time>2022-10-15T11:52:11Z</time></trkpt><trkpt lat="36.445971" lon="30.497823"><ele>154.526</ele><time>2022-10-15T11:52:14Z</time></trkpt><trkpt lat="36.445975" lon="30.497757"><ele>156.967</ele><time>2022-10-15T11:52:18Z</time></trkpt><trkpt lat="36.445944" lon="30.497697"><ele>160.227</ele><time>2022-10-15T11:52:23Z</time></trkpt><trkpt lat="36.445986" lon="30.497671"><ele>162.168</ele><time>2022-10-15T11:52:38Z</time></trkpt><trkpt lat="36.445996" lon="30.497606"><ele>162.214</ele><time>2022-10-15T11:52:42Z</time></trkpt><trkpt lat="36.446026" lon="30.497559"><ele>162.209</ele><time>2022-10-15T11:52:46Z</time></trkpt><trkpt lat="36.446053" lon="30.497505"><ele>162.013</ele><time>2022-10-15T11:52:50Z</time></trkpt><trkpt lat="36.446087" lon="30.497460"><ele>162.033</ele><time>2022-10-15T11:52:54Z</time></trkpt><trkpt lat="36.446118" lon="30.497409"><ele>162.228</ele><time>2022-10-15T11:52:58Z</time></trkpt><trkpt lat="36.446146" lon="30.497353"><ele>162.325</ele><time>2022-10-15T11:53:02Z</time></trkpt><trkpt lat="36.446174" lon="30.497305"><ele>162.387</ele><time>2022-10-15T11:53:06Z</time></trkpt><trkpt lat="36.446196" lon="30.497256"><ele>162.433</ele><time>2022-10-15T11:53:09Z</time></trkpt><trkpt lat="36.446220" lon="30.497201"><ele>162.525</ele><time>2022-10-15T11:53:13Z</time></trkpt><trkpt lat="36.446226" lon="30.497135"><ele>162.579</ele><time>2022-10-15T11:53:17Z</time></trkpt><trkpt lat="36.446207" lon="30.497076"><ele>163.340</ele><time>2022-10-15T11:53:22Z</time></trkpt><trkpt lat="36.446174" lon="30.497031"><ele>163.473</ele><time>2022-10-15T11:53:26Z</time></trkpt><trkpt lat="36.446147" lon="30.496985"><ele>163.585</ele><time>2022-10-15T11:53:29Z</time></trkpt><trkpt lat="36.446114" lon="30.496935"><ele>164.413</ele><time>2022-10-15T11:53:34Z</time></trkpt><trkpt lat="36.446114" lon="30.496872"><ele>165.209</ele><time>2022-10-15T11:53:39Z</time></trkpt><trkpt lat="36.446168" lon="30.496852"><ele>165.448</ele><time>2022-10-15T11:53:44Z</time></trkpt><trkpt lat="36.446215" lon="30.496864"><ele>165.878</ele><time>2022-10-15T11:53:48Z</time></trkpt><trkpt lat="36.446265" lon="30.496889"><ele>166.173</ele><time>2022-10-15T11:53:52Z</time></trkpt><trkpt lat="36.446309" lon="30.496915"><ele>166.130</ele><time>2022-10-15T11:53:56Z</time></trkpt><trkpt lat="36.446347" lon="30.496954"><ele>166.272</ele><time>2022-10-15T11:54:00Z</time></trkpt><trkpt lat="36.446371" lon="30.497014"><ele>166.278</ele><time>2022-10-15T11:54:05Z</time></trkpt><trkpt lat="36.446393" lon="30.497063"><ele>166.030</ele><time>2022-10-15T11:54:09Z</time></trkpt><trkpt lat="36.446427" lon="30.497109"><ele>165.954</ele><time>2022-10-15T11:54:13Z</time></trkpt><trkpt lat="36.446442" lon="30.497165"><ele>166.065</ele><time>2022-10-15T11:54:18Z</time></trkpt><trkpt lat="36.446440" lon="30.497226"><ele>166.221</ele><time>2022-10-15T11:54:22Z</time></trkpt><trkpt lat="36.446446" lon="30.497293"><ele>166.741</ele><time>2022-10-15T11:54:26Z</time></trkpt><trkpt lat="36.446456" lon="30.497365"><ele>167.505</ele><time>2022-10-15T11:54:30Z</time></trkpt><trkpt lat="36.446449" lon="30.497427"><ele>168.009</ele><time>2022-10-15T11:54:36Z</time></trkpt><trkpt lat="36.446422" lon="30.497510"><ele>168.583</ele><time>2022-10-15T11:54:41Z</time></trkpt><trkpt lat="36.446406" lon="30.497567"><ele>168.873</ele><time>2022-10-15T11:54:43Z</time></trkpt><trkpt lat="36.446394" lon="30.497624"><ele>169.118</ele><time>2022-10-15T11:54:46Z</time></trkpt><trkpt lat="36.446403" lon="30.497680"><ele>169.955</ele><time>2022-10-15T11:54:52Z</time></trkpt><trkpt lat="36.446424" lon="30.497735"><ele>171.957</ele><time>2022-10-15T11:54:57Z</time></trkpt><trkpt lat="36.446440" lon="30.497790"><ele>172.343</ele><time>2022-10-15T11:55:02Z</time></trkpt><trkpt lat="36.446464" lon="30.497843"><ele>172.955</ele><time>2022-10-15T11:55:07Z</time></trkpt><trkpt lat="36.446463" lon="30.497908"><ele>173.049</ele><time>2022-10-15T11:55:12Z</time></trkpt><trkpt lat="36.446469" lon="30.497971"><ele>173.590</ele><time>2022-10-15T11:55:17Z</time></trkpt><trkpt lat="36.446479" lon="30.498032"><ele>174.136</ele><time>2022-10-15T11:55:23Z</time></trkpt><trkpt lat="36.446488" lon="30.498088"><ele>175.117</ele><time>2022-10-15T11:55:28Z</time></trkpt><trkpt lat="36.446495" lon="30.498146"><ele>175.718</ele><time>2022-10-15T11:55:33Z</time></trkpt><trkpt lat="36.446511" lon="30.498203"><ele>176.309</ele><time>2022-10-15T11:55:39Z</time></trkpt><trkpt lat="36.446524" lon="30.498264"><ele>176.784</ele><time>2022-10-15T11:55:44Z</time></trkpt><trkpt lat="36.446514" lon="30.498322"><ele>178.114</ele><time>2022-10-15T11:55:49Z</time></trkpt><trkpt lat="36.446505" lon="30.498377"><ele>178.749</ele><time>2022-10-15T11:55:53Z</time></trkpt><trkpt lat="36.446487" lon="30.498433"><ele>179.816</ele><time>2022-10-15T11:55:57Z</time></trkpt><trkpt lat="36.446457" lon="30.498487"><ele>180.528</ele><time>2022-10-15T11:56:01Z</time></trkpt><trkpt lat="36.446409" lon="30.498475"><ele>181.334</ele><time>2022-10-15T11:56:05Z</time></trkpt><trkpt lat="36.446416" lon="30.498531"><ele>184.656</ele><time>2022-10-15T11:56:26Z</time></trkpt><trkpt lat="36.446419" lon="30.498603"><ele>186.660</ele><time>2022-10-15T11:56:31Z</time></trkpt><trkpt lat="36.446410" lon="30.498664"><ele>187.381</ele><time>2022-10-15T11:56:36Z</time></trkpt><trkpt lat="36.446390" lon="30.498715"><ele>187.458</ele><time>2022-10-15T11:56:41Z</time></trkpt><trkpt lat="36.446376" lon="30.498774"><ele>188.052</ele><time>2022-10-15T11:56:47Z</time></trkpt><trkpt lat="36.446373" lon="30.498839"><ele>188.317</ele><time>2022-10-15T11:56:54Z</time></trkpt><trkpt lat="36.446373" lon="30.498904"><ele>188.709</ele><time>2022-10-15T11:57:01Z</time></trkpt><trkpt lat="36.446388" lon="30.498959"><ele>189.296</ele><time>2022-10-15T11:57:06Z</time></trkpt><trkpt lat="36.446399" lon="30.499025"><ele>190.336</ele><time>2022-10-15T11:57:13Z</time></trkpt><trkpt lat="36.446413" lon="30.499094"><ele>192.291</ele><time>2022-10-15T11:57:19Z</time></trkpt><trkpt lat="36.446433" lon="30.499149"><ele>193.328</ele><time>2022-10-15T11:57:25Z</time></trkpt><trkpt lat="36.446449" lon="30.499208"><ele>194.310</ele><time>2022-10-15T11:57:30Z</time></trkpt><trkpt lat="36.446448" lon="30.499270"><ele>195.636</ele><time>2022-10-15T11:57:36Z</time></trkpt><trkpt lat="36.446449" lon="30.499335"><ele>196.018</ele><time>2022-10-15T11:57:42Z</time></trkpt><trkpt lat="36.446453" lon="30.499418"><ele>196.312</ele><time>2022-10-15T11:57:46Z</time></trkpt><trkpt lat="36.446446" lon="30.499476"><ele>196.383</ele><time>2022-10-15T11:57:48Z</time></trkpt><trkpt lat="36.446435" lon="30.499534"><ele>197.256</ele><time>2022-10-15T11:57:52Z</time></trkpt><trkpt lat="36.446433" lon="30.499591"><ele>197.459</ele><time>2022-10-15T11:57:56Z</time></trkpt><trkpt lat="36.446414" lon="30.499655"><ele>197.914</ele><time>2022-10-15T11:58:00Z</time></trkpt><trkpt lat="36.446395" lon="30.499717"><ele>198.809</ele><time>2022-10-15T11:58:05Z</time></trkpt><trkpt lat="36.446375" lon="30.499768"><ele>199.226</ele><time>2022-10-15T11:58:09Z</time></trkpt><trkpt lat="36.446364" lon="30.499838"><ele>201.426</ele><time>2022-10-15T11:58:15Z</time></trkpt><trkpt lat="36.446368" lon="30.499898"><ele>202.581</ele><time>2022-10-15T11:58:21Z</time></trkpt><trkpt lat="36.446362" lon="30.499955"><ele>205.018</ele><time>2022-10-15T11:58:25Z</time></trkpt><trkpt lat="36.446369" lon="30.500016"><ele>207.720</ele><time>2022-10-15T11:58:32Z</time></trkpt><trkpt lat="36.446370" lon="30.500082"><ele>208.786</ele><time>2022-10-15T11:58:38Z</time></trkpt><trkpt lat="36.446361" lon="30.500148"><ele>209.188</ele><time>2022-10-15T11:58:45Z</time></trkpt><trkpt lat="36.446335" lon="30.500204"><ele>211.492</ele><time>2022-10-15T11:58:51Z</time></trkpt><trkpt lat="36.446318" lon="30.500262"><ele>213.113</ele><time>2022-10-15T11:58:57Z</time></trkpt><trkpt lat="36.446300" lon="30.500318"><ele>216.153</ele><time>2022-10-15T11:59:03Z</time></trkpt><trkpt lat="36.446286" lon="30.500378"><ele>217.304</ele><time>2022-10-15T11:59:09Z</time></trkpt><trkpt lat="36.446278" lon="30.500440"><ele>218.114</ele><time>2022-10-15T11:59:14Z</time></trkpt><trkpt lat="36.446264" lon="30.500503"><ele>218.209</ele><time>2022-10-15T11:59:21Z</time></trkpt><trkpt lat="36.446250" lon="30.500563"><ele>218.216</ele><time>2022-10-15T11:59:27Z</time></trkpt><trkpt lat="36.446246" lon="30.500620"><ele>218.266</ele><time>2022-10-15T11:59:32Z</time></trkpt><trkpt lat="36.446238" lon="30.500676"><ele>218.971</ele><time>2022-10-15T11:59:37Z</time></trkpt><trkpt lat="36.446228" lon="30.500738"><ele>221.938</ele><time>2022-10-15T11:59:41Z</time></trkpt><trkpt lat="36.446233" lon="30.500799"><ele>222.250</ele><time>2022-10-15T11:59:46Z</time></trkpt><trkpt lat="36.446239" lon="30.500862"><ele>224.146</ele><time>2022-10-15T11:59:51Z</time></trkpt><trkpt lat="36.446256" lon="30.500927"><ele>224.768</ele><time>2022-10-15T11:59:56Z</time></trkpt><trkpt lat="36.446261" lon="30.500987"><ele>225.152</ele><time>2022-10-15T12:00:00Z</time></trkpt><trkpt lat="36.446267" lon="30.501051"><ele>225.553</ele><time>2022-10-15T12:00:05Z</time></trkpt><trkpt lat="36.446280" lon="30.501106"><ele>226.069</ele><time>2022-10-15T12:00:10Z</time></trkpt><trkpt lat="36.446284" lon="30.501171"><ele>226.204</ele><time>2022-10-15T12:00:15Z</time></trkpt><trkpt lat="36.446298" lon="30.501231"><ele>227.224</ele><time>2022-10-15T12:00:20Z</time></trkpt><trkpt lat="36.446318" lon="30.501288"><ele>227.309</ele><time>2022-10-15T12:00:27Z</time></trkpt><trkpt lat="36.446334" lon="30.501347"><ele>227.317</ele><time>2022-10-15T12:00:33Z</time></trkpt><trkpt lat="36.446363" lon="30.501402"><ele>227.047</ele><time>2022-10-15T12:00:39Z</time></trkpt><trkpt lat="36.446382" lon="30.501462"><ele>226.122</ele><time>2022-10-15T12:00:44Z</time></trkpt><trkpt lat="36.446411" lon="30.501512"><ele>225.479</ele><time>2022-10-15T12:00:48Z</time></trkpt><trkpt lat="36.446443" lon="30.501562"><ele>223.881</ele><time>2022-10-15T12:00:53Z</time></trkpt><trkpt lat="36.446476" lon="30.501607"><ele>222.747</ele><time>2022-10-15T12:00:57Z</time></trkpt><trkpt lat="36.446495" lon="30.501671"><ele>221.969</ele><time>2022-10-15T12:01:01Z</time></trkpt><trkpt lat="36.446525" lon="30.501719"><ele>221.633</ele><time>2022-10-15T12:01:05Z</time></trkpt><trkpt lat="36.446574" lon="30.501735"><ele>221.124</ele><time>2022-10-15T12:01:10Z</time></trkpt><trkpt lat="36.446602" lon="30.501789"><ele>221.528</ele><time>2022-10-15T12:03:40Z</time></trkpt><trkpt lat="36.446625" lon="30.501844"><ele>221.689</ele><time>2022-10-15T12:03:44Z</time></trkpt><trkpt lat="36.446609" lon="30.501899"><ele>221.917</ele><time>2022-10-15T12:03:50Z</time></trkpt><trkpt lat="36.446598" lon="30.501964"><ele>221.909</ele><time>2022-10-15T12:03:55Z</time></trkpt><trkpt lat="36.446610" lon="30.502025"><ele>219.313</ele><time>2022-10-15T12:03:59Z</time></trkpt><trkpt lat="36.446624" lon="30.502091"><ele>213.323</ele><time>2022-10-15T12:04:04Z</time></trkpt><trkpt lat="36.446652" lon="30.502161"><ele>212.898</ele><time>2022-10-15T12:04:08Z</time></trkpt><trkpt lat="36.446691" lon="30.502218"><ele>212.655</ele><time>2022-10-15T12:04:12Z</time></trkpt><trkpt lat="36.446714" lon="30.502280"><ele>213.387</ele><time>2022-10-15T12:04:16Z</time></trkpt><trkpt lat="36.446740" lon="30.502341"><ele>213.673</ele><time>2022-10-15T12:04:20Z</time></trkpt><trkpt lat="36.446758" lon="30.502400"><ele>213.855</ele><time>2022-10-15T12:04:24Z</time></trkpt><trkpt lat="36.446765" lon="30.502462"><ele>213.879</ele><time>2022-10-15T12:04:28Z</time></trkpt><trkpt lat="36.446776" lon="30.502529"><ele>214.170</ele><time>2022-10-15T12:04:32Z</time></trkpt><trkpt lat="36.446787" lon="30.502594"><ele>214.135</ele><time>2022-10-15T12:04:37Z</time></trkpt><trkpt lat="36.446799" lon="30.502662"><ele>213.986</ele><time>2022-10-15T12:04:43Z</time></trkpt><trkpt lat="36.446809" lon="30.502720"><ele>213.714</ele><time>2022-10-15T12:04:47Z</time></trkpt><trkpt lat="36.446820" lon="30.502785"><ele>211.309</ele><time>2022-10-15T12:04:51Z</time></trkpt><trkpt lat="36.446844" lon="30.502840"><ele>210.944</ele><time>2022-10-15T12:04:55Z</time></trkpt><trkpt lat="36.446884" lon="30.502890"><ele>210.764</ele><time>2022-10-15T12:04:58Z</time></trkpt><trkpt lat="36.446946" lon="30.502916"><ele>210.059</ele><time>2022-10-15T12:05:01Z</time></trkpt><trkpt lat="36.446990" lon="30.502880"><ele>209.866</ele><time>2022-10-15T12:05:05Z</time></trkpt><trkpt lat="36.447010" lon="30.502823"><ele>209.348</ele><time>2022-10-15T12:05:09Z</time></trkpt><trkpt lat="36.447007" lon="30.502753"><ele>209.384</ele><time>2022-10-15T12:05:13Z</time></trkpt><trkpt lat="36.446994" lon="30.502681"><ele>208.496</ele><time>2022-10-15T12:05:17Z</time></trkpt><trkpt lat="36.446993" lon="30.502613"><ele>208.250</ele><time>2022-10-15T12:05:21Z</time></trkpt><trkpt lat="36.446997" lon="30.502556"><ele>207.821</ele><time>2022-10-15T12:05:25Z</time></trkpt><trkpt lat="36.447009" lon="30.502497"><ele>207.693</ele><time>2022-10-15T12:05:29Z</time></trkpt><trkpt lat="36.447025" lon="30.502435"><ele>207.665</ele><time>2022-10-15T12:05:33Z</time></trkpt><trkpt lat="36.447045" lon="30.502372"><ele>207.121</ele><time>2022-10-15T12:05:37Z</time></trkpt><trkpt lat="36.447069" lon="30.502310"><ele>205.609</ele><time>2022-10-15T12:05:41Z</time></trkpt><trkpt lat="36.447107" lon="30.502269"><ele>205.060</ele><time>2022-10-15T12:05:45Z</time></trkpt><trkpt lat="36.447133" lon="30.502211"><ele>204.850</ele><time>2022-10-15T12:05:49Z</time></trkpt><trkpt lat="36.447160" lon="30.502156"><ele>204.345</ele><time>2022-10-15T12:05:53Z</time></trkpt><trkpt lat="36.447188" lon="30.502097"><ele>203.962</ele><time>2022-10-15T12:05:57Z</time></trkpt><trkpt lat="36.447210" lon="30.502043"><ele>203.374</ele><time>2022-10-15T12:06:01Z</time></trkpt><trkpt lat="36.447237" lon="30.501989"><ele>202.430</ele><time>2022-10-15T12:06:05Z</time></trkpt><trkpt lat="36.447268" lon="30.501944"><ele>202.452</ele><time>2022-10-15T12:06:09Z</time></trkpt><trkpt lat="36.447300" lon="30.501889"><ele>202.426</ele><time>2022-10-15T12:06:13Z</time></trkpt><trkpt lat="36.447334" lon="30.501836"><ele>202.147</ele><time>2022-10-15T12:06:18Z</time></trkpt><trkpt lat="36.447369" lon="30.501798"><ele>201.879</ele><time>2022-10-15T12:06:22Z</time></trkpt><trkpt lat="36.447402" lon="30.501749"><ele>201.105</ele><time>2022-10-15T12:06:26Z</time></trkpt><trkpt lat="36.447407" lon="30.501687"><ele>200.725</ele><time>2022-10-15T12:06:29Z</time></trkpt><trkpt lat="36.447410" lon="30.501630"><ele>199.009</ele><time>2022-10-15T12:06:32Z</time></trkpt><trkpt lat="36.447413" lon="30.501569"><ele>197.338</ele><time>2022-10-15T12:06:35Z</time></trkpt><trkpt lat="36.447404" lon="30.501509"><ele>197.038</ele><time>2022-10-15T12:06:38Z</time></trkpt><trkpt lat="36.447392" lon="30.501437"><ele>197.073</ele><time>2022-10-15T12:06:42Z</time></trkpt><trkpt lat="36.447388" lon="30.501374"><ele>197.010</ele><time>2022-10-15T12:06:45Z</time></trkpt><trkpt lat="36.447403" lon="30.501308"><ele>197.092</ele><time>2022-10-15T12:06:49Z</time></trkpt><trkpt lat="36.447448" lon="30.501276"><ele>197.028</ele><time>2022-10-15T12:06:53Z</time></trkpt><trkpt lat="36.447505" lon="30.501279"><ele>196.090</ele><time>2022-10-15T12:06:57Z</time></trkpt><trkpt lat="36.447559" lon="30.501285"><ele>195.394</ele><time>2022-10-15T12:07:01Z</time></trkpt><trkpt lat="36.447608" lon="30.501297"><ele>194.375</ele><time>2022-10-15T12:07:05Z</time></trkpt><trkpt lat="36.447665" lon="30.501293"><ele>194.266</ele><time>2022-10-15T12:07:09Z</time></trkpt><trkpt lat="36.447712" lon="30.501273"><ele>193.929</ele><time>2022-10-15T12:07:13Z</time></trkpt><trkpt lat="36.447753" lon="30.501238"><ele>193.721</ele><time>2022-10-15T12:07:17Z</time></trkpt><trkpt lat="36.447788" lon="30.501197"><ele>193.309</ele><time>2022-10-15T12:07:21Z</time></trkpt><trkpt lat="36.447825" lon="30.501150"><ele>191.897</ele><time>2022-10-15T12:07:25Z</time></trkpt><trkpt lat="36.447852" lon="30.501104"><ele>190.167</ele><time>2022-10-15T12:07:28Z</time></trkpt><trkpt lat="36.447878" lon="30.501058"><ele>187.842</ele><time>2022-10-15T12:07:31Z</time></trkpt><trkpt lat="36.447912" lon="30.501001"><ele>185.769</ele><time>2022-10-15T12:07:35Z</time></trkpt><trkpt lat="36.447937" lon="30.500942"><ele>185.311</ele><time>2022-10-15T12:07:39Z</time></trkpt><trkpt lat="36.447969" lon="30.500895"><ele>185.227</ele><time>2022-10-15T12:07:43Z</time></trkpt><trkpt lat="36.448019" lon="30.500851"><ele>184.989</ele><time>2022-10-15T12:07:48Z</time></trkpt><trkpt lat="36.448062" lon="30.500826"><ele>184.873</ele><time>2022-10-15T12:07:51Z</time></trkpt><trkpt lat="36.448108" lon="30.500836"><ele>184.574</ele><time>2022-10-15T12:07:54Z</time></trkpt><trkpt lat="36.448144" lon="30.500885"><ele>184.391</ele><time>2022-10-15T12:07:58Z</time></trkpt><trkpt lat="36.448164" lon="30.500948"><ele>184.381</ele><time>2022-10-15T12:08:02Z</time></trkpt><trkpt lat="36.448177" lon="30.501009"><ele>184.519</ele><time>2022-10-15T12:08:06Z</time></trkpt><trkpt lat="36.448162" lon="30.501067"><ele>184.509</ele><time>2022-10-15T12:08:10Z</time></trkpt><trkpt lat="36.448157" lon="30.501129"><ele>184.790</ele><time>2022-10-15T12:08:14Z</time></trkpt><trkpt lat="36.448150" lon="30.501187"><ele>184.540</ele><time>2022-10-15T12:08:18Z</time></trkpt><trkpt lat="36.448142" lon="30.501257"><ele>184.695</ele><time>2022-10-15T12:08:22Z</time></trkpt><trkpt lat="36.448147" lon="30.501318"><ele>184.532</ele><time>2022-10-15T12:08:26Z</time></trkpt><trkpt lat="36.448146" lon="30.501376"><ele>186.024</ele><time>2022-10-15T12:08:30Z</time></trkpt><trkpt lat="36.448151" lon="30.501436"><ele>187.770</ele><time>2022-10-15T12:08:34Z</time></trkpt><trkpt lat="36.448154" lon="30.501497"><ele>187.672</ele><time>2022-10-15T12:09:46Z</time></trkpt><trkpt lat="36.448158" lon="30.501566"><ele>187.676</ele><time>2022-10-15T12:09:50Z</time></trkpt><trkpt lat="36.448163" lon="30.501637"><ele>187.567</ele><time>2022-10-15T12:09:54Z</time></trkpt><trkpt lat="36.448180" lon="30.501695"><ele>187.387</ele><time>2022-10-15T12:09:58Z</time></trkpt><trkpt lat="36.448200" lon="30.501747"><ele>183.942</ele><time>2022-10-15T12:10:02Z</time></trkpt><trkpt lat="36.448210" lon="30.501805"><ele>183.026</ele><time>2022-10-15T12:10:06Z</time></trkpt><trkpt lat="36.448226" lon="30.501859"><ele>183.009</ele><time>2022-10-15T12:10:09Z</time></trkpt><trkpt lat="36.448236" lon="30.501927"><ele>183.169</ele><time>2022-10-15T12:10:13Z</time></trkpt><trkpt lat="36.448249" lon="30.501991"><ele>182.549</ele><time>2022-10-15T12:10:17Z</time></trkpt><trkpt lat="36.448264" lon="30.502064"><ele>182.394</ele><time>2022-10-15T12:10:21Z</time></trkpt><trkpt lat="36.448274" lon="30.502127"><ele>182.581</ele><time>2022-10-15T12:10:25Z</time></trkpt><trkpt lat="36.448302" lon="30.502178"><ele>182.763</ele><time>2022-10-15T12:10:29Z</time></trkpt><trkpt lat="36.448339" lon="30.502220"><ele>182.529</ele><time>2022-10-15T12:10:33Z</time></trkpt><trkpt lat="36.448375" lon="30.502262"><ele>182.411</ele><time>2022-10-15T12:10:37Z</time></trkpt><trkpt lat="36.448384" lon="30.502335"><ele>183.085</ele><time>2022-10-15T12:10:41Z</time></trkpt><trkpt lat="36.448360" lon="30.502391"><ele>183.966</ele><time>2022-10-15T12:10:44Z</time></trkpt><trkpt lat="36.448330" lon="30.502452"><ele>185.155</ele><time>2022-10-15T12:10:48Z</time></trkpt><trkpt lat="36.448300" lon="30.502500"><ele>185.907</ele><time>2022-10-15T12:10:51Z</time></trkpt><trkpt lat="36.448275" lon="30.502558"><ele>187.717</ele><time>2022-10-15T12:10:55Z</time></trkpt><trkpt lat="36.448268" lon="30.502622"><ele>188.009</ele><time>2022-10-15T12:10:59Z</time></trkpt><trkpt lat="36.448268" lon="30.502683"><ele>188.086</ele><time>2022-10-15T12:11:03Z</time></trkpt><trkpt lat="36.448268" lon="30.502750"><ele>187.766</ele><time>2022-10-15T12:11:07Z</time></trkpt><trkpt lat="36.448276" lon="30.502814"><ele>186.521</ele><time>2022-10-15T12:11:11Z</time></trkpt><trkpt lat="36.448263" lon="30.502879"><ele>186.348</ele><time>2022-10-15T12:11:15Z</time></trkpt><trkpt lat="36.448245" lon="30.502939"><ele>185.510</ele><time>2022-10-15T12:11:19Z</time></trkpt><trkpt lat="36.448227" lon="30.502996"><ele>184.126</ele><time>2022-10-15T12:11:23Z</time></trkpt><trkpt lat="36.448218" lon="30.503055"><ele>182.058</ele><time>2022-10-15T12:11:27Z</time></trkpt><trkpt lat="36.448245" lon="30.503121"><ele>181.862</ele><time>2022-10-15T12:11:31Z</time></trkpt><trkpt lat="36.448240" lon="30.503188"><ele>181.393</ele><time>2022-10-15T12:11:35Z</time></trkpt><trkpt lat="36.448235" lon="30.503255"><ele>181.238</ele><time>2022-10-15T12:11:39Z</time></trkpt><trkpt lat="36.448220" lon="30.503309"><ele>180.870</ele><time>2022-10-15T12:11:42Z</time></trkpt><trkpt lat="36.448200" lon="30.503372"><ele>180.417</ele><time>2022-10-15T12:11:46Z</time></trkpt><trkpt lat="36.448198" lon="30.503428"><ele>180.409</ele><time>2022-10-15T12:11:49Z</time></trkpt><trkpt lat="36.448199" lon="30.503492"><ele>180.564</ele><time>2022-10-15T12:11:53Z</time></trkpt><trkpt lat="36.448212" lon="30.503553"><ele>181.144</ele><time>2022-10-15T12:11:57Z</time></trkpt><trkpt lat="36.448242" lon="30.503608"><ele>181.179</ele><time>2022-10-15T12:12:01Z</time></trkpt><trkpt lat="36.448267" lon="30.503659"><ele>181.116</ele><time>2022-10-15T12:12:04Z</time></trkpt><trkpt lat="36.448295" lon="30.503717"><ele>180.728</ele><time>2022-10-15T12:12:08Z</time></trkpt><trkpt lat="36.448329" lon="30.503775"><ele>180.084</ele><time>2022-10-15T12:12:12Z</time></trkpt><trkpt lat="36.448346" lon="30.503832"><ele>179.936</ele><time>2022-10-15T12:12:16Z</time></trkpt><trkpt lat="36.448380" lon="30.503878"><ele>179.870</ele><time>2022-10-15T12:12:20Z</time></trkpt><trkpt lat="36.448412" lon="30.503923"><ele>179.761</ele><time>2022-10-15T12:12:24Z</time></trkpt><trkpt lat="36.448455" lon="30.503974"><ele>178.522</ele><time>2022-10-15T12:12:28Z</time></trkpt><trkpt lat="36.448486" lon="30.504030"><ele>177.662</ele><time>2022-10-15T12:12:32Z</time></trkpt><trkpt lat="36.448523" lon="30.504079"><ele>176.908</ele><time>2022-10-15T12:12:36Z</time></trkpt><trkpt lat="36.448552" lon="30.504134"><ele>175.609</ele><time>2022-10-15T12:12:40Z</time></trkpt><trkpt lat="36.448586" lon="30.504186"><ele>174.773</ele><time>2022-10-15T12:12:44Z</time></trkpt><trkpt lat="36.448623" lon="30.504229"><ele>174.343</ele><time>2022-10-15T12:12:48Z</time></trkpt><trkpt lat="36.448666" lon="30.504261"><ele>174.028</ele><time>2022-10-15T12:12:52Z</time></trkpt><trkpt lat="36.448720" lon="30.504268"><ele>173.715</ele><time>2022-10-15T12:12:56Z</time></trkpt><trkpt lat="36.448778" lon="30.504257"><ele>171.797</ele><time>2022-10-15T12:13:00Z</time></trkpt><trkpt lat="36.448826" lon="30.504224"><ele>171.363</ele><time>2022-10-15T12:13:04Z</time></trkpt><trkpt lat="36.448879" lon="30.504196"><ele>171.235</ele><time>2022-10-15T12:13:08Z</time></trkpt><trkpt lat="36.448922" lon="30.504167"><ele>171.239</ele><time>2022-10-15T12:13:11Z</time></trkpt><trkpt lat="36.448964" lon="30.504130"><ele>171.730</ele><time>2022-10-15T12:13:15Z</time></trkpt><trkpt lat="36.449015" lon="30.504098"><ele>172.115</ele><time>2022-10-15T12:13:19Z</time></trkpt><trkpt lat="36.449057" lon="30.504077"><ele>172.165</ele><time>2022-10-15T12:13:22Z</time></trkpt><trkpt lat="36.449111" lon="30.504052"><ele>172.111</ele><time>2022-10-15T12:13:26Z</time></trkpt><trkpt lat="36.449169" lon="30.504031"><ele>172.109</ele><time>2022-10-15T12:13:30Z</time></trkpt><trkpt lat="36.449212" lon="30.504007"><ele>172.282</ele><time>2022-10-15T12:13:33Z</time></trkpt><trkpt lat="36.449267" lon="30.503985"><ele>172.592</ele><time>2022-10-15T12:13:37Z</time></trkpt><trkpt lat="36.449317" lon="30.503964"><ele>174.527</ele><time>2022-10-15T12:13:41Z</time></trkpt><trkpt lat="36.449371" lon="30.503947"><ele>175.694</ele><time>2022-10-15T12:13:45Z</time></trkpt><trkpt lat="36.449414" lon="30.503915"><ele>176.176</ele><time>2022-10-15T12:13:49Z</time></trkpt><trkpt lat="36.449461" lon="30.503875"><ele>176.942</ele><time>2022-10-15T12:13:53Z</time></trkpt><trkpt lat="36.449495" lon="30.503820"><ele>177.154</ele><time>2022-10-15T12:13:57Z</time></trkpt><trkpt lat="36.449510" lon="30.503757"><ele>177.168</ele><time>2022-10-15T12:14:01Z</time></trkpt><trkpt lat="36.449527" lon="30.503696"><ele>177.149</ele><time>2022-10-15T12:14:05Z</time></trkpt><trkpt lat="36.449549" lon="30.503633"><ele>177.536</ele><time>2022-10-15T12:14:09Z</time></trkpt><trkpt lat="36.449580" lon="30.503591"><ele>178.017</ele><time>2022-10-15T12:14:12Z</time></trkpt><trkpt lat="36.449629" lon="30.503578"><ele>178.418</ele><time>2022-10-15T12:14:15Z</time></trkpt><trkpt lat="36.449679" lon="30.503586"><ele>179.809</ele><time>2022-10-15T12:14:18Z</time></trkpt><trkpt lat="36.449725" lon="30.503606"><ele>181.424</ele><time>2022-10-15T12:14:21Z</time></trkpt><trkpt lat="36.449777" lon="30.503634"><ele>181.984</ele><time>2022-10-15T12:14:25Z</time></trkpt><trkpt lat="36.449826" lon="30.503658"><ele>181.619</ele><time>2022-10-15T12:14:29Z</time></trkpt><trkpt lat="36.449873" lon="30.503690"><ele>180.696</ele><time>2022-10-15T12:14:33Z</time></trkpt><trkpt lat="36.449920" lon="30.503719"><ele>178.488</ele><time>2022-10-15T12:14:37Z</time></trkpt><trkpt lat="36.449959" lon="30.503749"><ele>177.784</ele><time>2022-10-15T12:14:40Z</time></trkpt><trkpt lat="36.450008" lon="30.503773"><ele>177.436</ele><time>2022-10-15T12:14:44Z</time></trkpt><trkpt lat="36.450058" lon="30.503793"><ele>176.810</ele><time>2022-10-15T12:14:48Z</time></trkpt><trkpt lat="36.450111" lon="30.503811"><ele>176.651</ele><time>2022-10-15T12:14:52Z</time></trkpt><trkpt lat="36.450163" lon="30.503832"><ele>176.211</ele><time>2022-10-15T12:14:56Z</time></trkpt><trkpt lat="36.450212" lon="30.503855"><ele>174.421</ele><time>2022-10-15T12:15:00Z</time></trkpt><trkpt lat="36.450261" lon="30.503886"><ele>174.203</ele><time>2022-10-15T12:15:04Z</time></trkpt><trkpt lat="36.450304" lon="30.503931"><ele>174.009</ele><time>2022-10-15T12:15:08Z</time></trkpt><trkpt lat="36.450337" lon="30.503987"><ele>173.812</ele><time>2022-10-15T12:15:12Z</time></trkpt><trkpt lat="36.450368" lon="30.504030"><ele>174.012</ele><time>2022-10-15T12:15:16Z</time></trkpt><trkpt lat="36.450413" lon="30.504041"><ele>173.937</ele><time>2022-10-15T12:15:19Z</time></trkpt><trkpt lat="36.450467" lon="30.504065"><ele>173.784</ele><time>2022-10-15T12:15:23Z</time></trkpt><trkpt lat="36.450513" lon="30.504080"><ele>173.216</ele><time>2022-10-15T12:15:27Z</time></trkpt><trkpt lat="36.450561" lon="30.504080"><ele>172.672</ele><time>2022-10-15T12:15:30Z</time></trkpt><trkpt lat="36.450616" lon="30.504086"><ele>171.474</ele><time>2022-10-15T12:15:34Z</time></trkpt><trkpt lat="36.450673" lon="30.504092"><ele>170.168</ele><time>2022-10-15T12:15:38Z</time></trkpt><trkpt lat="36.450718" lon="30.504107"><ele>169.149</ele><time>2022-10-15T12:15:42Z</time></trkpt><trkpt lat="36.450756" lon="30.504156"><ele>167.447</ele><time>2022-10-15T12:15:46Z</time></trkpt><trkpt lat="36.450786" lon="30.504206"><ele>166.529</ele><time>2022-10-15T12:15:50Z</time></trkpt><trkpt lat="36.450822" lon="30.504252"><ele>166.121</ele><time>2022-10-15T12:15:54Z</time></trkpt><trkpt lat="36.450868" lon="30.504290"><ele>165.009</ele><time>2022-10-15T12:15:58Z</time></trkpt><trkpt lat="36.450910" lon="30.504317"><ele>164.335</ele><time>2022-10-15T12:16:01Z</time></trkpt><trkpt lat="36.450949" lon="30.504346"><ele>164.265</ele><time>2022-10-15T12:16:04Z</time></trkpt><trkpt lat="36.450994" lon="30.504361"><ele>164.230</ele><time>2022-10-15T12:16:07Z</time></trkpt><trkpt lat="36.451046" lon="30.504381"><ele>164.427</ele><time>2022-10-15T12:16:11Z</time></trkpt><trkpt lat="36.451102" lon="30.504405"><ele>164.819</ele><time>2022-10-15T12:16:15Z</time></trkpt><trkpt lat="36.451142" lon="30.504431"><ele>165.415</ele><time>2022-10-15T12:16:18Z</time></trkpt><trkpt lat="36.451189" lon="30.504456"><ele>165.637</ele><time>2022-10-15T12:16:22Z</time></trkpt><trkpt lat="36.451226" lon="30.504491"><ele>166.011</ele><time>2022-10-15T12:16:25Z</time></trkpt><trkpt lat="36.451259" lon="30.504535"><ele>167.622</ele><time>2022-10-15T12:16:28Z</time></trkpt><trkpt lat="36.451287" lon="30.504593"><ele>167.639</ele><time>2022-10-15T12:16:32Z</time></trkpt><trkpt lat="36.451290" lon="30.504661"><ele>167.601</ele><time>2022-10-15T12:16:36Z</time></trkpt><trkpt lat="36.451279" lon="30.504730"><ele>167.021</ele><time>2022-10-15T12:16:40Z</time></trkpt><trkpt lat="36.451278" lon="30.504798"><ele>166.809</ele><time>2022-10-15T12:16:44Z</time></trkpt><trkpt lat="36.451280" lon="30.504858"><ele>166.744</ele><time>2022-10-15T12:16:47Z</time></trkpt><trkpt lat="36.451289" lon="30.504930"><ele>166.614</ele><time>2022-10-15T12:16:51Z</time></trkpt><trkpt lat="36.451298" lon="30.505002"><ele>166.499</ele><time>2022-10-15T12:16:55Z</time></trkpt><trkpt lat="36.451291" lon="30.505075"><ele>165.796</ele><time>2022-10-15T12:16:59Z</time></trkpt><trkpt lat="36.451286" lon="30.505145"><ele>165.078</ele><time>2022-10-15T12:17:03Z</time></trkpt><trkpt lat="36.451267" lon="30.505211"><ele>164.874</ele><time>2022-10-15T12:17:07Z</time></trkpt><trkpt lat="36.451238" lon="30.505273"><ele>164.976</ele><time>2022-10-15T12:17:11Z</time></trkpt><trkpt lat="36.451213" lon="30.505335"><ele>165.240</ele><time>2022-10-15T12:17:15Z</time></trkpt><trkpt lat="36.451206" lon="30.505403"><ele>165.341</ele><time>2022-10-15T12:17:19Z</time></trkpt><trkpt lat="36.451207" lon="30.505474"><ele>165.316</ele><time>2022-10-15T12:17:23Z</time></trkpt><trkpt lat="36.451184" lon="30.505536"><ele>166.176</ele><time>2022-10-15T12:17:26Z</time></trkpt><trkpt lat="36.451167" lon="30.505599"><ele>166.313</ele><time>2022-10-15T12:17:30Z</time></trkpt><trkpt lat="36.451157" lon="30.505664"><ele>166.609</ele><time>2022-10-15T12:17:34Z</time></trkpt><trkpt lat="36.451154" lon="30.505729"><ele>168.042</ele><time>2022-10-15T12:17:38Z</time></trkpt><trkpt lat="36.451166" lon="30.505792"><ele>168.472</ele><time>2022-10-15T12:17:42Z</time></trkpt><trkpt lat="36.451182" lon="30.505860"><ele>169.087</ele><time>2022-10-15T12:17:47Z</time></trkpt><trkpt lat="36.451204" lon="30.505922"><ele>169.034</ele><time>2022-10-15T12:17:51Z</time></trkpt><trkpt lat="36.451216" lon="30.505978"><ele>169.076</ele><time>2022-10-15T12:17:54Z</time></trkpt><trkpt lat="36.451227" lon="30.506041"><ele>168.352</ele><time>2022-10-15T12:17:58Z</time></trkpt><trkpt lat="36.451236" lon="30.506105"><ele>168.174</ele><time>2022-10-15T12:18:01Z</time></trkpt><trkpt lat="36.451237" lon="30.506176"><ele>168.128</ele><time>2022-10-15T12:18:05Z</time></trkpt><trkpt lat="36.451243" lon="30.506232"><ele>168.279</ele><time>2022-10-15T12:18:08Z</time></trkpt><trkpt lat="36.451250" lon="30.506304"><ele>168.313</ele><time>2022-10-15T12:18:12Z</time></trkpt><trkpt lat="36.451260" lon="30.506372"><ele>168.343</ele><time>2022-10-15T12:18:16Z</time></trkpt><trkpt lat="36.451278" lon="30.506439"><ele>167.807</ele><time>2022-10-15T12:18:20Z</time></trkpt><trkpt lat="36.451293" lon="30.506493"><ele>166.709</ele><time>2022-10-15T12:18:23Z</time></trkpt><trkpt lat="36.451300" lon="30.506559"><ele>165.042</ele><time>2022-10-15T12:18:27Z</time></trkpt><trkpt lat="36.451303" lon="30.506619"><ele>164.082</ele><time>2022-10-15T12:18:31Z</time></trkpt><trkpt lat="36.451318" lon="30.506674"><ele>163.797</ele><time>2022-10-15T12:18:35Z</time></trkpt><trkpt lat="36.451328" lon="30.506744"><ele>163.344</ele><time>2022-10-15T12:18:39Z</time></trkpt><trkpt lat="36.451334" lon="30.506806"><ele>162.556</ele><time>2022-10-15T12:18:42Z</time></trkpt><trkpt lat="36.451336" lon="30.506863"><ele>162.052</ele><time>2022-10-15T12:18:45Z</time></trkpt><trkpt lat="36.451337" lon="30.506928"><ele>161.714</ele><time>2022-10-15T12:18:49Z</time></trkpt><trkpt lat="36.451336" lon="30.506993"><ele>161.068</ele><time>2022-10-15T12:18:53Z</time></trkpt><trkpt lat="36.451335" lon="30.507058"><ele>160.549</ele><time>2022-10-15T12:18:57Z</time></trkpt><trkpt lat="36.451313" lon="30.507118"><ele>160.313</ele><time>2022-10-15T12:19:01Z</time></trkpt><trkpt lat="36.451284" lon="30.507174"><ele>159.643</ele><time>2022-10-15T12:19:05Z</time></trkpt><trkpt lat="36.451281" lon="30.507236"><ele>159.107</ele><time>2022-10-15T12:19:09Z</time></trkpt><trkpt lat="36.451310" lon="30.507288"><ele>158.809</ele><time>2022-10-15T12:19:13Z</time></trkpt><trkpt lat="36.451353" lon="30.507307"><ele>158.052</ele><time>2022-10-15T12:19:17Z</time></trkpt><trkpt lat="36.451406" lon="30.507306"><ele>157.862</ele><time>2022-10-15T12:19:21Z</time></trkpt><trkpt lat="36.451460" lon="30.507293"><ele>155.417</ele><time>2022-10-15T12:19:25Z</time></trkpt><trkpt lat="36.451511" lon="30.507260"><ele>153.054</ele><time>2022-10-15T12:19:29Z</time></trkpt><trkpt lat="36.451560" lon="30.507239"><ele>152.826</ele><time>2022-10-15T12:19:33Z</time></trkpt><trkpt lat="36.451608" lon="30.507221"><ele>152.782</ele><time>2022-10-15T12:19:37Z</time></trkpt><trkpt lat="36.451660" lon="30.507208"><ele>152.584</ele><time>2022-10-15T12:19:41Z</time></trkpt><trkpt lat="36.451710" lon="30.507202"><ele>152.118</ele><time>2022-10-15T12:19:45Z</time></trkpt><trkpt lat="36.451757" lon="30.507203"><ele>152.279</ele><time>2022-10-15T12:19:49Z</time></trkpt><trkpt lat="36.451809" lon="30.507208"><ele>151.787</ele><time>2022-10-15T12:19:53Z</time></trkpt><trkpt lat="36.451859" lon="30.507186"><ele>151.142</ele><time>2022-10-15T12:19:57Z</time></trkpt><trkpt lat="36.451911" lon="30.507169"><ele>150.526</ele><time>2022-10-15T12:20:00Z</time></trkpt><trkpt lat="36.451957" lon="30.507152"><ele>150.509</ele><time>2022-10-15T12:20:03Z</time></trkpt><trkpt lat="36.451998" lon="30.507122"><ele>150.329</ele><time>2022-10-15T12:20:07Z</time></trkpt><trkpt lat="36.452039" lon="30.507085"><ele>150.339</ele><time>2022-10-15T12:20:11Z</time></trkpt><trkpt lat="36.452086" lon="30.507040"><ele>150.044</ele><time>2022-10-15T12:20:15Z</time></trkpt><trkpt lat="36.452137" lon="30.507000"><ele>149.781</ele><time>2022-10-15T12:20:18Z</time></trkpt><trkpt lat="36.452189" lon="30.506970"><ele>149.023</ele><time>2022-10-15T12:20:21Z</time></trkpt><trkpt lat="36.452234" lon="30.506933"><ele>147.299</ele><time>2022-10-15T12:20:24Z</time></trkpt><trkpt lat="36.452271" lon="30.506889"><ele>146.781</ele><time>2022-10-15T12:20:27Z</time></trkpt><trkpt lat="36.452323" lon="30.506855"><ele>146.585</ele><time>2022-10-15T12:20:30Z</time></trkpt><trkpt lat="36.452365" lon="30.506834"><ele>146.386</ele><time>2022-10-15T12:20:33Z</time></trkpt><trkpt lat="36.452412" lon="30.506795"><ele>146.386</ele><time>2022-10-15T12:20:36Z</time></trkpt><trkpt lat="36.452471" lon="30.506762"><ele>146.360</ele><time>2022-10-15T12:20:39Z</time></trkpt><trkpt lat="36.452514" lon="30.506739"><ele>146.126</ele><time>2022-10-15T12:20:42Z</time></trkpt><trkpt lat="36.452561" lon="30.506714"><ele>146.109</ele><time>2022-10-15T12:20:45Z</time></trkpt><trkpt lat="36.452604" lon="30.506695"><ele>146.549</ele><time>2022-10-15T12:20:47Z</time></trkpt><trkpt lat="36.452666" lon="30.506673"><ele>147.129</ele><time>2022-10-15T12:20:50Z</time></trkpt><trkpt lat="36.452719" lon="30.506651"><ele>147.414</ele><time>2022-10-15T12:20:53Z</time></trkpt><trkpt lat="36.452773" lon="30.506620"><ele>147.461</ele><time>2022-10-15T12:20:57Z</time></trkpt><trkpt lat="36.452822" lon="30.506597"><ele>146.233</ele><time>2022-10-15T12:21:01Z</time></trkpt><trkpt lat="36.452877" lon="30.506585"><ele>144.999</ele><time>2022-10-15T12:21:04Z</time></trkpt><trkpt lat="36.452925" lon="30.506590"><ele>142.851</ele><time>2022-10-15T12:21:07Z</time></trkpt><trkpt lat="36.452977" lon="30.506574"><ele>141.085</ele><time>2022-10-15T12:21:10Z</time></trkpt><trkpt lat="36.453024" lon="30.506581"><ele>140.316</ele><time>2022-10-15T12:21:13Z</time></trkpt><trkpt lat="36.453076" lon="30.506567"><ele>139.927</ele><time>2022-10-15T12:21:16Z</time></trkpt><trkpt lat="36.453122" lon="30.506557"><ele>139.568</ele><time>2022-10-15T12:21:18Z</time></trkpt><trkpt lat="36.453172" lon="30.506558"><ele>139.414</ele><time>2022-10-15T12:21:20Z</time></trkpt><trkpt lat="36.453235" lon="30.506566"><ele>139.409</ele><time>2022-10-15T12:21:23Z</time></trkpt><trkpt lat="36.453300" lon="30.506581"><ele>138.653</ele><time>2022-10-15T12:21:26Z</time></trkpt><trkpt lat="36.453359" lon="30.506583"><ele>137.283</ele><time>2022-10-15T12:21:29Z</time></trkpt><trkpt lat="36.453414" lon="30.506590"><ele>133.868</ele><time>2022-10-15T12:21:32Z</time></trkpt><trkpt lat="36.453470" lon="30.506617"><ele>133.585</ele><time>2022-10-15T12:21:35Z</time></trkpt><trkpt lat="36.453520" lon="30.506662"><ele>133.497</ele><time>2022-10-15T12:21:38Z</time></trkpt><trkpt lat="36.453556" lon="30.506705"><ele>133.453</ele><time>2022-10-15T12:21:40Z</time></trkpt><trkpt lat="36.453606" lon="30.506756"><ele>133.595</ele><time>2022-10-15T12:21:43Z</time></trkpt><trkpt lat="36.453649" lon="30.506805"><ele>133.289</ele><time>2022-10-15T12:21:46Z</time></trkpt><trkpt lat="36.453688" lon="30.506856"><ele>132.890</ele><time>2022-10-15T12:21:49Z</time></trkpt><trkpt lat="36.453728" lon="30.506899"><ele>130.196</ele><time>2022-10-15T12:21:52Z</time></trkpt><trkpt lat="36.453787" lon="30.506919"><ele>128.231</ele><time>2022-10-15T12:21:55Z</time></trkpt><trkpt lat="36.453850" lon="30.506921"><ele>128.024</ele><time>2022-10-15T12:21:58Z</time></trkpt><trkpt lat="36.453899" lon="30.506936"><ele>127.409</ele><time>2022-10-15T12:22:00Z</time></trkpt><trkpt lat="36.453960" lon="30.506957"><ele>127.130</ele><time>2022-10-15T12:22:03Z</time></trkpt><trkpt lat="36.453994" lon="30.507000"><ele>127.130</ele><time>2022-10-15T12:22:06Z</time></trkpt><trkpt lat="36.454035" lon="30.507053"><ele>126.975</ele><time>2022-10-15T12:22:09Z</time></trkpt><trkpt lat="36.454072" lon="30.507110"><ele>127.032</ele><time>2022-10-15T12:22:12Z</time></trkpt><trkpt lat="36.454118" lon="30.507144"><ele>126.984</ele><time>2022-10-15T12:22:15Z</time></trkpt><trkpt lat="36.454182" lon="30.507126"><ele>126.750</ele><time>2022-10-15T12:22:18Z</time></trkpt><trkpt lat="36.454231" lon="30.507134"><ele>125.932</ele><time>2022-10-15T12:22:21Z</time></trkpt><trkpt lat="36.454277" lon="30.507122"><ele>125.266</ele><time>2022-10-15T12:22:24Z</time></trkpt><trkpt lat="36.454331" lon="30.507110"><ele>125.047</ele><time>2022-10-15T12:22:28Z</time></trkpt><trkpt lat="36.454381" lon="30.507089"><ele>124.661</ele><time>2022-10-15T12:22:31Z</time></trkpt><trkpt lat="36.454436" lon="30.507061"><ele>123.921</ele><time>2022-10-15T12:22:34Z</time></trkpt><trkpt lat="36.454482" lon="30.507035"><ele>122.913</ele><time>2022-10-15T12:22:37Z</time></trkpt><trkpt lat="36.454537" lon="30.507030"><ele>120.409</ele><time>2022-10-15T12:22:40Z</time></trkpt><trkpt lat="36.454604" lon="30.507033"><ele>118.997</ele><time>2022-10-15T12:22:43Z</time></trkpt><trkpt lat="36.454657" lon="30.507047"><ele>118.117</ele><time>2022-10-15T12:22:45Z</time></trkpt><trkpt lat="36.454706" lon="30.507063"><ele>116.942</ele><time>2022-10-15T12:22:47Z</time></trkpt><trkpt lat="36.454759" lon="30.507086"><ele>115.629</ele><time>2022-10-15T12:22:50Z</time></trkpt><trkpt lat="36.454814" lon="30.507093"><ele>112.921</ele><time>2022-10-15T12:22:53Z</time></trkpt><trkpt lat="36.454859" lon="30.507089"><ele>112.337</ele><time>2022-10-15T12:22:56Z</time></trkpt><trkpt lat="36.454911" lon="30.507072"><ele>109.139</ele><time>2022-10-15T12:22:59Z</time></trkpt><trkpt lat="36.454959" lon="30.507057"><ele>108.243</ele><time>2022-10-15T12:23:02Z</time></trkpt><trkpt lat="36.455001" lon="30.507035"><ele>107.824</ele><time>2022-10-15T12:23:05Z</time></trkpt><trkpt lat="36.455056" lon="30.507014"><ele>105.556</ele><time>2022-10-15T12:23:09Z</time></trkpt><trkpt lat="36.455111" lon="30.506983"><ele>105.159</ele><time>2022-10-15T12:23:13Z</time></trkpt><trkpt lat="36.455160" lon="30.506960"><ele>104.114</ele><time>2022-10-15T12:23:16Z</time></trkpt><trkpt lat="36.455208" lon="30.506934"><ele>103.609</ele><time>2022-10-15T12:23:19Z</time></trkpt><trkpt lat="36.455260" lon="30.506910"><ele>99.856</ele><time>2022-10-15T12:23:22Z</time></trkpt><trkpt lat="36.455315" lon="30.506890"><ele>98.676</ele><time>2022-10-15T12:23:25Z</time></trkpt><trkpt lat="36.455373" lon="30.506895"><ele>97.891</ele><time>2022-10-15T12:23:28Z</time></trkpt><trkpt lat="36.455428" lon="30.506900"><ele>97.668</ele><time>2022-10-15T12:23:31Z</time></trkpt><trkpt lat="36.455481" lon="30.506935"><ele>97.760</ele><time>2022-10-15T12:23:34Z</time></trkpt><trkpt lat="36.455524" lon="30.506956"><ele>98.146</ele><time>2022-10-15T12:23:37Z</time></trkpt><trkpt lat="36.455580" lon="30.506970"><ele>98.758</ele><time>2022-10-15T12:23:40Z</time></trkpt><trkpt lat="36.455627" lon="30.506992"><ele>99.842</ele><time>2022-10-15T12:23:43Z</time></trkpt><trkpt lat="36.455683" lon="30.507008"><ele>99.863</ele><time>2022-10-15T12:23:46Z</time></trkpt><trkpt lat="36.455734" lon="30.507021"><ele>99.876</ele><time>2022-10-15T12:23:49Z</time></trkpt><trkpt lat="36.455788" lon="30.507033"><ele>97.890</ele><time>2022-10-15T12:23:52Z</time></trkpt><trkpt lat="36.455848" lon="30.507069"><ele>97.519</ele><time>2022-10-15T12:23:55Z</time></trkpt><trkpt lat="36.455895" lon="30.507092"><ele>97.309</ele><time>2022-10-15T12:23:58Z</time></trkpt><trkpt lat="36.455942" lon="30.507129"><ele>95.928</ele><time>2022-10-15T12:24:01Z</time></trkpt><trkpt lat="36.455979" lon="30.507167"><ele>93.278</ele><time>2022-10-15T12:24:04Z</time></trkpt><trkpt lat="36.456003" lon="30.507221"><ele>93.073</ele><time>2022-10-15T12:24:08Z</time></trkpt><trkpt lat="36.456034" lon="30.507271"><ele>92.940</ele><time>2022-10-15T12:24:12Z</time></trkpt><trkpt lat="36.456073" lon="30.507311"><ele>92.762</ele><time>2022-10-15T12:24:16Z</time></trkpt><trkpt lat="36.456115" lon="30.507343"><ele>92.238</ele><time>2022-10-15T12:24:19Z</time></trkpt><trkpt lat="36.456153" lon="30.507393"><ele>91.130</ele><time>2022-10-15T12:24:22Z</time></trkpt><trkpt lat="36.456205" lon="30.507420"><ele>88.924</ele><time>2022-10-15T12:24:25Z</time></trkpt><trkpt lat="36.456249" lon="30.507446"><ele>87.295</ele><time>2022-10-15T12:24:27Z</time></trkpt><trkpt lat="36.456312" lon="30.507460"><ele>86.552</ele><time>2022-10-15T12:24:30Z</time></trkpt><trkpt lat="36.456364" lon="30.507488"><ele>86.153</ele><time>2022-10-15T12:24:33Z</time></trkpt><trkpt lat="36.456412" lon="30.507545"><ele>85.308</ele><time>2022-10-15T12:24:36Z</time></trkpt><trkpt lat="36.456450" lon="30.507607"><ele>85.009</ele><time>2022-10-15T12:24:39Z</time></trkpt><trkpt lat="36.456479" lon="30.507658"><ele>84.016</ele><time>2022-10-15T12:24:42Z</time></trkpt><trkpt lat="36.456521" lon="30.507697"><ele>83.966</ele><time>2022-10-15T12:24:45Z</time></trkpt><trkpt lat="36.456571" lon="30.507709"><ele>83.881</ele><time>2022-10-15T12:24:48Z</time></trkpt><trkpt lat="36.456577" lon="30.507639"><ele>83.678</ele><time>2022-10-15T12:24:51Z</time></trkpt><trkpt lat="36.456572" lon="30.507572"><ele>83.870</ele><time>2022-10-15T12:24:54Z</time></trkpt><trkpt lat="36.456557" lon="30.507512"><ele>84.136</ele><time>2022-10-15T12:24:57Z</time></trkpt><trkpt lat="36.456542" lon="30.507443"><ele>83.218</ele><time>2022-10-15T12:25:01Z</time></trkpt><trkpt lat="36.456529" lon="30.507385"><ele>82.822</ele><time>2022-10-15T12:25:04Z</time></trkpt><trkpt lat="36.456513" lon="30.507309"><ele>82.843</ele><time>2022-10-15T12:25:07Z</time></trkpt><trkpt lat="36.456479" lon="30.507257"><ele>80.093</ele><time>2022-10-15T12:25:10Z</time></trkpt><trkpt lat="36.456461" lon="30.507188"><ele>76.165</ele><time>2022-10-15T12:25:13Z</time></trkpt><trkpt lat="36.456425" lon="30.507118"><ele>73.521</ele><time>2022-10-15T12:25:16Z</time></trkpt><trkpt lat="36.456390" lon="30.507055"><ele>73.209</ele><time>2022-10-15T12:25:19Z</time></trkpt><trkpt lat="36.456361" lon="30.506990"><ele>72.670</ele><time>2022-10-15T12:25:22Z</time></trkpt><trkpt lat="36.456336" lon="30.506931"><ele>73.130</ele><time>2022-10-15T12:25:24Z</time></trkpt><trkpt lat="36.456300" lon="30.506884"><ele>71.685</ele><time>2022-10-15T12:25:27Z</time></trkpt><trkpt lat="36.456277" lon="30.506829"><ele>70.842</ele><time>2022-10-15T12:25:31Z</time></trkpt><trkpt lat="36.456249" lon="30.506768"><ele>68.284</ele><time>2022-10-15T12:25:36Z</time></trkpt><trkpt lat="36.456207" lon="30.506710"><ele>67.710</ele><time>2022-10-15T12:25:39Z</time></trkpt><trkpt lat="36.456165" lon="30.506657"><ele>66.972</ele><time>2022-10-15T12:25:42Z</time></trkpt><trkpt lat="36.456114" lon="30.506633"><ele>66.426</ele><time>2022-10-15T12:25:45Z</time></trkpt><trkpt lat="36.456066" lon="30.506580"><ele>65.447</ele><time>2022-10-15T12:25:48Z</time></trkpt><trkpt lat="36.456025" lon="30.506533"><ele>65.328</ele><time>2022-10-15T12:25:51Z</time></trkpt><trkpt lat="36.455995" lon="30.506488"><ele>65.289</ele><time>2022-10-15T12:25:53Z</time></trkpt><trkpt lat="36.455952" lon="30.506430"><ele>64.817</ele><time>2022-10-15T12:25:56Z</time></trkpt><trkpt lat="36.455914" lon="30.506386"><ele>64.409</ele><time>2022-10-15T12:25:59Z</time></trkpt><trkpt lat="36.455860" lon="30.506346"><ele>63.843</ele><time>2022-10-15T12:26:02Z</time></trkpt><trkpt lat="36.455819" lon="30.506297"><ele>63.493</ele><time>2022-10-15T12:26:05Z</time></trkpt><trkpt lat="36.455773" lon="30.506230"><ele>63.498</ele><time>2022-10-15T12:26:08Z</time></trkpt><trkpt lat="36.455729" lon="30.506181"><ele>63.445</ele><time>2022-10-15T12:26:11Z</time></trkpt><trkpt lat="36.455685" lon="30.506132"><ele>63.527</ele><time>2022-10-15T12:26:14Z</time></trkpt><trkpt lat="36.455635" lon="30.506088"><ele>63.563</ele><time>2022-10-15T12:26:17Z</time></trkpt><trkpt lat="36.455581" lon="30.506042"><ele>63.355</ele><time>2022-10-15T12:26:20Z</time></trkpt><trkpt lat="36.455532" lon="30.506001"><ele>62.939</ele><time>2022-10-15T12:26:23Z</time></trkpt><trkpt lat="36.455483" lon="30.505977"><ele>62.230</ele><time>2022-10-15T12:26:26Z</time></trkpt><trkpt lat="36.455435" lon="30.505932"><ele>61.865</ele><time>2022-10-15T12:26:29Z</time></trkpt><trkpt lat="36.455386" lon="30.505897"><ele>61.568</ele><time>2022-10-15T12:26:32Z</time></trkpt><trkpt lat="36.455335" lon="30.505888"><ele>61.214</ele><time>2022-10-15T12:26:35Z</time></trkpt><trkpt lat="36.455280" lon="30.505878"><ele>61.109</ele><time>2022-10-15T12:26:38Z</time></trkpt><trkpt lat="36.455270" lon="30.505806"><ele>60.377</ele><time>2022-10-15T12:26:42Z</time></trkpt><trkpt lat="36.455329" lon="30.505796"><ele>59.187</ele><time>2022-10-15T12:26:45Z</time></trkpt><trkpt lat="36.455380" lon="30.505805"><ele>58.082</ele><time>2022-10-15T12:26:48Z</time></trkpt><trkpt lat="36.455448" lon="30.505814"><ele>55.659</ele><time>2022-10-15T12:26:51Z</time></trkpt><trkpt lat="36.455507" lon="30.505808"><ele>53.591</ele><time>2022-10-15T12:26:54Z</time></trkpt><trkpt lat="36.455555" lon="30.505794"><ele>53.387</ele><time>2022-10-15T12:26:56Z</time></trkpt><trkpt lat="36.455616" lon="30.505813"><ele>52.899</ele><time>2022-10-15T12:26:59Z</time></trkpt><trkpt lat="36.455674" lon="30.505813"><ele>52.593</ele><time>2022-10-15T12:27:02Z</time></trkpt><trkpt lat="36.455738" lon="30.505829"><ele>51.984</ele><time>2022-10-15T12:27:05Z</time></trkpt><trkpt lat="36.455802" lon="30.505843"><ele>49.732</ele><time>2022-10-15T12:27:08Z</time></trkpt><trkpt lat="36.455850" lon="30.505844"><ele>47.792</ele><time>2022-10-15T12:27:10Z</time></trkpt><trkpt lat="36.455913" lon="30.505854"><ele>46.011</ele><time>2022-10-15T12:27:13Z</time></trkpt><trkpt lat="36.455964" lon="30.505857"><ele>45.709</ele><time>2022-10-15T12:27:15Z</time></trkpt><trkpt lat="36.456012" lon="30.505855"><ele>45.444</ele><time>2022-10-15T12:27:17Z</time></trkpt><trkpt lat="36.456062" lon="30.505843"><ele>44.854</ele><time>2022-10-15T12:27:20Z</time></trkpt><trkpt lat="36.456122" lon="30.505834"><ele>44.419</ele><time>2022-10-15T12:27:23Z</time></trkpt><trkpt lat="36.456175" lon="30.505818"><ele>43.116</ele><time>2022-10-15T12:27:26Z</time></trkpt><trkpt lat="36.456230" lon="30.505807"><ele>42.298</ele><time>2022-10-15T12:27:29Z</time></trkpt><trkpt lat="36.456282" lon="30.505809"><ele>41.364</ele><time>2022-10-15T12:27:32Z</time></trkpt><trkpt lat="36.456338" lon="30.505830"><ele>40.646</ele><time>2022-10-15T12:27:35Z</time></trkpt><trkpt lat="36.456390" lon="30.505856"><ele>40.650</ele><time>2022-10-15T12:27:38Z</time></trkpt><trkpt lat="36.456447" lon="30.505889"><ele>40.691</ele><time>2022-10-15T12:27:41Z</time></trkpt><trkpt lat="36.456476" lon="30.505943"><ele>41.051</ele><time>2022-10-15T12:27:44Z</time></trkpt><trkpt lat="36.456512" lon="30.506013"><ele>41.101</ele><time>2022-10-15T12:27:47Z</time></trkpt><trkpt lat="36.456555" lon="30.506049"><ele>41.211</ele><time>2022-10-15T12:27:49Z</time></trkpt><trkpt lat="36.456597" lon="30.506091"><ele>41.109</ele><time>2022-10-15T12:27:51Z</time></trkpt><trkpt lat="36.456638" lon="30.506140"><ele>40.976</ele><time>2022-10-15T12:27:55Z</time></trkpt><trkpt lat="36.456689" lon="30.506161"><ele>39.256</ele><time>2022-10-15T12:27:58Z</time></trkpt><trkpt lat="36.456754" lon="30.506170"><ele>37.411</ele><time>2022-10-15T12:28:01Z</time></trkpt><trkpt lat="36.456802" lon="30.506178"><ele>35.958</ele><time>2022-10-15T12:28:03Z</time></trkpt><trkpt lat="36.456856" lon="30.506184"><ele>35.660</ele><time>2022-10-15T12:28:05Z</time></trkpt><trkpt lat="36.456909" lon="30.506188"><ele>35.396</ele><time>2022-10-15T12:28:07Z</time></trkpt><trkpt lat="36.456963" lon="30.506185"><ele>34.258</ele><time>2022-10-15T12:28:11Z</time></trkpt><trkpt lat="36.457017" lon="30.506184"><ele>32.742</ele><time>2022-10-15T12:28:14Z</time></trkpt><trkpt lat="36.457075" lon="30.506195"><ele>30.623</ele><time>2022-10-15T12:28:17Z</time></trkpt><trkpt lat="36.457119" lon="30.506206"><ele>29.487</ele><time>2022-10-15T12:28:19Z</time></trkpt><trkpt lat="36.457165" lon="30.506218"><ele>29.142</ele><time>2022-10-15T12:28:21Z</time></trkpt><trkpt lat="36.457232" lon="30.506236"><ele>26.826</ele><time>2022-10-15T12:28:24Z</time></trkpt><trkpt lat="36.457282" lon="30.506245"><ele>24.809</ele><time>2022-10-15T12:28:27Z</time></trkpt><trkpt lat="36.457330" lon="30.506256"><ele>22.759</ele><time>2022-10-15T12:28:30Z</time></trkpt><trkpt lat="36.457395" lon="30.506258"><ele>21.189</ele><time>2022-10-15T12:28:33Z</time></trkpt><trkpt lat="36.457451" lon="30.506263"><ele>20.084</ele><time>2022-10-15T12:28:36Z</time></trkpt><trkpt lat="36.457521" lon="30.506264"><ele>19.831</ele><time>2022-10-15T12:28:39Z</time></trkpt><trkpt lat="36.457568" lon="30.506266"><ele>19.733</ele><time>2022-10-15T12:28:41Z</time></trkpt><trkpt lat="36.457616" lon="30.506272"><ele>19.549</ele><time>2022-10-15T12:28:43Z</time></trkpt><trkpt lat="36.457662" lon="30.506275"><ele>19.431</ele><time>2022-10-15T12:28:45Z</time></trkpt><trkpt lat="36.457723" lon="30.506286"><ele>19.045</ele><time>2022-10-15T12:28:48Z</time></trkpt><trkpt lat="36.457783" lon="30.506293"><ele>17.776</ele><time>2022-10-15T12:28:51Z</time></trkpt><trkpt lat="36.457838" lon="30.506303"><ele>16.566</ele><time>2022-10-15T12:28:54Z</time></trkpt><trkpt lat="36.457889" lon="30.506293"><ele>15.729</ele><time>2022-10-15T12:28:57Z</time></trkpt><trkpt lat="36.457934" lon="30.506299"><ele>15.421</ele><time>2022-10-15T12:28:59Z</time></trkpt><trkpt lat="36.457990" lon="30.506313"><ele>14.609</ele><time>2022-10-15T12:29:01Z</time></trkpt><trkpt lat="36.458045" lon="30.506334"><ele>14.237</ele><time>2022-10-15T12:29:03Z</time></trkpt><trkpt lat="36.458099" lon="30.506353"><ele>13.837</ele><time>2022-10-15T12:29:05Z</time></trkpt><trkpt lat="36.458146" lon="30.506381"><ele>13.682</ele><time>2022-10-15T12:29:07Z</time></trkpt><trkpt lat="36.458192" lon="30.506414"><ele>13.619</ele><time>2022-10-15T12:29:09Z</time></trkpt><trkpt lat="36.458251" lon="30.506423"><ele>14.231</ele><time>2022-10-15T12:29:12Z</time></trkpt><trkpt lat="36.458306" lon="30.506394"><ele>14.877</ele><time>2022-10-15T12:29:15Z</time></trkpt><trkpt lat="36.458358" lon="30.506343"><ele>14.819</ele><time>2022-10-15T12:29:18Z</time></trkpt><trkpt lat="36.458410" lon="30.506291"><ele>14.863</ele><time>2022-10-15T12:29:21Z</time></trkpt><trkpt lat="36.458452" lon="30.506264"><ele>14.724</ele><time>2022-10-15T12:29:23Z</time></trkpt><trkpt lat="36.458498" lon="30.506246"><ele>14.517</ele><time>2022-10-15T12:29:25Z</time></trkpt><trkpt lat="36.458552" lon="30.506240"><ele>14.387</ele><time>2022-10-15T12:29:27Z</time></trkpt><trkpt lat="36.458597" lon="30.506227"><ele>13.915</ele><time>2022-10-15T12:29:29Z</time></trkpt><trkpt lat="36.458643" lon="30.506212"><ele>12.809</ele><time>2022-10-15T12:29:31Z</time></trkpt><trkpt lat="36.458696" lon="30.506166"><ele>11.932</ele><time>2022-10-15T12:29:34Z</time></trkpt><trkpt lat="36.458736" lon="30.506127"><ele>11.472</ele><time>2022-10-15T12:29:36Z</time></trkpt><trkpt lat="36.458774" lon="30.506088"><ele>10.817</ele><time>2022-10-15T12:29:38Z</time></trkpt><trkpt lat="36.458821" lon="30.506040"><ele>10.074</ele><time>2022-10-15T12:29:41Z</time></trkpt><trkpt lat="36.458853" lon="30.505997"><ele>9.886</ele><time>2022-10-15T12:29:43Z</time></trkpt><trkpt lat="36.458891" lon="30.505956"><ele>9.972</ele><time>2022-10-15T12:29:46Z</time></trkpt><trkpt lat="36.458927" lon="30.505922"><ele>9.674</ele><time>2022-10-15T12:29:51Z</time></trkpt><trkpt lat="36.458964" lon="30.505865"><ele>7.768</ele><time>2022-10-15T12:29:56Z</time></trkpt><trkpt lat="36.458989" lon="30.505812"><ele>6.559</ele><time>2022-10-15T12:30:01Z</time></trkpt><trkpt lat="36.458985" lon="30.505753"><ele>5.957</ele><time>2022-10-15T12:30:06Z</time></trkpt><trkpt lat="36.458970" lon="30.505680"><ele>5.800</ele><time>2022-10-15T12:30:10Z</time></trkpt><trkpt lat="36.458957" lon="30.505617"><ele>5.720</ele><time>2022-10-15T12:30:14Z</time></trkpt><trkpt lat="36.458926" lon="30.505551"><ele>5.709</ele><time>2022-10-15T12:30:18Z</time></trkpt><trkpt lat="36.458894" lon="30.505503"><ele>5.856</ele><time>2022-10-15T12:30:21Z</time></trkpt><trkpt lat="36.458879" lon="30.505437"><ele>6.626</ele><time>2022-10-15T12:30:25Z</time></trkpt><trkpt lat="36.458873" lon="30.505374"><ele>7.091</ele><time>2022-10-15T12:30:29Z</time></trkpt><trkpt lat="36.458901" lon="30.505318"><ele>8.468</ele><time>2022-10-15T12:30:33Z</time></trkpt><trkpt lat="36.458914" lon="30.505259"><ele>8.780</ele><time>2022-10-15T12:30:37Z</time></trkpt><trkpt lat="36.458929" lon="30.505202"><ele>9.856</ele><time>2022-10-15T12:30:41Z</time></trkpt><trkpt lat="36.458933" lon="30.505132"><ele>10.268</ele><time>2022-10-15T12:30:45Z</time></trkpt><trkpt lat="36.458962" lon="30.505073"><ele>10.282</ele><time>2022-10-15T12:30:49Z</time></trkpt><trkpt lat="36.458990" lon="30.505022"><ele>10.293</ele><time>2022-10-15T12:30:53Z</time></trkpt><trkpt lat="36.459001" lon="30.504950"><ele>10.039</ele><time>2022-10-15T12:30:57Z</time></trkpt><trkpt lat="36.459021" lon="30.504888"><ele>7.601</ele><time>2022-10-15T12:31:01Z</time></trkpt><trkpt lat="36.459064" lon="30.504866"><ele>7.621</ele><time>2022-10-15T12:31:05Z</time></trkpt><trkpt lat="36.459119" lon="30.504895"><ele>7.209</ele><time>2022-10-15T12:31:09Z</time></trkpt><trkpt lat="36.459172" lon="30.504920"><ele>7.524</ele><time>2022-10-15T12:31:13Z</time></trkpt><trkpt lat="36.459225" lon="30.504945"><ele>8.054</ele><time>2022-10-15T12:31:17Z</time></trkpt><trkpt lat="36.459278" lon="30.504970"><ele>8.229</ele><time>2022-10-15T12:31:21Z</time></trkpt><trkpt lat="36.459329" lon="30.504998"><ele>7.846</ele><time>2022-10-15T12:31:25Z</time></trkpt><trkpt lat="36.459383" lon="30.505016"><ele>7.558</ele><time>2022-10-15T12:31:29Z</time></trkpt><trkpt lat="36.459433" lon="30.505037"><ele>7.274</ele><time>2022-10-15T12:31:33Z</time></trkpt><trkpt lat="36.459482" lon="30.505062"><ele>7.226</ele><time>2022-10-15T12:31:37Z</time></trkpt><trkpt lat="36.459533" lon="30.505100"><ele>7.240</ele><time>2022-10-15T12:31:41Z</time></trkpt><trkpt lat="36.459586" lon="30.505124"><ele>7.281</ele><time>2022-10-15T12:31:45Z</time></trkpt><trkpt lat="36.459632" lon="30.505154"><ele>7.387</ele><time>2022-10-15T12:31:49Z</time></trkpt><trkpt lat="36.459680" lon="30.505195"><ele>7.442</ele><time>2022-10-15T12:31:53Z</time></trkpt><trkpt lat="36.459721" lon="30.505220"><ele>7.426</ele><time>2022-10-15T12:31:56Z</time></trkpt><trkpt lat="36.459762" lon="30.505257"><ele>8.009</ele><time>2022-10-15T12:32:00Z</time></trkpt><trkpt lat="36.459806" lon="30.505286"><ele>8.659</ele><time>2022-10-15T12:32:04Z</time></trkpt><trkpt lat="36.459855" lon="30.505275"><ele>9.659</ele><time>2022-10-15T12:32:08Z</time></trkpt><trkpt lat="36.459896" lon="30.505237"><ele>9.774</ele><time>2022-10-15T12:32:12Z</time></trkpt><trkpt lat="36.459934" lon="30.505198"><ele>9.771</ele><time>2022-10-15T12:32:16Z</time></trkpt><trkpt lat="36.459988" lon="30.505172"><ele>9.693</ele><time>2022-10-15T12:32:20Z</time></trkpt><trkpt lat="36.460043" lon="30.505178"><ele>9.039</ele><time>2022-10-15T12:32:24Z</time></trkpt><trkpt lat="36.460090" lon="30.505180"><ele>8.251</ele><time>2022-10-15T12:32:27Z</time></trkpt><trkpt lat="36.460144" lon="30.505180"><ele>8.245</ele><time>2022-10-15T12:32:31Z</time></trkpt><trkpt lat="36.460199" lon="30.505190"><ele>8.186</ele><time>2022-10-15T12:32:35Z</time></trkpt><trkpt lat="36.460247" lon="30.505217"><ele>9.315</ele><time>2022-10-15T12:32:39Z</time></trkpt><trkpt lat="36.460298" lon="30.505221"><ele>9.665</ele><time>2022-10-15T12:32:44Z</time></trkpt><trkpt lat="36.460315" lon="30.505164"><ele>9.811</ele><time>2022-10-15T12:34:00Z</time></trkpt><trkpt lat="36.460361" lon="30.505135"><ele>9.809</ele><time>2022-10-15T12:34:04Z</time></trkpt><trkpt lat="36.460392" lon="30.505089"><ele>9.882</ele><time>2022-10-15T12:34:08Z</time></trkpt><trkpt lat="36.460438" lon="30.505067"><ele>9.812</ele><time>2022-10-15T12:34:12Z</time></trkpt><trkpt lat="36.460486" lon="30.505035"><ele>10.037</ele><time>2022-10-15T12:34:16Z</time></trkpt><trkpt lat="36.460536" lon="30.505025"><ele>9.264</ele><time>2022-10-15T12:34:21Z</time></trkpt><trkpt lat="36.460587" lon="30.505011"><ele>9.096</ele><time>2022-10-15T12:34:25Z</time></trkpt><trkpt lat="36.460629" lon="30.504981"><ele>8.872</ele><time>2022-10-15T12:34:29Z</time></trkpt><trkpt lat="36.460676" lon="30.504966"><ele>8.874</ele><time>2022-10-15T12:34:33Z</time></trkpt><trkpt lat="36.460729" lon="30.504956"><ele>8.928</ele><time>2022-10-15T12:34:37Z</time></trkpt><trkpt lat="36.460780" lon="30.504972"><ele>9.389</ele><time>2022-10-15T12:34:41Z</time></trkpt><trkpt lat="36.460825" lon="30.504951"><ele>10.076</ele><time>2022-10-15T12:34:45Z</time></trkpt><trkpt lat="36.460873" lon="30.504965"><ele>10.590</ele><time>2022-10-15T12:34:49Z</time></trkpt><trkpt lat="36.460932" lon="30.504973"><ele>10.919</ele><time>2022-10-15T12:34:53Z</time></trkpt><trkpt lat="36.460984" lon="30.504984"><ele>12.309</ele><time>2022-10-15T12:34:57Z</time></trkpt><trkpt lat="36.461030" lon="30.504987"><ele>13.088</ele><time>2022-10-15T12:35:01Z</time></trkpt><trkpt lat="36.461081" lon="30.505001"><ele>13.748</ele><time>2022-10-15T12:35:05Z</time></trkpt><trkpt lat="36.461129" lon="30.505021"><ele>13.843</ele><time>2022-10-15T12:35:09Z</time></trkpt><trkpt lat="36.461181" lon="30.505027"><ele>14.180</ele><time>2022-10-15T12:35:13Z</time></trkpt><trkpt lat="36.461232" lon="30.505042"><ele>14.132</ele><time>2022-10-15T12:35:17Z</time></trkpt><trkpt lat="36.461276" lon="30.505064"><ele>14.478</ele><time>2022-10-15T12:35:20Z</time></trkpt><trkpt lat="36.461326" lon="30.505069"><ele>14.570</ele><time>2022-10-15T12:35:24Z</time></trkpt><trkpt lat="36.461373" lon="30.505053"><ele>14.984</ele><time>2022-10-15T12:35:28Z</time></trkpt><trkpt lat="36.461422" lon="30.505027"><ele>16.225</ele><time>2022-10-15T12:35:33Z</time></trkpt><trkpt lat="36.461469" lon="30.505007"><ele>16.624</ele><time>2022-10-15T12:35:37Z</time></trkpt><trkpt lat="36.461484" lon="30.504951"><ele>17.104</ele><time>2022-10-15T12:35:42Z</time></trkpt><trkpt lat="36.461458" lon="30.504895"><ele>17.114</ele><time>2022-10-15T12:35:47Z</time></trkpt><trkpt lat="36.461502" lon="30.504964"><ele>16.409</ele><time>2022-10-15T12:51:56Z</time></trkpt><trkpt lat="36.461511" lon="30.505019"><ele>16.453</ele><time>2022-10-15T12:52:00Z</time></trkpt><trkpt lat="36.461511" lon="30.505086"><ele>16.543</ele><time>2022-10-15T12:52:05Z</time></trkpt><trkpt lat="36.461544" lon="30.505130"><ele>16.428</ele><time>2022-10-15T12:52:09Z</time></trkpt><trkpt lat="36.461593" lon="30.505162"><ele>16.755</ele><time>2022-10-15T12:52:13Z</time></trkpt><trkpt lat="36.461648" lon="30.505176"><ele>17.297</ele><time>2022-10-15T12:52:17Z</time></trkpt><trkpt lat="36.461699" lon="30.505168"><ele>17.853</ele><time>2022-10-15T12:52:21Z</time></trkpt><trkpt lat="36.461750" lon="30.505165"><ele>18.415</ele><time>2022-10-15T12:52:25Z</time></trkpt><trkpt lat="36.461804" lon="30.505165"><ele>18.449</ele><time>2022-10-15T12:52:29Z</time></trkpt><trkpt lat="36.461839" lon="30.505216"><ele>18.580</ele><time>2022-10-15T12:52:33Z</time></trkpt><trkpt lat="36.461852" lon="30.505270"><ele>18.618</ele><time>2022-10-15T12:52:36Z</time></trkpt><trkpt lat="36.461853" lon="30.505327"><ele>18.898</ele><time>2022-10-15T12:52:39Z</time></trkpt><trkpt lat="36.461822" lon="30.505385"><ele>19.117</ele><time>2022-10-15T12:52:43Z</time></trkpt><trkpt lat="36.461799" lon="30.505446"><ele>19.309</ele><time>2022-10-15T12:52:48Z</time></trkpt><trkpt lat="36.461813" lon="30.505499"><ele>19.772</ele><time>2022-10-15T12:52:52Z</time></trkpt><trkpt lat="36.461846" lon="30.505547"><ele>20.642</ele><time>2022-10-15T12:52:56Z</time></trkpt><trkpt lat="36.461889" lon="30.505581"><ele>21.317</ele><time>2022-10-15T12:53:00Z</time></trkpt><trkpt lat="36.461928" lon="30.505622"><ele>22.214</ele><time>2022-10-15T12:53:04Z</time></trkpt><trkpt lat="36.461957" lon="30.505677"><ele>22.536</ele><time>2022-10-15T12:53:08Z</time></trkpt><trkpt lat="36.461988" lon="30.505721"><ele>22.712</ele><time>2022-10-15T12:53:12Z</time></trkpt><trkpt lat="36.462010" lon="30.505783"><ele>23.644</ele><time>2022-10-15T12:53:17Z</time></trkpt><trkpt lat="36.462038" lon="30.505839"><ele>24.548</ele><time>2022-10-15T12:53:22Z</time></trkpt><trkpt lat="36.462066" lon="30.505899"><ele>24.789</ele><time>2022-10-15T12:53:27Z</time></trkpt><trkpt lat="36.462107" lon="30.505949"><ele>24.775</ele><time>2022-10-15T12:53:31Z</time></trkpt><trkpt lat="36.462138" lon="30.505990"><ele>24.528</ele><time>2022-10-15T12:53:34Z</time></trkpt><trkpt lat="36.462167" lon="30.506044"><ele>24.520</ele><time>2022-10-15T12:53:38Z</time></trkpt><trkpt lat="36.462183" lon="30.506106"><ele>24.409</ele><time>2022-10-15T12:53:42Z</time></trkpt><trkpt lat="36.462175" lon="30.506174"><ele>25.448</ele><time>2022-10-15T12:53:46Z</time></trkpt><trkpt lat="36.462151" lon="30.506225"><ele>26.258</ele><time>2022-10-15T12:53:50Z</time></trkpt><trkpt lat="36.462128" lon="30.506274"><ele>27.463</ele><time>2022-10-15T12:53:53Z</time></trkpt><trkpt lat="36.462109" lon="30.506331"><ele>28.310</ele><time>2022-10-15T12:53:57Z</time></trkpt><trkpt lat="36.462089" lon="30.506394"><ele>30.882</ele><time>2022-10-15T12:54:01Z</time></trkpt><trkpt lat="36.462088" lon="30.506456"><ele>31.368</ele><time>2022-10-15T12:54:05Z</time></trkpt><trkpt lat="36.462086" lon="30.506522"><ele>32.960</ele><time>2022-10-15T12:54:09Z</time></trkpt><trkpt lat="36.462076" lon="30.506588"><ele>33.684</ele><time>2022-10-15T12:54:13Z</time></trkpt><trkpt lat="36.462057" lon="30.506639"><ele>33.925</ele><time>2022-10-15T12:54:17Z</time></trkpt><trkpt lat="36.462026" lon="30.506695"><ele>34.629</ele><time>2022-10-15T12:54:22Z</time></trkpt><trkpt lat="36.462013" lon="30.506752"><ele>35.200</ele><time>2022-10-15T12:54:26Z</time></trkpt><trkpt lat="36.462009" lon="30.506819"><ele>35.820</ele><time>2022-10-15T12:54:30Z</time></trkpt><trkpt lat="36.461999" lon="30.506875"><ele>35.809</ele><time>2022-10-15T12:54:34Z</time></trkpt><trkpt lat="36.461998" lon="30.506940"><ele>36.263</ele><time>2022-10-15T12:54:38Z</time></trkpt><trkpt lat="36.461992" lon="30.506999"><ele>36.973</ele><time>2022-10-15T12:54:42Z</time></trkpt><trkpt lat="36.461996" lon="30.507060"><ele>38.268</ele><time>2022-10-15T12:54:46Z</time></trkpt><trkpt lat="36.461991" lon="30.507117"><ele>39.065</ele><time>2022-10-15T12:54:50Z</time></trkpt><trkpt lat="36.461976" lon="30.507183"><ele>39.397</ele><time>2022-10-15T12:54:54Z</time></trkpt><trkpt lat="36.461957" lon="30.507240"><ele>39.293</ele><time>2022-10-15T12:54:58Z</time></trkpt><trkpt lat="36.461926" lon="30.507289"><ele>39.345</ele><time>2022-10-15T12:55:02Z</time></trkpt><trkpt lat="36.461896" lon="30.507331"><ele>39.399</ele><time>2022-10-15T12:55:05Z</time></trkpt><trkpt lat="36.461861" lon="30.507370"><ele>40.060</ele><time>2022-10-15T12:55:09Z</time></trkpt><trkpt lat="36.461818" lon="30.507399"><ele>42.777</ele><time>2022-10-15T12:55:13Z</time></trkpt><trkpt lat="36.461772" lon="30.507386"><ele>43.461</ele><time>2022-10-15T12:55:17Z</time></trkpt><trkpt lat="36.461726" lon="30.507352"><ele>43.727</ele><time>2022-10-15T12:55:22Z</time></trkpt><trkpt lat="36.461681" lon="30.507325"><ele>44.109</ele><time>2022-10-15T12:55:27Z</time></trkpt><trkpt lat="36.461641" lon="30.507298"><ele>45.358</ele><time>2022-10-15T12:55:31Z</time></trkpt><trkpt lat="36.461592" lon="30.507270"><ele>45.728</ele><time>2022-10-15T12:55:36Z</time></trkpt><trkpt lat="36.461544" lon="30.507283"><ele>47.163</ele><time>2022-10-15T12:55:41Z</time></trkpt><trkpt lat="36.461496" lon="30.507315"><ele>48.310</ele><time>2022-10-15T12:55:46Z</time></trkpt><trkpt lat="36.461445" lon="30.507347"><ele>49.012</ele><time>2022-10-15T12:55:50Z</time></trkpt><trkpt lat="36.461399" lon="30.507379"><ele>49.578</ele><time>2022-10-15T12:55:53Z</time></trkpt><trkpt lat="36.461349" lon="30.507398"><ele>49.910</ele><time>2022-10-15T12:55:57Z</time></trkpt><trkpt lat="36.461304" lon="30.507414"><ele>52.844</ele><time>2022-10-15T12:56:01Z</time></trkpt><trkpt lat="36.461269" lon="30.507454"><ele>54.575</ele><time>2022-10-15T12:56:05Z</time></trkpt><trkpt lat="36.461246" lon="30.507513"><ele>55.057</ele><time>2022-10-15T12:56:09Z</time></trkpt><trkpt lat="36.461237" lon="30.507580"><ele>54.900</ele><time>2022-10-15T12:56:13Z</time></trkpt><trkpt lat="36.461247" lon="30.507648"><ele>54.520</ele><time>2022-10-15T12:56:17Z</time></trkpt><trkpt lat="36.461246" lon="30.507710"><ele>52.609</ele><time>2022-10-15T12:56:21Z</time></trkpt><trkpt lat="36.461212" lon="30.507765"><ele>48.716</ele><time>2022-10-15T12:56:25Z</time></trkpt><trkpt lat="36.461176" lon="30.507810"><ele>48.186</ele><time>2022-10-15T12:56:29Z</time></trkpt><trkpt lat="36.461146" lon="30.507861"><ele>48.121</ele><time>2022-10-15T12:56:32Z</time></trkpt><trkpt lat="36.461134" lon="30.507920"><ele>48.198</ele><time>2022-10-15T12:56:35Z</time></trkpt><trkpt lat="36.461143" lon="30.507978"><ele>48.470</ele><time>2022-10-15T12:56:38Z</time></trkpt><trkpt lat="36.461138" lon="30.508037"><ele>48.666</ele><time>2022-10-15T12:56:42Z</time></trkpt><trkpt lat="36.461127" lon="30.508111"><ele>48.698</ele><time>2022-10-15T12:56:47Z</time></trkpt><trkpt lat="36.461112" lon="30.508167"><ele>48.832</ele><time>2022-10-15T12:56:50Z</time></trkpt><trkpt lat="36.461092" lon="30.508223"><ele>49.223</ele><time>2022-10-15T12:56:54Z</time></trkpt><trkpt lat="36.461061" lon="30.508269"><ele>50.867</ele><time>2022-10-15T12:56:58Z</time></trkpt><trkpt lat="36.461028" lon="30.508312"><ele>50.981</ele><time>2022-10-15T12:57:02Z</time></trkpt><trkpt lat="36.460987" lon="30.508349"><ele>51.019</ele><time>2022-10-15T12:57:06Z</time></trkpt><trkpt lat="36.460954" lon="30.508393"><ele>51.009</ele><time>2022-10-15T12:57:10Z</time></trkpt><trkpt lat="36.460926" lon="30.508443"><ele>50.917</ele><time>2022-10-15T12:57:14Z</time></trkpt><trkpt lat="36.460920" lon="30.508524"><ele>50.717</ele><time>2022-10-15T12:57:18Z</time></trkpt><trkpt lat="36.460914" lon="30.508591"><ele>50.192</ele><time>2022-10-15T12:57:21Z</time></trkpt><trkpt lat="36.460912" lon="30.508654"><ele>50.099</ele><time>2022-10-15T12:57:25Z</time></trkpt><trkpt lat="36.460907" lon="30.508717"><ele>50.021</ele><time>2022-10-15T12:57:29Z</time></trkpt><trkpt lat="36.460913" lon="30.508777"><ele>50.077</ele><time>2022-10-15T12:57:33Z</time></trkpt><trkpt lat="36.460925" lon="30.508836"><ele>50.189</ele><time>2022-10-15T12:57:37Z</time></trkpt><trkpt lat="36.460941" lon="30.508902"><ele>50.193</ele><time>2022-10-15T12:57:41Z</time></trkpt><trkpt lat="36.460991" lon="30.508935"><ele>50.134</ele><time>2022-10-15T12:57:45Z</time></trkpt><trkpt lat="36.461037" lon="30.508969"><ele>50.171</ele><time>2022-10-15T12:57:49Z</time></trkpt><trkpt lat="36.461072" lon="30.509005"><ele>50.341</ele><time>2022-10-15T12:57:53Z</time></trkpt><trkpt lat="36.461096" lon="30.509058"><ele>50.815</ele><time>2022-10-15T12:57:57Z</time></trkpt><trkpt lat="36.461115" lon="30.509111"><ele>51.009</ele><time>2022-10-15T12:58:01Z</time></trkpt><trkpt lat="36.461118" lon="30.509170"><ele>51.068</ele><time>2022-10-15T12:58:05Z</time></trkpt><trkpt lat="36.461122" lon="30.509240"><ele>50.758</ele><time>2022-10-15T12:58:10Z</time></trkpt><trkpt lat="36.461120" lon="30.509309"><ele>50.743</ele><time>2022-10-15T12:58:15Z</time></trkpt><trkpt lat="36.461122" lon="30.509372"><ele>50.680</ele><time>2022-10-15T12:58:19Z</time></trkpt><trkpt lat="36.461143" lon="30.509422"><ele>50.462</ele><time>2022-10-15T12:58:23Z</time></trkpt><trkpt lat="36.461154" lon="30.509491"><ele>50.418</ele><time>2022-10-15T12:58:28Z</time></trkpt><trkpt lat="36.461186" lon="30.509539"><ele>50.450</ele><time>2022-10-15T12:58:33Z</time></trkpt><trkpt lat="36.461174" lon="30.509600"><ele>50.594</ele><time>2022-10-15T12:58:38Z</time></trkpt><trkpt lat="36.461152" lon="30.509662"><ele>53.195</ele><time>2022-10-15T12:58:52Z</time></trkpt><trkpt lat="36.461174" lon="30.509613"><ele>55.947</ele><time>2022-10-15T12:59:36Z</time></trkpt><trkpt lat="36.461213" lon="30.509572"><ele>56.729</ele><time>2022-10-15T13:00:03Z</time></trkpt><trkpt lat="36.461269" lon="30.509558"><ele>56.921</ele><time>2022-10-15T13:00:07Z</time></trkpt><trkpt lat="36.461318" lon="30.509521"><ele>56.909</ele><time>2022-10-15T13:00:12Z</time></trkpt><trkpt lat="36.461364" lon="30.509506"><ele>57.715</ele><time>2022-10-15T13:00:16Z</time></trkpt><trkpt lat="36.461421" lon="30.509524"><ele>57.755</ele><time>2022-10-15T13:00:25Z</time></trkpt><trkpt lat="36.461476" lon="30.509527"><ele>58.850</ele><time>2022-10-15T13:00:28Z</time></trkpt><trkpt lat="36.461543" lon="30.509520"><ele>59.227</ele><time>2022-10-15T13:00:31Z</time></trkpt><trkpt lat="36.461595" lon="30.509528"><ele>59.039</ele><time>2022-10-15T13:00:33Z</time></trkpt><trkpt lat="36.461659" lon="30.509526"><ele>58.755</ele><time>2022-10-15T13:00:35Z</time></trkpt><trkpt lat="36.461705" lon="30.509527"><ele>58.187</ele><time>2022-10-15T13:00:37Z</time></trkpt><trkpt lat="36.461764" lon="30.509538"><ele>57.381</ele><time>2022-10-15T13:00:40Z</time></trkpt><trkpt lat="36.461835" lon="30.509562"><ele>57.692</ele><time>2022-10-15T13:00:43Z</time></trkpt><trkpt lat="36.461880" lon="30.509593"><ele>57.382</ele><time>2022-10-15T13:00:45Z</time></trkpt><trkpt lat="36.461921" lon="30.509637"><ele>57.243</ele><time>2022-10-15T13:00:47Z</time></trkpt><trkpt lat="36.461968" lon="30.509674"><ele>57.217</ele><time>2022-10-15T13:00:49Z</time></trkpt><trkpt lat="36.462023" lon="30.509719"><ele>57.009</ele><time>2022-10-15T13:00:52Z</time></trkpt><trkpt lat="36.462067" lon="30.509743"><ele>56.919</ele><time>2022-10-15T13:00:54Z</time></trkpt><trkpt lat="36.462121" lon="30.509763"><ele>56.849</ele><time>2022-10-15T13:00:56Z</time></trkpt><trkpt lat="36.462166" lon="30.509780"><ele>56.894</ele><time>2022-10-15T13:00:58Z</time></trkpt><trkpt lat="36.462223" lon="30.509811"><ele>56.891</ele><time>2022-10-15T13:01:01Z</time></trkpt><trkpt lat="36.462266" lon="30.509841"><ele>56.813</ele><time>2022-10-15T13:01:03Z</time></trkpt><trkpt lat="36.462311" lon="30.509880"><ele>57.559</ele><time>2022-10-15T13:01:06Z</time></trkpt><trkpt lat="36.462343" lon="30.509923"><ele>58.661</ele><time>2022-10-15T13:01:09Z</time></trkpt><trkpt lat="36.462387" lon="30.509965"><ele>58.895</ele><time>2022-10-15T13:01:12Z</time></trkpt><trkpt lat="36.462423" lon="30.510015"><ele>59.166</ele><time>2022-10-15T13:01:15Z</time></trkpt><trkpt lat="36.462466" lon="30.510035"><ele>60.034</ele><time>2022-10-15T13:01:17Z</time></trkpt><trkpt lat="36.462528" lon="30.510023"><ele>60.355</ele><time>2022-10-15T13:01:20Z</time></trkpt><trkpt lat="36.462582" lon="30.509994"><ele>61.610</ele><time>2022-10-15T13:01:22Z</time></trkpt><trkpt lat="36.462627" lon="30.509957"><ele>62.509</ele><time>2022-10-15T13:01:24Z</time></trkpt><trkpt lat="36.462663" lon="30.509908"><ele>63.164</ele><time>2022-10-15T13:01:27Z</time></trkpt><trkpt lat="36.462708" lon="30.509846"><ele>63.284</ele><time>2022-10-15T13:01:30Z</time></trkpt><trkpt lat="36.462736" lon="30.509799"><ele>63.469</ele><time>2022-10-15T13:01:32Z</time></trkpt><trkpt lat="36.462762" lon="30.509748"><ele>63.466</ele><time>2022-10-15T13:01:34Z</time></trkpt><trkpt lat="36.462780" lon="30.509695"><ele>63.468</ele><time>2022-10-15T13:01:36Z</time></trkpt><trkpt lat="36.462804" lon="30.509634"><ele>64.414</ele><time>2022-10-15T13:01:39Z</time></trkpt><trkpt lat="36.462833" lon="30.509579"><ele>66.266</ele><time>2022-10-15T13:01:43Z</time></trkpt><trkpt lat="36.462832" lon="30.509521"><ele>66.480</ele><time>2022-10-15T13:01:48Z</time></trkpt><trkpt lat="36.462827" lon="30.509453"><ele>67.331</ele><time>2022-10-15T13:01:51Z</time></trkpt><trkpt lat="36.462833" lon="30.509388"><ele>67.189</ele><time>2022-10-15T13:01:54Z</time></trkpt><trkpt lat="36.462823" lon="30.509303"><ele>67.306</ele><time>2022-10-15T13:01:57Z</time></trkpt><trkpt lat="36.462833" lon="30.509241"><ele>67.626</ele><time>2022-10-15T13:01:59Z</time></trkpt><trkpt lat="36.462841" lon="30.509182"><ele>67.609</ele><time>2022-10-15T13:02:01Z</time></trkpt><trkpt lat="36.462854" lon="30.509101"><ele>68.419</ele><time>2022-10-15T13:02:04Z</time></trkpt><trkpt lat="36.462866" lon="30.509045"><ele>68.549</ele><time>2022-10-15T13:02:06Z</time></trkpt><trkpt lat="36.462864" lon="30.508967"><ele>68.444</ele><time>2022-10-15T13:02:09Z</time></trkpt><trkpt lat="36.462873" lon="30.508894"><ele>67.811</ele><time>2022-10-15T13:02:12Z</time></trkpt><trkpt lat="36.462889" lon="30.508840"><ele>66.763</ele><time>2022-10-15T13:02:14Z</time></trkpt><trkpt lat="36.462917" lon="30.508761"><ele>65.479</ele><time>2022-10-15T13:02:17Z</time></trkpt><trkpt lat="36.462941" lon="30.508710"><ele>65.391</ele><time>2022-10-15T13:02:19Z</time></trkpt><trkpt lat="36.462971" lon="30.508650"><ele>64.975</ele><time>2022-10-15T13:02:22Z</time></trkpt><trkpt lat="36.462990" lon="30.508594"><ele>64.566</ele><time>2022-10-15T13:02:25Z</time></trkpt><trkpt lat="36.463012" lon="30.508534"><ele>64.168</ele><time>2022-10-15T13:02:28Z</time></trkpt><trkpt lat="36.463030" lon="30.508482"><ele>63.942</ele><time>2022-10-15T13:02:30Z</time></trkpt><trkpt lat="36.463065" lon="30.508425"><ele>63.326</ele><time>2022-10-15T13:02:33Z</time></trkpt><trkpt lat="36.463089" lon="30.508373"><ele>62.909</ele><time>2022-10-15T13:02:36Z</time></trkpt><trkpt lat="36.463124" lon="30.508311"><ele>62.927</ele><time>2022-10-15T13:02:39Z</time></trkpt><trkpt lat="36.463161" lon="30.508250"><ele>62.697</ele><time>2022-10-15T13:02:42Z</time></trkpt><trkpt lat="36.463183" lon="30.508200"><ele>63.332</ele><time>2022-10-15T13:02:44Z</time></trkpt><trkpt lat="36.463211" lon="30.508130"><ele>63.859</ele><time>2022-10-15T13:02:47Z</time></trkpt><trkpt lat="36.463229" lon="30.508061"><ele>63.811</ele><time>2022-10-15T13:02:50Z</time></trkpt><trkpt lat="36.463253" lon="30.507991"><ele>63.717</ele><time>2022-10-15T13:02:53Z</time></trkpt><trkpt lat="36.463268" lon="30.507935"><ele>62.719</ele><time>2022-10-15T13:02:56Z</time></trkpt><trkpt lat="36.463296" lon="30.507874"><ele>62.633</ele><time>2022-10-15T13:02:59Z</time></trkpt><trkpt lat="36.463331" lon="30.507809"><ele>62.434</ele><time>2022-10-15T13:03:02Z</time></trkpt><trkpt lat="36.463371" lon="30.507745"><ele>62.132</ele><time>2022-10-15T13:03:05Z</time></trkpt><trkpt lat="36.463413" lon="30.507695"><ele>62.292</ele><time>2022-10-15T13:03:07Z</time></trkpt><trkpt lat="36.463457" lon="30.507651"><ele>62.711</ele><time>2022-10-15T13:03:09Z</time></trkpt><trkpt lat="36.463455" lon="30.507595"><ele>63.409</ele><time>2022-10-15T13:03:16Z</time></trkpt><trkpt lat="36.463497" lon="30.507549"><ele>65.654</ele><time>2022-10-15T13:03:21Z</time></trkpt><trkpt lat="36.463542" lon="30.507515"><ele>65.924</ele><time>2022-10-15T13:03:25Z</time></trkpt><trkpt lat="36.463588" lon="30.507479"><ele>66.419</ele><time>2022-10-15T13:03:29Z</time></trkpt><trkpt lat="36.463627" lon="30.507450"><ele>67.526</ele><time>2022-10-15T13:03:32Z</time></trkpt><trkpt lat="36.463632" lon="30.507380"><ele>70.978</ele><time>2022-10-15T13:03:51Z</time></trkpt><trkpt lat="36.463617" lon="30.507324"><ele>70.944</ele><time>2022-10-15T13:03:56Z</time></trkpt><trkpt lat="36.463615" lon="30.507256"><ele>70.446</ele><time>2022-10-15T13:04:04Z</time></trkpt><trkpt lat="36.463635" lon="30.507203"><ele>69.990</ele><time>2022-10-15T13:04:11Z</time></trkpt><trkpt lat="36.463654" lon="30.507145"><ele>68.281</ele><time>2022-10-15T13:04:16Z</time></trkpt><trkpt lat="36.463665" lon="30.507074"><ele>67.286</ele><time>2022-10-15T13:04:20Z</time></trkpt><trkpt lat="36.463660" lon="30.507002"><ele>64.860</ele><time>2022-10-15T13:04:24Z</time></trkpt><trkpt lat="36.463666" lon="30.506943"><ele>63.426</ele><time>2022-10-15T13:04:27Z</time></trkpt><trkpt lat="36.463669" lon="30.506873"><ele>62.809</ele><time>2022-10-15T13:04:30Z</time></trkpt><trkpt lat="36.463693" lon="30.506808"><ele>62.199</ele><time>2022-10-15T13:04:33Z</time></trkpt><trkpt lat="36.463721" lon="30.506745"><ele>61.899</ele><time>2022-10-15T13:04:36Z</time></trkpt><trkpt lat="36.463784" lon="30.506671"><ele>61.784</ele><time>2022-10-15T13:04:39Z</time></trkpt><trkpt lat="36.463806" lon="30.506619"><ele>61.451</ele><time>2022-10-15T13:04:41Z</time></trkpt><trkpt lat="36.463842" lon="30.506541"><ele>61.363</ele><time>2022-10-15T13:04:43Z</time></trkpt><trkpt lat="36.463857" lon="30.506488"><ele>60.089</ele><time>2022-10-15T13:04:45Z</time></trkpt><trkpt lat="36.463940" lon="30.506438"><ele>59.641</ele><time>2022-10-15T13:04:47Z</time></trkpt><trkpt lat="36.463996" lon="30.506389"><ele>59.755</ele><time>2022-10-15T13:04:49Z</time></trkpt><trkpt lat="36.464015" lon="30.506328"><ele>59.776</ele><time>2022-10-15T13:04:51Z</time></trkpt><trkpt lat="36.464039" lon="30.506249"><ele>59.766</ele><time>2022-10-15T13:04:53Z</time></trkpt><trkpt lat="36.464086" lon="30.506192"><ele>59.729</ele><time>2022-10-15T13:04:55Z</time></trkpt><trkpt lat="36.464107" lon="30.506133"><ele>59.521</ele><time>2022-10-15T13:04:57Z</time></trkpt><trkpt lat="36.464119" lon="30.506067"><ele>59.509</ele><time>2022-10-15T13:04:59Z</time></trkpt><trkpt lat="36.464119" lon="30.505990"><ele>59.427</ele><time>2022-10-15T13:05:02Z</time></trkpt><trkpt lat="36.464142" lon="30.505919"><ele>60.017</ele><time>2022-10-15T13:05:05Z</time></trkpt><trkpt lat="36.464195" lon="30.505881"><ele>60.652</ele><time>2022-10-15T13:05:09Z</time></trkpt><trkpt lat="36.464250" lon="30.505869"><ele>61.289</ele><time>2022-10-15T13:05:11Z</time></trkpt><trkpt lat="36.464294" lon="30.505881"><ele>62.281</ele><time>2022-10-15T13:05:13Z</time></trkpt><trkpt lat="36.464341" lon="30.505885"><ele>62.547</ele><time>2022-10-15T13:05:15Z</time></trkpt><trkpt lat="36.464387" lon="30.505891"><ele>63.459</ele><time>2022-10-15T13:05:17Z</time></trkpt><trkpt lat="36.464424" lon="30.505844"><ele>64.973</ele><time>2022-10-15T13:05:20Z</time></trkpt><trkpt lat="36.464482" lon="30.505775"><ele>66.724</ele><time>2022-10-15T13:05:22Z</time></trkpt><trkpt lat="36.464514" lon="30.505710"><ele>67.161</ele><time>2022-10-15T13:05:24Z</time></trkpt><trkpt lat="36.464547" lon="30.505650"><ele>67.621</ele><time>2022-10-15T13:05:27Z</time></trkpt><trkpt lat="36.464592" lon="30.505592"><ele>68.713</ele><time>2022-10-15T13:05:30Z</time></trkpt><trkpt lat="36.464624" lon="30.505522"><ele>68.509</ele><time>2022-10-15T13:05:33Z</time></trkpt><trkpt lat="36.464642" lon="30.505464"><ele>68.517</ele><time>2022-10-15T13:05:35Z</time></trkpt><trkpt lat="36.464684" lon="30.505402"><ele>65.947</ele><time>2022-10-15T13:05:38Z</time></trkpt><trkpt lat="36.464731" lon="30.505366"><ele>65.612</ele><time>2022-10-15T13:05:41Z</time></trkpt><trkpt lat="36.464789" lon="30.505358"><ele>64.959</ele><time>2022-10-15T13:05:44Z</time></trkpt><trkpt lat="36.464872" lon="30.505359"><ele>64.231</ele><time>2022-10-15T13:05:47Z</time></trkpt><trkpt lat="36.464933" lon="30.505357"><ele>64.057</ele><time>2022-10-15T13:05:49Z</time></trkpt><trkpt lat="36.464989" lon="30.505364"><ele>63.819</ele><time>2022-10-15T13:05:51Z</time></trkpt><trkpt lat="36.465039" lon="30.505368"><ele>66.143</ele><time>2022-10-15T13:05:53Z</time></trkpt><trkpt lat="36.465083" lon="30.505379"><ele>67.064</ele><time>2022-10-15T13:05:55Z</time></trkpt><trkpt lat="36.465123" lon="30.505406"><ele>67.144</ele><time>2022-10-15T13:05:57Z</time></trkpt><trkpt lat="36.465173" lon="30.505453"><ele>67.005</ele><time>2022-10-15T13:06:00Z</time></trkpt><trkpt lat="36.465209" lon="30.505498"><ele>66.115</ele><time>2022-10-15T13:06:02Z</time></trkpt><trkpt lat="36.465251" lon="30.505540"><ele>65.409</ele><time>2022-10-15T13:06:04Z</time></trkpt><trkpt lat="36.465285" lon="30.505583"><ele>65.165</ele><time>2022-10-15T13:06:06Z</time></trkpt><trkpt lat="36.465345" lon="30.505631"><ele>65.175</ele><time>2022-10-15T13:06:09Z</time></trkpt><trkpt lat="36.465388" lon="30.505674"><ele>65.980</ele><time>2022-10-15T13:06:11Z</time></trkpt><trkpt lat="36.465433" lon="30.505701"><ele>66.777</ele><time>2022-10-15T13:06:13Z</time></trkpt><trkpt lat="36.465480" lon="30.505719"><ele>66.769</ele><time>2022-10-15T13:06:15Z</time></trkpt><trkpt lat="36.465529" lon="30.505728"><ele>66.755</ele><time>2022-10-15T13:06:17Z</time></trkpt><trkpt lat="36.465579" lon="30.505745"><ele>66.737</ele><time>2022-10-15T13:06:19Z</time></trkpt><trkpt lat="36.465629" lon="30.505764"><ele>66.621</ele><time>2022-10-15T13:06:21Z</time></trkpt><trkpt lat="36.465682" lon="30.505783"><ele>66.362</ele><time>2022-10-15T13:06:23Z</time></trkpt><trkpt lat="36.465742" lon="30.505795"><ele>66.147</ele><time>2022-10-15T13:06:25Z</time></trkpt><trkpt lat="36.465801" lon="30.505792"><ele>65.929</ele><time>2022-10-15T13:06:28Z</time></trkpt><trkpt lat="36.465855" lon="30.505763"><ele>64.021</ele><time>2022-10-15T13:06:31Z</time></trkpt><trkpt lat="36.465905" lon="30.505746"><ele>63.109</ele><time>2022-10-15T13:06:34Z</time></trkpt><trkpt lat="36.465956" lon="30.505724"><ele>62.895</ele><time>2022-10-15T13:06:37Z</time></trkpt><trkpt lat="36.466007" lon="30.505688"><ele>62.345</ele><time>2022-10-15T13:06:40Z</time></trkpt><trkpt lat="36.466046" lon="30.505637"><ele>59.680</ele><time>2022-10-15T13:06:43Z</time></trkpt><trkpt lat="36.466085" lon="30.505585"><ele>57.447</ele><time>2022-10-15T13:06:46Z</time></trkpt><trkpt lat="36.466111" lon="30.505521"><ele>54.419</ele><time>2022-10-15T13:06:49Z</time></trkpt><trkpt lat="36.466146" lon="30.505472"><ele>52.955</ele><time>2022-10-15T13:06:52Z</time></trkpt><trkpt lat="36.466193" lon="30.505419"><ele>51.497</ele><time>2022-10-15T13:06:55Z</time></trkpt><trkpt lat="36.466220" lon="30.505366"><ele>48.741</ele><time>2022-10-15T13:06:57Z</time></trkpt><trkpt lat="36.466257" lon="30.505315"><ele>47.562</ele><time>2022-10-15T13:06:59Z</time></trkpt><trkpt lat="36.466287" lon="30.505269"><ele>46.624</ele><time>2022-10-15T13:07:01Z</time></trkpt><trkpt lat="36.466327" lon="30.505201"><ele>46.104</ele><time>2022-10-15T13:07:04Z</time></trkpt><trkpt lat="36.466364" lon="30.505156"><ele>45.814</ele><time>2022-10-15T13:07:06Z</time></trkpt><trkpt lat="36.466401" lon="30.505104"><ele>45.309</ele><time>2022-10-15T13:07:08Z</time></trkpt><trkpt lat="36.466443" lon="30.505035"><ele>44.253</ele><time>2022-10-15T13:07:11Z</time></trkpt><trkpt lat="36.466478" lon="30.504993"><ele>43.433</ele><time>2022-10-15T13:07:13Z</time></trkpt><trkpt lat="36.466503" lon="30.504935"><ele>42.358</ele><time>2022-10-15T13:07:15Z</time></trkpt><trkpt lat="36.466519" lon="30.504853"><ele>40.695</ele><time>2022-10-15T13:07:18Z</time></trkpt><trkpt lat="36.466532" lon="30.504795"><ele>40.237</ele><time>2022-10-15T13:07:20Z</time></trkpt><trkpt lat="36.466575" lon="30.504753"><ele>37.973</ele><time>2022-10-15T13:07:23Z</time></trkpt><trkpt lat="36.466627" lon="30.504705"><ele>37.665</ele><time>2022-10-15T13:07:26Z</time></trkpt><trkpt lat="36.466669" lon="30.504677"><ele>37.559</ele><time>2022-10-15T13:07:28Z</time></trkpt><trkpt lat="36.466722" lon="30.504661"><ele>37.490</ele><time>2022-10-15T13:07:30Z</time></trkpt><trkpt lat="36.466772" lon="30.504657"><ele>37.121</ele><time>2022-10-15T13:07:32Z</time></trkpt><trkpt lat="36.466822" lon="30.504667"><ele>37.141</ele><time>2022-10-15T13:07:34Z</time></trkpt><trkpt lat="36.466867" lon="30.504701"><ele>37.205</ele><time>2022-10-15T13:07:36Z</time></trkpt><trkpt lat="36.466907" lon="30.504731"><ele>37.209</ele><time>2022-10-15T13:07:38Z</time></trkpt><trkpt lat="36.466956" lon="30.504750"><ele>37.213</ele><time>2022-10-15T13:07:40Z</time></trkpt><trkpt lat="36.467008" lon="30.504756"><ele>37.373</ele><time>2022-10-15T13:07:42Z</time></trkpt><trkpt lat="36.467058" lon="30.504748"><ele>37.398</ele><time>2022-10-15T13:07:44Z</time></trkpt><trkpt lat="36.467099" lon="30.504705"><ele>37.385</ele><time>2022-10-15T13:07:46Z</time></trkpt><trkpt lat="36.467121" lon="30.504651"><ele>37.347</ele><time>2022-10-15T13:07:48Z</time></trkpt><trkpt lat="36.467124" lon="30.504587"><ele>36.933</ele><time>2022-10-15T13:07:50Z</time></trkpt><trkpt lat="36.467087" lon="30.504525"><ele>35.155</ele><time>2022-10-15T13:07:53Z</time></trkpt><trkpt lat="36.467046" lon="30.504469"><ele>34.039</ele><time>2022-10-15T13:07:56Z</time></trkpt><trkpt lat="36.467024" lon="30.504397"><ele>31.540</ele><time>2022-10-15T13:07:59Z</time></trkpt><trkpt lat="36.467007" lon="30.504322"><ele>30.053</ele><time>2022-10-15T13:08:02Z</time></trkpt><trkpt lat="36.466987" lon="30.504252"><ele>27.204</ele><time>2022-10-15T13:08:05Z</time></trkpt><trkpt lat="36.466983" lon="30.504193"><ele>26.614</ele><time>2022-10-15T13:08:07Z</time></trkpt><trkpt lat="36.466991" lon="30.504123"><ele>26.509</ele><time>2022-10-15T13:08:09Z</time></trkpt><trkpt lat="36.467020" lon="30.504070"><ele>26.496</ele><time>2022-10-15T13:08:11Z</time></trkpt><trkpt lat="36.467075" lon="30.504029"><ele>26.496</ele><time>2022-10-15T13:08:14Z</time></trkpt><trkpt lat="36.467122" lon="30.504008"><ele>27.221</ele><time>2022-10-15T13:08:17Z</time></trkpt><trkpt lat="36.467178" lon="30.503996"><ele>29.198</ele><time>2022-10-15T13:08:19Z</time></trkpt><trkpt lat="36.467226" lon="30.503976"><ele>29.450</ele><time>2022-10-15T13:08:21Z</time></trkpt><trkpt lat="36.467270" lon="30.503959"><ele>29.426</ele><time>2022-10-15T13:08:23Z</time></trkpt><trkpt lat="36.467321" lon="30.503945"><ele>29.438</ele><time>2022-10-15T13:08:25Z</time></trkpt><trkpt lat="36.467375" lon="30.503946"><ele>29.632</ele><time>2022-10-15T13:08:27Z</time></trkpt><trkpt lat="36.467436" lon="30.503969"><ele>29.613</ele><time>2022-10-15T13:08:29Z</time></trkpt><trkpt lat="36.467483" lon="30.504010"><ele>29.698</ele><time>2022-10-15T13:08:31Z</time></trkpt><trkpt lat="36.467522" lon="30.504047"><ele>29.615</ele><time>2022-10-15T13:08:33Z</time></trkpt><trkpt lat="36.467563" lon="30.504095"><ele>29.426</ele><time>2022-10-15T13:08:35Z</time></trkpt><trkpt lat="36.467604" lon="30.504133"><ele>29.309</ele><time>2022-10-15T13:08:37Z</time></trkpt><trkpt lat="36.467654" lon="30.504169"><ele>29.430</ele><time>2022-10-15T13:08:39Z</time></trkpt><trkpt lat="36.467708" lon="30.504181"><ele>29.410</ele><time>2022-10-15T13:08:41Z</time></trkpt><trkpt lat="36.467765" lon="30.504184"><ele>31.435</ele><time>2022-10-15T13:08:43Z</time></trkpt><trkpt lat="36.467817" lon="30.504185"><ele>31.642</ele><time>2022-10-15T13:08:45Z</time></trkpt><trkpt lat="36.467876" lon="30.504192"><ele>31.654</ele><time>2022-10-15T13:08:47Z</time></trkpt><trkpt lat="36.467924" lon="30.504204"><ele>31.140</ele><time>2022-10-15T13:08:49Z</time></trkpt><trkpt lat="36.467972" lon="30.504214"><ele>30.532</ele><time>2022-10-15T13:08:51Z</time></trkpt><trkpt lat="36.468026" lon="30.504247"><ele>29.536</ele><time>2022-10-15T13:08:53Z</time></trkpt><trkpt lat="36.468086" lon="30.504259"><ele>29.157</ele><time>2022-10-15T13:08:55Z</time></trkpt><trkpt lat="36.468151" lon="30.504286"><ele>28.971</ele><time>2022-10-15T13:08:57Z</time></trkpt><trkpt lat="36.468209" lon="30.504255"><ele>28.841</ele><time>2022-10-15T13:09:00Z</time></trkpt><trkpt lat="36.468248" lon="30.504213"><ele>28.215</ele><time>2022-10-15T13:09:02Z</time></trkpt><trkpt lat="36.468286" lon="30.504166"><ele>23.609</ele><time>2022-10-15T13:09:04Z</time></trkpt><trkpt lat="36.468321" lon="30.504110"><ele>20.778</ele><time>2022-10-15T13:09:07Z</time></trkpt><trkpt lat="36.468347" lon="30.504058"><ele>18.288</ele><time>2022-10-15T13:09:11Z</time></trkpt><trkpt lat="36.468321" lon="30.503997"><ele>16.783</ele><time>2022-10-15T13:09:16Z</time></trkpt><trkpt lat="36.468327" lon="30.503929"><ele>14.970</ele><time>2022-10-15T13:09:21Z</time></trkpt><trkpt lat="36.468360" lon="30.503882"><ele>14.352</ele><time>2022-10-15T13:09:25Z</time></trkpt><trkpt lat="36.468401" lon="30.503830"><ele>14.418</ele><time>2022-10-15T13:09:29Z</time></trkpt><trkpt lat="36.468428" lon="30.503760"><ele>14.340</ele><time>2022-10-15T13:09:33Z</time></trkpt><trkpt lat="36.468447" lon="30.503704"><ele>14.474</ele><time>2022-10-15T13:09:36Z</time></trkpt><trkpt lat="36.468471" lon="30.503654"><ele>14.585</ele><time>2022-10-15T13:09:39Z</time></trkpt><trkpt lat="36.468501" lon="30.503595"><ele>12.375</ele><time>2022-10-15T13:09:44Z</time></trkpt><trkpt lat="36.468523" lon="30.503536"><ele>11.828</ele><time>2022-10-15T13:09:48Z</time></trkpt><trkpt lat="36.468550" lon="30.503483"><ele>11.620</ele><time>2022-10-15T13:09:52Z</time></trkpt><trkpt lat="36.468569" lon="30.503415"><ele>10.409</ele><time>2022-10-15T13:09:56Z</time></trkpt><trkpt lat="36.468578" lon="30.503348"><ele>8.078</ele><time>2022-10-15T13:10:00Z</time></trkpt><trkpt lat="36.468592" lon="30.503283"><ele>7.588</ele><time>2022-10-15T13:10:04Z</time></trkpt><trkpt lat="36.468619" lon="30.503223"><ele>7.583</ele><time>2022-10-15T13:10:08Z</time></trkpt><trkpt lat="36.468637" lon="30.503157"><ele>7.880</ele><time>2022-10-15T13:10:12Z</time></trkpt><trkpt lat="36.468661" lon="30.503107"><ele>8.172</ele><time>2022-10-15T13:10:15Z</time></trkpt><trkpt lat="36.468699" lon="30.503061"><ele>8.848</ele><time>2022-10-15T13:10:19Z</time></trkpt><trkpt lat="36.468742" lon="30.503013"><ele>9.250</ele><time>2022-10-15T13:10:23Z</time></trkpt><trkpt lat="36.468785" lon="30.502980"><ele>9.734</ele><time>2022-10-15T13:10:27Z</time></trkpt><trkpt lat="36.468814" lon="30.502925"><ele>11.825</ele><time>2022-10-15T13:11:06Z</time></trkpt><trkpt lat="36.468864" lon="30.502939"><ele>12.777</ele><time>2022-10-15T13:14:09Z</time></trkpt><trkpt lat="36.468900" lon="30.502895"><ele>12.761</ele><time>2022-10-15T13:14:12Z</time></trkpt><trkpt lat="36.468946" lon="30.502865"><ele>12.727</ele><time>2022-10-15T13:14:16Z</time></trkpt><trkpt lat="36.468992" lon="30.502828"><ele>12.709</ele><time>2022-10-15T13:14:20Z</time></trkpt><trkpt lat="36.469026" lon="30.502786"><ele>12.788</ele><time>2022-10-15T13:14:24Z</time></trkpt><trkpt lat="36.469075" lon="30.502758"><ele>9.218</ele><time>2022-10-15T13:14:29Z</time></trkpt><trkpt lat="36.469118" lon="30.502720"><ele>8.783</ele><time>2022-10-15T13:14:33Z</time></trkpt><trkpt lat="36.469166" lon="30.502690"><ele>8.380</ele><time>2022-10-15T13:14:37Z</time></trkpt><trkpt lat="36.469206" lon="30.502652"><ele>8.322</ele><time>2022-10-15T13:14:41Z</time></trkpt><trkpt lat="36.469246" lon="30.502619"><ele>8.328</ele><time>2022-10-15T13:14:44Z</time></trkpt><trkpt lat="36.469283" lon="30.502572"><ele>8.580</ele><time>2022-10-15T13:14:48Z</time></trkpt><trkpt lat="36.469321" lon="30.502532"><ele>8.394</ele><time>2022-10-15T13:14:52Z</time></trkpt><trkpt lat="36.469365" lon="30.502494"><ele>8.595</ele><time>2022-10-15T13:14:56Z</time></trkpt><trkpt lat="36.469417" lon="30.502460"><ele>8.736</ele><time>2022-10-15T13:15:00Z</time></trkpt><trkpt lat="36.469465" lon="30.502436"><ele>8.617</ele><time>2022-10-15T13:15:04Z</time></trkpt><trkpt lat="36.469517" lon="30.502424"><ele>8.518</ele><time>2022-10-15T13:15:08Z</time></trkpt><trkpt lat="36.469570" lon="30.502413"><ele>8.709</ele><time>2022-10-15T13:15:12Z</time></trkpt><trkpt lat="36.469626" lon="30.502409"><ele>9.084</ele><time>2022-10-15T13:15:16Z</time></trkpt><trkpt lat="36.469679" lon="30.502403"><ele>9.114</ele><time>2022-10-15T13:15:20Z</time></trkpt><trkpt lat="36.469727" lon="30.502416"><ele>9.329</ele><time>2022-10-15T13:15:24Z</time></trkpt><trkpt lat="36.469776" lon="30.502420"><ele>11.266</ele><time>2022-10-15T13:15:28Z</time></trkpt><trkpt lat="36.469820" lon="30.502434"><ele>12.758</ele><time>2022-10-15T13:15:32Z</time></trkpt><trkpt lat="36.469857" lon="30.502477"><ele>12.934</ele><time>2022-10-15T13:15:37Z</time></trkpt><trkpt lat="36.469829" lon="30.502522"><ele>13.356</ele><time>2022-10-15T13:15:41Z</time></trkpt><trkpt lat="36.469876" lon="30.502506"><ele>17.350</ele><time>2022-10-15T13:15:57Z</time></trkpt><trkpt lat="36.469912" lon="30.502543"><ele>17.181</ele><time>2022-10-15T13:16:04Z</time></trkpt><trkpt lat="36.469937" lon="30.502591"><ele>15.816</ele><time>2022-10-15T13:16:13Z</time></trkpt><trkpt lat="36.469958" lon="30.502649"><ele>14.176</ele><time>2022-10-15T13:16:18Z</time></trkpt><trkpt lat="36.469985" lon="30.502706"><ele>12.413</ele><time>2022-10-15T13:16:23Z</time></trkpt><trkpt lat="36.470005" lon="30.502764"><ele>11.209</ele><time>2022-10-15T13:16:27Z</time></trkpt><trkpt lat="36.470024" lon="30.502829"><ele>10.472</ele><time>2022-10-15T13:16:31Z</time></trkpt><trkpt lat="36.470039" lon="30.502892"><ele>10.152</ele><time>2022-10-15T13:16:35Z</time></trkpt><trkpt lat="36.470051" lon="30.502961"><ele>9.967</ele><time>2022-10-15T13:16:40Z</time></trkpt><trkpt lat="36.470079" lon="30.503019"><ele>9.964</ele><time>2022-10-15T13:16:44Z</time></trkpt><trkpt lat="36.470099" lon="30.503078"><ele>9.826</ele><time>2022-10-15T13:16:48Z</time></trkpt><trkpt lat="36.470127" lon="30.503130"><ele>9.772</ele><time>2022-10-15T13:16:52Z</time></trkpt><trkpt lat="36.470168" lon="30.503163"><ele>9.684</ele><time>2022-10-15T13:16:56Z</time></trkpt><trkpt lat="36.470206" lon="30.503201"><ele>9.668</ele><time>2022-10-15T13:17:00Z</time></trkpt><trkpt lat="36.470253" lon="30.503245"><ele>9.719</ele><time>2022-10-15T13:17:04Z</time></trkpt><trkpt lat="36.470291" lon="30.503277"><ele>10.633</ele><time>2022-10-15T13:17:07Z</time></trkpt><trkpt lat="36.470327" lon="30.503329"><ele>11.923</ele><time>2022-10-15T13:17:11Z</time></trkpt><trkpt lat="36.470362" lon="30.503386"><ele>11.915</ele><time>2022-10-15T13:17:15Z</time></trkpt><trkpt lat="36.470395" lon="30.503430"><ele>11.909</ele><time>2022-10-15T13:17:18Z</time></trkpt><trkpt lat="36.470420" lon="30.503489"><ele>11.974</ele><time>2022-10-15T13:17:22Z</time></trkpt><trkpt lat="36.470441" lon="30.503554"><ele>11.994</ele><time>2022-10-15T13:17:26Z</time></trkpt><trkpt lat="36.470463" lon="30.503614"><ele>12.599</ele><time>2022-10-15T13:17:30Z</time></trkpt><trkpt lat="36.470488" lon="30.503665"><ele>13.966</ele><time>2022-10-15T13:17:34Z</time></trkpt><trkpt lat="36.470525" lon="30.503709"><ele>14.388</ele><time>2022-10-15T13:17:38Z</time></trkpt><trkpt lat="36.470562" lon="30.503760"><ele>14.474</ele><time>2022-10-15T13:17:42Z</time></trkpt><trkpt lat="36.470572" lon="30.503819"><ele>14.626</ele><time>2022-10-15T13:17:46Z</time></trkpt><trkpt lat="36.470579" lon="30.503879"><ele>14.480</ele><time>2022-10-15T13:17:50Z</time></trkpt><trkpt lat="36.470583" lon="30.503936"><ele>14.451</ele><time>2022-10-15T13:17:53Z</time></trkpt><trkpt lat="36.470587" lon="30.504008"><ele>14.571</ele><time>2022-10-15T13:17:57Z</time></trkpt><trkpt lat="36.470601" lon="30.504067"><ele>15.341</ele><time>2022-10-15T13:18:01Z</time></trkpt><trkpt lat="36.470611" lon="30.504125"><ele>17.515</ele><time>2022-10-15T13:18:05Z</time></trkpt><trkpt lat="36.470593" lon="30.504187"><ele>18.109</ele><time>2022-10-15T13:18:09Z</time></trkpt><trkpt lat="36.470573" lon="30.504245"><ele>18.778</ele><time>2022-10-15T13:18:13Z</time></trkpt><trkpt lat="36.470547" lon="30.504312"><ele>20.018</ele><time>2022-10-15T13:18:16Z</time></trkpt><trkpt lat="36.470521" lon="30.504378"><ele>21.533</ele><time>2022-10-15T13:18:19Z</time></trkpt><trkpt lat="36.470522" lon="30.504446"><ele>22.060</ele><time>2022-10-15T13:18:22Z</time></trkpt><trkpt lat="36.470524" lon="30.504515"><ele>22.122</ele><time>2022-10-15T13:18:25Z</time></trkpt><trkpt lat="36.470523" lon="30.504588"><ele>22.048</ele><time>2022-10-15T13:18:28Z</time></trkpt><trkpt lat="36.470521" lon="30.504664"><ele>21.310</ele><time>2022-10-15T13:18:31Z</time></trkpt><trkpt lat="36.470517" lon="30.504725"><ele>20.314</ele><time>2022-10-15T13:18:33Z</time></trkpt><trkpt lat="36.470504" lon="30.504785"><ele>20.125</ele><time>2022-10-15T13:18:36Z</time></trkpt><trkpt lat="36.470503" lon="30.504848"><ele>19.324</ele><time>2022-10-15T13:18:39Z</time></trkpt><trkpt lat="36.470517" lon="30.504908"><ele>19.704</ele><time>2022-10-15T13:18:42Z</time></trkpt><trkpt lat="36.470535" lon="30.504979"><ele>19.614</ele><time>2022-10-15T13:18:45Z</time></trkpt><trkpt lat="36.470550" lon="30.505056"><ele>19.209</ele><time>2022-10-15T13:18:47Z</time></trkpt><trkpt lat="36.470566" lon="30.505143"><ele>19.043</ele><time>2022-10-15T13:18:50Z</time></trkpt><trkpt lat="36.470575" lon="30.505227"><ele>19.143</ele><time>2022-10-15T13:18:52Z</time></trkpt><trkpt lat="36.470585" lon="30.505305"><ele>19.718</ele><time>2022-10-15T13:18:54Z</time></trkpt><trkpt lat="36.470593" lon="30.505365"><ele>21.285</ele><time>2022-10-15T13:18:56Z</time></trkpt><trkpt lat="36.470597" lon="30.505422"><ele>21.947</ele><time>2022-10-15T13:18:58Z</time></trkpt><trkpt lat="36.470599" lon="30.505497"><ele>23.593</ele><time>2022-10-15T13:19:01Z</time></trkpt><trkpt lat="36.470588" lon="30.505555"><ele>23.955</ele><time>2022-10-15T13:19:04Z</time></trkpt><trkpt lat="36.470568" lon="30.505631"><ele>25.439</ele><time>2022-10-15T13:19:07Z</time></trkpt><trkpt lat="36.470546" lon="30.505690"><ele>26.060</ele><time>2022-10-15T13:19:09Z</time></trkpt><trkpt lat="36.470497" lon="30.505747"><ele>26.355</ele><time>2022-10-15T13:19:12Z</time></trkpt><trkpt lat="36.470438" lon="30.505776"><ele>26.607</ele><time>2022-10-15T13:19:15Z</time></trkpt><trkpt lat="36.470394" lon="30.505791"><ele>26.617</ele><time>2022-10-15T13:19:17Z</time></trkpt><trkpt lat="36.470347" lon="30.505791"><ele>26.209</ele><time>2022-10-15T13:19:19Z</time></trkpt><trkpt lat="36.470291" lon="30.505766"><ele>26.016</ele><time>2022-10-15T13:19:22Z</time></trkpt><trkpt lat="36.470231" lon="30.505750"><ele>25.726</ele><time>2022-10-15T13:19:25Z</time></trkpt><trkpt lat="36.470188" lon="30.505727"><ele>25.451</ele><time>2022-10-15T13:19:27Z</time></trkpt><trkpt lat="36.470143" lon="30.505725"><ele>25.628</ele><time>2022-10-15T13:19:29Z</time></trkpt><trkpt lat="36.470100" lon="30.505755"><ele>25.630</ele><time>2022-10-15T13:19:32Z</time></trkpt><trkpt lat="36.470071" lon="30.505811"><ele>25.746</ele><time>2022-10-15T13:19:35Z</time></trkpt><trkpt lat="36.470040" lon="30.505865"><ele>25.958</ele><time>2022-10-15T13:19:38Z</time></trkpt><trkpt lat="36.470006" lon="30.505926"><ele>27.082</ele><time>2022-10-15T13:19:41Z</time></trkpt><trkpt lat="36.469977" lon="30.505982"><ele>27.813</ele><time>2022-10-15T13:19:44Z</time></trkpt><trkpt lat="36.469959" lon="30.506041"><ele>27.861</ele><time>2022-10-15T13:19:46Z</time></trkpt><trkpt lat="36.469955" lon="30.506108"><ele>27.921</ele><time>2022-10-15T13:19:48Z</time></trkpt><trkpt lat="36.469956" lon="30.506185"><ele>27.213</ele><time>2022-10-15T13:19:51Z</time></trkpt><trkpt lat="36.469957" lon="30.506253"><ele>26.509</ele><time>2022-10-15T13:19:54Z</time></trkpt><trkpt lat="36.469960" lon="30.506334"><ele>25.757</ele><time>2022-10-15T13:19:57Z</time></trkpt><trkpt lat="36.469969" lon="30.506409"><ele>25.237</ele><time>2022-10-15T13:20:00Z</time></trkpt><trkpt lat="36.469983" lon="30.506480"><ele>24.582</ele><time>2022-10-15T13:20:03Z</time></trkpt><trkpt lat="36.470003" lon="30.506557"><ele>24.089</ele><time>2022-10-15T13:20:06Z</time></trkpt><trkpt lat="36.470013" lon="30.506625"><ele>23.411</ele><time>2022-10-15T13:20:09Z</time></trkpt><trkpt lat="36.470019" lon="30.506700"><ele>22.287</ele><time>2022-10-15T13:20:12Z</time></trkpt><trkpt lat="36.470025" lon="30.506772"><ele>20.819</ele><time>2022-10-15T13:20:15Z</time></trkpt><trkpt lat="36.470033" lon="30.506847"><ele>19.543</ele><time>2022-10-15T13:20:18Z</time></trkpt><trkpt lat="36.470045" lon="30.506920"><ele>18.454</ele><time>2022-10-15T13:20:21Z</time></trkpt><trkpt lat="36.470059" lon="30.506996"><ele>18.296</ele><time>2022-10-15T13:20:24Z</time></trkpt><trkpt lat="36.470063" lon="30.507078"><ele>18.131</ele><time>2022-10-15T13:20:26Z</time></trkpt><trkpt lat="36.470061" lon="30.507147"><ele>18.124</ele><time>2022-10-15T13:20:28Z</time></trkpt><trkpt lat="36.470051" lon="30.507208"><ele>18.309</ele><time>2022-10-15T13:20:30Z</time></trkpt><trkpt lat="36.470046" lon="30.507264"><ele>21.350</ele><time>2022-10-15T13:20:32Z</time></trkpt><trkpt lat="36.470030" lon="30.507318"><ele>21.540</ele><time>2022-10-15T13:20:34Z</time></trkpt><trkpt lat="36.469991" lon="30.507369"><ele>22.575</ele><time>2022-10-15T13:20:38Z</time></trkpt><trkpt lat="36.469949" lon="30.507401"><ele>23.832</ele><time>2022-10-15T13:20:42Z</time></trkpt><trkpt lat="36.469910" lon="30.507432"><ele>23.614</ele><time>2022-10-15T13:20:46Z</time></trkpt><trkpt lat="36.469861" lon="30.507431"><ele>23.640</ele><time>2022-10-15T13:20:50Z</time></trkpt><trkpt lat="36.469808" lon="30.507443"><ele>22.182</ele><time>2022-10-15T13:20:55Z</time></trkpt><trkpt lat="36.469756" lon="30.507456"><ele>22.146</ele><time>2022-10-15T13:21:00Z</time></trkpt><trkpt lat="36.469712" lon="30.507479"><ele>21.217</ele><time>2022-10-15T13:21:06Z</time></trkpt><trkpt lat="36.469692" lon="30.507529"><ele>20.955</ele><time>2022-10-15T13:21:12Z</time></trkpt><trkpt lat="36.469682" lon="30.507587"><ele>20.507</ele><time>2022-10-15T13:21:18Z</time></trkpt><trkpt lat="36.469664" lon="30.507649"><ele>20.017</ele><time>2022-10-15T13:21:23Z</time></trkpt><trkpt lat="36.469639" lon="30.507696"><ele>19.209</ele><time>2022-10-15T13:21:27Z</time></trkpt><trkpt lat="36.469604" lon="30.507734"><ele>19.246</ele><time>2022-10-15T13:21:31Z</time></trkpt><trkpt lat="36.469584" lon="30.507786"><ele>19.636</ele><time>2022-10-15T13:21:43Z</time></trkpt><trkpt lat="36.469550" lon="30.507844"><ele>22.631</ele><time>2022-10-15T13:21:46Z</time></trkpt><trkpt lat="36.469546" lon="30.507903"><ele>25.488</ele><time>2022-10-15T13:21:51Z</time></trkpt><trkpt lat="36.469544" lon="30.507963"><ele>25.970</ele><time>2022-10-15T13:21:56Z</time></trkpt><trkpt lat="36.469521" lon="30.508011"><ele>26.496</ele><time>2022-10-15T13:22:01Z</time></trkpt><trkpt lat="36.469523" lon="30.508079"><ele>26.498</ele><time>2022-10-15T13:22:06Z</time></trkpt><trkpt lat="36.469521" lon="30.508136"><ele>26.472</ele><time>2022-10-15T13:22:10Z</time></trkpt><trkpt lat="36.469540" lon="30.508195"><ele>26.493</ele><time>2022-10-15T13:22:15Z</time></trkpt><trkpt lat="36.469571" lon="30.508247"><ele>26.485</ele><time>2022-10-15T13:22:20Z</time></trkpt><trkpt lat="36.469582" lon="30.508302"><ele>26.489</ele><time>2022-10-15T13:22:24Z</time></trkpt><trkpt lat="36.469587" lon="30.508373"><ele>27.017</ele><time>2022-10-15T13:22:29Z</time></trkpt><trkpt lat="36.469628" lon="30.508419"><ele>28.309</ele><time>2022-10-15T13:22:34Z</time></trkpt><trkpt lat="36.469657" lon="30.508473"><ele>30.769</ele><time>2022-10-15T13:22:40Z</time></trkpt><trkpt lat="36.469681" lon="30.508523"><ele>31.439</ele><time>2022-10-15T13:22:45Z</time></trkpt><trkpt lat="36.469715" lon="30.508577"><ele>32.074</ele><time>2022-10-15T13:22:51Z</time></trkpt><trkpt lat="36.469752" lon="30.508623"><ele>34.221</ele><time>2022-10-15T13:22:57Z</time></trkpt><trkpt lat="36.469793" lon="30.508660"><ele>35.063</ele><time>2022-10-15T13:23:03Z</time></trkpt><trkpt lat="36.469843" lon="30.508696"><ele>35.659</ele><time>2022-10-15T13:23:08Z</time></trkpt><trkpt lat="36.469880" lon="30.508737"><ele>36.171</ele><time>2022-10-15T13:23:12Z</time></trkpt><trkpt lat="36.469913" lon="30.508777"><ele>36.555</ele><time>2022-10-15T13:23:16Z</time></trkpt><trkpt lat="36.469925" lon="30.508839"><ele>36.986</ele><time>2022-10-15T13:23:21Z</time></trkpt><trkpt lat="36.469942" lon="30.508894"><ele>37.146</ele><time>2022-10-15T13:23:25Z</time></trkpt><trkpt lat="36.469950" lon="30.508961"><ele>40.288</ele><time>2022-10-15T13:23:31Z</time></trkpt><trkpt lat="36.469971" lon="30.509013"><ele>41.416</ele><time>2022-10-15T13:23:35Z</time></trkpt><trkpt lat="36.469991" lon="30.509067"><ele>42.209</ele><time>2022-10-15T13:23:39Z</time></trkpt><trkpt lat="36.470018" lon="30.509125"><ele>42.765</ele><time>2022-10-15T13:23:44Z</time></trkpt><trkpt lat="36.470039" lon="30.509182"><ele>43.785</ele><time>2022-10-15T13:23:49Z</time></trkpt><trkpt lat="36.470062" lon="30.509246"><ele>44.350</ele><time>2022-10-15T13:23:54Z</time></trkpt><trkpt lat="36.470080" lon="30.509306"><ele>44.767</ele><time>2022-10-15T13:23:58Z</time></trkpt><trkpt lat="36.470095" lon="30.509359"><ele>45.269</ele><time>2022-10-15T13:24:02Z</time></trkpt><trkpt lat="36.470090" lon="30.509428"><ele>47.495</ele><time>2022-10-15T13:24:08Z</time></trkpt><trkpt lat="36.470084" lon="30.509485"><ele>49.597</ele><time>2022-10-15T13:24:12Z</time></trkpt><trkpt lat="36.470072" lon="30.509547"><ele>52.751</ele><time>2022-10-15T13:24:16Z</time></trkpt><trkpt lat="36.470078" lon="30.509616"><ele>54.022</ele><time>2022-10-15T13:24:21Z</time></trkpt><trkpt lat="36.470056" lon="30.509678"><ele>55.525</ele><time>2022-10-15T13:24:26Z</time></trkpt><trkpt lat="36.470071" lon="30.509736"><ele>61.326</ele><time>2022-10-15T13:25:08Z</time></trkpt><trkpt lat="36.470096" lon="30.509792"><ele>61.408</ele><time>2022-10-15T13:25:12Z</time></trkpt><trkpt lat="36.470138" lon="30.509816"><ele>61.409</ele><time>2022-10-15T13:25:16Z</time></trkpt><trkpt lat="36.470163" lon="30.509868"><ele>61.453</ele><time>2022-10-15T13:25:21Z</time></trkpt><trkpt lat="36.470180" lon="30.509927"><ele>61.223</ele><time>2022-10-15T13:25:26Z</time></trkpt><trkpt lat="36.470219" lon="30.509972"><ele>58.528</ele><time>2022-10-15T13:25:31Z</time></trkpt><trkpt lat="36.470249" lon="30.510015"><ele>58.015</ele><time>2022-10-15T13:25:35Z</time></trkpt><trkpt lat="36.470269" lon="30.510075"><ele>57.717</ele><time>2022-10-15T13:25:40Z</time></trkpt><trkpt lat="36.470288" lon="30.510131"><ele>58.023</ele><time>2022-10-15T13:25:44Z</time></trkpt><trkpt lat="36.470319" lon="30.510182"><ele>57.985</ele><time>2022-10-15T13:25:48Z</time></trkpt><trkpt lat="36.470348" lon="30.510241"><ele>57.789</ele><time>2022-10-15T13:25:53Z</time></trkpt><trkpt lat="36.470383" lon="30.510279"><ele>57.870</ele><time>2022-10-15T13:25:57Z</time></trkpt><trkpt lat="36.470412" lon="30.510334"><ele>58.383</ele><time>2022-10-15T13:26:02Z</time></trkpt><trkpt lat="36.470449" lon="30.510371"><ele>58.625</ele><time>2022-10-15T13:26:06Z</time></trkpt><trkpt lat="36.470489" lon="30.510412"><ele>61.217</ele><time>2022-10-15T13:26:11Z</time></trkpt><trkpt lat="36.470513" lon="30.510473"><ele>61.509</ele><time>2022-10-15T13:26:16Z</time></trkpt><trkpt lat="36.470523" lon="30.510531"><ele>62.099</ele><time>2022-10-15T13:26:20Z</time></trkpt><trkpt lat="36.470531" lon="30.510589"><ele>62.339</ele><time>2022-10-15T13:26:24Z</time></trkpt><trkpt lat="36.470555" lon="30.510651"><ele>63.584</ele><time>2022-10-15T13:26:29Z</time></trkpt><trkpt lat="36.470566" lon="30.510706"><ele>64.471</ele><time>2022-10-15T13:26:33Z</time></trkpt><trkpt lat="36.470587" lon="30.510765"><ele>64.533</ele><time>2022-10-15T13:26:38Z</time></trkpt><trkpt lat="36.470614" lon="30.510816"><ele>64.949</ele><time>2022-10-15T13:26:42Z</time></trkpt><trkpt lat="36.470623" lon="30.510871"><ele>64.741</ele><time>2022-10-15T13:26:46Z</time></trkpt><trkpt lat="36.470630" lon="30.510926"><ele>64.735</ele><time>2022-10-15T13:26:50Z</time></trkpt><trkpt lat="36.470640" lon="30.510984"><ele>65.046</ele><time>2022-10-15T13:26:55Z</time></trkpt><trkpt lat="36.470656" lon="30.511047"><ele>65.885</ele><time>2022-10-15T13:27:00Z</time></trkpt><trkpt lat="36.470658" lon="30.511112"><ele>68.589</ele><time>2022-10-15T13:27:05Z</time></trkpt><trkpt lat="36.470653" lon="30.511178"><ele>69.617</ele><time>2022-10-15T13:27:10Z</time></trkpt><trkpt lat="36.470648" lon="30.511235"><ele>73.509</ele><time>2022-10-15T13:27:14Z</time></trkpt><trkpt lat="36.470642" lon="30.511293"><ele>76.319</ele><time>2022-10-15T13:27:18Z</time></trkpt><trkpt lat="36.470613" lon="30.511336"><ele>77.419</ele><time>2022-10-15T13:27:22Z</time></trkpt><trkpt lat="36.470590" lon="30.511385"><ele>80.144</ele><time>2022-10-15T13:27:26Z</time></trkpt><trkpt lat="36.470550" lon="30.511431"><ele>81.221</ele><time>2022-10-15T13:27:31Z</time></trkpt><trkpt lat="36.470529" lon="30.511487"><ele>81.973</ele><time>2022-10-15T13:27:36Z</time></trkpt><trkpt lat="36.470519" lon="30.511550"><ele>83.889</ele><time>2022-10-15T13:27:41Z</time></trkpt><trkpt lat="36.470514" lon="30.511617"><ele>83.841</ele><time>2022-10-15T13:27:46Z</time></trkpt><trkpt lat="36.470514" lon="30.511679"><ele>83.725</ele><time>2022-10-15T13:27:51Z</time></trkpt><trkpt lat="36.470523" lon="30.511742"><ele>83.436</ele><time>2022-10-15T13:27:56Z</time></trkpt><trkpt lat="36.470539" lon="30.511795"><ele>83.039</ele><time>2022-10-15T13:28:00Z</time></trkpt><trkpt lat="36.470552" lon="30.511850"><ele>82.501</ele><time>2022-10-15T13:28:03Z</time></trkpt><trkpt lat="36.470565" lon="30.511918"><ele>80.721</ele><time>2022-10-15T13:28:08Z</time></trkpt><trkpt lat="36.470572" lon="30.511981"><ele>80.209</ele><time>2022-10-15T13:28:12Z</time></trkpt><trkpt lat="36.470562" lon="30.512042"><ele>79.924</ele><time>2022-10-15T13:28:16Z</time></trkpt><trkpt lat="36.470542" lon="30.512108"><ele>80.544</ele><time>2022-10-15T13:28:20Z</time></trkpt><trkpt lat="36.470532" lon="30.512175"><ele>83.649</ele><time>2022-10-15T13:28:24Z</time></trkpt><trkpt lat="36.470511" lon="30.512236"><ele>83.896</ele><time>2022-10-15T13:28:28Z</time></trkpt><trkpt lat="36.470492" lon="30.512293"><ele>84.338</ele><time>2022-10-15T13:28:32Z</time></trkpt><trkpt lat="36.470461" lon="30.512344"><ele>84.674</ele><time>2022-10-15T13:28:36Z</time></trkpt><trkpt lat="36.470426" lon="30.512386"><ele>85.156</ele><time>2022-10-15T13:28:39Z</time></trkpt><trkpt lat="36.470389" lon="30.512431"><ele>89.220</ele><time>2022-10-15T13:28:44Z</time></trkpt><trkpt lat="36.470360" lon="30.512482"><ele>90.981</ele><time>2022-10-15T13:28:49Z</time></trkpt><trkpt lat="36.470336" lon="30.512530"><ele>92.444</ele><time>2022-10-15T13:28:54Z</time></trkpt><trkpt lat="36.470310" lon="30.512580"><ele>93.505</ele><time>2022-10-15T13:28:59Z</time></trkpt><trkpt lat="36.470296" lon="30.512636"><ele>93.515</ele><time>2022-10-15T13:29:03Z</time></trkpt><trkpt lat="36.470291" lon="30.512699"><ele>93.509</ele><time>2022-10-15T13:29:08Z</time></trkpt><trkpt lat="36.470302" lon="30.512765"><ele>93.575</ele><time>2022-10-15T13:29:13Z</time></trkpt><trkpt lat="36.470348" lon="30.512811"><ele>92.665</ele><time>2022-10-15T13:29:16Z</time></trkpt><trkpt lat="36.470390" lon="30.512847"><ele>91.710</ele><time>2022-10-15T13:29:20Z</time></trkpt><trkpt lat="36.470432" lon="30.512885"><ele>91.177</ele><time>2022-10-15T13:29:24Z</time></trkpt><trkpt lat="36.470477" lon="30.512906"><ele>90.129</ele><time>2022-10-15T13:29:28Z</time></trkpt><trkpt lat="36.470531" lon="30.512917"><ele>89.885</ele><time>2022-10-15T13:29:32Z</time></trkpt><trkpt lat="36.470582" lon="30.512941"><ele>89.297</ele><time>2022-10-15T13:29:36Z</time></trkpt><trkpt lat="36.470626" lon="30.512952"><ele>89.191</ele><time>2022-10-15T13:29:39Z</time></trkpt><trkpt lat="36.470679" lon="30.512973"><ele>89.062</ele><time>2022-10-15T13:29:43Z</time></trkpt><trkpt lat="36.470716" lon="30.513008"><ele>88.742</ele><time>2022-10-15T13:29:46Z</time></trkpt><trkpt lat="36.470744" lon="30.513057"><ele>88.922</ele><time>2022-10-15T13:29:49Z</time></trkpt><trkpt lat="36.470784" lon="30.513113"><ele>88.914</ele><time>2022-10-15T13:29:53Z</time></trkpt><trkpt lat="36.470834" lon="30.513169"><ele>88.809</ele><time>2022-10-15T13:29:57Z</time></trkpt><trkpt lat="36.470877" lon="30.513229"><ele>87.915</ele><time>2022-10-15T13:30:00Z</time></trkpt><trkpt lat="36.470908" lon="30.513274"><ele>86.645</ele><time>2022-10-15T13:30:02Z</time></trkpt><trkpt lat="36.470930" lon="30.513324"><ele>85.890</ele><time>2022-10-15T13:30:04Z</time></trkpt><trkpt lat="36.470955" lon="30.513378"><ele>85.277</ele><time>2022-10-15T13:30:06Z</time></trkpt><trkpt lat="36.471006" lon="30.513433"><ele>85.099</ele><time>2022-10-15T13:30:09Z</time></trkpt><trkpt lat="36.471057" lon="30.513478"><ele>85.095</ele><time>2022-10-15T13:30:12Z</time></trkpt><trkpt lat="36.471108" lon="30.513472"><ele>84.997</ele><time>2022-10-15T13:30:14Z</time></trkpt><trkpt lat="36.471150" lon="30.513437"><ele>84.741</ele><time>2022-10-15T13:30:16Z</time></trkpt><trkpt lat="36.471177" lon="30.513368"><ele>82.682</ele><time>2022-10-15T13:30:19Z</time></trkpt><trkpt lat="36.471196" lon="30.513296"><ele>79.945</ele><time>2022-10-15T13:30:22Z</time></trkpt><trkpt lat="36.471213" lon="30.513244"><ele>78.647</ele><time>2022-10-15T13:30:24Z</time></trkpt><trkpt lat="36.471249" lon="30.513195"><ele>76.711</ele><time>2022-10-15T13:30:27Z</time></trkpt><trkpt lat="36.471294" lon="30.513142"><ele>76.509</ele><time>2022-10-15T13:30:30Z</time></trkpt><trkpt lat="36.471345" lon="30.513092"><ele>76.545</ele><time>2022-10-15T13:30:33Z</time></trkpt><trkpt lat="36.471407" lon="30.513060"><ele>76.575</ele><time>2022-10-15T13:30:36Z</time></trkpt><trkpt lat="36.471478" lon="30.513041"><ele>76.410</ele><time>2022-10-15T13:30:39Z</time></trkpt><trkpt lat="36.471521" lon="30.513022"><ele>76.487</ele><time>2022-10-15T13:30:41Z</time></trkpt><trkpt lat="36.471581" lon="30.512990"><ele>75.419</ele><time>2022-10-15T13:30:44Z</time></trkpt><trkpt lat="36.471626" lon="30.512964"><ele>74.725</ele><time>2022-10-15T13:30:46Z</time></trkpt><trkpt lat="36.471668" lon="30.512936"><ele>74.297</ele><time>2022-10-15T13:30:48Z</time></trkpt><trkpt lat="36.471703" lon="30.512900"><ele>73.651</ele><time>2022-10-15T13:30:50Z</time></trkpt><trkpt lat="36.471754" lon="30.512845"><ele>73.092</ele><time>2022-10-15T13:30:53Z</time></trkpt><trkpt lat="36.471794" lon="30.512793"><ele>71.811</ele><time>2022-10-15T13:30:56Z</time></trkpt><trkpt lat="36.471826" lon="30.512740"><ele>69.921</ele><time>2022-10-15T13:30:59Z</time></trkpt><trkpt lat="36.471859" lon="30.512702"><ele>68.503</ele><time>2022-10-15T13:31:03Z</time></trkpt><trkpt lat="36.471890" lon="30.512652"><ele>67.109</ele><time>2022-10-15T13:31:06Z</time></trkpt><trkpt lat="36.471927" lon="30.512589"><ele>63.122</ele><time>2022-10-15T13:31:10Z</time></trkpt><trkpt lat="36.471963" lon="30.512553"><ele>62.732</ele><time>2022-10-15T13:31:12Z</time></trkpt><trkpt lat="36.472000" lon="30.512517"><ele>62.417</ele><time>2022-10-15T13:31:15Z</time></trkpt><trkpt lat="36.472043" lon="30.512477"><ele>61.634</ele><time>2022-10-15T13:31:18Z</time></trkpt><trkpt lat="36.472088" lon="30.512425"><ele>60.626</ele><time>2022-10-15T13:31:22Z</time></trkpt><trkpt lat="36.472128" lon="30.512370"><ele>58.752</ele><time>2022-10-15T13:31:25Z</time></trkpt><trkpt lat="36.472164" lon="30.512323"><ele>57.414</ele><time>2022-10-15T13:31:28Z</time></trkpt><trkpt lat="36.472198" lon="30.512270"><ele>56.368</ele><time>2022-10-15T13:31:31Z</time></trkpt><trkpt lat="36.472241" lon="30.512216"><ele>55.249</ele><time>2022-10-15T13:31:35Z</time></trkpt><trkpt lat="36.472283" lon="30.512162"><ele>54.449</ele><time>2022-10-15T13:31:38Z</time></trkpt><trkpt lat="36.472314" lon="30.512104"><ele>53.302</ele><time>2022-10-15T13:31:41Z</time></trkpt><trkpt lat="36.472346" lon="30.512039"><ele>53.022</ele><time>2022-10-15T13:31:44Z</time></trkpt><trkpt lat="36.472367" lon="30.511972"><ele>52.709</ele><time>2022-10-15T13:31:47Z</time></trkpt><trkpt lat="36.472395" lon="30.511915"><ele>52.455</ele><time>2022-10-15T13:31:50Z</time></trkpt><trkpt lat="36.472443" lon="30.511857"><ele>51.715</ele><time>2022-10-15T13:31:53Z</time></trkpt><trkpt lat="36.472485" lon="30.511825"><ele>51.390</ele><time>2022-10-15T13:31:55Z</time></trkpt><trkpt lat="36.472530" lon="30.511808"><ele>50.977</ele><time>2022-10-15T13:31:57Z</time></trkpt><trkpt lat="36.472581" lon="30.511794"><ele>50.899</ele><time>2022-10-15T13:32:00Z</time></trkpt><trkpt lat="36.472639" lon="30.511777"><ele>50.875</ele><time>2022-10-15T13:32:04Z</time></trkpt><trkpt lat="36.472706" lon="30.511761"><ele>49.327</ele><time>2022-10-15T13:32:07Z</time></trkpt><trkpt lat="36.472752" lon="30.511749"><ele>48.421</ele><time>2022-10-15T13:32:09Z</time></trkpt><trkpt lat="36.472801" lon="30.511773"><ele>47.692</ele><time>2022-10-15T13:32:12Z</time></trkpt><trkpt lat="36.472827" lon="30.511842"><ele>47.474</ele><time>2022-10-15T13:32:15Z</time></trkpt><trkpt lat="36.472847" lon="30.511909"><ele>46.356</ele><time>2022-10-15T13:32:19Z</time></trkpt><trkpt lat="36.472876" lon="30.511952"><ele>46.121</ele><time>2022-10-15T13:32:21Z</time></trkpt><trkpt lat="36.472925" lon="30.512003"><ele>43.109</ele><time>2022-10-15T13:32:24Z</time></trkpt><trkpt lat="36.472985" lon="30.512031"><ele>42.728</ele><time>2022-10-15T13:32:27Z</time></trkpt><trkpt lat="36.473047" lon="30.512049"><ele>42.488</ele><time>2022-10-15T13:32:30Z</time></trkpt><trkpt lat="36.473094" lon="30.512057"><ele>42.073</ele><time>2022-10-15T13:32:32Z</time></trkpt><trkpt lat="36.473138" lon="30.512038"><ele>41.830</ele><time>2022-10-15T13:32:34Z</time></trkpt><trkpt lat="36.473191" lon="30.511995"><ele>41.332</ele><time>2022-10-15T13:32:37Z</time></trkpt><trkpt lat="36.473238" lon="30.511963"><ele>41.198</ele><time>2022-10-15T13:32:40Z</time></trkpt><trkpt lat="36.473274" lon="30.511911"><ele>41.080</ele><time>2022-10-15T13:32:43Z</time></trkpt><trkpt lat="36.473301" lon="30.511859"><ele>40.464</ele><time>2022-10-15T13:32:46Z</time></trkpt><trkpt lat="36.473349" lon="30.511810"><ele>39.435</ele><time>2022-10-15T13:32:49Z</time></trkpt><trkpt lat="36.473392" lon="30.511771"><ele>38.769</ele><time>2022-10-15T13:32:52Z</time></trkpt><trkpt lat="36.473445" lon="30.511735"><ele>38.104</ele><time>2022-10-15T13:32:55Z</time></trkpt><trkpt lat="36.473507" lon="30.511704"><ele>36.924</ele><time>2022-10-15T13:32:58Z</time></trkpt><trkpt lat="36.473561" lon="30.511665"><ele>35.009</ele><time>2022-10-15T13:33:01Z</time></trkpt><trkpt lat="36.473615" lon="30.511630"><ele>34.557</ele><time>2022-10-15T13:33:04Z</time></trkpt><trkpt lat="36.473658" lon="30.511593"><ele>34.117</ele><time>2022-10-15T13:33:06Z</time></trkpt><trkpt lat="36.473708" lon="30.511562"><ele>32.732</ele><time>2022-10-15T13:33:08Z</time></trkpt><trkpt lat="36.473757" lon="30.511532"><ele>31.769</ele><time>2022-10-15T13:33:10Z</time></trkpt><trkpt lat="36.473807" lon="30.511491"><ele>30.921</ele><time>2022-10-15T13:33:12Z</time></trkpt><trkpt lat="36.473856" lon="30.511446"><ele>30.647</ele><time>2022-10-15T13:33:14Z</time></trkpt><trkpt lat="36.473895" lon="30.511397"><ele>30.759</ele><time>2022-10-15T13:33:16Z</time></trkpt><trkpt lat="36.473936" lon="30.511340"><ele>30.373</ele><time>2022-10-15T13:33:19Z</time></trkpt><trkpt lat="36.473972" lon="30.511296"><ele>30.184</ele><time>2022-10-15T13:33:21Z</time></trkpt><trkpt lat="36.474003" lon="30.511231"><ele>29.895</ele><time>2022-10-15T13:33:24Z</time></trkpt><trkpt lat="36.474048" lon="30.511180"><ele>29.849</ele><time>2022-10-15T13:33:26Z</time></trkpt><trkpt lat="36.474083" lon="30.511119"><ele>29.823</ele><time>2022-10-15T13:33:28Z</time></trkpt><trkpt lat="36.474126" lon="30.511056"><ele>31.309</ele><time>2022-10-15T13:33:31Z</time></trkpt><trkpt lat="36.474175" lon="30.511024"><ele>31.310</ele><time>2022-10-15T13:33:34Z</time></trkpt><trkpt lat="36.474229" lon="30.511019"><ele>31.310</ele><time>2022-10-15T13:33:37Z</time></trkpt><trkpt lat="36.474283" lon="30.511015"><ele>30.355</ele><time>2022-10-15T13:33:40Z</time></trkpt><trkpt lat="36.474333" lon="30.511004"><ele>30.112</ele><time>2022-10-15T13:33:43Z</time></trkpt><trkpt lat="36.474395" lon="30.510970"><ele>29.564</ele><time>2022-10-15T13:33:46Z</time></trkpt><trkpt lat="36.474442" lon="30.510940"><ele>29.460</ele><time>2022-10-15T13:33:48Z</time></trkpt><trkpt lat="36.474476" lon="30.510895"><ele>29.312</ele><time>2022-10-15T13:33:51Z</time></trkpt><trkpt lat="36.474523" lon="30.510856"><ele>28.926</ele><time>2022-10-15T13:33:54Z</time></trkpt><trkpt lat="36.474565" lon="30.510824"><ele>28.397</ele><time>2022-10-15T13:33:56Z</time></trkpt><trkpt lat="36.474609" lon="30.510785"><ele>27.997</ele><time>2022-10-15T13:33:59Z</time></trkpt><trkpt lat="36.474656" lon="30.510733"><ele>27.723</ele><time>2022-10-15T13:34:02Z</time></trkpt><trkpt lat="36.474711" lon="30.510730"><ele>27.125</ele><time>2022-10-15T13:34:05Z</time></trkpt><trkpt lat="36.474748" lon="30.510765"><ele>26.509</ele><time>2022-10-15T13:34:07Z</time></trkpt><trkpt lat="36.474770" lon="30.510833"><ele>26.230</ele><time>2022-10-15T13:34:10Z</time></trkpt><trkpt lat="36.474782" lon="30.510919"><ele>26.240</ele><time>2022-10-15T13:34:13Z</time></trkpt><trkpt lat="36.474782" lon="30.510999"><ele>26.235</ele><time>2022-10-15T13:34:16Z</time></trkpt><trkpt lat="36.474779" lon="30.511082"><ele>27.932</ele><time>2022-10-15T13:34:19Z</time></trkpt><trkpt lat="36.474782" lon="30.511153"><ele>32.044</ele><time>2022-10-15T13:34:22Z</time></trkpt><trkpt lat="36.474768" lon="30.511223"><ele>35.820</ele><time>2022-10-15T13:34:25Z</time></trkpt><trkpt lat="36.474740" lon="30.511291"><ele>37.882</ele><time>2022-10-15T13:34:28Z</time></trkpt><trkpt lat="36.474717" lon="30.511358"><ele>39.516</ele><time>2022-10-15T13:34:32Z</time></trkpt><trkpt lat="36.474698" lon="30.511418"><ele>40.177</ele><time>2022-10-15T13:34:35Z</time></trkpt><trkpt lat="36.474684" lon="30.511478"><ele>40.961</ele><time>2022-10-15T13:34:38Z</time></trkpt><trkpt lat="36.474679" lon="30.511546"><ele>41.821</ele><time>2022-10-15T13:34:41Z</time></trkpt><trkpt lat="36.474693" lon="30.511607"><ele>42.013</ele><time>2022-10-15T13:34:46Z</time></trkpt><trkpt lat="36.474673" lon="30.511663"><ele>41.809</ele><time>2022-10-15T13:34:50Z</time></trkpt><trkpt lat="36.474671" lon="30.511719"><ele>41.427</ele><time>2022-10-15T13:34:55Z</time></trkpt><trkpt lat="36.474684" lon="30.511773"><ele>41.857</ele><time>2022-10-15T13:35:00Z</time></trkpt><trkpt lat="36.474667" lon="30.511842"><ele>42.082</ele><time>2022-10-15T13:35:05Z</time></trkpt><trkpt lat="36.474668" lon="30.511904"><ele>42.149</ele><time>2022-10-15T13:35:09Z</time></trkpt><trkpt lat="36.474668" lon="30.511966"><ele>44.571</ele><time>2022-10-15T13:35:14Z</time></trkpt><trkpt lat="36.474674" lon="30.512024"><ele>47.677</ele><time>2022-10-15T13:35:19Z</time></trkpt><trkpt lat="36.474669" lon="30.512094"><ele>49.619</ele><time>2022-10-15T13:35:24Z</time></trkpt><trkpt lat="36.474701" lon="30.512141"><ele>50.193</ele><time>2022-10-15T13:35:29Z</time></trkpt><trkpt lat="36.474744" lon="30.512161"><ele>50.594</ele><time>2022-10-15T13:35:33Z</time></trkpt><trkpt lat="36.474785" lon="30.512191"><ele>51.731</ele><time>2022-10-15T13:35:38Z</time></trkpt><trkpt lat="36.474823" lon="30.512237"><ele>52.161</ele><time>2022-10-15T13:35:43Z</time></trkpt><trkpt lat="36.474859" lon="30.512281"><ele>52.507</ele><time>2022-10-15T13:35:47Z</time></trkpt><trkpt lat="36.474894" lon="30.512350"><ele>52.509</ele><time>2022-10-15T13:35:50Z</time></trkpt><trkpt lat="36.474928" lon="30.512388"><ele>52.644</ele><time>2022-10-15T13:35:55Z</time></trkpt><trkpt lat="36.474970" lon="30.512420"><ele>54.154</ele><time>2022-10-15T13:36:01Z</time></trkpt><trkpt lat="36.475020" lon="30.512429"><ele>55.069</ele><time>2022-10-15T13:36:07Z</time></trkpt><trkpt lat="36.475069" lon="30.512423"><ele>55.966</ele><time>2022-10-15T13:36:12Z</time></trkpt><trkpt lat="36.475117" lon="30.512418"><ele>56.398</ele><time>2022-10-15T13:36:18Z</time></trkpt><trkpt lat="36.475168" lon="30.512432"><ele>56.854</ele><time>2022-10-15T13:36:24Z</time></trkpt><trkpt lat="36.475187" lon="30.512487"><ele>59.256</ele><time>2022-10-15T13:36:29Z</time></trkpt><trkpt lat="36.475180" lon="30.512551"><ele>62.480</ele><time>2022-10-15T13:36:35Z</time></trkpt><trkpt lat="36.475172" lon="30.512616"><ele>62.961</ele><time>2022-10-15T13:36:40Z</time></trkpt><trkpt lat="36.475175" lon="30.512681"><ele>63.535</ele><time>2022-10-15T13:36:45Z</time></trkpt><trkpt lat="36.475195" lon="30.512745"><ele>63.786</ele><time>2022-10-15T13:36:50Z</time></trkpt><trkpt lat="36.475209" lon="30.512801"><ele>64.114</ele><time>2022-10-15T13:36:54Z</time></trkpt><trkpt lat="36.475229" lon="30.512866"><ele>64.309</ele><time>2022-10-15T13:36:59Z</time></trkpt><trkpt lat="36.475242" lon="30.512923"><ele>64.494</ele><time>2022-10-15T13:37:03Z</time></trkpt><trkpt lat="36.475248" lon="30.512979"><ele>63.894</ele><time>2022-10-15T13:37:09Z</time></trkpt><trkpt lat="36.475254" lon="30.513045"><ele>63.979</ele><time>2022-10-15T13:37:15Z</time></trkpt><trkpt lat="36.475252" lon="30.513114"><ele>63.996</ele><time>2022-10-15T13:37:21Z</time></trkpt><trkpt lat="36.475227" lon="30.513175"><ele>64.228</ele><time>2022-10-15T13:37:26Z</time></trkpt><trkpt lat="36.475203" lon="30.513229"><ele>65.274</ele><time>2022-10-15T13:37:30Z</time></trkpt><trkpt lat="36.475174" lon="30.513280"><ele>66.836</ele><time>2022-10-15T13:37:34Z</time></trkpt><trkpt lat="36.475150" lon="30.513331"><ele>69.580</ele><time>2022-10-15T13:37:38Z</time></trkpt><trkpt lat="36.475120" lon="30.513383"><ele>73.341</ele><time>2022-10-15T13:37:43Z</time></trkpt><trkpt lat="36.475072" lon="30.513420"><ele>75.989</ele><time>2022-10-15T13:37:51Z</time></trkpt><trkpt lat="36.475016" lon="30.513445"><ele>76.206</ele><time>2022-10-15T13:37:54Z</time></trkpt><trkpt lat="36.474967" lon="30.513464"><ele>77.726</ele><time>2022-10-15T13:38:00Z</time></trkpt><trkpt lat="36.474920" lon="30.513494"><ele>78.409</ele><time>2022-10-15T13:38:05Z</time></trkpt><trkpt lat="36.474873" lon="30.513530"><ele>81.759</ele><time>2022-10-15T13:38:11Z</time></trkpt><trkpt lat="36.474843" lon="30.513573"><ele>82.229</ele><time>2022-10-15T13:38:15Z</time></trkpt><trkpt lat="36.474815" lon="30.513627"><ele>82.234</ele><time>2022-10-15T13:38:21Z</time></trkpt><trkpt lat="36.474786" lon="30.513671"><ele>82.261</ele><time>2022-10-15T13:38:26Z</time></trkpt><trkpt lat="36.474772" lon="30.513733"><ele>81.833</ele><time>2022-10-15T13:38:31Z</time></trkpt><trkpt lat="36.474761" lon="30.513795"><ele>81.329</ele><time>2022-10-15T13:38:36Z</time></trkpt><trkpt lat="36.474748" lon="30.513861"><ele>80.491</ele><time>2022-10-15T13:38:41Z</time></trkpt><trkpt lat="36.474747" lon="30.513923"><ele>79.435</ele><time>2022-10-15T13:38:45Z</time></trkpt><trkpt lat="36.474745" lon="30.513985"><ele>77.116</ele><time>2022-10-15T13:38:49Z</time></trkpt><trkpt lat="36.474740" lon="30.514047"><ele>76.066</ele><time>2022-10-15T13:38:53Z</time></trkpt><trkpt lat="36.474736" lon="30.514106"><ele>75.629</ele><time>2022-10-15T13:38:57Z</time></trkpt><trkpt lat="36.474719" lon="30.514159"><ele>75.621</ele><time>2022-10-15T13:39:01Z</time></trkpt><trkpt lat="36.474700" lon="30.514222"><ele>75.709</ele><time>2022-10-15T13:39:07Z</time></trkpt><trkpt lat="36.474700" lon="30.514283"><ele>78.137</ele><time>2022-10-15T13:39:23Z</time></trkpt><trkpt lat="36.474718" lon="30.514335"><ele>78.697</ele><time>2022-10-15T13:39:28Z</time></trkpt><trkpt lat="36.474685" lon="30.514376"><ele>78.952</ele><time>2022-10-15T13:39:39Z</time></trkpt><trkpt lat="36.474682" lon="30.514443"><ele>85.299</ele><time>2022-10-15T13:41:48Z</time></trkpt><trkpt lat="36.474703" lon="30.514501"><ele>85.521</ele><time>2022-10-15T13:41:53Z</time></trkpt><trkpt lat="36.474743" lon="30.514533"><ele>85.517</ele><time>2022-10-15T13:41:57Z</time></trkpt><trkpt lat="36.474790" lon="30.514524"><ele>85.519</ele><time>2022-10-15T13:42:00Z</time></trkpt><trkpt lat="36.474844" lon="30.514511"><ele>84.873</ele><time>2022-10-15T13:42:04Z</time></trkpt><trkpt lat="36.474892" lon="30.514481"><ele>84.584</ele><time>2022-10-15T13:42:08Z</time></trkpt><trkpt lat="36.474939" lon="30.514442"><ele>83.616</ele><time>2022-10-15T13:42:11Z</time></trkpt><trkpt lat="36.474980" lon="30.514399"><ele>83.276</ele><time>2022-10-15T13:42:15Z</time></trkpt><trkpt lat="36.475000" lon="30.514339"><ele>83.213</ele><time>2022-10-15T13:42:19Z</time></trkpt><trkpt lat="36.475020" lon="30.514282"><ele>83.909</ele><time>2022-10-15T13:42:23Z</time></trkpt><trkpt lat="36.475054" lon="30.514224"><ele>84.812</ele><time>2022-10-15T13:42:27Z</time></trkpt><trkpt lat="36.475102" lon="30.514191"><ele>86.272</ele><time>2022-10-15T13:42:32Z</time></trkpt><trkpt lat="36.475147" lon="30.514187"><ele>86.587</ele><time>2022-10-15T13:42:36Z</time></trkpt><trkpt lat="36.475198" lon="30.514191"><ele>86.884</ele><time>2022-10-15T13:42:40Z</time></trkpt><trkpt lat="36.475249" lon="30.514202"><ele>86.946</ele><time>2022-10-15T13:42:44Z</time></trkpt><trkpt lat="36.475289" lon="30.514228"><ele>87.042</ele><time>2022-10-15T13:42:48Z</time></trkpt><trkpt lat="36.475338" lon="30.514238"><ele>87.184</ele><time>2022-10-15T13:42:53Z</time></trkpt><trkpt lat="36.475391" lon="30.514260"><ele>87.518</ele><time>2022-10-15T13:42:57Z</time></trkpt><trkpt lat="36.475444" lon="30.514279"><ele>87.759</ele><time>2022-10-15T13:43:01Z</time></trkpt><trkpt lat="36.475491" lon="30.514296"><ele>88.445</ele><time>2022-10-15T13:43:05Z</time></trkpt><trkpt lat="36.475546" lon="30.514294"><ele>90.447</ele><time>2022-10-15T13:43:09Z</time></trkpt><trkpt lat="36.475596" lon="30.514283"><ele>90.611</ele><time>2022-10-15T13:43:13Z</time></trkpt><trkpt lat="36.475642" lon="30.514288"><ele>91.209</ele><time>2022-10-15T13:43:16Z</time></trkpt><trkpt lat="36.475688" lon="30.514288"><ele>91.355</ele><time>2022-10-15T13:43:19Z</time></trkpt><trkpt lat="36.475734" lon="30.514295"><ele>91.475</ele><time>2022-10-15T13:43:22Z</time></trkpt><trkpt lat="36.475786" lon="30.514326"><ele>92.820</ele><time>2022-10-15T13:43:26Z</time></trkpt><trkpt lat="36.475827" lon="30.514369"><ele>94.317</ele><time>2022-10-15T13:43:29Z</time></trkpt><trkpt lat="36.475854" lon="30.514416"><ele>95.189</ele><time>2022-10-15T13:43:32Z</time></trkpt><trkpt lat="36.475879" lon="30.514471"><ele>95.445</ele><time>2022-10-15T13:43:35Z</time></trkpt><trkpt lat="36.475895" lon="30.514528"><ele>96.147</ele><time>2022-10-15T13:43:37Z</time></trkpt><trkpt lat="36.475902" lon="30.514589"><ele>96.361</ele><time>2022-10-15T13:43:39Z</time></trkpt><trkpt lat="36.475911" lon="30.514652"><ele>96.232</ele><time>2022-10-15T13:43:41Z</time></trkpt><trkpt lat="36.475924" lon="30.514707"><ele>96.131</ele><time>2022-10-15T13:43:43Z</time></trkpt><trkpt lat="36.475937" lon="30.514765"><ele>96.261</ele><time>2022-10-15T13:43:45Z</time></trkpt><trkpt lat="36.475959" lon="30.514818"><ele>97.207</ele><time>2022-10-15T13:43:47Z</time></trkpt><trkpt lat="36.475983" lon="30.514872"><ele>97.809</ele><time>2022-10-15T13:43:49Z</time></trkpt><trkpt lat="36.476024" lon="30.514929"><ele>97.884</ele><time>2022-10-15T13:43:52Z</time></trkpt><trkpt lat="36.476064" lon="30.514979"><ele>97.784</ele><time>2022-10-15T13:43:55Z</time></trkpt><trkpt lat="36.476113" lon="30.515008"><ele>96.559</ele><time>2022-10-15T13:43:58Z</time></trkpt><trkpt lat="36.476167" lon="30.514992"><ele>95.816</ele><time>2022-10-15T13:44:01Z</time></trkpt><trkpt lat="36.476229" lon="30.515003"><ele>94.318</ele><time>2022-10-15T13:44:04Z</time></trkpt><trkpt lat="36.476281" lon="30.515015"><ele>91.614</ele><time>2022-10-15T13:44:06Z</time></trkpt><trkpt lat="36.476330" lon="30.515029"><ele>89.296</ele><time>2022-10-15T13:44:08Z</time></trkpt><trkpt lat="36.476388" lon="30.515041"><ele>88.110</ele><time>2022-10-15T13:44:11Z</time></trkpt><trkpt lat="36.476452" lon="30.515049"><ele>85.131</ele><time>2022-10-15T13:44:14Z</time></trkpt><trkpt lat="36.476497" lon="30.515054"><ele>83.598</ele><time>2022-10-15T13:44:16Z</time></trkpt><trkpt lat="36.476555" lon="30.515062"><ele>82.515</ele><time>2022-10-15T13:44:20Z</time></trkpt><trkpt lat="36.476629" lon="30.515076"><ele>81.926</ele><time>2022-10-15T13:44:23Z</time></trkpt><trkpt lat="36.476687" lon="30.515091"><ele>79.709</ele><time>2022-10-15T13:44:26Z</time></trkpt><trkpt lat="36.476737" lon="30.515127"><ele>78.460</ele><time>2022-10-15T13:44:30Z</time></trkpt><trkpt lat="36.476789" lon="30.515171"><ele>77.710</ele><time>2022-10-15T13:44:33Z</time></trkpt><trkpt lat="36.476821" lon="30.515225"><ele>75.615</ele><time>2022-10-15T13:44:37Z</time></trkpt><trkpt lat="36.476854" lon="30.515267"><ele>75.422</ele><time>2022-10-15T13:44:40Z</time></trkpt><trkpt lat="36.476898" lon="30.515312"><ele>74.584</ele><time>2022-10-15T13:44:43Z</time></trkpt><trkpt lat="36.476937" lon="30.515368"><ele>73.480</ele><time>2022-10-15T13:44:46Z</time></trkpt><trkpt lat="36.476986" lon="30.515432"><ele>72.392</ele><time>2022-10-15T13:44:49Z</time></trkpt><trkpt lat="36.477004" lon="30.515505"><ele>71.716</ele><time>2022-10-15T13:44:52Z</time></trkpt><trkpt lat="36.477001" lon="30.515591"><ele>71.317</ele><time>2022-10-15T13:44:55Z</time></trkpt><trkpt lat="36.476988" lon="30.515650"><ele>71.224</ele><time>2022-10-15T13:44:57Z</time></trkpt><trkpt lat="36.476979" lon="30.515711"><ele>70.804</ele><time>2022-10-15T13:45:00Z</time></trkpt><trkpt lat="36.477028" lon="30.515733"><ele>70.314</ele><time>2022-10-15T13:45:03Z</time></trkpt><trkpt lat="36.477089" lon="30.515700"><ele>69.709</ele><time>2022-10-15T13:45:06Z</time></trkpt><trkpt lat="36.477127" lon="30.515644"><ele>67.843</ele><time>2022-10-15T13:45:09Z</time></trkpt><trkpt lat="36.477140" lon="30.515582"><ele>66.643</ele><time>2022-10-15T13:45:11Z</time></trkpt><trkpt lat="36.477151" lon="30.515524"><ele>63.638</ele><time>2022-10-15T13:45:14Z</time></trkpt><trkpt lat="36.477157" lon="30.515458"><ele>62.525</ele><time>2022-10-15T13:45:17Z</time></trkpt><trkpt lat="36.477166" lon="30.515376"><ele>61.087</ele><time>2022-10-15T13:45:20Z</time></trkpt><trkpt lat="36.477169" lon="30.515300"><ele>60.443</ele><time>2022-10-15T13:45:24Z</time></trkpt><trkpt lat="36.477176" lon="30.515230"><ele>59.895</ele><time>2022-10-15T13:45:27Z</time></trkpt><trkpt lat="36.477176" lon="30.515157"><ele>59.349</ele><time>2022-10-15T13:45:30Z</time></trkpt><trkpt lat="36.477174" lon="30.515101"><ele>58.020</ele><time>2022-10-15T13:45:33Z</time></trkpt><trkpt lat="36.477175" lon="30.515041"><ele>57.192</ele><time>2022-10-15T13:45:36Z</time></trkpt><trkpt lat="36.477166" lon="30.514981"><ele>55.773</ele><time>2022-10-15T13:45:39Z</time></trkpt><trkpt lat="36.477152" lon="30.514921"><ele>53.120</ele><time>2022-10-15T13:45:42Z</time></trkpt><trkpt lat="36.477117" lon="30.514867"><ele>52.309</ele><time>2022-10-15T13:45:45Z</time></trkpt><trkpt lat="36.477085" lon="30.514817"><ele>50.180</ele><time>2022-10-15T13:45:48Z</time></trkpt><trkpt lat="36.477051" lon="30.514755"><ele>49.590</ele><time>2022-10-15T13:45:51Z</time></trkpt><trkpt lat="36.477038" lon="30.514687"><ele>49.435</ele><time>2022-10-15T13:45:53Z</time></trkpt><trkpt lat="36.477041" lon="30.514620"><ele>49.082</ele><time>2022-10-15T13:45:55Z</time></trkpt><trkpt lat="36.477070" lon="30.514568"><ele>48.794</ele><time>2022-10-15T13:45:57Z</time></trkpt><trkpt lat="36.477124" lon="30.514550"><ele>49.040</ele><time>2022-10-15T13:46:00Z</time></trkpt><trkpt lat="36.477184" lon="30.514549"><ele>49.042</ele><time>2022-10-15T13:46:03Z</time></trkpt><trkpt lat="36.477238" lon="30.514546"><ele>47.566</ele><time>2022-10-15T13:46:06Z</time></trkpt><trkpt lat="36.477297" lon="30.514543"><ele>47.057</ele><time>2022-10-15T13:46:09Z</time></trkpt><trkpt lat="36.477349" lon="30.514530"><ele>45.414</ele><time>2022-10-15T13:46:13Z</time></trkpt><trkpt lat="36.477398" lon="30.514522"><ele>44.854</ele><time>2022-10-15T13:46:16Z</time></trkpt><trkpt lat="36.477450" lon="30.514520"><ele>43.009</ele><time>2022-10-15T13:46:19Z</time></trkpt><trkpt lat="36.477489" lon="30.514576"><ele>42.609</ele><time>2022-10-15T13:46:23Z</time></trkpt><trkpt lat="36.477502" lon="30.514631"><ele>42.462</ele><time>2022-10-15T13:46:26Z</time></trkpt><trkpt lat="36.477531" lon="30.514698"><ele>41.222</ele><time>2022-10-15T13:46:29Z</time></trkpt><trkpt lat="36.477574" lon="30.514760"><ele>39.577</ele><time>2022-10-15T13:46:32Z</time></trkpt><trkpt lat="36.477605" lon="30.514822"><ele>36.984</ele><time>2022-10-15T13:46:35Z</time></trkpt><trkpt lat="36.477642" lon="30.514886"><ele>36.316</ele><time>2022-10-15T13:46:38Z</time></trkpt><trkpt lat="36.477681" lon="30.514921"><ele>36.292</ele><time>2022-10-15T13:46:40Z</time></trkpt><trkpt lat="36.477744" lon="30.514945"><ele>36.144</ele><time>2022-10-15T13:46:43Z</time></trkpt><trkpt lat="36.477790" lon="30.514966"><ele>36.388</ele><time>2022-10-15T13:46:45Z</time></trkpt><trkpt lat="36.477850" lon="30.514993"><ele>36.579</ele><time>2022-10-15T13:46:48Z</time></trkpt><trkpt lat="36.477904" lon="30.515015"><ele>36.331</ele><time>2022-10-15T13:46:51Z</time></trkpt><trkpt lat="36.477959" lon="30.515028"><ele>36.261</ele><time>2022-10-15T13:46:54Z</time></trkpt><trkpt lat="36.478003" lon="30.515055"><ele>35.007</ele><time>2022-10-15T13:46:57Z</time></trkpt><trkpt lat="36.478053" lon="30.515096"><ele>34.609</ele><time>2022-10-15T13:47:00Z</time></trkpt><trkpt lat="36.478093" lon="30.515151"><ele>33.174</ele><time>2022-10-15T13:47:03Z</time></trkpt><trkpt lat="36.478135" lon="30.515206"><ele>32.584</ele><time>2022-10-15T13:47:06Z</time></trkpt><trkpt lat="36.478174" lon="30.515258"><ele>32.589</ele><time>2022-10-15T13:47:09Z</time></trkpt><trkpt lat="36.478211" lon="30.515296"><ele>32.456</ele><time>2022-10-15T13:47:12Z</time></trkpt><trkpt lat="36.478255" lon="30.515347"><ele>32.468</ele><time>2022-10-15T13:47:16Z</time></trkpt><trkpt lat="36.478301" lon="30.515360"><ele>32.114</ele><time>2022-10-15T13:47:19Z</time></trkpt><trkpt lat="36.478345" lon="30.515349"><ele>31.536</ele><time>2022-10-15T13:47:22Z</time></trkpt><trkpt lat="36.478395" lon="30.515353"><ele>30.420</ele><time>2022-10-15T13:47:25Z</time></trkpt><trkpt lat="36.478461" lon="30.515368"><ele>28.931</ele><time>2022-10-15T13:47:28Z</time></trkpt><trkpt lat="36.478509" lon="30.515378"><ele>26.893</ele><time>2022-10-15T13:47:30Z</time></trkpt><trkpt lat="36.478561" lon="30.515404"><ele>25.865</ele><time>2022-10-15T13:47:33Z</time></trkpt><trkpt lat="36.478622" lon="30.515430"><ele>24.021</ele><time>2022-10-15T13:47:36Z</time></trkpt><trkpt lat="36.478681" lon="30.515441"><ele>23.309</ele><time>2022-10-15T13:47:39Z</time></trkpt><trkpt lat="36.478733" lon="30.515437"><ele>23.180</ele><time>2022-10-15T13:47:42Z</time></trkpt><trkpt lat="36.478787" lon="30.515448"><ele>21.230</ele><time>2022-10-15T13:47:45Z</time></trkpt><trkpt lat="36.478831" lon="30.515465"><ele>20.475</ele><time>2022-10-15T13:47:47Z</time></trkpt><trkpt lat="36.478892" lon="30.515477"><ele>17.362</ele><time>2022-10-15T13:47:50Z</time></trkpt><trkpt lat="36.478955" lon="30.515492"><ele>17.254</ele><time>2022-10-15T13:47:53Z</time></trkpt><trkpt lat="36.479003" lon="30.515486"><ele>17.030</ele><time>2022-10-15T13:47:56Z</time></trkpt><trkpt lat="36.479054" lon="30.515485"><ele>16.782</ele><time>2022-10-15T13:47:59Z</time></trkpt><trkpt lat="36.479097" lon="30.515464"><ele>16.716</ele><time>2022-10-15T13:48:03Z</time></trkpt><trkpt lat="36.479135" lon="30.515429"><ele>16.797</ele><time>2022-10-15T13:48:06Z</time></trkpt><trkpt lat="36.479171" lon="30.515384"><ele>15.931</ele><time>2022-10-15T13:48:10Z</time></trkpt><trkpt lat="36.479209" lon="30.515332"><ele>15.261</ele><time>2022-10-15T13:48:15Z</time></trkpt><trkpt lat="36.479241" lon="30.515281"><ele>14.907</ele><time>2022-10-15T13:48:19Z</time></trkpt><trkpt lat="36.479285" lon="30.515241"><ele>14.009</ele><time>2022-10-15T13:48:23Z</time></trkpt><trkpt lat="36.479339" lon="30.515218"><ele>13.014</ele><time>2022-10-15T13:48:27Z</time></trkpt><trkpt lat="36.479391" lon="30.515218"><ele>12.454</ele><time>2022-10-15T13:48:31Z</time></trkpt><trkpt lat="36.479434" lon="30.515234"><ele>12.259</ele><time>2022-10-15T13:48:36Z</time></trkpt><trkpt lat="36.479386" lon="30.515246"><ele>11.966</ele><time>2022-10-15T13:48:54Z</time></trkpt><trkpt lat="36.479437" lon="30.515252"><ele>12.498</ele><time>2022-10-15T13:49:17Z</time></trkpt><trkpt lat="36.479489" lon="30.515237"><ele>12.544</ele><time>2022-10-15T13:49:22Z</time></trkpt><trkpt lat="36.479514" lon="30.515181"><ele>14.236</ele><time>2022-10-15T13:50:58Z</time></trkpt><trkpt lat="36.479534" lon="30.515126"><ele>14.370</ele><time>2022-10-15T13:51:04Z</time></trkpt><trkpt lat="36.479516" lon="30.515189"><ele>14.361</ele><time>2022-10-15T13:51:10Z</time></trkpt><trkpt lat="36.479542" lon="30.515139"><ele>16.333</ele><time>2022-10-15T13:51:26Z</time></trkpt><trkpt lat="36.479531" lon="30.515083"><ele>16.523</ele><time>2022-10-15T13:51:30Z</time></trkpt><trkpt lat="36.479542" lon="30.515016"><ele>16.415</ele><time>2022-10-15T13:51:34Z</time></trkpt><trkpt lat="36.479546" lon="30.514954"><ele>16.409</ele><time>2022-10-15T13:51:38Z</time></trkpt><trkpt lat="36.479549" lon="30.514884"><ele>16.474</ele><time>2022-10-15T13:51:43Z</time></trkpt><trkpt lat="36.479537" lon="30.514824"><ele>16.564</ele><time>2022-10-15T13:51:47Z</time></trkpt><trkpt lat="36.479535" lon="30.514754"><ele>16.399</ele><time>2022-10-15T13:51:52Z</time></trkpt><trkpt lat="36.479547" lon="30.514689"><ele>16.376</ele><time>2022-10-15T13:51:57Z</time></trkpt><trkpt lat="36.479571" lon="30.514634"><ele>16.338</ele><time>2022-10-15T13:52:02Z</time></trkpt><trkpt lat="36.479600" lon="30.514586"><ele>16.364</ele><time>2022-10-15T13:52:06Z</time></trkpt><trkpt lat="36.479613" lon="30.514519"><ele>16.146</ele><time>2022-10-15T13:52:10Z</time></trkpt><trkpt lat="36.479657" lon="30.514474"><ele>15.540</ele><time>2022-10-15T13:52:14Z</time></trkpt><trkpt lat="36.479695" lon="30.514434"><ele>15.691</ele><time>2022-10-15T13:52:18Z</time></trkpt><trkpt lat="36.479741" lon="30.514404"><ele>15.672</ele><time>2022-10-15T13:52:23Z</time></trkpt><trkpt lat="36.479782" lon="30.514378"><ele>18.213</ele><time>2022-10-15T13:52:28Z</time></trkpt><trkpt lat="36.479820" lon="30.514343"><ele>20.114</ele><time>2022-10-15T13:52:33Z</time></trkpt><trkpt lat="36.479858" lon="30.514309"><ele>19.509</ele><time>2022-10-15T13:52:38Z</time></trkpt><trkpt lat="36.479886" lon="30.514253"><ele>19.518</ele><time>2022-10-15T13:52:43Z</time></trkpt><trkpt lat="36.479918" lon="30.514203"><ele>19.278</ele><time>2022-10-15T13:52:48Z</time></trkpt><trkpt lat="36.479948" lon="30.514156"><ele>19.193</ele><time>2022-10-15T13:52:52Z</time></trkpt><trkpt lat="36.479982" lon="30.514114"><ele>19.130</ele><time>2022-10-15T13:52:56Z</time></trkpt><trkpt lat="36.480044" lon="30.514096"><ele>19.682</ele><time>2022-10-15T13:52:59Z</time></trkpt><trkpt lat="36.480097" lon="30.514090"><ele>21.198</ele><time>2022-10-15T13:53:02Z</time></trkpt><trkpt lat="36.480146" lon="30.514118"><ele>27.660</ele><time>2022-10-15T13:53:08Z</time></trkpt><trkpt lat="36.480183" lon="30.514152"><ele>30.354</ele><time>2022-10-15T13:53:12Z</time></trkpt><trkpt lat="36.480207" lon="30.514205"><ele>30.315</ele><time>2022-10-15T13:53:17Z</time></trkpt><trkpt lat="36.480229" lon="30.514255"><ele>30.285</ele><time>2022-10-15T13:53:22Z</time></trkpt><trkpt lat="36.480264" lon="30.514298"><ele>29.989</ele><time>2022-10-15T13:53:27Z</time></trkpt><trkpt lat="36.480304" lon="30.514331"><ele>30.017</ele><time>2022-10-15T13:53:32Z</time></trkpt><trkpt lat="36.480337" lon="30.514375"><ele>30.109</ele><time>2022-10-15T13:53:38Z</time></trkpt><trkpt lat="36.480358" lon="30.514432"><ele>31.559</ele><time>2022-10-15T13:53:43Z</time></trkpt><trkpt lat="36.480390" lon="30.514485"><ele>36.349</ele><time>2022-10-15T13:53:48Z</time></trkpt><trkpt lat="36.480406" lon="30.514541"><ele>36.494</ele><time>2022-10-15T13:53:52Z</time></trkpt><trkpt lat="36.480418" lon="30.514605"><ele>36.731</ele><time>2022-10-15T13:53:57Z</time></trkpt><trkpt lat="36.480423" lon="30.514663"><ele>36.953</ele><time>2022-10-15T13:54:01Z</time></trkpt><trkpt lat="36.480437" lon="30.514728"><ele>36.939</ele><time>2022-10-15T13:54:05Z</time></trkpt><trkpt lat="36.480449" lon="30.514783"><ele>37.351</ele><time>2022-10-15T13:54:09Z</time></trkpt><trkpt lat="36.480464" lon="30.514847"><ele>37.585</ele><time>2022-10-15T13:54:15Z</time></trkpt><trkpt lat="36.480473" lon="30.514903"><ele>37.526</ele><time>2022-10-15T13:54:20Z</time></trkpt><trkpt lat="36.480491" lon="30.514970"><ele>37.698</ele><time>2022-10-15T13:54:24Z</time></trkpt><trkpt lat="36.480504" lon="30.515023"><ele>36.115</ele><time>2022-10-15T13:54:28Z</time></trkpt><trkpt lat="36.480523" lon="30.515082"><ele>35.326</ele><time>2022-10-15T13:54:33Z</time></trkpt><trkpt lat="36.480547" lon="30.515140"><ele>35.209</ele><time>2022-10-15T13:54:38Z</time></trkpt><trkpt lat="36.480571" lon="30.515197"><ele>35.040</ele><time>2022-10-15T13:54:43Z</time></trkpt><trkpt lat="36.480613" lon="30.515253"><ele>35.140</ele><time>2022-10-15T13:54:47Z</time></trkpt><trkpt lat="36.480655" lon="30.515295"><ele>35.285</ele><time>2022-10-15T13:54:51Z</time></trkpt><trkpt lat="36.480688" lon="30.515336"><ele>36.832</ele><time>2022-10-15T13:54:55Z</time></trkpt><trkpt lat="36.480724" lon="30.515373"><ele>38.524</ele><time>2022-10-15T13:54:59Z</time></trkpt><trkpt lat="36.480768" lon="30.515414"><ele>39.210</ele><time>2022-10-15T13:55:03Z</time></trkpt><trkpt lat="36.480809" lon="30.515439"><ele>40.162</ele><time>2022-10-15T13:55:07Z</time></trkpt><trkpt lat="36.480850" lon="30.515480"><ele>41.836</ele><time>2022-10-15T13:55:12Z</time></trkpt><trkpt lat="36.480889" lon="30.515514"><ele>42.767</ele><time>2022-10-15T13:55:15Z</time></trkpt><trkpt lat="36.480931" lon="30.515547"><ele>43.487</ele><time>2022-10-15T13:55:19Z</time></trkpt><trkpt lat="36.480973" lon="30.515574"><ele>45.942</ele><time>2022-10-15T13:55:23Z</time></trkpt><trkpt lat="36.481013" lon="30.515620"><ele>46.426</ele><time>2022-10-15T13:55:28Z</time></trkpt><trkpt lat="36.481049" lon="30.515654"><ele>47.009</ele><time>2022-10-15T13:55:32Z</time></trkpt><trkpt lat="36.481097" lon="30.515682"><ele>47.389</ele><time>2022-10-15T13:55:37Z</time></trkpt><trkpt lat="36.481151" lon="30.515697"><ele>47.259</ele><time>2022-10-15T13:55:42Z</time></trkpt><trkpt lat="36.481191" lon="30.515725"><ele>47.274</ele><time>2022-10-15T13:55:45Z</time></trkpt><trkpt lat="36.481246" lon="30.515746"><ele>46.931</ele><time>2022-10-15T13:55:49Z</time></trkpt><trkpt lat="36.481291" lon="30.515771"><ele>46.843</ele><time>2022-10-15T13:55:52Z</time></trkpt><trkpt lat="36.481345" lon="30.515793"><ele>46.089</ele><time>2022-10-15T13:55:56Z</time></trkpt><trkpt lat="36.481394" lon="30.515793"><ele>44.081</ele><time>2022-10-15T13:55:59Z</time></trkpt><trkpt lat="36.481445" lon="30.515793"><ele>43.265</ele><time>2022-10-15T13:56:03Z</time></trkpt><trkpt lat="36.481503" lon="30.515795"><ele>42.916</ele><time>2022-10-15T13:56:08Z</time></trkpt><trkpt lat="36.481559" lon="30.515791"><ele>42.636</ele><time>2022-10-15T13:56:12Z</time></trkpt><trkpt lat="36.481612" lon="30.515773"><ele>42.117</ele><time>2022-10-15T13:56:16Z</time></trkpt><trkpt lat="36.481665" lon="30.515773"><ele>41.618</ele><time>2022-10-15T13:56:20Z</time></trkpt><trkpt lat="36.481716" lon="30.515783"><ele>40.609</ele><time>2022-10-15T13:56:24Z</time></trkpt><trkpt lat="36.481761" lon="30.515795"><ele>39.524</ele><time>2022-10-15T13:56:27Z</time></trkpt><trkpt lat="36.481812" lon="30.515789"><ele>39.524</ele><time>2022-10-15T13:56:30Z</time></trkpt><trkpt lat="36.481866" lon="30.515799"><ele>39.469</ele><time>2022-10-15T13:56:34Z</time></trkpt><trkpt lat="36.481912" lon="30.515806"><ele>39.736</ele><time>2022-10-15T13:56:37Z</time></trkpt><trkpt lat="36.481967" lon="30.515810"><ele>39.848</ele><time>2022-10-15T13:56:41Z</time></trkpt><trkpt lat="36.482019" lon="30.515812"><ele>39.924</ele><time>2022-10-15T13:56:45Z</time></trkpt><trkpt lat="36.482072" lon="30.515819"><ele>40.096</ele><time>2022-10-15T13:56:49Z</time></trkpt><trkpt lat="36.482126" lon="30.515819"><ele>40.080</ele><time>2022-10-15T13:56:53Z</time></trkpt><trkpt lat="36.482178" lon="30.515823"><ele>40.091</ele><time>2022-10-15T13:56:57Z</time></trkpt><trkpt lat="36.482228" lon="30.515830"><ele>40.852</ele><time>2022-10-15T13:57:01Z</time></trkpt><trkpt lat="36.482286" lon="30.515833"><ele>40.853</ele><time>2022-10-15T13:57:05Z</time></trkpt><trkpt lat="36.482337" lon="30.515828"><ele>41.108</ele><time>2022-10-15T13:57:09Z</time></trkpt><trkpt lat="36.482389" lon="30.515826"><ele>41.209</ele><time>2022-10-15T13:57:14Z</time></trkpt><trkpt lat="36.482435" lon="30.515817"><ele>41.846</ele><time>2022-10-15T13:57:18Z</time></trkpt><trkpt lat="36.482480" lon="30.515803"><ele>42.066</ele><time>2022-10-15T13:57:21Z</time></trkpt><trkpt lat="36.482525" lon="30.515792"><ele>43.691</ele><time>2022-10-15T13:57:24Z</time></trkpt><trkpt lat="36.482577" lon="30.515780"><ele>44.098</ele><time>2022-10-15T13:57:28Z</time></trkpt><trkpt lat="36.482627" lon="30.515797"><ele>45.440</ele><time>2022-10-15T13:57:33Z</time></trkpt><trkpt lat="36.482676" lon="30.515815"><ele>46.286</ele><time>2022-10-15T13:57:37Z</time></trkpt><trkpt lat="36.482715" lon="30.515845"><ele>47.248</ele><time>2022-10-15T13:57:41Z</time></trkpt><trkpt lat="36.482751" lon="30.515881"><ele>47.552</ele><time>2022-10-15T13:57:45Z</time></trkpt><trkpt lat="36.482786" lon="30.515923"><ele>48.293</ele><time>2022-10-15T13:57:49Z</time></trkpt><trkpt lat="36.482835" lon="30.515953"><ele>48.534</ele><time>2022-10-15T13:57:53Z</time></trkpt><trkpt lat="36.482880" lon="30.515980"><ele>49.155</ele><time>2022-10-15T13:57:57Z</time></trkpt><trkpt lat="36.482932" lon="30.516002"><ele>49.610</ele><time>2022-10-15T13:58:01Z</time></trkpt><trkpt lat="36.482984" lon="30.516012"><ele>50.309</ele><time>2022-10-15T13:58:05Z</time></trkpt><trkpt lat="36.483029" lon="30.516040"><ele>51.244</ele><time>2022-10-15T13:58:09Z</time></trkpt><trkpt lat="36.483082" lon="30.516058"><ele>51.774</ele><time>2022-10-15T13:58:13Z</time></trkpt><trkpt lat="36.483136" lon="30.516071"><ele>52.159</ele><time>2022-10-15T13:58:17Z</time></trkpt><trkpt lat="36.483181" lon="30.516094"><ele>52.566</ele><time>2022-10-15T13:58:21Z</time></trkpt><trkpt lat="36.483228" lon="30.516133"><ele>53.268</ele><time>2022-10-15T13:58:25Z</time></trkpt><trkpt lat="36.483273" lon="30.516152"><ele>54.434</ele><time>2022-10-15T13:58:29Z</time></trkpt><trkpt lat="36.483322" lon="30.516180"><ele>54.646</ele><time>2022-10-15T13:58:33Z</time></trkpt><trkpt lat="36.483372" lon="30.516203"><ele>55.410</ele><time>2022-10-15T13:58:37Z</time></trkpt><trkpt lat="36.483422" lon="30.516228"><ele>55.521</ele><time>2022-10-15T13:58:41Z</time></trkpt><trkpt lat="36.483466" lon="30.516264"><ele>55.587</ele><time>2022-10-15T13:58:45Z</time></trkpt><trkpt lat="36.483518" lon="30.516292"><ele>55.542</ele><time>2022-10-15T13:58:50Z</time></trkpt><trkpt lat="36.483563" lon="30.516321"><ele>55.526</ele><time>2022-10-15T13:58:54Z</time></trkpt><trkpt lat="36.483616" lon="30.516342"><ele>55.709</ele><time>2022-10-15T13:58:58Z</time></trkpt><trkpt lat="36.483666" lon="30.516376"><ele>56.389</ele><time>2022-10-15T13:59:02Z</time></trkpt><trkpt lat="36.483718" lon="30.516396"><ele>56.329</ele><time>2022-10-15T13:59:06Z</time></trkpt><trkpt lat="36.483773" lon="30.516410"><ele>56.574</ele><time>2022-10-15T13:59:10Z</time></trkpt><trkpt lat="36.483828" lon="30.516412"><ele>56.341</ele><time>2022-10-15T13:59:15Z</time></trkpt><trkpt lat="36.483883" lon="30.516413"><ele>55.813</ele><time>2022-10-15T13:59:19Z</time></trkpt><trkpt lat="36.483933" lon="30.516404"><ele>55.619</ele><time>2022-10-15T13:59:23Z</time></trkpt><trkpt lat="36.483987" lon="30.516416"><ele>55.411</ele><time>2022-10-15T13:59:27Z</time></trkpt><trkpt lat="36.484045" lon="30.516414"><ele>55.085</ele><time>2022-10-15T13:59:31Z</time></trkpt><trkpt lat="36.484090" lon="30.516414"><ele>54.876</ele><time>2022-10-15T13:59:34Z</time></trkpt><trkpt lat="36.484138" lon="30.516415"><ele>54.353</ele><time>2022-10-15T13:59:37Z</time></trkpt><trkpt lat="36.484189" lon="30.516412"><ele>53.504</ele><time>2022-10-15T13:59:40Z</time></trkpt><trkpt lat="36.484239" lon="30.516420"><ele>53.114</ele><time>2022-10-15T13:59:44Z</time></trkpt><trkpt lat="36.484284" lon="30.516421"><ele>53.009</ele><time>2022-10-15T13:59:47Z</time></trkpt><trkpt lat="36.484336" lon="30.516418"><ele>52.966</ele><time>2022-10-15T13:59:51Z</time></trkpt><trkpt lat="36.484383" lon="30.516412"><ele>52.616</ele><time>2022-10-15T13:59:54Z</time></trkpt><trkpt lat="36.484430" lon="30.516411"><ele>52.581</ele><time>2022-10-15T13:59:57Z</time></trkpt><trkpt lat="36.484484" lon="30.516419"><ele>52.388</ele><time>2022-10-15T14:00:01Z</time></trkpt><trkpt lat="36.484536" lon="30.516436"><ele>51.650</ele><time>2022-10-15T14:00:05Z</time></trkpt><trkpt lat="36.484581" lon="30.516465"><ele>51.556</ele><time>2022-10-15T14:00:08Z</time></trkpt><trkpt lat="36.484599" lon="30.516532"><ele>50.888</ele><time>2022-10-15T14:00:12Z</time></trkpt><trkpt lat="36.484582" lon="30.516600"><ele>50.882</ele><time>2022-10-15T14:00:16Z</time></trkpt><trkpt lat="36.484556" lon="30.516656"><ele>50.893</ele><time>2022-10-15T14:00:20Z</time></trkpt><trkpt lat="36.484542" lon="30.516711"><ele>51.495</ele><time>2022-10-15T14:00:23Z</time></trkpt><trkpt lat="36.484523" lon="30.516763"><ele>52.649</ele><time>2022-10-15T14:00:27Z</time></trkpt><trkpt lat="36.484516" lon="30.516820"><ele>53.323</ele><time>2022-10-15T14:00:31Z</time></trkpt><trkpt lat="36.484506" lon="30.516876"><ele>54.209</ele><time>2022-10-15T14:00:35Z</time></trkpt><trkpt lat="36.484501" lon="30.516938"><ele>54.530</ele><time>2022-10-15T14:00:40Z</time></trkpt><trkpt lat="36.484551" lon="30.516961"><ele>55.160</ele><time>2022-10-15T14:00:46Z</time></trkpt><trkpt lat="36.484604" lon="30.516974"><ele>56.075</ele><time>2022-10-15T14:00:51Z</time></trkpt><trkpt lat="36.484653" lon="30.516990"><ele>56.242</ele><time>2022-10-15T14:00:55Z</time></trkpt><trkpt lat="36.484706" lon="30.516988"><ele>56.434</ele><time>2022-10-15T14:00:59Z</time></trkpt><trkpt lat="36.484753" lon="30.516977"><ele>56.360</ele><time>2022-10-15T14:01:03Z</time></trkpt><trkpt lat="36.484797" lon="30.516958"><ele>56.052</ele><time>2022-10-15T14:01:07Z</time></trkpt><trkpt lat="36.484848" lon="30.516966"><ele>55.876</ele><time>2022-10-15T14:01:11Z</time></trkpt><trkpt lat="36.484894" lon="30.516987"><ele>56.487</ele><time>2022-10-15T14:01:15Z</time></trkpt><trkpt lat="36.484938" lon="30.517012"><ele>56.444</ele><time>2022-10-15T14:01:19Z</time></trkpt><trkpt lat="36.484987" lon="30.517035"><ele>56.805</ele><time>2022-10-15T14:01:23Z</time></trkpt><trkpt lat="36.485035" lon="30.517062"><ele>57.915</ele><time>2022-10-15T14:01:27Z</time></trkpt><trkpt lat="36.485083" lon="30.517085"><ele>58.409</ele><time>2022-10-15T14:01:31Z</time></trkpt><trkpt lat="36.485131" lon="30.517108"><ele>58.765</ele><time>2022-10-15T14:01:35Z</time></trkpt><trkpt lat="36.485179" lon="30.517121"><ele>58.785</ele><time>2022-10-15T14:01:39Z</time></trkpt><trkpt lat="36.485234" lon="30.517144"><ele>58.960</ele><time>2022-10-15T14:01:43Z</time></trkpt><trkpt lat="36.485291" lon="30.517158"><ele>58.817</ele><time>2022-10-15T14:01:47Z</time></trkpt><trkpt lat="36.485339" lon="30.517164"><ele>58.879</ele><time>2022-10-15T14:01:51Z</time></trkpt><trkpt lat="36.485386" lon="30.517172"><ele>58.825</ele><time>2022-10-15T14:01:54Z</time></trkpt><trkpt lat="36.485431" lon="30.517179"><ele>59.077</ele><time>2022-10-15T14:01:57Z</time></trkpt><trkpt lat="36.485481" lon="30.517188"><ele>59.251</ele><time>2022-10-15T14:02:01Z</time></trkpt><trkpt lat="36.485538" lon="30.517198"><ele>60.372</ele><time>2022-10-15T14:02:06Z</time></trkpt><trkpt lat="36.485587" lon="30.517211"><ele>61.529</ele><time>2022-10-15T14:02:10Z</time></trkpt><trkpt lat="36.485628" lon="30.517234"><ele>62.800</ele><time>2022-10-15T14:02:13Z</time></trkpt><trkpt lat="36.485679" lon="30.517266"><ele>62.820</ele><time>2022-10-15T14:02:18Z</time></trkpt><trkpt lat="36.485735" lon="30.517263"><ele>62.809</ele><time>2022-10-15T14:02:22Z</time></trkpt><trkpt lat="36.485784" lon="30.517242"><ele>62.083</ele><time>2022-10-15T14:02:26Z</time></trkpt><trkpt lat="36.485829" lon="30.517222"><ele>61.283</ele><time>2022-10-15T14:02:31Z</time></trkpt><trkpt lat="36.485864" lon="30.517184"><ele>60.518</ele><time>2022-10-15T14:02:35Z</time></trkpt><trkpt lat="36.485899" lon="30.517135"><ele>59.865</ele><time>2022-10-15T14:02:40Z</time></trkpt><trkpt lat="36.485913" lon="30.517077"><ele>58.017</ele><time>2022-10-15T14:02:44Z</time></trkpt><trkpt lat="36.485947" lon="30.517012"><ele>58.063</ele><time>2022-10-15T14:02:48Z</time></trkpt><trkpt lat="36.485972" lon="30.516955"><ele>57.895</ele><time>2022-10-15T14:02:52Z</time></trkpt><trkpt lat="36.485995" lon="30.516891"><ele>58.479</ele><time>2022-10-15T14:02:56Z</time></trkpt><trkpt lat="36.486015" lon="30.516840"><ele>59.730</ele><time>2022-10-15T14:02:59Z</time></trkpt><trkpt lat="36.486041" lon="30.516793"><ele>60.196</ele><time>2022-10-15T14:03:02Z</time></trkpt><trkpt lat="36.486083" lon="30.516744"><ele>60.631</ele><time>2022-10-15T14:03:06Z</time></trkpt><trkpt lat="36.486111" lon="30.516698"><ele>60.824</ele><time>2022-10-15T14:03:09Z</time></trkpt><trkpt lat="36.486138" lon="30.516650"><ele>60.709</ele><time>2022-10-15T14:03:13Z</time></trkpt><trkpt lat="36.486182" lon="30.516629"><ele>60.880</ele><time>2022-10-15T14:03:17Z</time></trkpt><trkpt lat="36.486227" lon="30.516644"><ele>60.830</ele><time>2022-10-15T14:03:20Z</time></trkpt><trkpt lat="36.486267" lon="30.516677"><ele>60.895</ele><time>2022-10-15T14:03:23Z</time></trkpt><trkpt lat="36.486307" lon="30.516708"><ele>60.762</ele><time>2022-10-15T14:03:26Z</time></trkpt><trkpt lat="36.486341" lon="30.516755"><ele>60.534</ele><time>2022-10-15T14:03:29Z</time></trkpt><trkpt lat="36.486372" lon="30.516818"><ele>59.510</ele><time>2022-10-15T14:03:33Z</time></trkpt><trkpt lat="36.486415" lon="30.516868"><ele>59.332</ele><time>2022-10-15T14:03:37Z</time></trkpt><trkpt lat="36.486459" lon="30.516916"><ele>58.526</ele><time>2022-10-15T14:03:41Z</time></trkpt><trkpt lat="36.486493" lon="30.516955"><ele>58.497</ele><time>2022-10-15T14:03:44Z</time></trkpt><trkpt lat="36.486535" lon="30.517002"><ele>58.589</ele><time>2022-10-15T14:03:48Z</time></trkpt><trkpt lat="36.486560" lon="30.517050"><ele>58.806</ele><time>2022-10-15T14:03:51Z</time></trkpt><trkpt lat="36.486607" lon="30.517085"><ele>59.026</ele><time>2022-10-15T14:03:55Z</time></trkpt><trkpt lat="36.486652" lon="30.517120"><ele>59.009</ele><time>2022-10-15T14:03:59Z</time></trkpt><trkpt lat="36.486694" lon="30.517142"><ele>59.289</ele><time>2022-10-15T14:04:02Z</time></trkpt><trkpt lat="36.486727" lon="30.517184"><ele>59.029</ele><time>2022-10-15T14:04:05Z</time></trkpt><trkpt lat="36.486771" lon="30.517233"><ele>59.144</ele><time>2022-10-15T14:04:09Z</time></trkpt><trkpt lat="36.486810" lon="30.517263"><ele>59.161</ele><time>2022-10-15T14:04:12Z</time></trkpt><trkpt lat="36.486867" lon="30.517281"><ele>59.593</ele><time>2022-10-15T14:04:16Z</time></trkpt><trkpt lat="36.486923" lon="30.517295"><ele>60.219</ele><time>2022-10-15T14:04:20Z</time></trkpt><trkpt lat="36.486972" lon="30.517313"><ele>60.281</ele><time>2022-10-15T14:04:24Z</time></trkpt><trkpt lat="36.487021" lon="30.517302"><ele>58.175</ele><time>2022-10-15T14:06:32Z</time></trkpt><trkpt lat="36.487070" lon="30.517294"><ele>58.186</ele><time>2022-10-15T14:06:37Z</time></trkpt><trkpt lat="36.487117" lon="30.517298"><ele>58.166</ele><time>2022-10-15T14:06:41Z</time></trkpt><trkpt lat="36.487166" lon="30.517294"><ele>58.029</ele><time>2022-10-15T14:06:46Z</time></trkpt><trkpt lat="36.487218" lon="30.517283"><ele>54.821</ele><time>2022-10-15T14:06:52Z</time></trkpt><trkpt lat="36.487261" lon="30.517265"><ele>54.409</ele><time>2022-10-15T14:06:55Z</time></trkpt><trkpt lat="36.487310" lon="30.517244"><ele>54.767</ele><time>2022-10-15T14:06:59Z</time></trkpt><trkpt lat="36.487358" lon="30.517213"><ele>54.997</ele><time>2022-10-15T14:07:03Z</time></trkpt><trkpt lat="36.487401" lon="30.517191"><ele>55.172</ele><time>2022-10-15T14:07:07Z</time></trkpt><trkpt lat="36.487446" lon="30.517179"><ele>56.839</ele><time>2022-10-15T14:07:11Z</time></trkpt><trkpt lat="36.487483" lon="30.517130"><ele>56.911</ele><time>2022-10-15T14:07:15Z</time></trkpt><trkpt lat="36.487518" lon="30.517081"><ele>57.167</ele><time>2022-10-15T14:07:20Z</time></trkpt><trkpt lat="36.487558" lon="30.517047"><ele>56.889</ele><time>2022-10-15T14:07:24Z</time></trkpt><trkpt lat="36.487608" lon="30.517037"><ele>56.643</ele><time>2022-10-15T14:07:28Z</time></trkpt><trkpt lat="36.487647" lon="30.517082"><ele>55.974</ele><time>2022-10-15T14:07:32Z</time></trkpt><trkpt lat="36.487688" lon="30.517121"><ele>55.738</ele><time>2022-10-15T14:07:36Z</time></trkpt><trkpt lat="36.487710" lon="30.517173"><ele>55.670</ele><time>2022-10-15T14:07:40Z</time></trkpt><trkpt lat="36.487734" lon="30.517225"><ele>55.617</ele><time>2022-10-15T14:07:43Z</time></trkpt><trkpt lat="36.487748" lon="30.517289"><ele>55.609</ele><time>2022-10-15T14:07:47Z</time></trkpt><trkpt lat="36.487757" lon="30.517350"><ele>56.064</ele><time>2022-10-15T14:07:51Z</time></trkpt><trkpt lat="36.487776" lon="30.517407"><ele>58.164</ele><time>2022-10-15T14:07:55Z</time></trkpt><trkpt lat="36.487813" lon="30.517452"><ele>59.169</ele><time>2022-10-15T14:07:59Z</time></trkpt><trkpt lat="36.487848" lon="30.517495"><ele>59.416</ele><time>2022-10-15T14:08:03Z</time></trkpt><trkpt lat="36.487887" lon="30.517526"><ele>59.328</ele><time>2022-10-15T14:08:07Z</time></trkpt><trkpt lat="36.487936" lon="30.517542"><ele>59.354</ele><time>2022-10-15T14:08:11Z</time></trkpt><trkpt lat="36.487987" lon="30.517526"><ele>59.056</ele><time>2022-10-15T14:08:15Z</time></trkpt><trkpt lat="36.488041" lon="30.517503"><ele>58.380</ele><time>2022-10-15T14:08:19Z</time></trkpt><trkpt lat="36.488087" lon="30.517492"><ele>56.491</ele><time>2022-10-15T14:08:22Z</time></trkpt><trkpt lat="36.488136" lon="30.517474"><ele>55.652</ele><time>2022-10-15T14:08:26Z</time></trkpt><trkpt lat="36.488189" lon="30.517466"><ele>53.553</ele><time>2022-10-15T14:08:30Z</time></trkpt><trkpt lat="36.488242" lon="30.517464"><ele>52.608</ele><time>2022-10-15T14:08:34Z</time></trkpt><trkpt lat="36.488290" lon="30.517461"><ele>52.009</ele><time>2022-10-15T14:08:37Z</time></trkpt><trkpt lat="36.488336" lon="30.517494"><ele>51.866</ele><time>2022-10-15T14:08:41Z</time></trkpt><trkpt lat="36.488358" lon="30.517550"><ele>51.836</ele><time>2022-10-15T14:08:44Z</time></trkpt><trkpt lat="36.488347" lon="30.517609"><ele>51.881</ele><time>2022-10-15T14:08:47Z</time></trkpt><trkpt lat="36.488335" lon="30.517677"><ele>52.688</ele><time>2022-10-15T14:08:51Z</time></trkpt><trkpt lat="36.488334" lon="30.517738"><ele>53.690</ele><time>2022-10-15T14:08:54Z</time></trkpt><trkpt lat="36.488315" lon="30.517798"><ele>54.956</ele><time>2022-10-15T14:08:58Z</time></trkpt><trkpt lat="36.488293" lon="30.517850"><ele>55.348</ele><time>2022-10-15T14:09:01Z</time></trkpt><trkpt lat="36.488272" lon="30.517900"><ele>56.132</ele><time>2022-10-15T14:09:04Z</time></trkpt><trkpt lat="36.488245" lon="30.517946"><ele>56.473</ele><time>2022-10-15T14:09:07Z</time></trkpt><trkpt lat="36.488210" lon="30.517991"><ele>60.534</ele><time>2022-10-15T14:09:12Z</time></trkpt><trkpt lat="36.488179" lon="30.518042"><ele>63.255</ele><time>2022-10-15T14:09:17Z</time></trkpt><trkpt lat="36.488168" lon="30.518103"><ele>63.610</ele><time>2022-10-15T14:09:22Z</time></trkpt><trkpt lat="36.488155" lon="30.518159"><ele>63.609</ele><time>2022-10-15T14:09:26Z</time></trkpt><trkpt lat="36.488152" lon="30.518228"><ele>63.654</ele><time>2022-10-15T14:09:31Z</time></trkpt><trkpt lat="36.488143" lon="30.518286"><ele>63.644</ele><time>2022-10-15T14:09:35Z</time></trkpt><trkpt lat="36.488157" lon="30.518353"><ele>63.019</ele><time>2022-10-15T14:09:39Z</time></trkpt><trkpt lat="36.488160" lon="30.518422"><ele>62.856</ele><time>2022-10-15T14:09:43Z</time></trkpt><trkpt lat="36.488176" lon="30.518475"><ele>63.218</ele><time>2022-10-15T14:09:47Z</time></trkpt><trkpt lat="36.488175" lon="30.518544"><ele>65.174</ele><time>2022-10-15T14:09:51Z</time></trkpt><trkpt lat="36.488179" lon="30.518605"><ele>66.646</ele><time>2022-10-15T14:09:55Z</time></trkpt><trkpt lat="36.488200" lon="30.518664"><ele>67.840</ele><time>2022-10-15T14:09:59Z</time></trkpt><trkpt lat="36.488194" lon="30.518731"><ele>72.431</ele><time>2022-10-15T14:10:03Z</time></trkpt><trkpt lat="36.488174" lon="30.518786"><ele>72.665</ele><time>2022-10-15T14:10:06Z</time></trkpt><trkpt lat="36.488154" lon="30.518856"><ele>73.068</ele><time>2022-10-15T14:10:10Z</time></trkpt><trkpt lat="36.488131" lon="30.518908"><ele>73.514</ele><time>2022-10-15T14:10:14Z</time></trkpt><trkpt lat="36.488090" lon="30.518941"><ele>78.009</ele><time>2022-10-15T14:10:19Z</time></trkpt><trkpt lat="36.488044" lon="30.518980"><ele>80.987</ele><time>2022-10-15T14:10:23Z</time></trkpt><trkpt lat="36.488007" lon="30.519023"><ele>81.627</ele><time>2022-10-15T14:10:28Z</time></trkpt><trkpt lat="36.487977" lon="30.519076"><ele>83.742</ele><time>2022-10-15T14:10:33Z</time></trkpt><trkpt lat="36.487955" lon="30.519127"><ele>87.019</ele><time>2022-10-15T14:10:55Z</time></trkpt><trkpt lat="36.487979" lon="30.519187"><ele>87.041</ele><time>2022-10-15T14:11:05Z</time></trkpt><trkpt lat="36.488004" lon="30.519249"><ele>87.097</ele><time>2022-10-15T14:11:10Z</time></trkpt><trkpt lat="36.488041" lon="30.519295"><ele>87.049</ele><time>2022-10-15T14:11:14Z</time></trkpt><trkpt lat="36.488082" lon="30.519342"><ele>86.523</ele><time>2022-10-15T14:11:18Z</time></trkpt><trkpt lat="36.488102" lon="30.519397"><ele>73.784</ele><time>2022-10-15T14:11:22Z</time></trkpt><trkpt lat="36.488121" lon="30.519456"><ele>72.872</ele><time>2022-10-15T14:11:26Z</time></trkpt><trkpt lat="36.488129" lon="30.519523"><ele>72.313</ele><time>2022-10-15T14:11:30Z</time></trkpt><trkpt lat="36.488117" lon="30.519590"><ele>72.014</ele><time>2022-10-15T14:11:34Z</time></trkpt><trkpt lat="36.488103" lon="30.519664"><ele>71.909</ele><time>2022-10-15T14:11:38Z</time></trkpt><trkpt lat="36.488097" lon="30.519736"><ele>71.818</ele><time>2022-10-15T14:11:42Z</time></trkpt><trkpt lat="36.488103" lon="30.519802"><ele>71.818</ele><time>2022-10-15T14:11:46Z</time></trkpt><trkpt lat="36.488110" lon="30.519869"><ele>71.463</ele><time>2022-10-15T14:11:50Z</time></trkpt><trkpt lat="36.488099" lon="30.519937"><ele>70.960</ele><time>2022-10-15T14:11:54Z</time></trkpt><trkpt lat="36.488090" lon="30.520000"><ele>71.032</ele><time>2022-10-15T14:11:58Z</time></trkpt><trkpt lat="36.488092" lon="30.520056"><ele>71.038</ele><time>2022-10-15T14:12:01Z</time></trkpt><trkpt lat="36.488091" lon="30.520113"><ele>71.470</ele><time>2022-10-15T14:12:04Z</time></trkpt><trkpt lat="36.488092" lon="30.520184"><ele>71.974</ele><time>2022-10-15T14:12:08Z</time></trkpt><trkpt lat="36.488084" lon="30.520244"><ele>72.395</ele><time>2022-10-15T14:12:11Z</time></trkpt><trkpt lat="36.488060" lon="30.520300"><ele>73.353</ele><time>2022-10-15T14:12:15Z</time></trkpt><trkpt lat="36.488033" lon="30.520354"><ele>75.104</ele><time>2022-10-15T14:12:20Z</time></trkpt><trkpt lat="36.488038" lon="30.520418"><ele>75.114</ele><time>2022-10-15T14:12:24Z</time></trkpt><trkpt lat="36.488043" lon="30.520481"><ele>75.109</ele><time>2022-10-15T14:12:28Z</time></trkpt><trkpt lat="36.488047" lon="30.520553"><ele>72.796</ele><time>2022-10-15T14:12:32Z</time></trkpt><trkpt lat="36.488061" lon="30.520610"><ele>71.936</ele><time>2022-10-15T14:12:35Z</time></trkpt><trkpt lat="36.488066" lon="30.520672"><ele>71.351</ele><time>2022-10-15T14:12:39Z</time></trkpt><trkpt lat="36.488047" lon="30.520727"><ele>71.188</ele><time>2022-10-15T14:12:43Z</time></trkpt><trkpt lat="36.488043" lon="30.520792"><ele>70.930</ele><time>2022-10-15T14:12:47Z</time></trkpt><trkpt lat="36.488030" lon="30.520853"><ele>69.466</ele><time>2022-10-15T14:12:51Z</time></trkpt><trkpt lat="36.488028" lon="30.520920"><ele>68.798</ele><time>2022-10-15T14:12:55Z</time></trkpt><trkpt lat="36.488028" lon="30.520983"><ele>66.662</ele><time>2022-10-15T14:12:59Z</time></trkpt><trkpt lat="36.488017" lon="30.521047"><ele>66.263</ele><time>2022-10-15T14:13:03Z</time></trkpt><trkpt lat="36.488005" lon="30.521101"><ele>65.085</ele><time>2022-10-15T14:13:06Z</time></trkpt><trkpt lat="36.487961" lon="30.521150"><ele>63.889</ele><time>2022-10-15T14:13:10Z</time></trkpt><trkpt lat="36.487939" lon="30.521211"><ele>63.817</ele><time>2022-10-15T14:13:14Z</time></trkpt><trkpt lat="36.487950" lon="30.521283"><ele>63.109</ele><time>2022-10-15T14:13:18Z</time></trkpt><trkpt lat="36.488002" lon="30.521313"><ele>62.819</ele><time>2022-10-15T14:13:22Z</time></trkpt><trkpt lat="36.488047" lon="30.521276"><ele>62.749</ele><time>2022-10-15T14:13:25Z</time></trkpt><trkpt lat="36.488080" lon="30.521223"><ele>62.264</ele><time>2022-10-15T14:13:28Z</time></trkpt><trkpt lat="36.488118" lon="30.521183"><ele>61.291</ele><time>2022-10-15T14:13:31Z</time></trkpt><trkpt lat="36.488149" lon="30.521128"><ele>59.793</ele><time>2022-10-15T14:13:35Z</time></trkpt><trkpt lat="36.488178" lon="30.521063"><ele>59.189</ele><time>2022-10-15T14:13:39Z</time></trkpt><trkpt lat="36.488212" lon="30.521006"><ele>56.891</ele><time>2022-10-15T14:13:43Z</time></trkpt><trkpt lat="36.488236" lon="30.520946"><ele>55.115</ele><time>2022-10-15T14:13:47Z</time></trkpt><trkpt lat="36.488263" lon="30.520882"><ele>54.476</ele><time>2022-10-15T14:13:51Z</time></trkpt><trkpt lat="36.488288" lon="30.520819"><ele>54.485</ele><time>2022-10-15T14:13:55Z</time></trkpt><trkpt lat="36.488314" lon="30.520771"><ele>54.489</ele><time>2022-10-15T14:13:58Z</time></trkpt><trkpt lat="36.488352" lon="30.520734"><ele>56.017</ele><time>2022-10-15T14:14:01Z</time></trkpt><trkpt lat="36.488392" lon="30.520685"><ele>56.409</ele><time>2022-10-15T14:14:05Z</time></trkpt><trkpt lat="36.488424" lon="30.520635"><ele>56.699</ele><time>2022-10-15T14:14:09Z</time></trkpt><trkpt lat="36.488449" lon="30.520569"><ele>57.179</ele><time>2022-10-15T14:14:13Z</time></trkpt><trkpt lat="36.488482" lon="30.520513"><ele>57.644</ele><time>2022-10-15T14:14:17Z</time></trkpt><trkpt lat="36.488508" lon="30.520449"><ele>57.981</ele><time>2022-10-15T14:14:21Z</time></trkpt><trkpt lat="36.488526" lon="30.520385"><ele>58.493</ele><time>2022-10-15T14:14:25Z</time></trkpt><trkpt lat="36.488552" lon="30.520337"><ele>58.659</ele><time>2022-10-15T14:14:28Z</time></trkpt><trkpt lat="36.488584" lon="30.520293"><ele>59.131</ele><time>2022-10-15T14:14:32Z</time></trkpt><trkpt lat="36.488629" lon="30.520267"><ele>59.475</ele><time>2022-10-15T14:14:36Z</time></trkpt><trkpt lat="36.488675" lon="30.520263"><ele>59.446</ele><time>2022-10-15T14:14:40Z</time></trkpt><trkpt lat="36.488727" lon="30.520263"><ele>59.323</ele><time>2022-10-15T14:14:44Z</time></trkpt><trkpt lat="36.488780" lon="30.520254"><ele>59.183</ele><time>2022-10-15T14:14:48Z</time></trkpt><trkpt lat="36.488833" lon="30.520228"><ele>58.911</ele><time>2022-10-15T14:14:53Z</time></trkpt><trkpt lat="36.488870" lon="30.520183"><ele>58.309</ele><time>2022-10-15T14:14:57Z</time></trkpt><trkpt lat="36.488901" lon="30.520130"><ele>57.253</ele><time>2022-10-15T14:15:01Z</time></trkpt><trkpt lat="36.488927" lon="30.520075"><ele>56.243</ele><time>2022-10-15T14:15:05Z</time></trkpt><trkpt lat="36.488953" lon="30.520014"><ele>54.658</ele><time>2022-10-15T14:15:09Z</time></trkpt><trkpt lat="36.488973" lon="30.519952"><ele>53.575</ele><time>2022-10-15T14:15:13Z</time></trkpt><trkpt lat="36.488974" lon="30.519886"><ele>53.037</ele><time>2022-10-15T14:15:17Z</time></trkpt><trkpt lat="36.488970" lon="30.519828"><ele>52.643</ele><time>2022-10-15T14:15:21Z</time></trkpt><trkpt lat="36.488961" lon="30.519765"><ele>52.095</ele><time>2022-10-15T14:15:25Z</time></trkpt><trkpt lat="36.488987" lon="30.519707"><ele>51.789</ele><time>2022-10-15T14:15:29Z</time></trkpt><trkpt lat="36.489033" lon="30.519675"><ele>51.010</ele><time>2022-10-15T14:15:32Z</time></trkpt><trkpt lat="36.489071" lon="30.519642"><ele>50.398</ele><time>2022-10-15T14:15:35Z</time></trkpt><trkpt lat="36.489112" lon="30.519601"><ele>49.615</ele><time>2022-10-15T14:15:39Z</time></trkpt><trkpt lat="36.489150" lon="30.519556"><ele>48.926</ele><time>2022-10-15T14:15:43Z</time></trkpt><trkpt lat="36.489188" lon="30.519499"><ele>48.909</ele><time>2022-10-15T14:15:47Z</time></trkpt><trkpt lat="36.489226" lon="30.519468"><ele>48.910</ele><time>2022-10-15T14:15:50Z</time></trkpt><trkpt lat="36.489271" lon="30.519426"><ele>48.660</ele><time>2022-10-15T14:15:54Z</time></trkpt><trkpt lat="36.489317" lon="30.519417"><ele>48.345</ele><time>2022-10-15T14:15:57Z</time></trkpt><trkpt lat="36.489363" lon="30.519423"><ele>48.282</ele><time>2022-10-15T14:16:00Z</time></trkpt><trkpt lat="36.489415" lon="30.519444"><ele>48.364</ele><time>2022-10-15T14:16:04Z</time></trkpt><trkpt lat="36.489465" lon="30.519475"><ele>48.290</ele><time>2022-10-15T14:16:08Z</time></trkpt><trkpt lat="36.489497" lon="30.519515"><ele>47.962</ele><time>2022-10-15T14:16:11Z</time></trkpt><trkpt lat="36.489538" lon="30.519566"><ele>47.466</ele><time>2022-10-15T14:16:15Z</time></trkpt><trkpt lat="36.489589" lon="30.519613"><ele>46.447</ele><time>2022-10-15T14:16:19Z</time></trkpt><trkpt lat="36.489629" lon="30.519646"><ele>46.255</ele><time>2022-10-15T14:16:22Z</time></trkpt><trkpt lat="36.489676" lon="30.519657"><ele>46.207</ele><time>2022-10-15T14:16:25Z</time></trkpt><trkpt lat="36.489734" lon="30.519652"><ele>46.017</ele><time>2022-10-15T14:16:29Z</time></trkpt><trkpt lat="36.489779" lon="30.519637"><ele>45.309</ele><time>2022-10-15T14:16:32Z</time></trkpt><trkpt lat="36.489830" lon="30.519600"><ele>45.676</ele><time>2022-10-15T14:16:36Z</time></trkpt><trkpt lat="36.489873" lon="30.519577"><ele>45.846</ele><time>2022-10-15T14:16:39Z</time></trkpt><trkpt lat="36.489920" lon="30.519545"><ele>45.871</ele><time>2022-10-15T14:16:43Z</time></trkpt><trkpt lat="36.489974" lon="30.519534"><ele>47.528</ele><time>2022-10-15T14:16:47Z</time></trkpt><trkpt lat="36.490027" lon="30.519532"><ele>48.160</ele><time>2022-10-15T14:16:52Z</time></trkpt><trkpt lat="36.490077" lon="30.519543"><ele>48.366</ele><time>2022-10-15T14:16:56Z</time></trkpt><trkpt lat="36.490122" lon="30.519558"><ele>46.458</ele><time>2022-10-15T14:17:49Z</time></trkpt><trkpt lat="36.490164" lon="30.519531"><ele>46.452</ele><time>2022-10-15T14:17:52Z</time></trkpt><trkpt lat="36.490223" lon="30.519527"><ele>46.413</ele><time>2022-10-15T14:17:56Z</time></trkpt><trkpt lat="36.490271" lon="30.519557"><ele>46.445</ele><time>2022-10-15T14:18:01Z</time></trkpt><trkpt lat="36.490315" lon="30.519606"><ele>46.247</ele><time>2022-10-15T14:18:05Z</time></trkpt><trkpt lat="36.490344" lon="30.519650"><ele>42.611</ele><time>2022-10-15T14:18:08Z</time></trkpt><trkpt lat="36.490357" lon="30.519720"><ele>42.609</ele><time>2022-10-15T14:18:12Z</time></trkpt><trkpt lat="36.490327" lon="30.519783"><ele>44.865</ele><time>2022-10-15T14:18:16Z</time></trkpt><trkpt lat="36.490298" lon="30.519838"><ele>45.855</ele><time>2022-10-15T14:18:20Z</time></trkpt><trkpt lat="36.490269" lon="30.519897"><ele>47.430</ele><time>2022-10-15T14:18:24Z</time></trkpt><trkpt lat="36.490226" lon="30.519935"><ele>48.037</ele><time>2022-10-15T14:18:28Z</time></trkpt><trkpt lat="36.490199" lon="30.519993"><ele>48.089</ele><time>2022-10-15T14:18:32Z</time></trkpt><trkpt lat="36.490195" lon="30.520065"><ele>47.885</ele><time>2022-10-15T14:18:36Z</time></trkpt><trkpt lat="36.490187" lon="30.520139"><ele>47.237</ele><time>2022-10-15T14:18:40Z</time></trkpt><trkpt lat="36.490174" lon="30.520207"><ele>45.281</ele><time>2022-10-15T14:18:44Z</time></trkpt><trkpt lat="36.490160" lon="30.520274"><ele>43.122</ele><time>2022-10-15T14:18:49Z</time></trkpt><trkpt lat="36.490161" lon="30.520346"><ele>42.115</ele><time>2022-10-15T14:18:53Z</time></trkpt><trkpt lat="36.490162" lon="30.520417"><ele>40.265</ele><time>2022-10-15T14:18:57Z</time></trkpt><trkpt lat="36.490173" lon="30.520474"><ele>40.011</ele><time>2022-10-15T14:19:00Z</time></trkpt><trkpt lat="36.490187" lon="30.520538"><ele>39.709</ele><time>2022-10-15T14:19:04Z</time></trkpt><trkpt lat="36.490182" lon="30.520606"><ele>39.352</ele><time>2022-10-15T14:19:08Z</time></trkpt><trkpt lat="36.490177" lon="30.520671"><ele>39.142</ele><time>2022-10-15T14:19:12Z</time></trkpt><trkpt lat="36.490149" lon="30.520734"><ele>38.657</ele><time>2022-10-15T14:19:16Z</time></trkpt><trkpt lat="36.490118" lon="30.520793"><ele>38.464</ele><time>2022-10-15T14:19:20Z</time></trkpt><trkpt lat="36.490114" lon="30.520855"><ele>38.316</ele><time>2022-10-15T14:19:24Z</time></trkpt><trkpt lat="36.490104" lon="30.520913"><ele>37.322</ele><time>2022-10-15T14:19:28Z</time></trkpt><trkpt lat="36.490107" lon="30.520978"><ele>36.224</ele><time>2022-10-15T14:19:32Z</time></trkpt><trkpt lat="36.490103" lon="30.521039"><ele>36.028</ele><time>2022-10-15T14:19:37Z</time></trkpt><trkpt lat="36.490107" lon="30.521096"><ele>36.029</ele><time>2022-10-15T14:19:40Z</time></trkpt><trkpt lat="36.490120" lon="30.521165"><ele>36.445</ele><time>2022-10-15T14:19:44Z</time></trkpt><trkpt lat="36.490146" lon="30.521219"><ele>36.747</ele><time>2022-10-15T14:19:48Z</time></trkpt><trkpt lat="36.490169" lon="30.521276"><ele>37.111</ele><time>2022-10-15T14:19:51Z</time></trkpt><trkpt lat="36.490193" lon="30.521327"><ele>37.209</ele><time>2022-10-15T14:19:54Z</time></trkpt><trkpt lat="36.490216" lon="30.521375"><ele>37.295</ele><time>2022-10-15T14:19:58Z</time></trkpt><trkpt lat="36.490251" lon="30.521429"><ele>37.165</ele><time>2022-10-15T14:20:02Z</time></trkpt><trkpt lat="36.490281" lon="30.521474"><ele>36.970</ele><time>2022-10-15T14:20:05Z</time></trkpt><trkpt lat="36.490324" lon="30.521491"><ele>35.917</ele><time>2022-10-15T14:20:09Z</time></trkpt><trkpt lat="36.490367" lon="30.521520"><ele>35.589</ele><time>2022-10-15T14:20:12Z</time></trkpt><trkpt lat="36.490409" lon="30.521541"><ele>34.565</ele><time>2022-10-15T14:20:15Z</time></trkpt><trkpt lat="36.490464" lon="30.521540"><ele>33.527</ele><time>2022-10-15T14:20:19Z</time></trkpt><trkpt lat="36.490455" lon="30.521481"><ele>31.891</ele><time>2022-10-15T14:20:47Z</time></trkpt><trkpt lat="36.490473" lon="30.521534"><ele>31.542</ele><time>2022-10-15T14:21:18Z</time></trkpt><trkpt lat="36.490502" lon="30.521580"><ele>31.234</ele><time>2022-10-15T14:21:29Z</time></trkpt><trkpt lat="36.490521" lon="30.521641"><ele>30.855</ele><time>2022-10-15T14:21:32Z</time></trkpt><trkpt lat="36.490566" lon="30.521656"><ele>30.810</ele><time>2022-10-15T14:21:38Z</time></trkpt><trkpt lat="36.490602" lon="30.521622"><ele>30.909</ele><time>2022-10-15T14:21:42Z</time></trkpt><trkpt lat="36.490638" lon="30.521576"><ele>30.094</ele><time>2022-10-15T14:21:46Z</time></trkpt><trkpt lat="36.490687" lon="30.521552"><ele>27.214</ele><time>2022-10-15T14:21:51Z</time></trkpt><trkpt lat="36.490732" lon="30.521514"><ele>26.299</ele><time>2022-10-15T14:21:56Z</time></trkpt><trkpt lat="36.490770" lon="30.521478"><ele>25.486</ele><time>2022-10-15T14:22:02Z</time></trkpt><trkpt lat="36.490809" lon="30.521441"><ele>24.168</ele><time>2022-10-15T14:22:07Z</time></trkpt><trkpt lat="36.490853" lon="30.521403"><ele>22.524</ele><time>2022-10-15T14:22:12Z</time></trkpt><trkpt lat="36.490902" lon="30.521397"><ele>22.356</ele><time>2022-10-15T14:22:14Z</time></trkpt><trkpt lat="36.490947" lon="30.521381"><ele>22.010</ele><time>2022-10-15T14:22:17Z</time></trkpt><trkpt lat="36.490991" lon="30.521353"><ele>21.951</ele><time>2022-10-15T14:22:21Z</time></trkpt><trkpt lat="36.491032" lon="30.521312"><ele>23.184</ele><time>2022-10-15T14:22:26Z</time></trkpt><trkpt lat="36.491077" lon="30.521287"><ele>23.307</ele><time>2022-10-15T14:22:30Z</time></trkpt><trkpt lat="36.491123" lon="30.521266"><ele>23.417</ele><time>2022-10-15T14:22:34Z</time></trkpt><trkpt lat="36.491162" lon="30.521234"><ele>23.609</ele><time>2022-10-15T14:22:37Z</time></trkpt><trkpt lat="36.491214" lon="30.521205"><ele>23.919</ele><time>2022-10-15T14:22:42Z</time></trkpt><trkpt lat="36.491260" lon="30.521182"><ele>24.629</ele><time>2022-10-15T14:22:47Z</time></trkpt><trkpt lat="36.491317" lon="30.521172"><ele>27.174</ele><time>2022-10-15T14:22:51Z</time></trkpt><trkpt lat="36.491371" lon="30.521179"><ele>28.391</ele><time>2022-10-15T14:22:56Z</time></trkpt><trkpt lat="36.491420" lon="30.521184"><ele>30.723</ele><time>2022-10-15T14:23:00Z</time></trkpt><trkpt lat="36.491472" lon="30.521204"><ele>32.149</ele><time>2022-10-15T14:23:04Z</time></trkpt><trkpt lat="36.491515" lon="30.521249"><ele>32.761</ele><time>2022-10-15T14:23:08Z</time></trkpt><trkpt lat="36.491546" lon="30.521310"><ele>33.435</ele><time>2022-10-15T14:23:12Z</time></trkpt><trkpt lat="36.491572" lon="30.521373"><ele>35.136</ele><time>2022-10-15T14:23:17Z</time></trkpt><trkpt lat="36.491599" lon="30.521441"><ele>35.788</ele><time>2022-10-15T14:23:21Z</time></trkpt><trkpt lat="36.491615" lon="30.521494"><ele>36.024</ele><time>2022-10-15T14:23:24Z</time></trkpt><trkpt lat="36.491644" lon="30.521550"><ele>36.326</ele><time>2022-10-15T14:23:28Z</time></trkpt><trkpt lat="36.491627" lon="30.521603"><ele>36.309</ele><time>2022-10-15T14:23:34Z</time></trkpt><trkpt lat="36.491649" lon="30.521671"><ele>36.069</ele><time>2022-10-15T14:23:40Z</time></trkpt><trkpt lat="36.491649" lon="30.521735"><ele>35.719</ele><time>2022-10-15T14:23:45Z</time></trkpt><trkpt lat="36.491652" lon="30.521800"><ele>35.374</ele><time>2022-10-15T14:23:50Z</time></trkpt><trkpt lat="36.491660" lon="30.521863"><ele>35.181</ele><time>2022-10-15T14:23:54Z</time></trkpt><trkpt lat="36.491663" lon="30.521921"><ele>34.963</ele><time>2022-10-15T14:23:57Z</time></trkpt><trkpt lat="36.491681" lon="30.521976"><ele>34.979</ele><time>2022-10-15T14:24:00Z</time></trkpt><trkpt lat="36.491685" lon="30.522048"><ele>34.921</ele><time>2022-10-15T14:24:04Z</time></trkpt><trkpt lat="36.491684" lon="30.522112"><ele>35.015</ele><time>2022-10-15T14:24:08Z</time></trkpt><trkpt lat="36.491684" lon="30.522181"><ele>34.916</ele><time>2022-10-15T14:24:12Z</time></trkpt><trkpt lat="36.491708" lon="30.522237"><ele>34.535</ele><time>2022-10-15T14:24:16Z</time></trkpt><trkpt lat="36.491691" lon="30.522292"><ele>34.586</ele><time>2022-10-15T14:24:19Z</time></trkpt><trkpt lat="36.491683" lon="30.522357"><ele>34.514</ele><time>2022-10-15T14:24:23Z</time></trkpt><trkpt lat="36.491688" lon="30.522420"><ele>34.709</ele><time>2022-10-15T14:24:27Z</time></trkpt><trkpt lat="36.491698" lon="30.522480"><ele>34.894</ele><time>2022-10-15T14:24:31Z</time></trkpt><trkpt lat="36.491691" lon="30.522544"><ele>36.174</ele><time>2022-10-15T14:24:35Z</time></trkpt><trkpt lat="36.491684" lon="30.522605"><ele>36.549</ele><time>2022-10-15T14:24:39Z</time></trkpt><trkpt lat="36.491686" lon="30.522665"><ele>36.746</ele><time>2022-10-15T14:24:43Z</time></trkpt><trkpt lat="36.491689" lon="30.522727"><ele>36.978</ele><time>2022-10-15T14:24:47Z</time></trkpt><trkpt lat="36.491695" lon="30.522788"><ele>36.974</ele><time>2022-10-15T14:24:51Z</time></trkpt><trkpt lat="36.491708" lon="30.522853"><ele>36.936</ele><time>2022-10-15T14:24:55Z</time></trkpt><trkpt lat="36.491717" lon="30.522922"><ele>37.010</ele><time>2022-10-15T14:24:59Z</time></trkpt><trkpt lat="36.491735" lon="30.522987"><ele>37.091</ele><time>2022-10-15T14:25:03Z</time></trkpt><trkpt lat="36.491771" lon="30.523044"><ele>37.093</ele><time>2022-10-15T14:25:07Z</time></trkpt><trkpt lat="36.491795" lon="30.523107"><ele>37.465</ele><time>2022-10-15T14:25:11Z</time></trkpt><trkpt lat="36.491814" lon="30.523167"><ele>37.521</ele><time>2022-10-15T14:25:15Z</time></trkpt><trkpt lat="36.491836" lon="30.523231"><ele>37.809</ele><time>2022-10-15T14:25:20Z</time></trkpt><trkpt lat="36.491877" lon="30.523271"><ele>37.970</ele><time>2022-10-15T14:25:23Z</time></trkpt><trkpt lat="36.491923" lon="30.523309"><ele>38.430</ele><time>2022-10-15T14:25:26Z</time></trkpt><trkpt lat="36.491970" lon="30.523354"><ele>39.735</ele><time>2022-10-15T14:25:30Z</time></trkpt><trkpt lat="36.492015" lon="30.523372"><ele>41.232</ele><time>2022-10-15T14:25:33Z</time></trkpt><trkpt lat="36.492074" lon="30.523379"><ele>43.014</ele><time>2022-10-15T14:25:37Z</time></trkpt><trkpt lat="36.492125" lon="30.523365"><ele>43.470</ele><time>2022-10-15T14:25:41Z</time></trkpt><trkpt lat="36.492170" lon="30.523343"><ele>43.482</ele><time>2022-10-15T14:25:44Z</time></trkpt><trkpt lat="36.492223" lon="30.523332"><ele>43.256</ele><time>2022-10-15T14:25:48Z</time></trkpt><trkpt lat="36.492275" lon="30.523321"><ele>41.937</ele><time>2022-10-15T14:25:52Z</time></trkpt><trkpt lat="36.492320" lon="30.523315"><ele>41.799</ele><time>2022-10-15T14:25:56Z</time></trkpt><trkpt lat="36.492374" lon="30.523309"><ele>41.407</ele><time>2022-10-15T14:26:01Z</time></trkpt><trkpt lat="36.492422" lon="30.523294"><ele>41.427</ele><time>2022-10-15T14:26:05Z</time></trkpt><trkpt lat="36.492471" lon="30.523277"><ele>41.409</ele><time>2022-10-15T14:26:10Z</time></trkpt><trkpt lat="36.492520" lon="30.523276"><ele>41.490</ele><time>2022-10-15T14:26:14Z</time></trkpt><trkpt lat="36.492566" lon="30.523271"><ele>41.320</ele><time>2022-10-15T14:26:18Z</time></trkpt><trkpt lat="36.492618" lon="30.523281"><ele>41.315</ele><time>2022-10-15T14:26:24Z</time></trkpt><trkpt lat="36.492672" lon="30.523264"><ele>41.092</ele><time>2022-10-15T14:26:30Z</time></trkpt><trkpt lat="36.492738" lon="30.523249"><ele>40.774</ele><time>2022-10-15T14:26:33Z</time></trkpt><trkpt lat="36.492790" lon="30.523239"><ele>40.550</ele><time>2022-10-15T14:26:36Z</time></trkpt><trkpt lat="36.492847" lon="30.523243"><ele>39.752</ele><time>2022-10-15T14:26:40Z</time></trkpt><trkpt lat="36.492897" lon="30.523230"><ele>38.956</ele><time>2022-10-15T14:26:44Z</time></trkpt><trkpt lat="36.492954" lon="30.523215"><ele>38.317</ele><time>2022-10-15T14:26:48Z</time></trkpt><trkpt lat="36.493003" lon="30.523196"><ele>38.082</ele><time>2022-10-15T14:26:52Z</time></trkpt><trkpt lat="36.493058" lon="30.523201"><ele>38.043</ele><time>2022-10-15T14:26:57Z</time></trkpt><trkpt lat="36.493107" lon="30.523191"><ele>38.317</ele><time>2022-10-15T14:27:00Z</time></trkpt><trkpt lat="36.493168" lon="30.523186"><ele>38.209</ele><time>2022-10-15T14:27:04Z</time></trkpt><trkpt lat="36.493221" lon="30.523191"><ele>38.059</ele><time>2022-10-15T14:27:08Z</time></trkpt><trkpt lat="36.493272" lon="30.523209"><ele>38.029</ele><time>2022-10-15T14:27:13Z</time></trkpt><trkpt lat="36.493319" lon="30.523212"><ele>34.564</ele><time>2022-10-15T14:27:17Z</time></trkpt><trkpt lat="36.493367" lon="30.523208"><ele>33.651</ele><time>2022-10-15T14:27:21Z</time></trkpt><trkpt lat="36.493427" lon="30.523221"><ele>33.033</ele><time>2022-10-15T14:27:25Z</time></trkpt><trkpt lat="36.493470" lon="30.523248"><ele>32.459</ele><time>2022-10-15T14:27:28Z</time></trkpt><trkpt lat="36.493500" lon="30.523297"><ele>28.461</ele><time>2022-10-15T14:27:32Z</time></trkpt><trkpt lat="36.493505" lon="30.523358"><ele>27.115</ele><time>2022-10-15T14:27:36Z</time></trkpt><trkpt lat="36.493517" lon="30.523422"><ele>26.716</ele><time>2022-10-15T14:27:40Z</time></trkpt><trkpt lat="36.493539" lon="30.523483"><ele>25.658</ele><time>2022-10-15T14:27:44Z</time></trkpt><trkpt lat="36.493561" lon="30.523548"><ele>24.652</ele><time>2022-10-15T14:27:48Z</time></trkpt><trkpt lat="36.493568" lon="30.523607"><ele>24.017</ele><time>2022-10-15T14:27:52Z</time></trkpt><trkpt lat="36.493588" lon="30.523669"><ele>22.709</ele><time>2022-10-15T14:27:56Z</time></trkpt><trkpt lat="36.493606" lon="30.523730"><ele>22.396</ele><time>2022-10-15T14:28:00Z</time></trkpt><trkpt lat="36.493644" lon="30.523786"><ele>21.266</ele><time>2022-10-15T14:28:04Z</time></trkpt><trkpt lat="36.493663" lon="30.523838"><ele>20.821</ele><time>2022-10-15T14:28:07Z</time></trkpt><trkpt lat="36.493696" lon="30.523890"><ele>20.018</ele><time>2022-10-15T14:28:11Z</time></trkpt><trkpt lat="36.493717" lon="30.523944"><ele>20.040</ele><time>2022-10-15T14:28:17Z</time></trkpt><trkpt lat="36.493738" lon="30.524018"><ele>19.416</ele><time>2022-10-15T14:28:22Z</time></trkpt><trkpt lat="36.493769" lon="30.524067"><ele>19.118</ele><time>2022-10-15T14:28:25Z</time></trkpt><trkpt lat="36.493796" lon="30.524129"><ele>18.522</ele><time>2022-10-15T14:28:29Z</time></trkpt><trkpt lat="36.493829" lon="30.524183"><ele>17.373</ele><time>2022-10-15T14:28:33Z</time></trkpt><trkpt lat="36.493867" lon="30.524234"><ele>16.044</ele><time>2022-10-15T14:28:37Z</time></trkpt><trkpt lat="36.493904" lon="30.524287"><ele>15.205</ele><time>2022-10-15T14:28:41Z</time></trkpt><trkpt lat="36.493948" lon="30.524335"><ele>15.215</ele><time>2022-10-15T14:28:45Z</time></trkpt><trkpt lat="36.493990" lon="30.524364"><ele>15.309</ele><time>2022-10-15T14:28:49Z</time></trkpt><trkpt lat="36.494037" lon="30.524395"><ele>16.225</ele><time>2022-10-15T14:28:53Z</time></trkpt><trkpt lat="36.494084" lon="30.524425"><ele>17.555</ele><time>2022-10-15T14:28:57Z</time></trkpt><trkpt lat="36.494123" lon="30.524463"><ele>17.690</ele><time>2022-10-15T14:29:01Z</time></trkpt><trkpt lat="36.494168" lon="30.524494"><ele>18.197</ele><time>2022-10-15T14:29:05Z</time></trkpt><trkpt lat="36.494218" lon="30.524530"><ele>18.569</ele><time>2022-10-15T14:29:09Z</time></trkpt><trkpt lat="36.494264" lon="30.524553"><ele>18.415</ele><time>2022-10-15T14:29:13Z</time></trkpt><trkpt lat="36.494298" lon="30.524597"><ele>19.137</ele><time>2022-10-15T14:29:17Z</time></trkpt><trkpt lat="36.494340" lon="30.524627"><ele>19.211</ele><time>2022-10-15T14:29:21Z</time></trkpt><trkpt lat="36.494378" lon="30.524676"><ele>19.222</ele><time>2022-10-15T14:29:25Z</time></trkpt><trkpt lat="36.494423" lon="30.524716"><ele>19.225</ele><time>2022-10-15T14:29:29Z</time></trkpt><trkpt lat="36.494472" lon="30.524750"><ele>19.426</ele><time>2022-10-15T14:29:33Z</time></trkpt><trkpt lat="36.494513" lon="30.524782"><ele>19.208</ele><time>2022-10-15T14:29:37Z</time></trkpt><trkpt lat="36.494549" lon="30.524816"><ele>19.209</ele><time>2022-10-15T14:29:41Z</time></trkpt><trkpt lat="36.494588" lon="30.524862"><ele>19.293</ele><time>2022-10-15T14:29:45Z</time></trkpt><trkpt lat="36.494632" lon="30.524901"><ele>19.153</ele><time>2022-10-15T14:29:49Z</time></trkpt><trkpt lat="36.494671" lon="30.524947"><ele>19.098</ele><time>2022-10-15T14:29:53Z</time></trkpt><trkpt lat="36.494710" lon="30.524986"><ele>18.415</ele><time>2022-10-15T14:29:57Z</time></trkpt><trkpt lat="36.494746" lon="30.525027"><ele>17.847</ele><time>2022-10-15T14:30:01Z</time></trkpt><trkpt lat="36.494788" lon="30.525055"><ele>17.853</ele><time>2022-10-15T14:30:04Z</time></trkpt><trkpt lat="36.494833" lon="30.525103"><ele>17.835</ele><time>2022-10-15T14:30:08Z</time></trkpt><trkpt lat="36.494876" lon="30.525147"><ele>18.359</ele><time>2022-10-15T14:30:12Z</time></trkpt><trkpt lat="36.494926" lon="30.525173"><ele>18.950</ele><time>2022-10-15T14:30:16Z</time></trkpt><trkpt lat="36.494975" lon="30.525192"><ele>19.432</ele><time>2022-10-15T14:30:20Z</time></trkpt><trkpt lat="36.495016" lon="30.525220"><ele>19.292</ele><time>2022-10-15T14:30:23Z</time></trkpt><trkpt lat="36.495062" lon="30.525242"><ele>19.211</ele><time>2022-10-15T14:30:27Z</time></trkpt><trkpt lat="36.495108" lon="30.525279"><ele>17.409</ele><time>2022-10-15T14:30:31Z</time></trkpt><trkpt lat="36.495150" lon="30.525326"><ele>16.824</ele><time>2022-10-15T14:30:35Z</time></trkpt><trkpt lat="36.495203" lon="30.525365"><ele>16.164</ele><time>2022-10-15T14:30:39Z</time></trkpt><trkpt lat="36.495242" lon="30.525399"><ele>15.499</ele><time>2022-10-15T14:30:42Z</time></trkpt><trkpt lat="36.495284" lon="30.525426"><ele>15.326</ele><time>2022-10-15T14:30:46Z</time></trkpt><trkpt lat="36.495321" lon="30.525464"><ele>14.988</ele><time>2022-10-15T14:30:51Z</time></trkpt><trkpt lat="36.495366" lon="30.525501"><ele>14.814</ele><time>2022-10-15T14:30:55Z</time></trkpt><trkpt lat="36.495416" lon="30.525534"><ele>14.656</ele><time>2022-10-15T14:30:59Z</time></trkpt><trkpt lat="36.495459" lon="30.525575"><ele>14.230</ele><time>2022-10-15T14:31:03Z</time></trkpt><trkpt lat="36.495485" lon="30.525625"><ele>14.161</ele><time>2022-10-15T14:31:07Z</time></trkpt><trkpt lat="36.495520" lon="30.525672"><ele>14.161</ele><time>2022-10-15T14:31:11Z</time></trkpt><trkpt lat="36.495566" lon="30.525701"><ele>14.221</ele><time>2022-10-15T14:31:15Z</time></trkpt><trkpt lat="36.495609" lon="30.525734"><ele>16.013</ele><time>2022-10-15T14:31:19Z</time></trkpt><trkpt lat="36.495666" lon="30.525759"><ele>16.209</ele><time>2022-10-15T14:31:23Z</time></trkpt><trkpt lat="36.495704" lon="30.525801"><ele>16.567</ele><time>2022-10-15T14:31:26Z</time></trkpt><trkpt lat="36.495747" lon="30.525821"><ele>17.267</ele><time>2022-10-15T14:31:30Z</time></trkpt><trkpt lat="36.495796" lon="30.525853"><ele>19.262</ele><time>2022-10-15T14:31:34Z</time></trkpt><trkpt lat="36.495836" lon="30.525884"><ele>19.489</ele><time>2022-10-15T14:31:38Z</time></trkpt><trkpt lat="36.495878" lon="30.525923"><ele>19.551</ele><time>2022-10-15T14:31:42Z</time></trkpt><trkpt lat="36.495925" lon="30.525954"><ele>19.657</ele><time>2022-10-15T14:31:46Z</time></trkpt><trkpt lat="36.495972" lon="30.525992"><ele>19.549</ele><time>2022-10-15T14:31:50Z</time></trkpt><trkpt lat="36.496018" lon="30.526024"><ele>19.683</ele><time>2022-10-15T14:31:54Z</time></trkpt><trkpt lat="36.496061" lon="30.526053"><ele>19.634</ele><time>2022-10-15T14:31:58Z</time></trkpt><trkpt lat="36.496088" lon="30.526098"><ele>19.814</ele><time>2022-10-15T14:32:13Z</time></trkpt><trkpt lat="36.496132" lon="30.526118"><ele>19.954</ele><time>2022-10-15T14:32:17Z</time></trkpt><trkpt lat="36.496176" lon="30.526163"><ele>20.009</ele><time>2022-10-15T14:32:21Z</time></trkpt><trkpt lat="36.496202" lon="30.526210"><ele>20.409</ele><time>2022-10-15T14:32:24Z</time></trkpt><trkpt lat="36.496244" lon="30.526237"><ele>20.582</ele><time>2022-10-15T14:32:28Z</time></trkpt><trkpt lat="36.496294" lon="30.526267"><ele>22.812</ele><time>2022-10-15T14:32:32Z</time></trkpt><trkpt lat="36.496341" lon="30.526295"><ele>23.757</ele><time>2022-10-15T14:32:35Z</time></trkpt><trkpt lat="36.496387" lon="30.526331"><ele>24.344</ele><time>2022-10-15T14:32:39Z</time></trkpt><trkpt lat="36.496435" lon="30.526341"><ele>24.676</ele><time>2022-10-15T14:32:43Z</time></trkpt><trkpt lat="36.496488" lon="30.526357"><ele>25.012</ele><time>2022-10-15T14:32:47Z</time></trkpt><trkpt lat="36.496530" lon="30.526380"><ele>25.084</ele><time>2022-10-15T14:32:51Z</time></trkpt><trkpt lat="36.496574" lon="30.526410"><ele>25.038</ele><time>2022-10-15T14:32:55Z</time></trkpt><trkpt lat="36.496612" lon="30.526440"><ele>23.489</ele><time>2022-10-15T14:32:59Z</time></trkpt><trkpt lat="36.496643" lon="30.526484"><ele>21.224</ele><time>2022-10-15T14:33:03Z</time></trkpt><trkpt lat="36.496689" lon="30.526517"><ele>20.404</ele><time>2022-10-15T14:33:08Z</time></trkpt><trkpt lat="36.496735" lon="30.526527"><ele>20.414</ele><time>2022-10-15T14:33:13Z</time></trkpt><trkpt lat="36.496774" lon="30.526558"><ele>20.409</ele><time>2022-10-15T14:33:17Z</time></trkpt><trkpt lat="36.496820" lon="30.526603"><ele>20.523</ele><time>2022-10-15T14:33:21Z</time></trkpt><trkpt lat="36.496863" lon="30.526637"><ele>21.653</ele><time>2022-10-15T14:33:25Z</time></trkpt><trkpt lat="36.496912" lon="30.526673"><ele>22.178</ele><time>2022-10-15T14:33:29Z</time></trkpt><trkpt lat="36.496953" lon="30.526703"><ele>22.225</ele><time>2022-10-15T14:33:33Z</time></trkpt><trkpt lat="36.497003" lon="30.526730"><ele>21.987</ele><time>2022-10-15T14:33:37Z</time></trkpt><trkpt lat="36.497039" lon="30.526780"><ele>21.083</ele><time>2022-10-15T14:33:41Z</time></trkpt><trkpt lat="36.497086" lon="30.526816"><ele>20.575</ele><time>2022-10-15T14:33:45Z</time></trkpt><trkpt lat="36.497114" lon="30.526873"><ele>19.089</ele><time>2022-10-15T14:33:49Z</time></trkpt><trkpt lat="36.497157" lon="30.526910"><ele>18.760</ele><time>2022-10-15T14:33:53Z</time></trkpt><trkpt lat="36.497183" lon="30.526974"><ele>18.728</ele><time>2022-10-15T14:33:57Z</time></trkpt><trkpt lat="36.497194" lon="30.527034"><ele>18.889</ele><time>2022-10-15T14:34:01Z</time></trkpt><trkpt lat="36.497219" lon="30.527090"><ele>19.617</ele><time>2022-10-15T14:34:05Z</time></trkpt><trkpt lat="36.497237" lon="30.527147"><ele>21.709</ele><time>2022-10-15T14:34:09Z</time></trkpt><trkpt lat="36.497279" lon="30.527191"><ele>23.553</ele><time>2022-10-15T14:34:13Z</time></trkpt><trkpt lat="36.497317" lon="30.527239"><ele>25.373</ele><time>2022-10-15T14:34:17Z</time></trkpt><trkpt lat="36.497352" lon="30.527284"><ele>25.588</ele><time>2022-10-15T14:34:21Z</time></trkpt><trkpt lat="36.497388" lon="30.527334"><ele>25.595</ele><time>2022-10-15T14:34:25Z</time></trkpt><trkpt lat="36.497432" lon="30.527368"><ele>25.557</ele><time>2022-10-15T14:34:29Z</time></trkpt><trkpt lat="36.497475" lon="30.527399"><ele>24.823</ele><time>2022-10-15T14:34:33Z</time></trkpt><trkpt lat="36.497508" lon="30.527448"><ele>23.315</ele><time>2022-10-15T14:34:37Z</time></trkpt><trkpt lat="36.497532" lon="30.527507"><ele>22.919</ele><time>2022-10-15T14:34:41Z</time></trkpt><trkpt lat="36.497557" lon="30.527554"><ele>22.510</ele><time>2022-10-15T14:34:45Z</time></trkpt><trkpt lat="36.497600" lon="30.527599"><ele>22.771</ele><time>2022-10-15T14:34:49Z</time></trkpt><trkpt lat="36.497628" lon="30.527648"><ele>23.941</ele><time>2022-10-15T14:34:53Z</time></trkpt><trkpt lat="36.497666" lon="30.527690"><ele>24.715</ele><time>2022-10-15T14:34:57Z</time></trkpt><trkpt lat="36.497713" lon="30.527729"><ele>24.809</ele><time>2022-10-15T14:35:01Z</time></trkpt><trkpt lat="36.497757" lon="30.527766"><ele>24.868</ele><time>2022-10-15T14:35:05Z</time></trkpt><trkpt lat="36.497796" lon="30.527814"><ele>24.618</ele><time>2022-10-15T14:35:09Z</time></trkpt><trkpt lat="36.497843" lon="30.527852"><ele>20.913</ele><time>2022-10-15T14:35:13Z</time></trkpt><trkpt lat="36.497886" lon="30.527887"><ele>19.810</ele><time>2022-10-15T14:35:17Z</time></trkpt><trkpt lat="36.497926" lon="30.527932"><ele>18.972</ele><time>2022-10-15T14:35:21Z</time></trkpt><trkpt lat="36.497959" lon="30.527978"><ele>19.158</ele><time>2022-10-15T14:35:25Z</time></trkpt><trkpt lat="36.497994" lon="30.528020"><ele>19.150</ele><time>2022-10-15T14:35:29Z</time></trkpt><trkpt lat="36.498033" lon="30.528060"><ele>19.714</ele><time>2022-10-15T14:35:34Z</time></trkpt><trkpt lat="36.498057" lon="30.528110"><ele>21.715</ele><time>2022-10-15T14:35:38Z</time></trkpt><trkpt lat="36.498095" lon="30.528161"><ele>23.595</ele><time>2022-10-15T14:35:42Z</time></trkpt><trkpt lat="36.498129" lon="30.528210"><ele>24.149</ele><time>2022-10-15T14:35:46Z</time></trkpt><trkpt lat="36.498169" lon="30.528253"><ele>24.323</ele><time>2022-10-15T14:35:50Z</time></trkpt><trkpt lat="36.498196" lon="30.528308"><ele>24.009</ele><time>2022-10-15T14:36:13Z</time></trkpt><trkpt lat="36.498232" lon="30.528356"><ele>24.080</ele><time>2022-10-15T14:36:17Z</time></trkpt><trkpt lat="36.498269" lon="30.528396"><ele>24.010</ele><time>2022-10-15T14:36:21Z</time></trkpt><trkpt lat="36.498301" lon="30.528451"><ele>24.075</ele><time>2022-10-15T14:36:26Z</time></trkpt><trkpt lat="36.498323" lon="30.528507"><ele>24.662</ele><time>2022-10-15T14:36:32Z</time></trkpt><trkpt lat="36.498307" lon="30.528447"><ele>24.994</ele><time>2022-10-15T14:38:01Z</time></trkpt><trkpt lat="36.498337" lon="30.528505"><ele>23.360</ele><time>2022-10-15T14:38:21Z</time></trkpt><trkpt lat="36.498352" lon="30.528558"><ele>22.622</ele><time>2022-10-15T14:38:25Z</time></trkpt><trkpt lat="36.498387" lon="30.528608"><ele>21.756</ele><time>2022-10-15T14:38:30Z</time></trkpt><trkpt lat="36.498423" lon="30.528643"><ele>20.827</ele><time>2022-10-15T14:38:34Z</time></trkpt><trkpt lat="36.498465" lon="30.528684"><ele>20.838</ele><time>2022-10-15T14:38:38Z</time></trkpt><trkpt lat="36.498512" lon="30.528693"><ele>20.370</ele><time>2022-10-15T14:38:42Z</time></trkpt><trkpt lat="36.498559" lon="30.528671"><ele>20.317</ele><time>2022-10-15T14:38:47Z</time></trkpt><trkpt lat="36.498607" lon="30.528646"><ele>20.309</ele><time>2022-10-15T14:38:51Z</time></trkpt><trkpt lat="36.498655" lon="30.528634"><ele>20.514</ele><time>2022-10-15T14:38:55Z</time></trkpt><trkpt lat="36.498691" lon="30.528593"><ele>20.794</ele><time>2022-10-15T14:39:00Z</time></trkpt><trkpt lat="36.498719" lon="30.528541"><ele>20.539</ele><time>2022-10-15T14:39:05Z</time></trkpt><trkpt lat="36.498770" lon="30.528503"><ele>19.626</ele><time>2022-10-15T14:39:10Z</time></trkpt><trkpt lat="36.498813" lon="30.528485"><ele>18.098</ele><time>2022-10-15T14:39:14Z</time></trkpt><trkpt lat="36.498858" lon="30.528453"><ele>18.054</ele><time>2022-10-15T14:39:18Z</time></trkpt><trkpt lat="36.498891" lon="30.528413"><ele>17.986</ele><time>2022-10-15T14:39:21Z</time></trkpt><trkpt lat="36.498918" lon="30.528348"><ele>23.140</ele><time>2022-10-15T14:44:35Z</time></trkpt><trkpt lat="36.498953" lon="30.528304"><ele>23.291</ele><time>2022-10-15T14:44:40Z</time></trkpt><trkpt lat="36.498993" lon="30.528262"><ele>25.758</ele><time>2022-10-15T14:44:45Z</time></trkpt><trkpt lat="36.499026" lon="30.528224"><ele>26.152</ele><time>2022-10-15T14:44:50Z</time></trkpt><trkpt lat="36.499060" lon="30.528165"><ele>26.617</ele><time>2022-10-15T14:44:55Z</time></trkpt><trkpt lat="36.499093" lon="30.528125"><ele>26.709</ele><time>2022-10-15T14:44:59Z</time></trkpt><trkpt lat="36.499139" lon="30.528101"><ele>26.076</ele><time>2022-10-15T14:45:04Z</time></trkpt><trkpt lat="36.499178" lon="30.528069"><ele>25.886</ele><time>2022-10-15T14:45:08Z</time></trkpt><trkpt lat="36.499223" lon="30.528038"><ele>25.491</ele><time>2022-10-15T14:45:13Z</time></trkpt><trkpt lat="36.499275" lon="30.527989"><ele>23.238</ele><time>2022-10-15T14:45:17Z</time></trkpt><trkpt lat="36.499324" lon="30.527961"><ele>21.070</ele><time>2022-10-15T14:45:21Z</time></trkpt><trkpt lat="36.499360" lon="30.527926"><ele>20.016</ele><time>2022-10-15T14:45:25Z</time></trkpt><trkpt lat="36.499404" lon="30.527900"><ele>19.398</ele><time>2022-10-15T14:45:29Z</time></trkpt><trkpt lat="36.499445" lon="30.527875"><ele>17.892</ele><time>2022-10-15T14:45:32Z</time></trkpt><trkpt lat="36.499481" lon="30.527837"><ele>17.773</ele><time>2022-10-15T14:45:36Z</time></trkpt><trkpt lat="36.499513" lon="30.527778"><ele>17.715</ele><time>2022-10-15T14:45:39Z</time></trkpt><trkpt lat="36.499548" lon="30.527731"><ele>17.965</ele><time>2022-10-15T14:45:43Z</time></trkpt><trkpt lat="36.499578" lon="30.527684"><ele>22.211</ele><time>2022-10-15T14:45:47Z</time></trkpt><trkpt lat="36.499623" lon="30.527650"><ele>24.309</ele><time>2022-10-15T14:45:51Z</time></trkpt><trkpt lat="36.499670" lon="30.527621"><ele>24.822</ele><time>2022-10-15T14:45:56Z</time></trkpt><trkpt lat="36.499713" lon="30.527605"><ele>24.992</ele><time>2022-10-15T14:46:00Z</time></trkpt><trkpt lat="36.499761" lon="30.527592"><ele>25.597</ele><time>2022-10-15T14:46:04Z</time></trkpt><trkpt lat="36.499807" lon="30.527563"><ele>26.064</ele><time>2022-10-15T14:46:08Z</time></trkpt><trkpt lat="36.499854" lon="30.527523"><ele>26.376</ele><time>2022-10-15T14:46:12Z</time></trkpt><trkpt lat="36.499900" lon="30.527485"><ele>26.882</ele><time>2022-10-15T14:46:17Z</time></trkpt><trkpt lat="36.499943" lon="30.527454"><ele>28.094</ele><time>2022-10-15T14:46:21Z</time></trkpt><trkpt lat="36.499990" lon="30.527423"><ele>28.098</ele><time>2022-10-15T14:46:25Z</time></trkpt><trkpt lat="36.500034" lon="30.527398"><ele>28.279</ele><time>2022-10-15T14:46:29Z</time></trkpt><trkpt lat="36.500080" lon="30.527371"><ele>27.891</ele><time>2022-10-15T14:46:33Z</time></trkpt><trkpt lat="36.500126" lon="30.527342"><ele>27.881</ele><time>2022-10-15T14:46:37Z</time></trkpt><trkpt lat="36.500168" lon="30.527307"><ele>27.619</ele><time>2022-10-15T14:46:41Z</time></trkpt><trkpt lat="36.500215" lon="30.527273"><ele>27.509</ele><time>2022-10-15T14:46:45Z</time></trkpt><trkpt lat="36.500254" lon="30.527244"><ele>27.520</ele><time>2022-10-15T14:46:49Z</time></trkpt><trkpt lat="36.500301" lon="30.527230"><ele>27.490</ele><time>2022-10-15T14:46:53Z</time></trkpt><trkpt lat="36.500344" lon="30.527210"><ele>27.075</ele><time>2022-10-15T14:46:57Z</time></trkpt><trkpt lat="36.500383" lon="30.527178"><ele>27.372</ele><time>2022-10-15T14:47:01Z</time></trkpt><trkpt lat="36.500433" lon="30.527159"><ele>27.464</ele><time>2022-10-15T14:47:05Z</time></trkpt><trkpt lat="36.500477" lon="30.527135"><ele>29.390</ele><time>2022-10-15T14:47:09Z</time></trkpt><trkpt lat="36.500522" lon="30.527099"><ele>30.692</ele><time>2022-10-15T14:47:13Z</time></trkpt><trkpt lat="36.500557" lon="30.527062"><ele>30.936</ele><time>2022-10-15T14:47:16Z</time></trkpt><trkpt lat="36.500602" lon="30.527030"><ele>31.147</ele><time>2022-10-15T14:47:20Z</time></trkpt><trkpt lat="36.500649" lon="30.527015"><ele>31.169</ele><time>2022-10-15T14:47:24Z</time></trkpt><trkpt lat="36.500695" lon="30.526993"><ele>30.104</ele><time>2022-10-15T14:47:28Z</time></trkpt><trkpt lat="36.500743" lon="30.526977"><ele>29.824</ele><time>2022-10-15T14:47:32Z</time></trkpt><trkpt lat="36.500795" lon="30.526941"><ele>29.509</ele><time>2022-10-15T14:47:36Z</time></trkpt><trkpt lat="36.500848" lon="30.526928"><ele>29.897</ele><time>2022-10-15T14:47:41Z</time></trkpt><trkpt lat="36.500902" lon="30.526911"><ele>30.247</ele><time>2022-10-15T14:47:46Z</time></trkpt><trkpt lat="36.500950" lon="30.526890"><ele>30.742</ele><time>2022-10-15T14:47:50Z</time></trkpt><trkpt lat="36.500997" lon="30.526859"><ele>31.479</ele><time>2022-10-15T14:47:54Z</time></trkpt><trkpt lat="36.501042" lon="30.526839"><ele>31.851</ele><time>2022-10-15T14:47:58Z</time></trkpt><trkpt lat="36.501090" lon="30.526815"><ele>32.927</ele><time>2022-10-15T14:48:02Z</time></trkpt><trkpt lat="36.501135" lon="30.526793"><ele>33.779</ele><time>2022-10-15T14:48:06Z</time></trkpt><trkpt lat="36.501181" lon="30.526767"><ele>33.743</ele><time>2022-10-15T14:48:10Z</time></trkpt><trkpt lat="36.501227" lon="30.526748"><ele>33.694</ele><time>2022-10-15T14:48:14Z</time></trkpt><trkpt lat="36.501280" lon="30.526735"><ele>32.541</ele><time>2022-10-15T14:48:19Z</time></trkpt><trkpt lat="36.501337" lon="30.526736"><ele>31.381</ele><time>2022-10-15T14:48:23Z</time></trkpt><trkpt lat="36.501392" lon="30.526719"><ele>30.809</ele><time>2022-10-15T14:48:27Z</time></trkpt><trkpt lat="36.501439" lon="30.526713"><ele>30.609</ele><time>2022-10-15T14:48:31Z</time></trkpt><trkpt lat="36.501491" lon="30.526700"><ele>30.465</ele><time>2022-10-15T14:48:35Z</time></trkpt><trkpt lat="36.501541" lon="30.526669"><ele>30.435</ele><time>2022-10-15T14:48:39Z</time></trkpt><trkpt lat="36.501587" lon="30.526642"><ele>30.820</ele><time>2022-10-15T14:48:43Z</time></trkpt><trkpt lat="36.501632" lon="30.526624"><ele>31.287</ele><time>2022-10-15T14:48:47Z</time></trkpt><trkpt lat="36.501676" lon="30.526586"><ele>31.919</ele><time>2022-10-15T14:48:51Z</time></trkpt><trkpt lat="36.501724" lon="30.526565"><ele>32.115</ele><time>2022-10-15T14:48:55Z</time></trkpt><trkpt lat="36.501773" lon="30.526549"><ele>32.237</ele><time>2022-10-15T14:48:59Z</time></trkpt><trkpt lat="36.501824" lon="30.526537"><ele>33.571</ele><time>2022-10-15T14:49:03Z</time></trkpt><trkpt lat="36.501876" lon="30.526548"><ele>34.272</ele><time>2022-10-15T14:49:07Z</time></trkpt><trkpt lat="36.501926" lon="30.526540"><ele>34.946</ele><time>2022-10-15T14:49:11Z</time></trkpt><trkpt lat="36.501978" lon="30.526546"><ele>34.988</ele><time>2022-10-15T14:49:15Z</time></trkpt><trkpt lat="36.502025" lon="30.526528"><ele>34.916</ele><time>2022-10-15T14:49:19Z</time></trkpt><trkpt lat="36.502070" lon="30.526493"><ele>31.909</ele><time>2022-10-15T14:49:23Z</time></trkpt><trkpt lat="36.502117" lon="30.526458"><ele>31.655</ele><time>2022-10-15T14:49:28Z</time></trkpt><trkpt lat="36.502152" lon="30.526411"><ele>31.655</ele><time>2022-10-15T14:49:32Z</time></trkpt><trkpt lat="36.502170" lon="30.526347"><ele>31.410</ele><time>2022-10-15T14:49:36Z</time></trkpt><trkpt lat="36.502188" lon="30.526290"><ele>31.937</ele><time>2022-10-15T14:49:40Z</time></trkpt><trkpt lat="36.502222" lon="30.526249"><ele>32.139</ele><time>2022-10-15T14:49:44Z</time></trkpt><trkpt lat="36.502261" lon="30.526203"><ele>32.395</ele><time>2022-10-15T14:49:48Z</time></trkpt><trkpt lat="36.502295" lon="30.526163"><ele>32.177</ele><time>2022-10-15T14:49:52Z</time></trkpt><trkpt lat="36.502335" lon="30.526116"><ele>32.091</ele><time>2022-10-15T14:49:57Z</time></trkpt><trkpt lat="36.502364" lon="30.526074"><ele>31.262</ele><time>2022-10-15T14:50:01Z</time></trkpt><trkpt lat="36.502396" lon="30.526027"><ele>30.915</ele><time>2022-10-15T14:50:05Z</time></trkpt><trkpt lat="36.502428" lon="30.525987"><ele>30.965</ele><time>2022-10-15T14:50:09Z</time></trkpt><trkpt lat="36.502472" lon="30.525948"><ele>30.611</ele><time>2022-10-15T14:50:13Z</time></trkpt><trkpt lat="36.502510" lon="30.525914"><ele>30.309</ele><time>2022-10-15T14:50:17Z</time></trkpt><trkpt lat="36.502546" lon="30.525865"><ele>30.172</ele><time>2022-10-15T14:50:21Z</time></trkpt><trkpt lat="36.502584" lon="30.525815"><ele>28.822</ele><time>2022-10-15T14:50:25Z</time></trkpt><trkpt lat="36.502623" lon="30.525770"><ele>28.857</ele><time>2022-10-15T14:50:29Z</time></trkpt><trkpt lat="36.502657" lon="30.525726"><ele>28.984</ele><time>2022-10-15T14:50:33Z</time></trkpt><trkpt lat="36.502699" lon="30.525670"><ele>29.876</ele><time>2022-10-15T14:50:37Z</time></trkpt><trkpt lat="36.502738" lon="30.525629"><ele>30.752</ele><time>2022-10-15T14:50:41Z</time></trkpt><trkpt lat="36.502782" lon="30.525600"><ele>31.144</ele><time>2022-10-15T14:50:46Z</time></trkpt><trkpt lat="36.502817" lon="30.525564"><ele>31.028</ele><time>2022-10-15T14:50:50Z</time></trkpt><trkpt lat="36.502854" lon="30.525523"><ele>31.059</ele><time>2022-10-15T14:50:54Z</time></trkpt><trkpt lat="36.502891" lon="30.525479"><ele>30.726</ele><time>2022-10-15T14:50:58Z</time></trkpt><trkpt lat="36.502928" lon="30.525434"><ele>30.247</ele><time>2022-10-15T14:51:02Z</time></trkpt><trkpt lat="36.502969" lon="30.525399"><ele>29.311</ele><time>2022-10-15T14:51:06Z</time></trkpt><trkpt lat="36.503014" lon="30.525368"><ele>28.609</ele><time>2022-10-15T14:51:10Z</time></trkpt><trkpt lat="36.503055" lon="30.525329"><ele>28.353</ele><time>2022-10-15T14:51:14Z</time></trkpt><trkpt lat="36.503091" lon="30.525286"><ele>27.933</ele><time>2022-10-15T14:51:18Z</time></trkpt><trkpt lat="36.503124" lon="30.525236"><ele>27.388</ele><time>2022-10-15T14:51:22Z</time></trkpt><trkpt lat="36.503166" lon="30.525194"><ele>26.475</ele><time>2022-10-15T14:51:27Z</time></trkpt><trkpt lat="36.503203" lon="30.525159"><ele>25.917</ele><time>2022-10-15T14:51:30Z</time></trkpt><trkpt lat="36.503242" lon="30.525118"><ele>25.943</ele><time>2022-10-15T14:51:34Z</time></trkpt><trkpt lat="36.503282" lon="30.525070"><ele>26.515</ele><time>2022-10-15T14:51:38Z</time></trkpt><trkpt lat="36.503321" lon="30.525032"><ele>27.399</ele><time>2022-10-15T14:51:42Z</time></trkpt><trkpt lat="36.503362" lon="30.524999"><ele>27.940</ele><time>2022-10-15T14:51:46Z</time></trkpt><trkpt lat="36.503400" lon="30.524957"><ele>31.052</ele><time>2022-10-15T14:51:50Z</time></trkpt><trkpt lat="36.503440" lon="30.524908"><ele>32.253</ele><time>2022-10-15T14:51:54Z</time></trkpt><trkpt lat="36.503474" lon="30.524856"><ele>32.508</ele><time>2022-10-15T14:51:58Z</time></trkpt><trkpt lat="36.503505" lon="30.524807"><ele>32.809</ele><time>2022-10-15T14:52:02Z</time></trkpt><trkpt lat="36.503540" lon="30.524751"><ele>32.456</ele><time>2022-10-15T14:52:07Z</time></trkpt><trkpt lat="36.503581" lon="30.524701"><ele>32.086</ele><time>2022-10-15T14:52:11Z</time></trkpt><trkpt lat="36.503611" lon="30.524651"><ele>31.661</ele><time>2022-10-15T14:52:15Z</time></trkpt><trkpt lat="36.503647" lon="30.524610"><ele>31.428</ele><time>2022-10-15T14:52:19Z</time></trkpt><trkpt lat="36.503680" lon="30.524570"><ele>30.940</ele><time>2022-10-15T14:52:23Z</time></trkpt><trkpt lat="36.503718" lon="30.524523"><ele>30.856</ele><time>2022-10-15T14:52:27Z</time></trkpt><trkpt lat="36.503750" lon="30.524469"><ele>30.828</ele><time>2022-10-15T14:52:31Z</time></trkpt><trkpt lat="36.503780" lon="30.524413"><ele>30.942</ele><time>2022-10-15T14:52:35Z</time></trkpt><trkpt lat="36.503820" lon="30.524365"><ele>30.913</ele><time>2022-10-15T14:52:39Z</time></trkpt><trkpt lat="36.503860" lon="30.524332"><ele>31.544</ele><time>2022-10-15T14:52:43Z</time></trkpt><trkpt lat="36.503884" lon="30.524280"><ele>31.805</ele><time>2022-10-15T14:52:48Z</time></trkpt><trkpt lat="36.503930" lon="30.524245"><ele>31.615</ele><time>2022-10-15T14:52:52Z</time></trkpt><trkpt lat="36.503974" lon="30.524198"><ele>31.809</ele><time>2022-10-15T14:52:56Z</time></trkpt><trkpt lat="36.504005" lon="30.524157"><ele>31.895</ele><time>2022-10-15T14:52:59Z</time></trkpt><trkpt lat="36.504045" lon="30.524111"><ele>32.345</ele><time>2022-10-15T14:53:04Z</time></trkpt><trkpt lat="36.504084" lon="30.524065"><ele>31.540</ele><time>2022-10-15T14:53:09Z</time></trkpt><trkpt lat="36.504126" lon="30.524015"><ele>32.067</ele><time>2022-10-15T14:53:13Z</time></trkpt><trkpt lat="36.504167" lon="30.523978"><ele>32.949</ele><time>2022-10-15T14:53:17Z</time></trkpt><trkpt lat="36.504201" lon="30.523933"><ele>32.785</ele><time>2022-10-15T14:53:21Z</time></trkpt><trkpt lat="36.504235" lon="30.523895"><ele>32.887</ele><time>2022-10-15T14:53:25Z</time></trkpt><trkpt lat="36.504266" lon="30.523849"><ele>32.961</ele><time>2022-10-15T14:53:29Z</time></trkpt><trkpt lat="36.504299" lon="30.523807"><ele>33.352</ele><time>2022-10-15T14:53:32Z</time></trkpt><trkpt lat="36.504348" lon="30.523773"><ele>33.415</ele><time>2022-10-15T14:53:37Z</time></trkpt><trkpt lat="36.504392" lon="30.523727"><ele>33.465</ele><time>2022-10-15T14:53:41Z</time></trkpt><trkpt lat="36.504428" lon="30.523678"><ele>33.311</ele><time>2022-10-15T14:53:45Z</time></trkpt><trkpt lat="36.504472" lon="30.523639"><ele>33.109</ele><time>2022-10-15T14:53:49Z</time></trkpt><trkpt lat="36.504511" lon="30.523598"><ele>32.962</ele><time>2022-10-15T14:53:53Z</time></trkpt><trkpt lat="36.504535" lon="30.523548"><ele>32.592</ele><time>2022-10-15T14:53:57Z</time></trkpt><trkpt lat="36.504580" lon="30.523512"><ele>32.197</ele><time>2022-10-15T14:54:01Z</time></trkpt><trkpt lat="36.504624" lon="30.523474"><ele>31.684</ele><time>2022-10-15T14:54:05Z</time></trkpt><trkpt lat="36.504668" lon="30.523443"><ele>31.376</ele><time>2022-10-15T14:54:09Z</time></trkpt><trkpt lat="36.504718" lon="30.523408"><ele>30.782</ele><time>2022-10-15T14:54:13Z</time></trkpt><trkpt lat="36.504761" lon="30.523375"><ele>29.844</ele><time>2022-10-15T14:54:17Z</time></trkpt><trkpt lat="36.504797" lon="30.523336"><ele>28.718</ele><time>2022-10-15T14:54:21Z</time></trkpt><trkpt lat="36.504834" lon="30.523293"><ele>27.899</ele><time>2022-10-15T14:54:25Z</time></trkpt><trkpt lat="36.504868" lon="30.523248"><ele>27.557</ele><time>2022-10-15T14:54:29Z</time></trkpt><trkpt lat="36.504913" lon="30.523236"><ele>27.400</ele><time>2022-10-15T14:54:32Z</time></trkpt><trkpt lat="36.504956" lon="30.523216"><ele>27.420</ele><time>2022-10-15T14:54:35Z</time></trkpt><trkpt lat="36.504988" lon="30.523165"><ele>28.109</ele><time>2022-10-15T14:54:39Z</time></trkpt><trkpt lat="36.505023" lon="30.523119"><ele>28.416</ele><time>2022-10-15T14:54:43Z</time></trkpt><trkpt lat="36.505069" lon="30.523088"><ele>30.046</ele><time>2022-10-15T14:54:47Z</time></trkpt><trkpt lat="36.505117" lon="30.523063"><ele>31.011</ele><time>2022-10-15T14:54:52Z</time></trkpt><trkpt lat="36.505158" lon="30.523021"><ele>31.798</ele><time>2022-10-15T14:54:56Z</time></trkpt><trkpt lat="36.505193" lon="30.522971"><ele>32.090</ele><time>2022-10-15T14:55:01Z</time></trkpt><trkpt lat="36.505242" lon="30.522954"><ele>32.146</ele><time>2022-10-15T14:55:05Z</time></trkpt><trkpt lat="36.505288" lon="30.522925"><ele>32.328</ele><time>2022-10-15T14:55:09Z</time></trkpt><trkpt lat="36.505317" lon="30.522871"><ele>32.442</ele><time>2022-10-15T14:55:13Z</time></trkpt><trkpt lat="36.505357" lon="30.522826"><ele>32.863</ele><time>2022-10-15T14:55:17Z</time></trkpt><trkpt lat="36.505404" lon="30.522792"><ele>35.252</ele><time>2022-10-15T14:55:21Z</time></trkpt><trkpt lat="36.505452" lon="30.522759"><ele>35.353</ele><time>2022-10-15T14:55:26Z</time></trkpt><trkpt lat="36.505499" lon="30.522720"><ele>35.408</ele><time>2022-10-15T14:55:30Z</time></trkpt><trkpt lat="36.505542" lon="30.522684"><ele>35.309</ele><time>2022-10-15T14:55:35Z</time></trkpt><trkpt lat="36.505584" lon="30.522654"><ele>34.926</ele><time>2022-10-15T14:55:40Z</time></trkpt><trkpt lat="36.505636" lon="30.522634"><ele>34.386</ele><time>2022-10-15T14:55:45Z</time></trkpt><trkpt lat="36.505672" lon="30.522585"><ele>33.861</ele><time>2022-10-15T14:55:49Z</time></trkpt><trkpt lat="36.505713" lon="30.522550"><ele>33.898</ele><time>2022-10-15T14:55:53Z</time></trkpt><trkpt lat="36.505755" lon="30.522518"><ele>33.830</ele><time>2022-10-15T14:55:57Z</time></trkpt><trkpt lat="36.505763" lon="30.522460"><ele>34.916</ele><time>2022-10-15T14:56:08Z</time></trkpt><trkpt lat="36.505806" lon="30.522432"><ele>35.138</ele><time>2022-10-15T14:56:29Z</time></trkpt></trkseg></trk></gpx>